<?xml version="1.0" encoding="UTF-8" standalone="no" ?>
<gpx xmlns="http://www.topografix.com/GPX/1/1" xmlns:xsi="http://www.w3.org/2001/XMLSchema-instance" xsi:schemaLocation="http://www.topografix.com/GPX/1/1 http://www.topografix.com/GPX/1/1/gpx.xsd" version="1.1" creator="VisuGPX - https://www.visugpx.com">
  <metadata>
    <name>la Trace Verte Beaujolaise 2010</name>
    <desc><![CDATA[Randonnée VTT  circuit 44km - organisée le 13 juin 2010 par :
http://vttvillefranche.beau.free.fr/]]></desc>
  </metadata>
  <trk>
    <name><![CDATA[Trace Verte Beaujolaise]]></name>
    <cmt><![CDATA[avec Anthony
bon ravitos - sac+bouteille de beaujolais!
http://vttvillefranche.beau.free.fr/]]></cmt>
    <trkseg>
      <trkpt lat="46" lon="4.71146">
        <ele>188.07507324219</ele>
        <time>2010-06-13T06:11:12Z</time>
      </trkpt>
      <trkpt lat="46.00002" lon="4.71145">
        <ele>184.71057128906</ele>
        <time>2010-06-13T06:11:13Z</time>
      </trkpt>
      <trkpt lat="46.00004" lon="4.71145">
        <ele>184.71057128906</ele>
        <time>2010-06-13T06:11:14Z</time>
      </trkpt>
      <trkpt lat="46.00008" lon="4.71144">
        <ele>188.07507324219</ele>
        <time>2010-06-13T06:11:16Z</time>
      </trkpt>
      <trkpt lat="46.0001" lon="4.71144">
        <ele>188.07507324219</ele>
        <time>2010-06-13T06:11:17Z</time>
      </trkpt>
      <trkpt lat="46.00013" lon="4.71143">
        <ele>188.55578613281</ele>
        <time>2010-06-13T06:11:18Z</time>
      </trkpt>
      <trkpt lat="46.0003" lon="4.71147">
        <ele>188.07507324219</ele>
        <time>2010-06-13T06:11:23Z</time>
      </trkpt>
      <trkpt lat="46.00055" lon="4.71167">
        <ele>187.59436035156</ele>
        <time>2010-06-13T06:11:30Z</time>
      </trkpt>
      <trkpt lat="46.00059" lon="4.71169">
        <ele>187.59436035156</ele>
        <time>2010-06-13T06:11:31Z</time>
      </trkpt>
      <trkpt lat="46.00089" lon="4.71156">
        <ele>187.59436035156</ele>
        <time>2010-06-13T06:11:39Z</time>
      </trkpt>
      <trkpt lat="46.00107" lon="4.71142">
        <ele>187.59436035156</ele>
        <time>2010-06-13T06:11:45Z</time>
      </trkpt>
      <trkpt lat="46.00108" lon="4.71135">
        <ele>187.11376953125</ele>
        <time>2010-06-13T06:11:48Z</time>
      </trkpt>
      <trkpt lat="46.00108" lon="4.71133">
        <ele>187.11376953125</ele>
        <time>2010-06-13T06:11:49Z</time>
      </trkpt>
      <trkpt lat="46.00107" lon="4.71115">
        <ele>187.11376953125</ele>
        <time>2010-06-13T06:11:58Z</time>
      </trkpt>
      <trkpt lat="46.00105" lon="4.71091">
        <ele>187.59436035156</ele>
        <time>2010-06-13T06:12:06Z</time>
      </trkpt>
      <trkpt lat="46.00103" lon="4.71078">
        <ele>188.07507324219</ele>
        <time>2010-06-13T06:12:09Z</time>
      </trkpt>
      <trkpt lat="46.0011" lon="4.71067">
        <ele>189.51696777344</ele>
        <time>2010-06-13T06:12:13Z</time>
      </trkpt>
      <trkpt lat="46.00113" lon="4.71066">
        <ele>189.51696777344</ele>
        <time>2010-06-13T06:12:14Z</time>
      </trkpt>
      <trkpt lat="46.00136" lon="4.71063">
        <ele>191.43957519531</ele>
        <time>2010-06-13T06:12:22Z</time>
      </trkpt>
      <trkpt lat="46.00153" lon="4.7106">
        <ele>191.92028808594</ele>
        <time>2010-06-13T06:12:29Z</time>
      </trkpt>
      <trkpt lat="46.00157" lon="4.71043">
        <ele>192.40112304688</ele>
        <time>2010-06-13T06:12:34Z</time>
      </trkpt>
      <trkpt lat="46.00156" lon="4.71012">
        <ele>192.40112304688</ele>
        <time>2010-06-13T06:12:40Z</time>
      </trkpt>
      <trkpt lat="46.00154" lon="4.70968">
        <ele>192.40112304688</ele>
        <time>2010-06-13T06:12:48Z</time>
      </trkpt>
      <trkpt lat="46.00154" lon="4.70919">
        <ele>192.88171386719</ele>
        <time>2010-06-13T06:12:56Z</time>
      </trkpt>
      <trkpt lat="46.00151" lon="4.70868">
        <ele>192.88171386719</ele>
        <time>2010-06-13T06:13:04Z</time>
      </trkpt>
      <trkpt lat="46.00143" lon="4.70826">
        <ele>192.88171386719</ele>
        <time>2010-06-13T06:13:11Z</time>
      </trkpt>
      <trkpt lat="46.00131" lon="4.70774">
        <ele>192.40112304688</ele>
        <time>2010-06-13T06:13:19Z</time>
      </trkpt>
      <trkpt lat="46.00121" lon="4.70734">
        <ele>192.40112304688</ele>
        <time>2010-06-13T06:13:25Z</time>
      </trkpt>
      <trkpt lat="46.00109" lon="4.70683">
        <ele>192.40112304688</ele>
        <time>2010-06-13T06:13:33Z</time>
      </trkpt>
      <trkpt lat="46.00101" lon="4.70637">
        <ele>192.88171386719</ele>
        <time>2010-06-13T06:13:41Z</time>
      </trkpt>
      <trkpt lat="46.00097" lon="4.70608">
        <ele>194.32373046875</ele>
        <time>2010-06-13T06:13:46Z</time>
      </trkpt>
      <trkpt lat="46.00101" lon="4.70586">
        <ele>194.80432128906</ele>
        <time>2010-06-13T06:13:50Z</time>
      </trkpt>
      <trkpt lat="46.00106" lon="4.70583">
        <ele>194.80432128906</ele>
        <time>2010-06-13T06:13:51Z</time>
      </trkpt>
      <trkpt lat="46.00131" lon="4.70562">
        <ele>194.80432128906</ele>
        <time>2010-06-13T06:13:57Z</time>
      </trkpt>
      <trkpt lat="46.00154" lon="4.70554">
        <ele>194.80432128906</ele>
        <time>2010-06-13T06:14:02Z</time>
      </trkpt>
      <trkpt lat="46.00171" lon="4.7054">
        <ele>195.28491210938</ele>
        <time>2010-06-13T06:14:06Z</time>
      </trkpt>
      <trkpt lat="46.00182" lon="4.70536">
        <ele>194.80432128906</ele>
        <time>2010-06-13T06:14:08Z</time>
      </trkpt>
      <trkpt lat="46.00224" lon="4.7053">
        <ele>194.80432128906</ele>
        <time>2010-06-13T06:14:16Z</time>
      </trkpt>
      <trkpt lat="46.00263" lon="4.70519">
        <ele>195.765625</ele>
        <time>2010-06-13T06:14:24Z</time>
      </trkpt>
      <trkpt lat="46.00293" lon="4.70509">
        <ele>195.765625</ele>
        <time>2010-06-13T06:14:31Z</time>
      </trkpt>
      <trkpt lat="46.00309" lon="4.70494">
        <ele>196.24633789062</ele>
        <time>2010-06-13T06:14:35Z</time>
      </trkpt>
      <trkpt lat="46.0031" lon="4.70487">
        <ele>195.28491210938</ele>
        <time>2010-06-13T06:14:36Z</time>
      </trkpt>
      <trkpt lat="46.00311" lon="4.70412">
        <ele>197.68823242188</ele>
        <time>2010-06-13T06:14:47Z</time>
      </trkpt>
      <trkpt lat="46.00312" lon="4.70369">
        <ele>198.64953613281</ele>
        <time>2010-06-13T06:14:54Z</time>
      </trkpt>
      <trkpt lat="46.00312" lon="4.70336">
        <ele>198.64953613281</ele>
        <time>2010-06-13T06:15:00Z</time>
      </trkpt>
      <trkpt lat="46.00312" lon="4.70308">
        <ele>199.61083984375</ele>
        <time>2010-06-13T06:15:05Z</time>
      </trkpt>
      <trkpt lat="46.00322" lon="4.703">
        <ele>200.09167480469</ele>
        <time>2010-06-13T06:15:09Z</time>
      </trkpt>
      <trkpt lat="46.00358" lon="4.70307">
        <ele>201.05285644531</ele>
        <time>2010-06-13T06:15:19Z</time>
      </trkpt>
      <trkpt lat="46.00385" lon="4.70309">
        <ele>202.01428222656</ele>
        <time>2010-06-13T06:15:27Z</time>
      </trkpt>
      <trkpt lat="46.00406" lon="4.70293">
        <ele>202.97546386719</ele>
        <time>2010-06-13T06:15:35Z</time>
      </trkpt>
      <trkpt lat="46.00431" lon="4.70274">
        <ele>204.41748046875</ele>
        <time>2010-06-13T06:15:45Z</time>
      </trkpt>
      <trkpt lat="46.00449" lon="4.70264">
        <ele>206.34008789062</ele>
        <time>2010-06-13T06:15:53Z</time>
      </trkpt>
      <trkpt lat="46.00459" lon="4.70251">
        <ele>207.30139160156</ele>
        <time>2010-06-13T06:15:59Z</time>
      </trkpt>
      <trkpt lat="46.00468" lon="4.70231">
        <ele>208.74340820312</ele>
        <time>2010-06-13T06:16:07Z</time>
      </trkpt>
      <trkpt lat="46.00476" lon="4.70209">
        <ele>211.62744140625</ele>
        <time>2010-06-13T06:16:16Z</time>
      </trkpt>
      <trkpt lat="46.00484" lon="4.70182">
        <ele>214.03063964844</ele>
        <time>2010-06-13T06:16:26Z</time>
      </trkpt>
      <trkpt lat="46.00489" lon="4.70158">
        <ele>215.47265625</ele>
        <time>2010-06-13T06:16:35Z</time>
      </trkpt>
      <trkpt lat="46.00495" lon="4.70132">
        <ele>217.8759765625</ele>
        <time>2010-06-13T06:16:45Z</time>
      </trkpt>
      <trkpt lat="46.005" lon="4.70103">
        <ele>220.75988769531</ele>
        <time>2010-06-13T06:16:55Z</time>
      </trkpt>
      <trkpt lat="46.00505" lon="4.70087">
        <ele>222.68249511719</ele>
        <time>2010-06-13T06:17:01Z</time>
      </trkpt>
      <trkpt lat="46.00514" lon="4.70088">
        <ele>223.16320800781</ele>
        <time>2010-06-13T06:17:05Z</time>
      </trkpt>
      <trkpt lat="46.00519" lon="4.70093">
        <ele>223.16320800781</ele>
        <time>2010-06-13T06:17:07Z</time>
      </trkpt>
      <trkpt lat="46.00537" lon="4.70106">
        <ele>222.68249511719</ele>
        <time>2010-06-13T06:17:14Z</time>
      </trkpt>
      <trkpt lat="46.00543" lon="4.70105">
        <ele>222.68249511719</ele>
        <time>2010-06-13T06:17:16Z</time>
      </trkpt>
      <trkpt lat="46.00545" lon="4.70095">
        <ele>223.64379882812</ele>
        <time>2010-06-13T06:17:20Z</time>
      </trkpt>
      <trkpt lat="46.00545" lon="4.70073">
        <ele>224.12451171875</ele>
        <time>2010-06-13T06:17:27Z</time>
      </trkpt>
      <trkpt lat="46.00547" lon="4.70054">
        <ele>225.0859375</ele>
        <time>2010-06-13T06:17:33Z</time>
      </trkpt>
      <trkpt lat="46.00549" lon="4.70029">
        <ele>225.56652832031</ele>
        <time>2010-06-13T06:17:41Z</time>
      </trkpt>
      <trkpt lat="46.00551" lon="4.70007">
        <ele>227.00854492188</ele>
        <time>2010-06-13T06:17:48Z</time>
      </trkpt>
      <trkpt lat="46.00554" lon="4.69983">
        <ele>227.48913574219</ele>
        <time>2010-06-13T06:17:56Z</time>
      </trkpt>
      <trkpt lat="46.00557" lon="4.69955">
        <ele>228.45043945312</ele>
        <time>2010-06-13T06:18:05Z</time>
      </trkpt>
      <trkpt lat="46.0057" lon="4.69951">
        <ele>228.93115234375</ele>
        <time>2010-06-13T06:18:10Z</time>
      </trkpt>
      <trkpt lat="46.00592" lon="4.69949">
        <ele>227.9697265625</ele>
        <time>2010-06-13T06:18:17Z</time>
      </trkpt>
      <trkpt lat="46.0062" lon="4.69948">
        <ele>227.00854492188</ele>
        <time>2010-06-13T06:18:25Z</time>
      </trkpt>
      <trkpt lat="46.00643" lon="4.69942">
        <ele>226.52783203125</ele>
        <time>2010-06-13T06:18:32Z</time>
      </trkpt>
      <trkpt lat="46.00646" lon="4.69941">
        <ele>227.00854492188</ele>
        <time>2010-06-13T06:18:33Z</time>
      </trkpt>
      <trkpt lat="46.00651" lon="4.69927">
        <ele>227.00854492188</ele>
        <time>2010-06-13T06:18:37Z</time>
      </trkpt>
      <trkpt lat="46.00651" lon="4.69922">
        <ele>227.00854492188</ele>
        <time>2010-06-13T06:18:38Z</time>
      </trkpt>
      <trkpt lat="46.00652" lon="4.69895">
        <ele>227.9697265625</ele>
        <time>2010-06-13T06:18:45Z</time>
      </trkpt>
      <trkpt lat="46.00649" lon="4.69871">
        <ele>228.93115234375</ele>
        <time>2010-06-13T06:18:52Z</time>
      </trkpt>
      <trkpt lat="46.00645" lon="4.69865">
        <ele>229.89233398438</ele>
        <time>2010-06-13T06:18:54Z</time>
      </trkpt>
      <trkpt lat="46.00642" lon="4.69847">
        <ele>230.85375976562</ele>
        <time>2010-06-13T06:18:58Z</time>
      </trkpt>
      <trkpt lat="46.00643" lon="4.69823">
        <ele>231.33435058594</ele>
        <time>2010-06-13T06:19:05Z</time>
      </trkpt>
      <trkpt lat="46.00643" lon="4.698">
        <ele>232.29577636719</ele>
        <time>2010-06-13T06:19:12Z</time>
      </trkpt>
      <trkpt lat="46.00643" lon="4.69771">
        <ele>231.81494140625</ele>
        <time>2010-06-13T06:19:19Z</time>
      </trkpt>
      <trkpt lat="46.00643" lon="4.69737">
        <ele>232.29577636719</ele>
        <time>2010-06-13T06:19:27Z</time>
      </trkpt>
      <trkpt lat="46.00642" lon="4.69701">
        <ele>232.29577636719</ele>
        <time>2010-06-13T06:19:36Z</time>
      </trkpt>
      <trkpt lat="46.00643" lon="4.6967">
        <ele>232.29577636719</ele>
        <time>2010-06-13T06:19:44Z</time>
      </trkpt>
      <trkpt lat="46.00658" lon="4.69661">
        <ele>232.29577636719</ele>
        <time>2010-06-13T06:19:50Z</time>
      </trkpt>
      <trkpt lat="46.00679" lon="4.6966">
        <ele>231.81494140625</ele>
        <time>2010-06-13T06:19:57Z</time>
      </trkpt>
      <trkpt lat="46.00698" lon="4.69658">
        <ele>231.81494140625</ele>
        <time>2010-06-13T06:20:03Z</time>
      </trkpt>
      <trkpt lat="46.00713" lon="4.69657">
        <ele>230.85375976562</ele>
        <time>2010-06-13T06:20:08Z</time>
      </trkpt>
      <trkpt lat="46.00719" lon="4.69654">
        <ele>230.85375976562</ele>
        <time>2010-06-13T06:20:10Z</time>
      </trkpt>
      <trkpt lat="46.00725" lon="4.69646">
        <ele>229.89233398438</ele>
        <time>2010-06-13T06:20:12Z</time>
      </trkpt>
      <trkpt lat="46.00733" lon="4.69634">
        <ele>230.373046875</ele>
        <time>2010-06-13T06:20:15Z</time>
      </trkpt>
      <trkpt lat="46.00736" lon="4.6963">
        <ele>230.373046875</ele>
        <time>2010-06-13T06:20:16Z</time>
      </trkpt>
      <trkpt lat="46.00749" lon="4.69604">
        <ele>229.41174316406</ele>
        <time>2010-06-13T06:20:21Z</time>
      </trkpt>
      <trkpt lat="46.00763" lon="4.69568">
        <ele>229.89233398438</ele>
        <time>2010-06-13T06:20:28Z</time>
      </trkpt>
      <trkpt lat="46.00773" lon="4.69541">
        <ele>229.41174316406</ele>
        <time>2010-06-13T06:20:33Z</time>
      </trkpt>
      <trkpt lat="46.00785" lon="4.69511">
        <ele>229.41174316406</ele>
        <time>2010-06-13T06:20:39Z</time>
      </trkpt>
      <trkpt lat="46.00804" lon="4.69462">
        <ele>227.9697265625</ele>
        <time>2010-06-13T06:20:47Z</time>
      </trkpt>
      <trkpt lat="46.00812" lon="4.69444">
        <ele>227.9697265625</ele>
        <time>2010-06-13T06:20:50Z</time>
      </trkpt>
      <trkpt lat="46.00819" lon="4.69426">
        <ele>227.48913574219</ele>
        <time>2010-06-13T06:20:53Z</time>
      </trkpt>
      <trkpt lat="46.00822" lon="4.69382">
        <ele>226.04711914062</ele>
        <time>2010-06-13T06:20:59Z</time>
      </trkpt>
      <trkpt lat="46.00822" lon="4.69367">
        <ele>227.00854492188</ele>
        <time>2010-06-13T06:21:01Z</time>
      </trkpt>
      <trkpt lat="46.00821" lon="4.69332">
        <ele>226.52783203125</ele>
        <time>2010-06-13T06:21:06Z</time>
      </trkpt>
      <trkpt lat="46.00821" lon="4.69324">
        <ele>226.04711914062</ele>
        <time>2010-06-13T06:21:07Z</time>
      </trkpt>
      <trkpt lat="46.00821" lon="4.69303">
        <ele>226.52783203125</ele>
        <time>2010-06-13T06:21:10Z</time>
      </trkpt>
      <trkpt lat="46.00829" lon="4.69257">
        <ele>223.64379882812</ele>
        <time>2010-06-13T06:21:15Z</time>
      </trkpt>
      <trkpt lat="46.00847" lon="4.69206">
        <ele>223.64379882812</ele>
        <time>2010-06-13T06:21:21Z</time>
      </trkpt>
      <trkpt lat="46.00864" lon="4.69161">
        <ele>223.64379882812</ele>
        <time>2010-06-13T06:21:27Z</time>
      </trkpt>
      <trkpt lat="46.00886" lon="4.6912">
        <ele>225.56652832031</ele>
        <time>2010-06-13T06:21:34Z</time>
      </trkpt>
      <trkpt lat="46.00906" lon="4.69084">
        <ele>227.48913574219</ele>
        <time>2010-06-13T06:21:41Z</time>
      </trkpt>
      <trkpt lat="46.00929" lon="4.69045">
        <ele>227.00854492188</ele>
        <time>2010-06-13T06:21:49Z</time>
      </trkpt>
      <trkpt lat="46.00933" lon="4.69036">
        <ele>227.00854492188</ele>
        <time>2010-06-13T06:21:51Z</time>
      </trkpt>
      <trkpt lat="46.00928" lon="4.69017">
        <ele>227.9697265625</ele>
        <time>2010-06-13T06:21:55Z</time>
      </trkpt>
      <trkpt lat="46.00924" lon="4.69013">
        <ele>228.45043945312</ele>
        <time>2010-06-13T06:21:56Z</time>
      </trkpt>
      <trkpt lat="46.00891" lon="4.6898">
        <ele>229.89233398438</ele>
        <time>2010-06-13T06:22:05Z</time>
      </trkpt>
      <trkpt lat="46.00856" lon="4.68943">
        <ele>230.373046875</ele>
        <time>2010-06-13T06:22:15Z</time>
      </trkpt>
      <trkpt lat="46.00839" lon="4.68918">
        <ele>230.373046875</ele>
        <time>2010-06-13T06:22:21Z</time>
      </trkpt>
      <trkpt lat="46.00841" lon="4.68894">
        <ele>230.85375976562</ele>
        <time>2010-06-13T06:22:25Z</time>
      </trkpt>
      <trkpt lat="46.00845" lon="4.68845">
        <ele>232.29577636719</ele>
        <time>2010-06-13T06:22:34Z</time>
      </trkpt>
      <trkpt lat="46.0085" lon="4.68804">
        <ele>233.73767089844</ele>
        <time>2010-06-13T06:22:42Z</time>
      </trkpt>
      <trkpt lat="46.00853" lon="4.68759">
        <ele>234.21838378906</ele>
        <time>2010-06-13T06:22:50Z</time>
      </trkpt>
      <trkpt lat="46.00857" lon="4.68697">
        <ele>235.66027832031</ele>
        <time>2010-06-13T06:23:01Z</time>
      </trkpt>
      <trkpt lat="46.00861" lon="4.68656">
        <ele>236.14099121094</ele>
        <time>2010-06-13T06:23:09Z</time>
      </trkpt>
      <trkpt lat="46.00859" lon="4.68629">
        <ele>236.62170410156</ele>
        <time>2010-06-13T06:23:14Z</time>
      </trkpt>
      <trkpt lat="46.00859" lon="4.68603">
        <ele>236.62170410156</ele>
        <time>2010-06-13T06:23:19Z</time>
      </trkpt>
      <trkpt lat="46.00861" lon="4.68585">
        <ele>236.62170410156</ele>
        <time>2010-06-13T06:23:24Z</time>
      </trkpt>
      <trkpt lat="46.00863" lon="4.6855">
        <ele>237.10229492188</ele>
        <time>2010-06-13T06:23:32Z</time>
      </trkpt>
      <trkpt lat="46.00866" lon="4.68503">
        <ele>237.10229492188</ele>
        <time>2010-06-13T06:23:42Z</time>
      </trkpt>
      <trkpt lat="46.00869" lon="4.68467">
        <ele>238.54431152344</ele>
        <time>2010-06-13T06:23:50Z</time>
      </trkpt>
      <trkpt lat="46.00872" lon="4.68445">
        <ele>239.02490234375</ele>
        <time>2010-06-13T06:23:55Z</time>
      </trkpt>
      <trkpt lat="46.00876" lon="4.68412">
        <ele>239.50549316406</ele>
        <time>2010-06-13T06:24:02Z</time>
      </trkpt>
      <trkpt lat="46.00882" lon="4.68362">
        <ele>240.46704101562</ele>
        <time>2010-06-13T06:24:13Z</time>
      </trkpt>
      <trkpt lat="46.00885" lon="4.68327">
        <ele>241.42822265625</ele>
        <time>2010-06-13T06:24:21Z</time>
      </trkpt>
      <trkpt lat="46.0089" lon="4.68282">
        <ele>241.90893554688</ele>
        <time>2010-06-13T06:24:31Z</time>
      </trkpt>
      <trkpt lat="46.00894" lon="4.68257">
        <ele>242.3896484375</ele>
        <time>2010-06-13T06:24:37Z</time>
      </trkpt>
      <trkpt lat="46.00898" lon="4.68224">
        <ele>243.35083007812</ele>
        <time>2010-06-13T06:24:45Z</time>
      </trkpt>
      <trkpt lat="46.00897" lon="4.68201">
        <ele>244.31225585938</ele>
        <time>2010-06-13T06:24:50Z</time>
      </trkpt>
      <trkpt lat="46.009" lon="4.68164">
        <ele>244.79284667969</ele>
        <time>2010-06-13T06:24:58Z</time>
      </trkpt>
      <trkpt lat="46.00903" lon="4.68136">
        <ele>246.23486328125</ele>
        <time>2010-06-13T06:25:05Z</time>
      </trkpt>
      <trkpt lat="46.00907" lon="4.68107">
        <ele>247.19604492188</ele>
        <time>2010-06-13T06:25:13Z</time>
      </trkpt>
      <trkpt lat="46.00911" lon="4.68075">
        <ele>246.71545410156</ele>
        <time>2010-06-13T06:25:21Z</time>
      </trkpt>
      <trkpt lat="46.00913" lon="4.6805">
        <ele>247.19604492188</ele>
        <time>2010-06-13T06:25:28Z</time>
      </trkpt>
      <trkpt lat="46.00917" lon="4.68016">
        <ele>247.6767578125</ele>
        <time>2010-06-13T06:25:37Z</time>
      </trkpt>
      <trkpt lat="46.00921" lon="4.67981">
        <ele>247.6767578125</ele>
        <time>2010-06-13T06:25:46Z</time>
      </trkpt>
      <trkpt lat="46.00922" lon="4.67955">
        <ele>247.19604492188</ele>
        <time>2010-06-13T06:25:53Z</time>
      </trkpt>
      <trkpt lat="46.00922" lon="4.67934">
        <ele>247.6767578125</ele>
        <time>2010-06-13T06:26:00Z</time>
      </trkpt>
      <trkpt lat="46.00925" lon="4.67924">
        <ele>248.15759277344</ele>
        <time>2010-06-13T06:26:05Z</time>
      </trkpt>
      <trkpt lat="46.00927" lon="4.67906">
        <ele>248.15759277344</ele>
        <time>2010-06-13T06:26:12Z</time>
      </trkpt>
      <trkpt lat="46.0093" lon="4.67887">
        <ele>249.11877441406</ele>
        <time>2010-06-13T06:26:19Z</time>
      </trkpt>
      <trkpt lat="46.00932" lon="4.67867">
        <ele>249.11877441406</ele>
        <time>2010-06-13T06:26:25Z</time>
      </trkpt>
      <trkpt lat="46.00933" lon="4.67844">
        <ele>249.59948730469</ele>
        <time>2010-06-13T06:26:32Z</time>
      </trkpt>
      <trkpt lat="46.00934" lon="4.67831">
        <ele>250.56079101562</ele>
        <time>2010-06-13T06:26:36Z</time>
      </trkpt>
      <trkpt lat="46.00936" lon="4.67801">
        <ele>251.04138183594</ele>
        <time>2010-06-13T06:26:45Z</time>
      </trkpt>
      <trkpt lat="46.0094" lon="4.67775">
        <ele>252.4833984375</ele>
        <time>2010-06-13T06:26:52Z</time>
      </trkpt>
      <trkpt lat="46.0095" lon="4.67767">
        <ele>251.04138183594</ele>
        <time>2010-06-13T06:26:57Z</time>
      </trkpt>
      <trkpt lat="46.00951" lon="4.67754">
        <ele>252.00280761719</ele>
        <time>2010-06-13T06:27:00Z</time>
      </trkpt>
      <trkpt lat="46.00951" lon="4.67733">
        <ele>252.00280761719</ele>
        <time>2010-06-13T06:27:05Z</time>
      </trkpt>
      <trkpt lat="46.00949" lon="4.67698">
        <ele>253.44470214844</ele>
        <time>2010-06-13T06:27:13Z</time>
      </trkpt>
      <trkpt lat="46.00948" lon="4.67669">
        <ele>253.92541503906</ele>
        <time>2010-06-13T06:27:20Z</time>
      </trkpt>
      <trkpt lat="46.00946" lon="4.67632">
        <ele>254.40600585938</ele>
        <time>2010-06-13T06:27:28Z</time>
      </trkpt>
      <trkpt lat="46.00943" lon="4.67595">
        <ele>255.84802246094</ele>
        <time>2010-06-13T06:27:36Z</time>
      </trkpt>
      <trkpt lat="46.00941" lon="4.6758">
        <ele>255.36730957031</ele>
        <time>2010-06-13T06:27:41Z</time>
      </trkpt>
      <trkpt lat="46.00941" lon="4.67581">
        <ele>255.36730957031</ele>
        <time>2010-06-13T06:27:50Z</time>
      </trkpt>
      <trkpt lat="46.0094" lon="4.6758">
        <ele>255.84802246094</ele>
        <time>2010-06-13T06:27:57Z</time>
      </trkpt>
      <trkpt lat="46.00939" lon="4.67573">
        <ele>255.36730957031</ele>
        <time>2010-06-13T06:28:03Z</time>
      </trkpt>
      <trkpt lat="46.0094" lon="4.67576">
        <ele>255.36730957031</ele>
        <time>2010-06-13T06:28:17Z</time>
      </trkpt>
      <trkpt lat="46.0094" lon="4.67576">
        <ele>254.88659667969</ele>
        <time>2010-06-13T06:28:27Z</time>
      </trkpt>
      <trkpt lat="46.00939" lon="4.67576">
        <ele>255.36730957031</ele>
        <time>2010-06-13T06:28:49Z</time>
      </trkpt>
      <trkpt lat="46.00939" lon="4.67578">
        <ele>255.36730957031</ele>
        <time>2010-06-13T06:29:04Z</time>
      </trkpt>
      <trkpt lat="46.00937" lon="4.67574">
        <ele>254.88659667969</ele>
        <time>2010-06-13T06:29:32Z</time>
      </trkpt>
      <trkpt lat="46.00938" lon="4.67571">
        <ele>255.84802246094</ele>
        <time>2010-06-13T06:29:38Z</time>
      </trkpt>
      <trkpt lat="46.00941" lon="4.67573">
        <ele>254.88659667969</ele>
        <time>2010-06-13T06:29:46Z</time>
      </trkpt>
      <trkpt lat="46.00939" lon="4.67574">
        <ele>254.88659667969</ele>
        <time>2010-06-13T06:29:57Z</time>
      </trkpt>
      <trkpt lat="46.00938" lon="4.67577">
        <ele>254.88659667969</ele>
        <time>2010-06-13T06:30:03Z</time>
      </trkpt>
      <trkpt lat="46.00938" lon="4.67573">
        <ele>255.36730957031</ele>
        <time>2010-06-13T06:30:18Z</time>
      </trkpt>
      <trkpt lat="46.00938" lon="4.67576">
        <ele>255.36730957031</ele>
        <time>2010-06-13T06:30:22Z</time>
      </trkpt>
      <trkpt lat="46.00936" lon="4.67578">
        <ele>254.88659667969</ele>
        <time>2010-06-13T06:30:31Z</time>
      </trkpt>
      <trkpt lat="46.00939" lon="4.6758">
        <ele>255.36730957031</ele>
        <time>2010-06-13T06:30:39Z</time>
      </trkpt>
      <trkpt lat="46.00937" lon="4.67577">
        <ele>255.36730957031</ele>
        <time>2010-06-13T06:30:43Z</time>
      </trkpt>
      <trkpt lat="46.00934" lon="4.67576">
        <ele>254.88659667969</ele>
        <time>2010-06-13T06:30:50Z</time>
      </trkpt>
      <trkpt lat="46.00934" lon="4.67576">
        <ele>255.36730957031</ele>
        <time>2010-06-13T06:30:58Z</time>
      </trkpt>
      <trkpt lat="46.00935" lon="4.67577">
        <ele>255.84802246094</ele>
        <time>2010-06-13T06:31:24Z</time>
      </trkpt>
      <trkpt lat="46.00935" lon="4.6758">
        <ele>255.84802246094</ele>
        <time>2010-06-13T06:31:33Z</time>
      </trkpt>
      <trkpt lat="46.00937" lon="4.67582">
        <ele>254.88659667969</ele>
        <time>2010-06-13T06:31:48Z</time>
      </trkpt>
      <trkpt lat="46.00937" lon="4.67579">
        <ele>255.36730957031</ele>
        <time>2010-06-13T06:31:58Z</time>
      </trkpt>
      <trkpt lat="46.00936" lon="4.6758">
        <ele>255.36730957031</ele>
        <time>2010-06-13T06:32:04Z</time>
      </trkpt>
      <trkpt lat="46.00938" lon="4.67579">
        <ele>255.84802246094</ele>
        <time>2010-06-13T06:32:09Z</time>
      </trkpt>
      <trkpt lat="46.00938" lon="4.67578">
        <ele>255.84802246094</ele>
        <time>2010-06-13T06:32:16Z</time>
      </trkpt>
      <trkpt lat="46.00936" lon="4.67571">
        <ele>256.32873535156</ele>
        <time>2010-06-13T06:32:24Z</time>
      </trkpt>
      <trkpt lat="46.00934" lon="4.67567">
        <ele>255.84802246094</ele>
        <time>2010-06-13T06:32:32Z</time>
      </trkpt>
      <trkpt lat="46.00933" lon="4.67565">
        <ele>255.84802246094</ele>
        <time>2010-06-13T06:32:43Z</time>
      </trkpt>
      <trkpt lat="46.00924" lon="4.67554">
        <ele>256.32873535156</ele>
        <time>2010-06-13T06:32:49Z</time>
      </trkpt>
      <trkpt lat="46.00911" lon="4.67536">
        <ele>256.32873535156</ele>
        <time>2010-06-13T06:32:56Z</time>
      </trkpt>
      <trkpt lat="46.009" lon="4.67527">
        <ele>257.77075195312</ele>
        <time>2010-06-13T06:33:02Z</time>
      </trkpt>
      <trkpt lat="46.00885" lon="4.67532">
        <ele>258.25134277344</ele>
        <time>2010-06-13T06:33:08Z</time>
      </trkpt>
      <trkpt lat="46.00875" lon="4.67538">
        <ele>258.73193359375</ele>
        <time>2010-06-13T06:33:12Z</time>
      </trkpt>
      <trkpt lat="46.00858" lon="4.67546">
        <ele>259.693359375</ele>
        <time>2010-06-13T06:33:18Z</time>
      </trkpt>
      <trkpt lat="46.00837" lon="4.67558">
        <ele>259.693359375</ele>
        <time>2010-06-13T06:33:25Z</time>
      </trkpt>
      <trkpt lat="46.0082" lon="4.67556">
        <ele>260.17395019531</ele>
        <time>2010-06-13T06:33:30Z</time>
      </trkpt>
      <trkpt lat="46.0081" lon="4.67524">
        <ele>260.17395019531</ele>
        <time>2010-06-13T06:33:36Z</time>
      </trkpt>
      <trkpt lat="46.00807" lon="4.67513">
        <ele>260.17395019531</ele>
        <time>2010-06-13T06:33:38Z</time>
      </trkpt>
      <trkpt lat="46.0079" lon="4.67484">
        <ele>260.65454101562</ele>
        <time>2010-06-13T06:33:45Z</time>
      </trkpt>
      <trkpt lat="46.00768" lon="4.67478">
        <ele>260.65454101562</ele>
        <time>2010-06-13T06:33:51Z</time>
      </trkpt>
      <trkpt lat="46.00745" lon="4.67476">
        <ele>261.13525390625</ele>
        <time>2010-06-13T06:33:57Z</time>
      </trkpt>
      <trkpt lat="46.00741" lon="4.67476">
        <ele>262.09655761719</ele>
        <time>2010-06-13T06:33:58Z</time>
      </trkpt>
      <trkpt lat="46.00702" lon="4.67478">
        <ele>261.13525390625</ele>
        <time>2010-06-13T06:34:07Z</time>
      </trkpt>
      <trkpt lat="46.00688" lon="4.67478">
        <ele>261.13525390625</ele>
        <time>2010-06-13T06:34:10Z</time>
      </trkpt>
      <trkpt lat="46.00671" lon="4.67467">
        <ele>260.65454101562</ele>
        <time>2010-06-13T06:34:15Z</time>
      </trkpt>
      <trkpt lat="46.00666" lon="4.67441">
        <ele>261.13525390625</ele>
        <time>2010-06-13T06:34:19Z</time>
      </trkpt>
      <trkpt lat="46.00659" lon="4.67392">
        <ele>261.13525390625</ele>
        <time>2010-06-13T06:34:26Z</time>
      </trkpt>
      <trkpt lat="46.00652" lon="4.67368">
        <ele>261.61596679688</ele>
        <time>2010-06-13T06:34:30Z</time>
      </trkpt>
      <trkpt lat="46.00643" lon="4.67349">
        <ele>262.09655761719</ele>
        <time>2010-06-13T06:34:34Z</time>
      </trkpt>
      <trkpt lat="46.00641" lon="4.67347">
        <ele>262.09655761719</ele>
        <time>2010-06-13T06:34:35Z</time>
      </trkpt>
      <trkpt lat="46.00625" lon="4.67357">
        <ele>261.61596679688</ele>
        <time>2010-06-13T06:34:40Z</time>
      </trkpt>
      <trkpt lat="46.0059" lon="4.67337">
        <ele>261.61596679688</ele>
        <time>2010-06-13T06:34:47Z</time>
      </trkpt>
      <trkpt lat="46.00556" lon="4.6735">
        <ele>260.17395019531</ele>
        <time>2010-06-13T06:34:53Z</time>
      </trkpt>
      <trkpt lat="46.00515" lon="4.67371">
        <ele>259.693359375</ele>
        <time>2010-06-13T06:34:59Z</time>
      </trkpt>
      <trkpt lat="46.00509" lon="4.67371">
        <ele>259.693359375</ele>
        <time>2010-06-13T06:35:00Z</time>
      </trkpt>
      <trkpt lat="46.0048" lon="4.67396">
        <ele>258.25134277344</ele>
        <time>2010-06-13T06:35:05Z</time>
      </trkpt>
      <trkpt lat="46.00474" lon="4.67398">
        <ele>258.25134277344</ele>
        <time>2010-06-13T06:35:06Z</time>
      </trkpt>
      <trkpt lat="46.00452" lon="4.67395">
        <ele>257.77075195312</ele>
        <time>2010-06-13T06:35:11Z</time>
      </trkpt>
      <trkpt lat="46.0043" lon="4.6739">
        <ele>259.693359375</ele>
        <time>2010-06-13T06:35:17Z</time>
      </trkpt>
      <trkpt lat="46.00405" lon="4.67381">
        <ele>259.693359375</ele>
        <time>2010-06-13T06:35:23Z</time>
      </trkpt>
      <trkpt lat="46.00396" lon="4.67379">
        <ele>259.693359375</ele>
        <time>2010-06-13T06:35:25Z</time>
      </trkpt>
      <trkpt lat="46.00385" lon="4.67374">
        <ele>260.17395019531</ele>
        <time>2010-06-13T06:35:28Z</time>
      </trkpt>
      <trkpt lat="46.00381" lon="4.67358">
        <ele>260.17395019531</ele>
        <time>2010-06-13T06:35:32Z</time>
      </trkpt>
      <trkpt lat="46.00386" lon="4.67327">
        <ele>259.693359375</ele>
        <time>2010-06-13T06:35:39Z</time>
      </trkpt>
      <trkpt lat="46.00389" lon="4.67292">
        <ele>261.13525390625</ele>
        <time>2010-06-13T06:35:47Z</time>
      </trkpt>
      <trkpt lat="46.00394" lon="4.67252">
        <ele>261.61596679688</ele>
        <time>2010-06-13T06:35:56Z</time>
      </trkpt>
      <trkpt lat="46.00394" lon="4.67244">
        <ele>261.13525390625</ele>
        <time>2010-06-13T06:35:58Z</time>
      </trkpt>
      <trkpt lat="46.00383" lon="4.67238">
        <ele>260.17395019531</ele>
        <time>2010-06-13T06:36:03Z</time>
      </trkpt>
      <trkpt lat="46.00362" lon="4.67235">
        <ele>260.17395019531</ele>
        <time>2010-06-13T06:36:08Z</time>
      </trkpt>
      <trkpt lat="46.00346" lon="4.67221">
        <ele>259.693359375</ele>
        <time>2010-06-13T06:36:13Z</time>
      </trkpt>
      <trkpt lat="46.00346" lon="4.67215">
        <ele>259.693359375</ele>
        <time>2010-06-13T06:36:14Z</time>
      </trkpt>
      <trkpt lat="46.00351" lon="4.67183">
        <ele>260.17395019531</ele>
        <time>2010-06-13T06:36:21Z</time>
      </trkpt>
      <trkpt lat="46.00357" lon="4.67159">
        <ele>260.65454101562</ele>
        <time>2010-06-13T06:36:27Z</time>
      </trkpt>
      <trkpt lat="46.00363" lon="4.67121">
        <ele>261.13525390625</ele>
        <time>2010-06-13T06:36:36Z</time>
      </trkpt>
      <trkpt lat="46.0037" lon="4.67092">
        <ele>261.13525390625</ele>
        <time>2010-06-13T06:36:44Z</time>
      </trkpt>
      <trkpt lat="46.00378" lon="4.67061">
        <ele>261.61596679688</ele>
        <time>2010-06-13T06:36:52Z</time>
      </trkpt>
      <trkpt lat="46.00385" lon="4.67042">
        <ele>262.09655761719</ele>
        <time>2010-06-13T06:36:58Z</time>
      </trkpt>
      <trkpt lat="46.00395" lon="4.67036">
        <ele>263.05786132812</ele>
        <time>2010-06-13T06:37:03Z</time>
      </trkpt>
      <trkpt lat="46.00401" lon="4.67039">
        <ele>263.05786132812</ele>
        <time>2010-06-13T06:37:05Z</time>
      </trkpt>
      <trkpt lat="46.00421" lon="4.67048">
        <ele>263.05786132812</ele>
        <time>2010-06-13T06:37:12Z</time>
      </trkpt>
      <trkpt lat="46.0043" lon="4.67032">
        <ele>263.53857421875</ele>
        <time>2010-06-13T06:37:17Z</time>
      </trkpt>
      <trkpt lat="46.0044" lon="4.66983">
        <ele>264.01928710938</ele>
        <time>2010-06-13T06:37:28Z</time>
      </trkpt>
      <trkpt lat="46.00449" lon="4.66979">
        <ele>263.53857421875</ele>
        <time>2010-06-13T06:37:32Z</time>
      </trkpt>
      <trkpt lat="46.00465" lon="4.66982">
        <ele>264.49987792969</ele>
        <time>2010-06-13T06:37:37Z</time>
      </trkpt>
      <trkpt lat="46.00473" lon="4.66967">
        <ele>264.49987792969</ele>
        <time>2010-06-13T06:37:42Z</time>
      </trkpt>
      <trkpt lat="46.00478" lon="4.66957">
        <ele>264.49987792969</ele>
        <time>2010-06-13T06:37:45Z</time>
      </trkpt>
      <trkpt lat="46.00493" lon="4.66932">
        <ele>264.98059082031</ele>
        <time>2010-06-13T06:37:53Z</time>
      </trkpt>
      <trkpt lat="46.00495" lon="4.66929">
        <ele>264.49987792969</ele>
        <time>2010-06-13T06:37:54Z</time>
      </trkpt>
      <trkpt lat="46.00489" lon="4.66922">
        <ele>265.46130371094</ele>
        <time>2010-06-13T06:37:58Z</time>
      </trkpt>
      <trkpt lat="46.00459" lon="4.66917">
        <ele>264.01928710938</ele>
        <time>2010-06-13T06:38:06Z</time>
      </trkpt>
      <trkpt lat="46.00433" lon="4.66912">
        <ele>264.01928710938</ele>
        <time>2010-06-13T06:38:13Z</time>
      </trkpt>
      <trkpt lat="46.00398" lon="4.66906">
        <ele>263.53857421875</ele>
        <time>2010-06-13T06:38:22Z</time>
      </trkpt>
      <trkpt lat="46.0039" lon="4.66905">
        <ele>263.05786132812</ele>
        <time>2010-06-13T06:38:24Z</time>
      </trkpt>
      <trkpt lat="46.00387" lon="4.66894">
        <ele>263.05786132812</ele>
        <time>2010-06-13T06:38:27Z</time>
      </trkpt>
      <trkpt lat="46.00388" lon="4.66889">
        <ele>263.53857421875</ele>
        <time>2010-06-13T06:38:28Z</time>
      </trkpt>
      <trkpt lat="46.00397" lon="4.66857">
        <ele>262.5771484375</ele>
        <time>2010-06-13T06:38:35Z</time>
      </trkpt>
      <trkpt lat="46.00407" lon="4.66816">
        <ele>262.09655761719</ele>
        <time>2010-06-13T06:38:43Z</time>
      </trkpt>
      <trkpt lat="46.0042" lon="4.6677">
        <ele>260.17395019531</ele>
        <time>2010-06-13T06:38:52Z</time>
      </trkpt>
      <trkpt lat="46.00431" lon="4.66767">
        <ele>261.13525390625</ele>
        <time>2010-06-13T06:38:56Z</time>
      </trkpt>
      <trkpt lat="46.00437" lon="4.66772">
        <ele>262.09655761719</ele>
        <time>2010-06-13T06:38:58Z</time>
      </trkpt>
      <trkpt lat="46.00461" lon="4.66797">
        <ele>263.05786132812</ele>
        <time>2010-06-13T06:39:07Z</time>
      </trkpt>
      <trkpt lat="46.00471" lon="4.66809">
        <ele>264.49987792969</ele>
        <time>2010-06-13T06:39:11Z</time>
      </trkpt>
      <trkpt lat="46.00488" lon="4.66826">
        <ele>265.94189453125</ele>
        <time>2010-06-13T06:39:17Z</time>
      </trkpt>
      <trkpt lat="46.0051" lon="4.66849">
        <ele>267.38391113281</ele>
        <time>2010-06-13T06:39:25Z</time>
      </trkpt>
      <trkpt lat="46.00516" lon="4.66855">
        <ele>266.90319824219</ele>
        <time>2010-06-13T06:39:27Z</time>
      </trkpt>
      <trkpt lat="46.0053" lon="4.66859">
        <ele>266.90319824219</ele>
        <time>2010-06-13T06:39:31Z</time>
      </trkpt>
      <trkpt lat="46.00531" lon="4.66855">
        <ele>266.90319824219</ele>
        <time>2010-06-13T06:39:32Z</time>
      </trkpt>
      <trkpt lat="46.00538" lon="4.66831">
        <ele>267.38391113281</ele>
        <time>2010-06-13T06:39:37Z</time>
      </trkpt>
      <trkpt lat="46.00551" lon="4.66798">
        <ele>267.86450195312</ele>
        <time>2010-06-13T06:39:45Z</time>
      </trkpt>
      <trkpt lat="46.00568" lon="4.66764">
        <ele>269.30651855469</ele>
        <time>2010-06-13T06:39:54Z</time>
      </trkpt>
      <trkpt lat="46.00582" lon="4.6674">
        <ele>268.82580566406</ele>
        <time>2010-06-13T06:40:01Z</time>
      </trkpt>
      <trkpt lat="46.00588" lon="4.66729">
        <ele>270.26770019531</ele>
        <time>2010-06-13T06:40:04Z</time>
      </trkpt>
      <trkpt lat="46.00579" lon="4.6672">
        <ele>269.30651855469</ele>
        <time>2010-06-13T06:40:08Z</time>
      </trkpt>
      <trkpt lat="46.00576" lon="4.66718">
        <ele>269.30651855469</ele>
        <time>2010-06-13T06:40:09Z</time>
      </trkpt>
      <trkpt lat="46.00541" lon="4.66699">
        <ele>268.82580566406</ele>
        <time>2010-06-13T06:40:19Z</time>
      </trkpt>
      <trkpt lat="46.00538" lon="4.66697">
        <ele>268.82580566406</ele>
        <time>2010-06-13T06:40:20Z</time>
      </trkpt>
      <trkpt lat="46.00538" lon="4.66681">
        <ele>269.787109375</ele>
        <time>2010-06-13T06:40:24Z</time>
      </trkpt>
      <trkpt lat="46.00546" lon="4.6667">
        <ele>269.30651855469</ele>
        <time>2010-06-13T06:40:28Z</time>
      </trkpt>
      <trkpt lat="46.00547" lon="4.66666">
        <ele>269.787109375</ele>
        <time>2010-06-13T06:40:29Z</time>
      </trkpt>
      <trkpt lat="46.00561" lon="4.66638">
        <ele>269.787109375</ele>
        <time>2010-06-13T06:40:37Z</time>
      </trkpt>
      <trkpt lat="46.00575" lon="4.66607">
        <ele>270.74841308594</ele>
        <time>2010-06-13T06:40:45Z</time>
      </trkpt>
      <trkpt lat="46.00583" lon="4.66583">
        <ele>270.74841308594</ele>
        <time>2010-06-13T06:40:52Z</time>
      </trkpt>
      <trkpt lat="46.00583" lon="4.66574">
        <ele>270.74841308594</ele>
        <time>2010-06-13T06:40:58Z</time>
      </trkpt>
      <trkpt lat="46.00582" lon="4.66574">
        <ele>270.74841308594</ele>
        <time>2010-06-13T06:41:06Z</time>
      </trkpt>
      <trkpt lat="46.00582" lon="4.66574">
        <ele>270.74841308594</ele>
        <time>2010-06-13T06:41:07Z</time>
      </trkpt>
      <trkpt lat="46.00576" lon="4.66569">
        <ele>270.74841308594</ele>
        <time>2010-06-13T06:41:11Z</time>
      </trkpt>
      <trkpt lat="46.00563" lon="4.66552">
        <ele>270.26770019531</ele>
        <time>2010-06-13T06:41:16Z</time>
      </trkpt>
      <trkpt lat="46.00542" lon="4.66515">
        <ele>269.30651855469</ele>
        <time>2010-06-13T06:41:23Z</time>
      </trkpt>
      <trkpt lat="46.00521" lon="4.66483">
        <ele>271.22912597656</ele>
        <time>2010-06-13T06:41:29Z</time>
      </trkpt>
      <trkpt lat="46.00518" lon="4.66479">
        <ele>270.74841308594</ele>
        <time>2010-06-13T06:41:30Z</time>
      </trkpt>
      <trkpt lat="46.00497" lon="4.66459">
        <ele>272.1904296875</ele>
        <time>2010-06-13T06:41:36Z</time>
      </trkpt>
      <trkpt lat="46.00466" lon="4.66422">
        <ele>273.15185546875</ele>
        <time>2010-06-13T06:41:44Z</time>
      </trkpt>
      <trkpt lat="46.00463" lon="4.66417">
        <ele>273.15185546875</ele>
        <time>2010-06-13T06:41:45Z</time>
      </trkpt>
      <trkpt lat="46.00453" lon="4.66393">
        <ele>273.15185546875</ele>
        <time>2010-06-13T06:41:49Z</time>
      </trkpt>
      <trkpt lat="46.00439" lon="4.6637">
        <ele>272.67114257812</ele>
        <time>2010-06-13T06:41:54Z</time>
      </trkpt>
      <trkpt lat="46.00438" lon="4.66362">
        <ele>273.15185546875</ele>
        <time>2010-06-13T06:41:57Z</time>
      </trkpt>
      <trkpt lat="46.0044" lon="4.66359">
        <ele>273.63244628906</ele>
        <time>2010-06-13T06:41:58Z</time>
      </trkpt>
      <trkpt lat="46.00459" lon="4.6633">
        <ele>274.59375</ele>
        <time>2010-06-13T06:42:05Z</time>
      </trkpt>
      <trkpt lat="46.0048" lon="4.66291">
        <ele>275.07446289062</ele>
        <time>2010-06-13T06:42:14Z</time>
      </trkpt>
      <trkpt lat="46.00488" lon="4.66286">
        <ele>274.59375</ele>
        <time>2010-06-13T06:42:17Z</time>
      </trkpt>
      <trkpt lat="46.00496" lon="4.66269">
        <ele>275.07446289062</ele>
        <time>2010-06-13T06:42:21Z</time>
      </trkpt>
      <trkpt lat="46.00515" lon="4.66234">
        <ele>276.03564453125</ele>
        <time>2010-06-13T06:42:29Z</time>
      </trkpt>
      <trkpt lat="46.00517" lon="4.66213">
        <ele>275.55505371094</ele>
        <time>2010-06-13T06:42:33Z</time>
      </trkpt>
      <trkpt lat="46.0051" lon="4.66193">
        <ele>276.03564453125</ele>
        <time>2010-06-13T06:42:38Z</time>
      </trkpt>
      <trkpt lat="46.00506" lon="4.6617">
        <ele>276.51635742188</ele>
        <time>2010-06-13T06:42:44Z</time>
      </trkpt>
      <trkpt lat="46.00498" lon="4.66133">
        <ele>276.51635742188</ele>
        <time>2010-06-13T06:42:51Z</time>
      </trkpt>
      <trkpt lat="46.00485" lon="4.66075">
        <ele>277.47766113281</ele>
        <time>2010-06-13T06:43:01Z</time>
      </trkpt>
      <trkpt lat="46.00475" lon="4.66015">
        <ele>276.9970703125</ele>
        <time>2010-06-13T06:43:10Z</time>
      </trkpt>
      <trkpt lat="46.00461" lon="4.65949">
        <ele>278.43896484375</ele>
        <time>2010-06-13T06:43:20Z</time>
      </trkpt>
      <trkpt lat="46.00455" lon="4.65888">
        <ele>278.91967773438</ele>
        <time>2010-06-13T06:43:29Z</time>
      </trkpt>
      <trkpt lat="46.00454" lon="4.65882">
        <ele>279.40026855469</ele>
        <time>2010-06-13T06:43:30Z</time>
      </trkpt>
      <trkpt lat="46.00455" lon="4.65842">
        <ele>279.880859375</ele>
        <time>2010-06-13T06:43:37Z</time>
      </trkpt>
      <trkpt lat="46.00453" lon="4.65795">
        <ele>280.36169433594</ele>
        <time>2010-06-13T06:43:45Z</time>
      </trkpt>
      <trkpt lat="46.00452" lon="4.65765">
        <ele>279.880859375</ele>
        <time>2010-06-13T06:43:50Z</time>
      </trkpt>
      <trkpt lat="46.0045" lon="4.65705">
        <ele>280.84240722656</ele>
        <time>2010-06-13T06:43:59Z</time>
      </trkpt>
      <trkpt lat="46.00445" lon="4.65642">
        <ele>281.80358886719</ele>
        <time>2010-06-13T06:44:08Z</time>
      </trkpt>
      <trkpt lat="46.00444" lon="4.65634">
        <ele>281.32299804688</ele>
        <time>2010-06-13T06:44:09Z</time>
      </trkpt>
      <trkpt lat="46.00446" lon="4.65597">
        <ele>280.84240722656</ele>
        <time>2010-06-13T06:44:13Z</time>
      </trkpt>
      <trkpt lat="46.00453" lon="4.65563">
        <ele>281.80358886719</ele>
        <time>2010-06-13T06:44:18Z</time>
      </trkpt>
      <trkpt lat="46.00464" lon="4.65519">
        <ele>281.80358886719</ele>
        <time>2010-06-13T06:44:26Z</time>
      </trkpt>
      <trkpt lat="46.00471" lon="4.65487">
        <ele>282.76501464844</ele>
        <time>2010-06-13T06:44:33Z</time>
      </trkpt>
      <trkpt lat="46.00476" lon="4.65446">
        <ele>283.72619628906</ele>
        <time>2010-06-13T06:44:41Z</time>
      </trkpt>
      <trkpt lat="46.00476" lon="4.65421">
        <ele>282.76501464844</ele>
        <time>2010-06-13T06:44:46Z</time>
      </trkpt>
      <trkpt lat="46.00477" lon="4.65383">
        <ele>283.72619628906</ele>
        <time>2010-06-13T06:44:54Z</time>
      </trkpt>
      <trkpt lat="46.00479" lon="4.65353">
        <ele>283.72619628906</ele>
        <time>2010-06-13T06:45:00Z</time>
      </trkpt>
      <trkpt lat="46.00478" lon="4.65347">
        <ele>284.20690917969</ele>
        <time>2010-06-13T06:45:01Z</time>
      </trkpt>
      <trkpt lat="46.00481" lon="4.65312">
        <ele>284.68762207031</ele>
        <time>2010-06-13T06:45:07Z</time>
      </trkpt>
      <trkpt lat="46.00482" lon="4.65306">
        <ele>284.20690917969</ele>
        <time>2010-06-13T06:45:08Z</time>
      </trkpt>
      <trkpt lat="46.00491" lon="4.65254">
        <ele>284.68762207031</ele>
        <time>2010-06-13T06:45:17Z</time>
      </trkpt>
      <trkpt lat="46.0049" lon="4.65237">
        <ele>285.16821289062</ele>
        <time>2010-06-13T06:45:20Z</time>
      </trkpt>
      <trkpt lat="46.00495" lon="4.65185">
        <ele>284.68762207031</ele>
        <time>2010-06-13T06:45:29Z</time>
      </trkpt>
      <trkpt lat="46.00498" lon="4.65142">
        <ele>285.16821289062</ele>
        <time>2010-06-13T06:45:37Z</time>
      </trkpt>
      <trkpt lat="46.00505" lon="4.65107">
        <ele>287.0908203125</ele>
        <time>2010-06-13T06:45:44Z</time>
      </trkpt>
      <trkpt lat="46.00515" lon="4.65065">
        <ele>288.53295898438</ele>
        <time>2010-06-13T06:45:53Z</time>
      </trkpt>
      <trkpt lat="46.00521" lon="4.65033">
        <ele>289.01354980469</ele>
        <time>2010-06-13T06:46:00Z</time>
      </trkpt>
      <trkpt lat="46.00525" lon="4.64994">
        <ele>289.97485351562</ele>
        <time>2010-06-13T06:46:08Z</time>
      </trkpt>
      <trkpt lat="46.00526" lon="4.64943">
        <ele>290.45556640625</ele>
        <time>2010-06-13T06:46:18Z</time>
      </trkpt>
      <trkpt lat="46.00527" lon="4.64895">
        <ele>291.8974609375</ele>
        <time>2010-06-13T06:46:28Z</time>
      </trkpt>
      <trkpt lat="46.00531" lon="4.64885">
        <ele>293.33935546875</ele>
        <time>2010-06-13T06:46:32Z</time>
      </trkpt>
      <trkpt lat="46.00534" lon="4.64858">
        <ele>294.30078125</ele>
        <time>2010-06-13T06:46:38Z</time>
      </trkpt>
      <trkpt lat="46.00536" lon="4.64805">
        <ele>295.26196289062</ele>
        <time>2010-06-13T06:46:48Z</time>
      </trkpt>
      <trkpt lat="46.00537" lon="4.64797">
        <ele>295.26196289062</ele>
        <time>2010-06-13T06:46:50Z</time>
      </trkpt>
      <trkpt lat="46.00534" lon="4.64796">
        <ele>295.26196289062</ele>
        <time>2010-06-13T06:46:54Z</time>
      </trkpt>
      <trkpt lat="46.00522" lon="4.64799">
        <ele>293.82006835938</ele>
        <time>2010-06-13T06:46:59Z</time>
      </trkpt>
      <trkpt lat="46.0051" lon="4.648">
        <ele>293.33935546875</ele>
        <time>2010-06-13T06:47:02Z</time>
      </trkpt>
      <trkpt lat="46.00505" lon="4.64795">
        <ele>292.37817382812</ele>
        <time>2010-06-13T06:47:04Z</time>
      </trkpt>
      <trkpt lat="46.00505" lon="4.64781">
        <ele>292.37817382812</ele>
        <time>2010-06-13T06:47:07Z</time>
      </trkpt>
      <trkpt lat="46.00505" lon="4.64777">
        <ele>292.37817382812</ele>
        <time>2010-06-13T06:47:08Z</time>
      </trkpt>
      <trkpt lat="46.00511" lon="4.64735">
        <ele>293.33935546875</ele>
        <time>2010-06-13T06:47:17Z</time>
      </trkpt>
      <trkpt lat="46.00515" lon="4.64703">
        <ele>294.30078125</ele>
        <time>2010-06-13T06:47:24Z</time>
      </trkpt>
      <trkpt lat="46.0052" lon="4.64665">
        <ele>294.30078125</ele>
        <time>2010-06-13T06:47:33Z</time>
      </trkpt>
      <trkpt lat="46.00523" lon="4.64643">
        <ele>294.78137207031</ele>
        <time>2010-06-13T06:47:39Z</time>
      </trkpt>
      <trkpt lat="46.00531" lon="4.6464">
        <ele>296.22351074219</ele>
        <time>2010-06-13T06:47:44Z</time>
      </trkpt>
      <trkpt lat="46.00535" lon="4.64642">
        <ele>298.62670898438</ele>
        <time>2010-06-13T06:47:47Z</time>
      </trkpt>
      <trkpt lat="46.00542" lon="4.64642">
        <ele>299.58801269531</ele>
        <time>2010-06-13T06:47:51Z</time>
      </trkpt>
      <trkpt lat="46.00544" lon="4.64632">
        <ele>299.58801269531</ele>
        <time>2010-06-13T06:47:57Z</time>
      </trkpt>
      <trkpt lat="46.00544" lon="4.6463">
        <ele>299.58801269531</ele>
        <time>2010-06-13T06:47:58Z</time>
      </trkpt>
      <trkpt lat="46.00545" lon="4.64606">
        <ele>300.06872558594</ele>
        <time>2010-06-13T06:48:08Z</time>
      </trkpt>
      <trkpt lat="46.00552" lon="4.64591">
        <ele>301.02990722656</ele>
        <time>2010-06-13T06:48:15Z</time>
      </trkpt>
      <trkpt lat="46.00566" lon="4.64568">
        <ele>301.51062011719</ele>
        <time>2010-06-13T06:48:23Z</time>
      </trkpt>
      <trkpt lat="46.00583" lon="4.6454">
        <ele>303.43322753906</ele>
        <time>2010-06-13T06:48:32Z</time>
      </trkpt>
      <trkpt lat="46.00599" lon="4.64513">
        <ele>304.39465332031</ele>
        <time>2010-06-13T06:48:40Z</time>
      </trkpt>
      <trkpt lat="46.00614" lon="4.64485">
        <ele>305.83666992188</ele>
        <time>2010-06-13T06:48:48Z</time>
      </trkpt>
      <trkpt lat="46.00617" lon="4.64479">
        <ele>305.83666992188</ele>
        <time>2010-06-13T06:48:50Z</time>
      </trkpt>
      <trkpt lat="46.00617" lon="4.64466">
        <ele>306.31726074219</ele>
        <time>2010-06-13T06:48:54Z</time>
      </trkpt>
      <trkpt lat="46.0062" lon="4.64427">
        <ele>306.7978515625</ele>
        <time>2010-06-13T06:49:03Z</time>
      </trkpt>
      <trkpt lat="46.00622" lon="4.64396">
        <ele>308.72045898438</ele>
        <time>2010-06-13T06:49:11Z</time>
      </trkpt>
      <trkpt lat="46.00625" lon="4.64361">
        <ele>310.16247558594</ele>
        <time>2010-06-13T06:49:20Z</time>
      </trkpt>
      <trkpt lat="46.00629" lon="4.64348">
        <ele>310.16247558594</ele>
        <time>2010-06-13T06:49:25Z</time>
      </trkpt>
      <trkpt lat="46.00631" lon="4.64333">
        <ele>311.6044921875</ele>
        <time>2010-06-13T06:49:31Z</time>
      </trkpt>
      <trkpt lat="46.00633" lon="4.64309">
        <ele>312.08520507812</ele>
        <time>2010-06-13T06:49:38Z</time>
      </trkpt>
      <trkpt lat="46.00635" lon="4.64286">
        <ele>313.52722167969</ele>
        <time>2010-06-13T06:49:45Z</time>
      </trkpt>
      <trkpt lat="46.00637" lon="4.64257">
        <ele>314.48840332031</ele>
        <time>2010-06-13T06:49:53Z</time>
      </trkpt>
      <trkpt lat="46.0064" lon="4.64235">
        <ele>315.93041992188</ele>
        <time>2010-06-13T06:49:59Z</time>
      </trkpt>
      <trkpt lat="46.00633" lon="4.64224">
        <ele>315.93041992188</ele>
        <time>2010-06-13T06:50:03Z</time>
      </trkpt>
      <trkpt lat="46.00612" lon="4.64224">
        <ele>314.96911621094</ele>
        <time>2010-06-13T06:50:10Z</time>
      </trkpt>
      <trkpt lat="46.00603" lon="4.64223">
        <ele>314.96911621094</ele>
        <time>2010-06-13T06:50:12Z</time>
      </trkpt>
      <trkpt lat="46.00582" lon="4.64209">
        <ele>313.04650878906</ele>
        <time>2010-06-13T06:50:17Z</time>
      </trkpt>
      <trkpt lat="46.00577" lon="4.64204">
        <ele>312.08520507812</ele>
        <time>2010-06-13T06:50:18Z</time>
      </trkpt>
      <trkpt lat="46.00563" lon="4.64192">
        <ele>312.08520507812</ele>
        <time>2010-06-13T06:50:21Z</time>
      </trkpt>
      <trkpt lat="46.00555" lon="4.64185">
        <ele>311.6044921875</ele>
        <time>2010-06-13T06:50:23Z</time>
      </trkpt>
      <trkpt lat="46.00544" lon="4.64167">
        <ele>310.16247558594</ele>
        <time>2010-06-13T06:50:27Z</time>
      </trkpt>
      <trkpt lat="46.00531" lon="4.64138">
        <ele>306.7978515625</ele>
        <time>2010-06-13T06:50:32Z</time>
      </trkpt>
      <trkpt lat="46.00528" lon="4.64131">
        <ele>306.7978515625</ele>
        <time>2010-06-13T06:50:33Z</time>
      </trkpt>
      <trkpt lat="46.00521" lon="4.64118">
        <ele>305.35595703125</ele>
        <time>2010-06-13T06:50:35Z</time>
      </trkpt>
      <trkpt lat="46.00507" lon="4.6409">
        <ele>301.51062011719</ele>
        <time>2010-06-13T06:50:39Z</time>
      </trkpt>
      <trkpt lat="46.00501" lon="4.64077">
        <ele>300.06872558594</ele>
        <time>2010-06-13T06:50:41Z</time>
      </trkpt>
      <trkpt lat="46.00495" lon="4.64064">
        <ele>296.7041015625</ele>
        <time>2010-06-13T06:50:45Z</time>
      </trkpt>
      <trkpt lat="46.00495" lon="4.64061">
        <ele>298.62670898438</ele>
        <time>2010-06-13T06:50:50Z</time>
      </trkpt>
      <trkpt lat="46.00497" lon="4.64054">
        <ele>298.62670898438</ele>
        <time>2010-06-13T06:50:56Z</time>
      </trkpt>
      <trkpt lat="46.00496" lon="4.64039">
        <ele>298.62670898438</ele>
        <time>2010-06-13T06:51:02Z</time>
      </trkpt>
      <trkpt lat="46.00497" lon="4.64032">
        <ele>298.62670898438</ele>
        <time>2010-06-13T06:51:04Z</time>
      </trkpt>
      <trkpt lat="46.005" lon="4.63997">
        <ele>299.10729980469</ele>
        <time>2010-06-13T06:51:13Z</time>
      </trkpt>
      <trkpt lat="46.00504" lon="4.63964">
        <ele>299.58801269531</ele>
        <time>2010-06-13T06:51:20Z</time>
      </trkpt>
      <trkpt lat="46.00506" lon="4.63922">
        <ele>298.62670898438</ele>
        <time>2010-06-13T06:51:27Z</time>
      </trkpt>
      <trkpt lat="46.00508" lon="4.63903">
        <ele>297.66540527344</ele>
        <time>2010-06-13T06:51:30Z</time>
      </trkpt>
      <trkpt lat="46.00512" lon="4.63883">
        <ele>298.62670898438</ele>
        <time>2010-06-13T06:51:34Z</time>
      </trkpt>
      <trkpt lat="46.00516" lon="4.63869">
        <ele>300.06872558594</ele>
        <time>2010-06-13T06:51:39Z</time>
      </trkpt>
      <trkpt lat="46.00522" lon="4.63853">
        <ele>302.47192382812</ele>
        <time>2010-06-13T06:51:46Z</time>
      </trkpt>
      <trkpt lat="46.00528" lon="4.63838">
        <ele>304.39465332031</ele>
        <time>2010-06-13T06:51:53Z</time>
      </trkpt>
      <trkpt lat="46.00534" lon="4.6382">
        <ele>306.31726074219</ele>
        <time>2010-06-13T06:52:02Z</time>
      </trkpt>
      <trkpt lat="46.0054" lon="4.63804">
        <ele>307.75927734375</ele>
        <time>2010-06-13T06:52:10Z</time>
      </trkpt>
      <trkpt lat="46.00546" lon="4.63786">
        <ele>309.201171875</ele>
        <time>2010-06-13T06:52:19Z</time>
      </trkpt>
      <trkpt lat="46.00554" lon="4.63764">
        <ele>312.08520507812</ele>
        <time>2010-06-13T06:52:29Z</time>
      </trkpt>
      <trkpt lat="46.0056" lon="4.63748">
        <ele>313.04650878906</ele>
        <time>2010-06-13T06:52:36Z</time>
      </trkpt>
      <trkpt lat="46.00573" lon="4.63721">
        <ele>314.0078125</ele>
        <time>2010-06-13T06:52:45Z</time>
      </trkpt>
      <trkpt lat="46.00581" lon="4.63702">
        <ele>314.96911621094</ele>
        <time>2010-06-13T06:52:52Z</time>
      </trkpt>
      <trkpt lat="46.0059" lon="4.63681">
        <ele>315.93041992188</ele>
        <time>2010-06-13T06:53:00Z</time>
      </trkpt>
      <trkpt lat="46.00599" lon="4.63661">
        <ele>315.93041992188</ele>
        <time>2010-06-13T06:53:07Z</time>
      </trkpt>
      <trkpt lat="46.00606" lon="4.63643">
        <ele>314.96911621094</ele>
        <time>2010-06-13T06:53:12Z</time>
      </trkpt>
      <trkpt lat="46.0062" lon="4.63613">
        <ele>312.56579589844</ele>
        <time>2010-06-13T06:53:18Z</time>
      </trkpt>
      <trkpt lat="46.00623" lon="4.63608">
        <ele>313.04650878906</ele>
        <time>2010-06-13T06:53:19Z</time>
      </trkpt>
      <trkpt lat="46.00635" lon="4.63593">
        <ele>312.56579589844</ele>
        <time>2010-06-13T06:53:22Z</time>
      </trkpt>
      <trkpt lat="46.00644" lon="4.63581">
        <ele>310.64306640625</ele>
        <time>2010-06-13T06:53:24Z</time>
      </trkpt>
      <trkpt lat="46.00647" lon="4.63564">
        <ele>307.75927734375</ele>
        <time>2010-06-13T06:53:26Z</time>
      </trkpt>
      <trkpt lat="46.00647" lon="4.63549">
        <ele>307.75927734375</ele>
        <time>2010-06-13T06:53:28Z</time>
      </trkpt>
      <trkpt lat="46.0065" lon="4.63533">
        <ele>306.31726074219</ele>
        <time>2010-06-13T06:53:32Z</time>
      </trkpt>
      <trkpt lat="46.00648" lon="4.63528">
        <ele>306.31726074219</ele>
        <time>2010-06-13T06:53:34Z</time>
      </trkpt>
      <trkpt lat="46.00644" lon="4.63523">
        <ele>306.31726074219</ele>
        <time>2010-06-13T06:53:36Z</time>
      </trkpt>
      <trkpt lat="46.00639" lon="4.63516">
        <ele>304.39465332031</ele>
        <time>2010-06-13T06:53:39Z</time>
      </trkpt>
      <trkpt lat="46.00634" lon="4.63497">
        <ele>303.43322753906</ele>
        <time>2010-06-13T06:53:43Z</time>
      </trkpt>
      <trkpt lat="46.0062" lon="4.63483">
        <ele>301.99133300781</ele>
        <time>2010-06-13T06:53:47Z</time>
      </trkpt>
      <trkpt lat="46.00615" lon="4.6348">
        <ele>301.99133300781</ele>
        <time>2010-06-13T06:53:48Z</time>
      </trkpt>
      <trkpt lat="46.0057" lon="4.6345">
        <ele>299.58801269531</ele>
        <time>2010-06-13T06:53:56Z</time>
      </trkpt>
      <trkpt lat="46.00551" lon="4.63438">
        <ele>297.66540527344</ele>
        <time>2010-06-13T06:53:59Z</time>
      </trkpt>
      <trkpt lat="46.00532" lon="4.63426">
        <ele>295.26196289062</ele>
        <time>2010-06-13T06:54:02Z</time>
      </trkpt>
      <trkpt lat="46.00513" lon="4.63415">
        <ele>294.78137207031</ele>
        <time>2010-06-13T06:54:06Z</time>
      </trkpt>
      <trkpt lat="46.00496" lon="4.63406">
        <ele>294.78137207031</ele>
        <time>2010-06-13T06:54:11Z</time>
      </trkpt>
      <trkpt lat="46.00482" lon="4.634">
        <ele>292.85876464844</ele>
        <time>2010-06-13T06:54:16Z</time>
      </trkpt>
      <trkpt lat="46.00477" lon="4.63396">
        <ele>291.8974609375</ele>
        <time>2010-06-13T06:54:25Z</time>
      </trkpt>
      <trkpt lat="46.00476" lon="4.63397">
        <ele>291.41674804688</ele>
        <time>2010-06-13T06:54:44Z</time>
      </trkpt>
      <trkpt lat="46.00471" lon="4.63392">
        <ele>290.93615722656</ele>
        <time>2010-06-13T06:55:04Z</time>
      </trkpt>
      <trkpt lat="46.00459" lon="4.63383">
        <ele>289.97485351562</ele>
        <time>2010-06-13T06:55:07Z</time>
      </trkpt>
      <trkpt lat="46.00444" lon="4.63378">
        <ele>288.53295898438</ele>
        <time>2010-06-13T06:55:09Z</time>
      </trkpt>
      <trkpt lat="46.00426" lon="4.63376">
        <ele>285.64880371094</ele>
        <time>2010-06-13T06:55:11Z</time>
      </trkpt>
      <trkpt lat="46.00401" lon="4.63357">
        <ele>283.24560546875</ele>
        <time>2010-06-13T06:55:14Z</time>
      </trkpt>
      <trkpt lat="46.00381" lon="4.63342">
        <ele>280.84240722656</ele>
        <time>2010-06-13T06:55:17Z</time>
      </trkpt>
      <trkpt lat="46.00359" lon="4.63351">
        <ele>278.91967773438</ele>
        <time>2010-06-13T06:55:20Z</time>
      </trkpt>
      <trkpt lat="46.00322" lon="4.63365">
        <ele>276.03564453125</ele>
        <time>2010-06-13T06:55:25Z</time>
      </trkpt>
      <trkpt lat="46.00297" lon="4.63354">
        <ele>276.51635742188</ele>
        <time>2010-06-13T06:55:30Z</time>
      </trkpt>
      <trkpt lat="46.00278" lon="4.63345">
        <ele>278.91967773438</ele>
        <time>2010-06-13T06:55:36Z</time>
      </trkpt>
      <trkpt lat="46.00262" lon="4.63338">
        <ele>280.36169433594</ele>
        <time>2010-06-13T06:55:42Z</time>
      </trkpt>
      <trkpt lat="46.00238" lon="4.63334">
        <ele>283.72619628906</ele>
        <time>2010-06-13T06:55:50Z</time>
      </trkpt>
      <trkpt lat="46.00228" lon="4.63333">
        <ele>284.20690917969</ele>
        <time>2010-06-13T06:55:54Z</time>
      </trkpt>
      <trkpt lat="46.00216" lon="4.6334">
        <ele>287.0908203125</ele>
        <time>2010-06-13T06:56:00Z</time>
      </trkpt>
      <trkpt lat="46.00204" lon="4.63345">
        <ele>288.53295898438</ele>
        <time>2010-06-13T06:56:06Z</time>
      </trkpt>
      <trkpt lat="46.00188" lon="4.63352">
        <ele>290.45556640625</ele>
        <time>2010-06-13T06:56:14Z</time>
      </trkpt>
      <trkpt lat="46.00167" lon="4.6336">
        <ele>292.37817382812</ele>
        <time>2010-06-13T06:56:25Z</time>
      </trkpt>
      <trkpt lat="46.00157" lon="4.63367">
        <ele>295.26196289062</ele>
        <time>2010-06-13T06:56:32Z</time>
      </trkpt>
      <trkpt lat="46.00144" lon="4.63373">
        <ele>297.66540527344</ele>
        <time>2010-06-13T06:56:40Z</time>
      </trkpt>
      <trkpt lat="46.00129" lon="4.63379">
        <ele>299.10729980469</ele>
        <time>2010-06-13T06:56:49Z</time>
      </trkpt>
      <trkpt lat="46.00109" lon="4.63388">
        <ele>301.51062011719</ele>
        <time>2010-06-13T06:57:00Z</time>
      </trkpt>
      <trkpt lat="46.00097" lon="4.63393">
        <ele>303.43322753906</ele>
        <time>2010-06-13T06:57:07Z</time>
      </trkpt>
      <trkpt lat="46.00076" lon="4.63393">
        <ele>304.87524414062</ele>
        <time>2010-06-13T06:57:17Z</time>
      </trkpt>
      <trkpt lat="46.00055" lon="4.63393">
        <ele>305.83666992188</ele>
        <time>2010-06-13T06:57:26Z</time>
      </trkpt>
      <trkpt lat="46.00037" lon="4.63394">
        <ele>307.75927734375</ele>
        <time>2010-06-13T06:57:34Z</time>
      </trkpt>
      <trkpt lat="46.00029" lon="4.63404">
        <ele>308.23986816406</ele>
        <time>2010-06-13T06:57:39Z</time>
      </trkpt>
      <trkpt lat="46.0002" lon="4.63406">
        <ele>308.72045898438</ele>
        <time>2010-06-13T06:57:43Z</time>
      </trkpt>
      <trkpt lat="46.00005" lon="4.63406">
        <ele>310.16247558594</ele>
        <time>2010-06-13T06:57:50Z</time>
      </trkpt>
      <trkpt lat="45.99987" lon="4.63407">
        <ele>311.12377929688</ele>
        <time>2010-06-13T06:57:58Z</time>
      </trkpt>
      <trkpt lat="45.99964" lon="4.63408">
        <ele>312.56579589844</ele>
        <time>2010-06-13T06:58:07Z</time>
      </trkpt>
      <trkpt lat="45.99944" lon="4.6341">
        <ele>313.04650878906</ele>
        <time>2010-06-13T06:58:14Z</time>
      </trkpt>
      <trkpt lat="45.99942" lon="4.63424">
        <ele>313.52722167969</ele>
        <time>2010-06-13T06:58:19Z</time>
      </trkpt>
      <trkpt lat="45.99946" lon="4.63444">
        <ele>313.04650878906</ele>
        <time>2010-06-13T06:58:23Z</time>
      </trkpt>
      <trkpt lat="45.9995" lon="4.63456">
        <ele>312.56579589844</ele>
        <time>2010-06-13T06:58:25Z</time>
      </trkpt>
      <trkpt lat="45.9996" lon="4.6348">
        <ele>310.64306640625</ele>
        <time>2010-06-13T06:58:29Z</time>
      </trkpt>
      <trkpt lat="45.99953" lon="4.63493">
        <ele>311.12377929688</ele>
        <time>2010-06-13T06:58:32Z</time>
      </trkpt>
      <trkpt lat="45.9995" lon="4.63494">
        <ele>310.16247558594</ele>
        <time>2010-06-13T06:58:33Z</time>
      </trkpt>
      <trkpt lat="45.99939" lon="4.63493">
        <ele>311.6044921875</ele>
        <time>2010-06-13T06:58:36Z</time>
      </trkpt>
      <trkpt lat="45.99917" lon="4.63498">
        <ele>311.6044921875</ele>
        <time>2010-06-13T06:58:43Z</time>
      </trkpt>
      <trkpt lat="45.99898" lon="4.63506">
        <ele>313.04650878906</ele>
        <time>2010-06-13T06:58:49Z</time>
      </trkpt>
      <trkpt lat="45.99877" lon="4.63514">
        <ele>312.56579589844</ele>
        <time>2010-06-13T06:58:55Z</time>
      </trkpt>
      <trkpt lat="45.99857" lon="4.63521">
        <ele>313.04650878906</ele>
        <time>2010-06-13T06:59:00Z</time>
      </trkpt>
      <trkpt lat="45.99828" lon="4.6353">
        <ele>314.96911621094</ele>
        <time>2010-06-13T06:59:08Z</time>
      </trkpt>
      <trkpt lat="45.99793" lon="4.63538">
        <ele>314.96911621094</ele>
        <time>2010-06-13T06:59:17Z</time>
      </trkpt>
      <trkpt lat="45.99764" lon="4.63533">
        <ele>315.93041992188</ele>
        <time>2010-06-13T06:59:25Z</time>
      </trkpt>
      <trkpt lat="45.99738" lon="4.63531">
        <ele>317.85302734375</ele>
        <time>2010-06-13T06:59:33Z</time>
      </trkpt>
      <trkpt lat="45.99711" lon="4.63538">
        <ele>319.77563476562</ele>
        <time>2010-06-13T06:59:42Z</time>
      </trkpt>
      <trkpt lat="45.99685" lon="4.63543">
        <ele>322.65966796875</ele>
        <time>2010-06-13T06:59:51Z</time>
      </trkpt>
      <trkpt lat="45.99663" lon="4.63542">
        <ele>324.58227539062</ele>
        <time>2010-06-13T06:59:59Z</time>
      </trkpt>
      <trkpt lat="45.99637" lon="4.63542">
        <ele>326.98559570312</ele>
        <time>2010-06-13T07:00:09Z</time>
      </trkpt>
      <trkpt lat="45.99624" lon="4.63542">
        <ele>328.42761230469</ele>
        <time>2010-06-13T07:00:14Z</time>
      </trkpt>
      <trkpt lat="45.99621" lon="4.63554">
        <ele>329.38891601562</ele>
        <time>2010-06-13T07:00:18Z</time>
      </trkpt>
      <trkpt lat="45.99627" lon="4.63586">
        <ele>328.42761230469</ele>
        <time>2010-06-13T07:00:23Z</time>
      </trkpt>
      <trkpt lat="45.99632" lon="4.6365">
        <ele>327.46618652344</ele>
        <time>2010-06-13T07:00:32Z</time>
      </trkpt>
      <trkpt lat="45.99642" lon="4.63719">
        <ele>326.5048828125</ele>
        <time>2010-06-13T07:00:41Z</time>
      </trkpt>
      <trkpt lat="45.99651" lon="4.63762">
        <ele>326.02416992188</ele>
        <time>2010-06-13T07:00:46Z</time>
      </trkpt>
      <trkpt lat="45.99675" lon="4.63825">
        <ele>324.1015625</ele>
        <time>2010-06-13T07:00:53Z</time>
      </trkpt>
      <trkpt lat="45.99693" lon="4.63895">
        <ele>322.17895507812</ele>
        <time>2010-06-13T07:01:00Z</time>
      </trkpt>
      <trkpt lat="45.99701" lon="4.6397">
        <ele>319.77563476562</ele>
        <time>2010-06-13T07:01:07Z</time>
      </trkpt>
      <trkpt lat="45.99709" lon="4.64014">
        <ele>318.33361816406</ele>
        <time>2010-06-13T07:01:11Z</time>
      </trkpt>
      <trkpt lat="45.99709" lon="4.64047">
        <ele>316.41101074219</ele>
        <time>2010-06-13T07:01:14Z</time>
      </trkpt>
      <trkpt lat="45.99697" lon="4.64058">
        <ele>315.44982910156</ele>
        <time>2010-06-13T07:01:17Z</time>
      </trkpt>
      <trkpt lat="45.99686" lon="4.64058">
        <ele>316.41101074219</ele>
        <time>2010-06-13T07:01:21Z</time>
      </trkpt>
      <trkpt lat="45.99665" lon="4.64053">
        <ele>318.81433105469</ele>
        <time>2010-06-13T07:01:30Z</time>
      </trkpt>
      <trkpt lat="45.99647" lon="4.64047">
        <ele>320.73706054688</ele>
        <time>2010-06-13T07:01:39Z</time>
      </trkpt>
      <trkpt lat="45.99632" lon="4.64036">
        <ele>324.58227539062</ele>
        <time>2010-06-13T07:01:49Z</time>
      </trkpt>
      <trkpt lat="45.99631" lon="4.64035">
        <ele>324.58227539062</ele>
        <time>2010-06-13T07:01:50Z</time>
      </trkpt>
      <trkpt lat="45.9962" lon="4.64021">
        <ele>326.5048828125</ele>
        <time>2010-06-13T07:01:59Z</time>
      </trkpt>
      <trkpt lat="45.99607" lon="4.64002">
        <ele>328.90832519531</ele>
        <time>2010-06-13T07:02:10Z</time>
      </trkpt>
      <trkpt lat="45.99597" lon="4.63988">
        <ele>331.3115234375</ele>
        <time>2010-06-13T07:02:19Z</time>
      </trkpt>
      <trkpt lat="45.99586" lon="4.63972">
        <ele>333.71472167969</ele>
        <time>2010-06-13T07:02:30Z</time>
      </trkpt>
      <trkpt lat="45.99581" lon="4.63961">
        <ele>335.15673828125</ele>
        <time>2010-06-13T07:02:36Z</time>
      </trkpt>
      <trkpt lat="45.99575" lon="4.6395">
        <ele>336.59887695312</ele>
        <time>2010-06-13T07:02:43Z</time>
      </trkpt>
      <trkpt lat="45.99571" lon="4.63945">
        <ele>337.07946777344</ele>
        <time>2010-06-13T07:02:46Z</time>
      </trkpt>
      <trkpt lat="45.99565" lon="4.63932">
        <ele>339.48266601562</ele>
        <time>2010-06-13T07:02:53Z</time>
      </trkpt>
      <trkpt lat="45.9956" lon="4.63921">
        <ele>340.92468261719</ele>
        <time>2010-06-13T07:02:59Z</time>
      </trkpt>
      <trkpt lat="45.99558" lon="4.63916">
        <ele>341.4052734375</ele>
        <time>2010-06-13T07:03:02Z</time>
      </trkpt>
      <trkpt lat="45.99553" lon="4.639">
        <ele>344.28942871094</ele>
        <time>2010-06-13T07:03:10Z</time>
      </trkpt>
      <trkpt lat="45.99548" lon="4.63887">
        <ele>345.73132324219</ele>
        <time>2010-06-13T07:03:17Z</time>
      </trkpt>
      <trkpt lat="45.99546" lon="4.63875">
        <ele>347.17321777344</ele>
        <time>2010-06-13T07:03:24Z</time>
      </trkpt>
      <trkpt lat="45.99543" lon="4.6386">
        <ele>348.615234375</ele>
        <time>2010-06-13T07:03:32Z</time>
      </trkpt>
      <trkpt lat="45.99539" lon="4.63854">
        <ele>349.09582519531</ele>
        <time>2010-06-13T07:03:38Z</time>
      </trkpt>
      <trkpt lat="45.99533" lon="4.63849">
        <ele>350.53784179688</ele>
        <time>2010-06-13T07:03:43Z</time>
      </trkpt>
      <trkpt lat="45.99525" lon="4.63838">
        <ele>352.46057128906</ele>
        <time>2010-06-13T07:03:51Z</time>
      </trkpt>
      <trkpt lat="45.9952" lon="4.63833">
        <ele>352.94116210938</ele>
        <time>2010-06-13T07:03:55Z</time>
      </trkpt>
      <trkpt lat="45.99514" lon="4.63827">
        <ele>354.86376953125</ele>
        <time>2010-06-13T07:04:00Z</time>
      </trkpt>
      <trkpt lat="45.99508" lon="4.6382">
        <ele>355.8251953125</ele>
        <time>2010-06-13T07:04:06Z</time>
      </trkpt>
      <trkpt lat="45.99498" lon="4.63809">
        <ele>357.26708984375</ele>
        <time>2010-06-13T07:04:14Z</time>
      </trkpt>
      <trkpt lat="45.99487" lon="4.63797">
        <ele>359.67041015625</ele>
        <time>2010-06-13T07:04:23Z</time>
      </trkpt>
      <trkpt lat="45.99475" lon="4.63789">
        <ele>359.67041015625</ele>
        <time>2010-06-13T07:04:30Z</time>
      </trkpt>
      <trkpt lat="45.99464" lon="4.63782">
        <ele>360.15112304688</ele>
        <time>2010-06-13T07:04:36Z</time>
      </trkpt>
      <trkpt lat="45.9945" lon="4.63772">
        <ele>360.63171386719</ele>
        <time>2010-06-13T07:04:44Z</time>
      </trkpt>
      <trkpt lat="45.9944" lon="4.63764">
        <ele>360.63171386719</ele>
        <time>2010-06-13T07:04:50Z</time>
      </trkpt>
      <trkpt lat="45.99428" lon="4.63752">
        <ele>361.59313964844</ele>
        <time>2010-06-13T07:04:56Z</time>
      </trkpt>
      <trkpt lat="45.99413" lon="4.63733">
        <ele>362.55432128906</ele>
        <time>2010-06-13T07:05:03Z</time>
      </trkpt>
      <trkpt lat="45.99403" lon="4.63717">
        <ele>363.99633789062</ele>
        <time>2010-06-13T07:05:09Z</time>
      </trkpt>
      <trkpt lat="45.99389" lon="4.63702">
        <ele>364.95764160156</ele>
        <time>2010-06-13T07:05:16Z</time>
      </trkpt>
      <trkpt lat="45.99369" lon="4.63681">
        <ele>364.95764160156</ele>
        <time>2010-06-13T07:05:24Z</time>
      </trkpt>
      <trkpt lat="45.99352" lon="4.63663">
        <ele>366.39953613281</ele>
        <time>2010-06-13T07:05:31Z</time>
      </trkpt>
      <trkpt lat="45.99345" lon="4.63641">
        <ele>365.9189453125</ele>
        <time>2010-06-13T07:05:36Z</time>
      </trkpt>
      <trkpt lat="45.99339" lon="4.6362">
        <ele>365.43835449219</ele>
        <time>2010-06-13T07:05:40Z</time>
      </trkpt>
      <trkpt lat="45.99328" lon="4.6359">
        <ele>366.39953613281</ele>
        <time>2010-06-13T07:05:46Z</time>
      </trkpt>
      <trkpt lat="45.99311" lon="4.63582">
        <ele>367.36096191406</ele>
        <time>2010-06-13T07:05:51Z</time>
      </trkpt>
      <trkpt lat="45.99307" lon="4.63566">
        <ele>367.36096191406</ele>
        <time>2010-06-13T07:05:55Z</time>
      </trkpt>
      <trkpt lat="45.99303" lon="4.63523">
        <ele>366.39953613281</ele>
        <time>2010-06-13T07:06:03Z</time>
      </trkpt>
      <trkpt lat="45.99298" lon="4.63489">
        <ele>367.36096191406</ele>
        <time>2010-06-13T07:06:10Z</time>
      </trkpt>
      <trkpt lat="45.99294" lon="4.63446">
        <ele>366.88024902344</ele>
        <time>2010-06-13T07:06:19Z</time>
      </trkpt>
      <trkpt lat="45.99282" lon="4.63406">
        <ele>367.84155273438</ele>
        <time>2010-06-13T07:06:29Z</time>
      </trkpt>
      <trkpt lat="45.99274" lon="4.63382">
        <ele>369.28369140625</ele>
        <time>2010-06-13T07:06:36Z</time>
      </trkpt>
      <trkpt lat="45.99273" lon="4.6336">
        <ele>369.28369140625</ele>
        <time>2010-06-13T07:06:42Z</time>
      </trkpt>
      <trkpt lat="45.99277" lon="4.63323">
        <ele>370.24487304688</ele>
        <time>2010-06-13T07:06:52Z</time>
      </trkpt>
      <trkpt lat="45.99282" lon="4.63287">
        <ele>370.24487304688</ele>
        <time>2010-06-13T07:07:02Z</time>
      </trkpt>
      <trkpt lat="45.99283" lon="4.63259">
        <ele>371.20629882812</ele>
        <time>2010-06-13T07:07:11Z</time>
      </trkpt>
      <trkpt lat="45.99279" lon="4.63251">
        <ele>372.16748046875</ele>
        <time>2010-06-13T07:07:16Z</time>
      </trkpt>
      <trkpt lat="45.99273" lon="4.63259">
        <ele>372.16748046875</ele>
        <time>2010-06-13T07:07:21Z</time>
      </trkpt>
      <trkpt lat="45.99263" lon="4.63276">
        <ele>371.68688964844</ele>
        <time>2010-06-13T07:07:28Z</time>
      </trkpt>
      <trkpt lat="45.99257" lon="4.63271">
        <ele>373.12890625</ele>
        <time>2010-06-13T07:07:32Z</time>
      </trkpt>
      <trkpt lat="45.99252" lon="4.6326">
        <ele>374.09008789062</ele>
        <time>2010-06-13T07:07:38Z</time>
      </trkpt>
      <trkpt lat="45.99251" lon="4.63258">
        <ele>374.57080078125</ele>
        <time>2010-06-13T07:07:39Z</time>
      </trkpt>
      <trkpt lat="45.99244" lon="4.63245">
        <ele>376.49353027344</ele>
        <time>2010-06-13T07:07:47Z</time>
      </trkpt>
      <trkpt lat="45.99236" lon="4.63238">
        <ele>377.93542480469</ele>
        <time>2010-06-13T07:07:54Z</time>
      </trkpt>
      <trkpt lat="45.99232" lon="4.63237">
        <ele>377.93542480469</ele>
        <time>2010-06-13T07:07:56Z</time>
      </trkpt>
      <trkpt lat="45.99228" lon="4.63227">
        <ele>379.37744140625</ele>
        <time>2010-06-13T07:08:02Z</time>
      </trkpt>
      <trkpt lat="45.99222" lon="4.63207">
        <ele>381.30004882812</ele>
        <time>2010-06-13T07:08:12Z</time>
      </trkpt>
      <trkpt lat="45.99216" lon="4.63184">
        <ele>383.70324707031</ele>
        <time>2010-06-13T07:08:23Z</time>
      </trkpt>
      <trkpt lat="45.99211" lon="4.63165">
        <ele>386.10668945312</ele>
        <time>2010-06-13T07:08:33Z</time>
      </trkpt>
      <trkpt lat="45.99207" lon="4.63149">
        <ele>388.99060058594</ele>
        <time>2010-06-13T07:08:42Z</time>
      </trkpt>
      <trkpt lat="45.99205" lon="4.63145">
        <ele>388.99060058594</ele>
        <time>2010-06-13T07:08:44Z</time>
      </trkpt>
      <trkpt lat="45.99198" lon="4.63147">
        <ele>389.47119140625</ele>
        <time>2010-06-13T07:08:50Z</time>
      </trkpt>
      <trkpt lat="45.99185" lon="4.63156">
        <ele>388.99060058594</ele>
        <time>2010-06-13T07:08:56Z</time>
      </trkpt>
      <trkpt lat="45.99168" lon="4.63156">
        <ele>388.51000976562</ele>
        <time>2010-06-13T07:09:03Z</time>
      </trkpt>
      <trkpt lat="45.99154" lon="4.63144">
        <ele>388.99060058594</ele>
        <time>2010-06-13T07:09:10Z</time>
      </trkpt>
      <trkpt lat="45.99136" lon="4.63128">
        <ele>389.47119140625</ele>
        <time>2010-06-13T07:09:18Z</time>
      </trkpt>
      <trkpt lat="45.99112" lon="4.63113">
        <ele>388.99060058594</ele>
        <time>2010-06-13T07:09:25Z</time>
      </trkpt>
      <trkpt lat="45.99079" lon="4.63091">
        <ele>388.99060058594</ele>
        <time>2010-06-13T07:09:34Z</time>
      </trkpt>
      <trkpt lat="45.99044" lon="4.63072">
        <ele>388.99060058594</ele>
        <time>2010-06-13T07:09:44Z</time>
      </trkpt>
      <trkpt lat="45.99016" lon="4.63057">
        <ele>388.51000976562</ele>
        <time>2010-06-13T07:09:52Z</time>
      </trkpt>
      <trkpt lat="45.98998" lon="4.6304">
        <ele>388.029296875</ele>
        <time>2010-06-13T07:09:58Z</time>
      </trkpt>
      <trkpt lat="45.9898" lon="4.63025">
        <ele>387.54858398438</ele>
        <time>2010-06-13T07:10:04Z</time>
      </trkpt>
      <trkpt lat="45.9898" lon="4.6301">
        <ele>388.51000976562</ele>
        <time>2010-06-13T07:10:08Z</time>
      </trkpt>
      <trkpt lat="45.98983" lon="4.63008">
        <ele>388.99060058594</ele>
        <time>2010-06-13T07:10:10Z</time>
      </trkpt>
      <trkpt lat="45.98996" lon="4.62997">
        <ele>390.91320800781</ele>
        <time>2010-06-13T07:10:18Z</time>
      </trkpt>
      <trkpt lat="45.99007" lon="4.62985">
        <ele>393.31652832031</ele>
        <time>2010-06-13T07:10:26Z</time>
      </trkpt>
      <trkpt lat="45.99019" lon="4.62982">
        <ele>395.23913574219</ele>
        <time>2010-06-13T07:10:33Z</time>
      </trkpt>
      <trkpt lat="45.99037" lon="4.62979">
        <ele>397.16174316406</ele>
        <time>2010-06-13T07:10:43Z</time>
      </trkpt>
      <trkpt lat="45.9905" lon="4.6298">
        <ele>399.56506347656</ele>
        <time>2010-06-13T07:10:51Z</time>
      </trkpt>
      <trkpt lat="45.99065" lon="4.62978">
        <ele>400.52648925781</ele>
        <time>2010-06-13T07:11:00Z</time>
      </trkpt>
      <trkpt lat="45.99068" lon="4.62966">
        <ele>401.00708007812</ele>
        <time>2010-06-13T07:11:05Z</time>
      </trkpt>
      <trkpt lat="45.9907" lon="4.62943">
        <ele>401.96850585938</ele>
        <time>2010-06-13T07:11:13Z</time>
      </trkpt>
      <trkpt lat="45.99075" lon="4.62927">
        <ele>403.89111328125</ele>
        <time>2010-06-13T07:11:20Z</time>
      </trkpt>
      <trkpt lat="45.99086" lon="4.62912">
        <ele>406.29431152344</ele>
        <time>2010-06-13T07:11:29Z</time>
      </trkpt>
      <trkpt lat="45.99095" lon="4.62899">
        <ele>407.736328125</ele>
        <time>2010-06-13T07:11:37Z</time>
      </trkpt>
      <trkpt lat="45.99103" lon="4.62898">
        <ele>408.21704101562</ele>
        <time>2010-06-13T07:11:42Z</time>
      </trkpt>
      <trkpt lat="45.99112" lon="4.62897">
        <ele>408.69763183594</ele>
        <time>2010-06-13T07:11:47Z</time>
      </trkpt>
      <trkpt lat="45.99114" lon="4.62886">
        <ele>409.17834472656</ele>
        <time>2010-06-13T07:11:52Z</time>
      </trkpt>
      <trkpt lat="45.99115" lon="4.62877">
        <ele>409.65905761719</ele>
        <time>2010-06-13T07:11:56Z</time>
      </trkpt>
      <trkpt lat="45.99117" lon="4.62876">
        <ele>410.1396484375</ele>
        <time>2010-06-13T07:11:58Z</time>
      </trkpt>
      <trkpt lat="45.99124" lon="4.62874">
        <ele>410.62023925781</ele>
        <time>2010-06-13T07:12:03Z</time>
      </trkpt>
      <trkpt lat="45.99125" lon="4.62872">
        <ele>411.10095214844</ele>
        <time>2010-06-13T07:12:04Z</time>
      </trkpt>
      <trkpt lat="45.99131" lon="4.62874">
        <ele>411.58166503906</ele>
        <time>2010-06-13T07:12:08Z</time>
      </trkpt>
      <trkpt lat="45.99141" lon="4.62876">
        <ele>412.54284667969</ele>
        <time>2010-06-13T07:12:14Z</time>
      </trkpt>
      <trkpt lat="45.99151" lon="4.62877">
        <ele>413.02355957031</ele>
        <time>2010-06-13T07:12:20Z</time>
      </trkpt>
      <trkpt lat="45.99164" lon="4.62882">
        <ele>413.98486328125</ele>
        <time>2010-06-13T07:12:26Z</time>
      </trkpt>
      <trkpt lat="45.99168" lon="4.62883">
        <ele>413.98486328125</ele>
        <time>2010-06-13T07:12:28Z</time>
      </trkpt>
      <trkpt lat="45.99179" lon="4.62885">
        <ele>413.98486328125</ele>
        <time>2010-06-13T07:12:33Z</time>
      </trkpt>
      <trkpt lat="45.99183" lon="4.6288">
        <ele>414.46545410156</ele>
        <time>2010-06-13T07:12:39Z</time>
      </trkpt>
      <trkpt lat="45.99183" lon="4.6288">
        <ele>413.98486328125</ele>
        <time>2010-06-13T07:12:43Z</time>
      </trkpt>
      <trkpt lat="45.99187" lon="4.62878">
        <ele>413.50427246094</ele>
        <time>2010-06-13T07:12:48Z</time>
      </trkpt>
      <trkpt lat="45.99187" lon="4.62878">
        <ele>413.50427246094</ele>
        <time>2010-06-13T07:12:53Z</time>
      </trkpt>
      <trkpt lat="45.99188" lon="4.62877">
        <ele>413.50427246094</ele>
        <time>2010-06-13T07:13:13Z</time>
      </trkpt>
      <trkpt lat="45.99179" lon="4.62878">
        <ele>413.98486328125</ele>
        <time>2010-06-13T07:13:19Z</time>
      </trkpt>
      <trkpt lat="45.99177" lon="4.6288">
        <ele>413.50427246094</ele>
        <time>2010-06-13T07:13:23Z</time>
      </trkpt>
      <trkpt lat="45.99174" lon="4.62882">
        <ele>413.50427246094</ele>
        <time>2010-06-13T07:13:28Z</time>
      </trkpt>
      <trkpt lat="45.99178" lon="4.62881">
        <ele>413.50427246094</ele>
        <time>2010-06-13T07:14:28Z</time>
      </trkpt>
      <trkpt lat="45.99178" lon="4.62884">
        <ele>413.50427246094</ele>
        <time>2010-06-13T07:14:39Z</time>
      </trkpt>
      <trkpt lat="45.99175" lon="4.6288">
        <ele>413.50427246094</ele>
        <time>2010-06-13T07:15:04Z</time>
      </trkpt>
      <trkpt lat="45.99176" lon="4.62882">
        <ele>412.06225585938</ele>
        <time>2010-06-13T07:15:10Z</time>
      </trkpt>
      <trkpt lat="45.99177" lon="4.62881">
        <ele>413.50427246094</ele>
        <time>2010-06-13T07:15:25Z</time>
      </trkpt>
      <trkpt lat="45.99176" lon="4.62881">
        <ele>413.50427246094</ele>
        <time>2010-06-13T07:15:56Z</time>
      </trkpt>
      <trkpt lat="45.99176" lon="4.62881">
        <ele>413.50427246094</ele>
        <time>2010-06-13T07:16:10Z</time>
      </trkpt>
      <trkpt lat="45.99173" lon="4.62877">
        <ele>413.50427246094</ele>
        <time>2010-06-13T07:16:29Z</time>
      </trkpt>
      <trkpt lat="45.99179" lon="4.62882">
        <ele>413.50427246094</ele>
        <time>2010-06-13T07:17:07Z</time>
      </trkpt>
      <trkpt lat="45.99175" lon="4.62881">
        <ele>413.02355957031</ele>
        <time>2010-06-13T07:17:22Z</time>
      </trkpt>
      <trkpt lat="45.99173" lon="4.62882">
        <ele>413.50427246094</ele>
        <time>2010-06-13T07:17:28Z</time>
      </trkpt>
      <trkpt lat="45.99176" lon="4.62878">
        <ele>413.50427246094</ele>
        <time>2010-06-13T07:17:37Z</time>
      </trkpt>
      <trkpt lat="45.99176" lon="4.62879">
        <ele>413.50427246094</ele>
        <time>2010-06-13T07:17:51Z</time>
      </trkpt>
      <trkpt lat="45.99175" lon="4.6288">
        <ele>413.50427246094</ele>
        <time>2010-06-13T07:17:56Z</time>
      </trkpt>
      <trkpt lat="45.99176" lon="4.62882">
        <ele>413.02355957031</ele>
        <time>2010-06-13T07:18:02Z</time>
      </trkpt>
      <trkpt lat="45.99176" lon="4.62879">
        <ele>413.50427246094</ele>
        <time>2010-06-13T07:18:12Z</time>
      </trkpt>
      <trkpt lat="45.99179" lon="4.6288">
        <ele>413.98486328125</ele>
        <time>2010-06-13T07:18:41Z</time>
      </trkpt>
      <trkpt lat="45.99178" lon="4.62879">
        <ele>413.98486328125</ele>
        <time>2010-06-13T07:18:53Z</time>
      </trkpt>
      <trkpt lat="45.99181" lon="4.62878">
        <ele>413.50427246094</ele>
        <time>2010-06-13T07:19:03Z</time>
      </trkpt>
      <trkpt lat="45.99181" lon="4.62878">
        <ele>413.50427246094</ele>
        <time>2010-06-13T07:19:05Z</time>
      </trkpt>
      <trkpt lat="45.99184" lon="4.62881">
        <ele>413.50427246094</ele>
        <time>2010-06-13T07:19:11Z</time>
      </trkpt>
      <trkpt lat="45.99184" lon="4.62881">
        <ele>413.98486328125</ele>
        <time>2010-06-13T07:19:16Z</time>
      </trkpt>
      <trkpt lat="45.99185" lon="4.62881">
        <ele>414.46545410156</ele>
        <time>2010-06-13T07:19:22Z</time>
      </trkpt>
      <trkpt lat="45.99186" lon="4.6288">
        <ele>414.94616699219</ele>
        <time>2010-06-13T07:19:26Z</time>
      </trkpt>
      <trkpt lat="45.99194" lon="4.62883">
        <ele>415.42687988281</ele>
        <time>2010-06-13T07:19:32Z</time>
      </trkpt>
      <trkpt lat="45.99199" lon="4.62882">
        <ele>414.94616699219</ele>
        <time>2010-06-13T07:19:35Z</time>
      </trkpt>
      <trkpt lat="45.99206" lon="4.6288">
        <ele>414.94616699219</ele>
        <time>2010-06-13T07:19:40Z</time>
      </trkpt>
      <trkpt lat="45.99207" lon="4.6287">
        <ele>414.46545410156</ele>
        <time>2010-06-13T07:19:44Z</time>
      </trkpt>
      <trkpt lat="45.99208" lon="4.62861">
        <ele>413.02355957031</ele>
        <time>2010-06-13T07:19:52Z</time>
      </trkpt>
      <trkpt lat="45.99207" lon="4.62858">
        <ele>413.50427246094</ele>
        <time>2010-06-13T07:20:02Z</time>
      </trkpt>
      <trkpt lat="45.99207" lon="4.62855">
        <ele>412.54284667969</ele>
        <time>2010-06-13T07:20:08Z</time>
      </trkpt>
      <trkpt lat="45.99208" lon="4.62848">
        <ele>410.1396484375</ele>
        <time>2010-06-13T07:20:16Z</time>
      </trkpt>
      <trkpt lat="45.99207" lon="4.62842">
        <ele>408.21704101562</ele>
        <time>2010-06-13T07:20:23Z</time>
      </trkpt>
      <trkpt lat="45.99207" lon="4.62841">
        <ele>408.21704101562</ele>
        <time>2010-06-13T07:20:25Z</time>
      </trkpt>
      <trkpt lat="45.99208" lon="4.62831">
        <ele>407.25561523438</ele>
        <time>2010-06-13T07:20:31Z</time>
      </trkpt>
      <trkpt lat="45.99208" lon="4.62825">
        <ele>405.81372070312</ele>
        <time>2010-06-13T07:20:34Z</time>
      </trkpt>
      <trkpt lat="45.99214" lon="4.62817">
        <ele>403.41040039062</ele>
        <time>2010-06-13T07:20:39Z</time>
      </trkpt>
      <trkpt lat="45.9922" lon="4.62812">
        <ele>402.44909667969</ele>
        <time>2010-06-13T07:20:41Z</time>
      </trkpt>
      <trkpt lat="45.99228" lon="4.6279">
        <ele>398.60375976562</ele>
        <time>2010-06-13T07:20:45Z</time>
      </trkpt>
      <trkpt lat="45.99229" lon="4.62774">
        <ele>394.75854492188</ele>
        <time>2010-06-13T07:20:47Z</time>
      </trkpt>
      <trkpt lat="45.99233" lon="4.6274">
        <ele>392.8359375</ele>
        <time>2010-06-13T07:20:52Z</time>
      </trkpt>
      <trkpt lat="45.99234" lon="4.6272">
        <ele>389.47119140625</ele>
        <time>2010-06-13T07:20:55Z</time>
      </trkpt>
      <trkpt lat="45.99236" lon="4.62692">
        <ele>386.10668945312</ele>
        <time>2010-06-13T07:20:59Z</time>
      </trkpt>
      <trkpt lat="45.99237" lon="4.62677">
        <ele>385.14538574219</ele>
        <time>2010-06-13T07:21:01Z</time>
      </trkpt>
      <trkpt lat="45.9924" lon="4.62657">
        <ele>383.70324707031</ele>
        <time>2010-06-13T07:21:04Z</time>
      </trkpt>
      <trkpt lat="45.9924" lon="4.62641">
        <ele>381.78063964844</ele>
        <time>2010-06-13T07:21:06Z</time>
      </trkpt>
      <trkpt lat="45.99242" lon="4.62616">
        <ele>379.85803222656</ele>
        <time>2010-06-13T07:21:09Z</time>
      </trkpt>
      <trkpt lat="45.99243" lon="4.6259">
        <ele>378.41613769531</ele>
        <time>2010-06-13T07:21:12Z</time>
      </trkpt>
      <trkpt lat="45.99246" lon="4.62541">
        <ele>375.05151367188</ele>
        <time>2010-06-13T07:21:18Z</time>
      </trkpt>
      <trkpt lat="45.99245" lon="4.62533">
        <ele>375.05151367188</ele>
        <time>2010-06-13T07:21:20Z</time>
      </trkpt>
      <trkpt lat="45.99253" lon="4.62532">
        <ele>375.05151367188</ele>
        <time>2010-06-13T07:21:24Z</time>
      </trkpt>
      <trkpt lat="45.99263" lon="4.62526">
        <ele>373.12890625</ele>
        <time>2010-06-13T07:21:27Z</time>
      </trkpt>
      <trkpt lat="45.99268" lon="4.62513">
        <ele>373.60949707031</ele>
        <time>2010-06-13T07:21:29Z</time>
      </trkpt>
      <trkpt lat="45.9928" lon="4.62482">
        <ele>373.60949707031</ele>
        <time>2010-06-13T07:21:35Z</time>
      </trkpt>
      <trkpt lat="45.9929" lon="4.62452">
        <ele>371.68688964844</ele>
        <time>2010-06-13T07:21:42Z</time>
      </trkpt>
      <trkpt lat="45.99298" lon="4.6243">
        <ele>369.76428222656</ele>
        <time>2010-06-13T07:21:45Z</time>
      </trkpt>
      <trkpt lat="45.99295" lon="4.62403">
        <ele>370.24487304688</ele>
        <time>2010-06-13T07:21:49Z</time>
      </trkpt>
      <trkpt lat="45.99292" lon="4.6239">
        <ele>371.68688964844</ele>
        <time>2010-06-13T07:21:52Z</time>
      </trkpt>
      <trkpt lat="45.99299" lon="4.62385">
        <ele>372.16748046875</ele>
        <time>2010-06-13T07:21:54Z</time>
      </trkpt>
      <trkpt lat="45.9931" lon="4.62378">
        <ele>371.68688964844</ele>
        <time>2010-06-13T07:21:57Z</time>
      </trkpt>
      <trkpt lat="45.9934" lon="4.62369">
        <ele>372.16748046875</ele>
        <time>2010-06-13T07:22:05Z</time>
      </trkpt>
      <trkpt lat="45.99353" lon="4.62356">
        <ele>373.12890625</ele>
        <time>2010-06-13T07:22:10Z</time>
      </trkpt>
      <trkpt lat="45.9936" lon="4.62345">
        <ele>374.09008789062</ele>
        <time>2010-06-13T07:22:15Z</time>
      </trkpt>
      <trkpt lat="45.99359" lon="4.62329">
        <ele>376.97424316406</ele>
        <time>2010-06-13T07:22:23Z</time>
      </trkpt>
      <trkpt lat="45.99357" lon="4.62306">
        <ele>378.89685058594</ele>
        <time>2010-06-13T07:22:33Z</time>
      </trkpt>
      <trkpt lat="45.99352" lon="4.62285">
        <ele>381.78063964844</ele>
        <time>2010-06-13T07:22:43Z</time>
      </trkpt>
      <trkpt lat="45.99347" lon="4.62274">
        <ele>383.22265625</ele>
        <time>2010-06-13T07:22:49Z</time>
      </trkpt>
      <trkpt lat="45.99341" lon="4.62262">
        <ele>383.70324707031</ele>
        <time>2010-06-13T07:22:55Z</time>
      </trkpt>
      <trkpt lat="45.99338" lon="4.62247">
        <ele>385.14538574219</ele>
        <time>2010-06-13T07:23:01Z</time>
      </trkpt>
      <trkpt lat="45.9933" lon="4.62241">
        <ele>385.6259765625</ele>
        <time>2010-06-13T07:23:05Z</time>
      </trkpt>
      <trkpt lat="45.99309" lon="4.62235">
        <ele>383.70324707031</ele>
        <time>2010-06-13T07:23:11Z</time>
      </trkpt>
      <trkpt lat="45.99305" lon="4.62229">
        <ele>383.70324707031</ele>
        <time>2010-06-13T07:23:13Z</time>
      </trkpt>
      <trkpt lat="45.99311" lon="4.6221">
        <ele>384.18408203125</ele>
        <time>2010-06-13T07:23:17Z</time>
      </trkpt>
      <trkpt lat="45.99317" lon="4.62186">
        <ele>384.66479492188</ele>
        <time>2010-06-13T07:23:23Z</time>
      </trkpt>
      <trkpt lat="45.99327" lon="4.62162">
        <ele>385.6259765625</ele>
        <time>2010-06-13T07:23:30Z</time>
      </trkpt>
      <trkpt lat="45.99333" lon="4.62156">
        <ele>385.6259765625</ele>
        <time>2010-06-13T07:23:33Z</time>
      </trkpt>
      <trkpt lat="45.99332" lon="4.62148">
        <ele>386.58740234375</ele>
        <time>2010-06-13T07:23:37Z</time>
      </trkpt>
      <trkpt lat="45.99324" lon="4.62146">
        <ele>386.58740234375</ele>
        <time>2010-06-13T07:23:41Z</time>
      </trkpt>
      <trkpt lat="45.9931" lon="4.62138">
        <ele>388.029296875</ele>
        <time>2010-06-13T07:23:49Z</time>
      </trkpt>
      <trkpt lat="45.99299" lon="4.62123">
        <ele>389.47119140625</ele>
        <time>2010-06-13T07:23:57Z</time>
      </trkpt>
      <trkpt lat="45.99292" lon="4.62107">
        <ele>390.91320800781</ele>
        <time>2010-06-13T07:24:04Z</time>
      </trkpt>
      <trkpt lat="45.99284" lon="4.62089">
        <ele>392.35534667969</ele>
        <time>2010-06-13T07:24:12Z</time>
      </trkpt>
      <trkpt lat="45.99275" lon="4.6208">
        <ele>393.31652832031</ele>
        <time>2010-06-13T07:24:19Z</time>
      </trkpt>
      <trkpt lat="45.99264" lon="4.62069">
        <ele>395.23913574219</ele>
        <time>2010-06-13T07:24:27Z</time>
      </trkpt>
      <trkpt lat="45.99249" lon="4.62059">
        <ele>397.16174316406</ele>
        <time>2010-06-13T07:24:37Z</time>
      </trkpt>
      <trkpt lat="45.99238" lon="4.62053">
        <ele>398.12316894531</ele>
        <time>2010-06-13T07:24:45Z</time>
      </trkpt>
      <trkpt lat="45.99226" lon="4.62044">
        <ele>400.0458984375</ele>
        <time>2010-06-13T07:24:54Z</time>
      </trkpt>
      <trkpt lat="45.9922" lon="4.62031">
        <ele>401.48779296875</ele>
        <time>2010-06-13T07:25:01Z</time>
      </trkpt>
      <trkpt lat="45.99215" lon="4.6202">
        <ele>402.44909667969</ele>
        <time>2010-06-13T07:25:08Z</time>
      </trkpt>
      <trkpt lat="45.99207" lon="4.62009">
        <ele>405.3330078125</ele>
        <time>2010-06-13T07:25:16Z</time>
      </trkpt>
      <trkpt lat="45.99199" lon="4.61998">
        <ele>407.25561523438</ele>
        <time>2010-06-13T07:25:25Z</time>
      </trkpt>
      <trkpt lat="45.99191" lon="4.61985">
        <ele>410.1396484375</ele>
        <time>2010-06-13T07:25:34Z</time>
      </trkpt>
      <trkpt lat="45.9919" lon="4.61984">
        <ele>410.1396484375</ele>
        <time>2010-06-13T07:25:35Z</time>
      </trkpt>
      <trkpt lat="45.99186" lon="4.61971">
        <ele>412.06225585938</ele>
        <time>2010-06-13T07:25:43Z</time>
      </trkpt>
      <trkpt lat="45.99182" lon="4.61957">
        <ele>413.98486328125</ele>
        <time>2010-06-13T07:25:51Z</time>
      </trkpt>
      <trkpt lat="45.99184" lon="4.61948">
        <ele>415.90747070312</ele>
        <time>2010-06-13T07:25:55Z</time>
      </trkpt>
      <trkpt lat="45.99192" lon="4.61938">
        <ele>417.349609375</ele>
        <time>2010-06-13T07:26:02Z</time>
      </trkpt>
      <trkpt lat="45.99194" lon="4.6193">
        <ele>418.31079101562</ele>
        <time>2010-06-13T07:26:07Z</time>
      </trkpt>
      <trkpt lat="45.9919" lon="4.61924">
        <ele>418.79150390625</ele>
        <time>2010-06-13T07:26:11Z</time>
      </trkpt>
      <trkpt lat="45.99178" lon="4.61924">
        <ele>419.75280761719</ele>
        <time>2010-06-13T07:26:18Z</time>
      </trkpt>
      <trkpt lat="45.99166" lon="4.61924">
        <ele>420.71411132812</ele>
        <time>2010-06-13T07:26:25Z</time>
      </trkpt>
      <trkpt lat="45.99155" lon="4.61925">
        <ele>420.71411132812</ele>
        <time>2010-06-13T07:26:31Z</time>
      </trkpt>
      <trkpt lat="45.99139" lon="4.61923">
        <ele>420.2333984375</ele>
        <time>2010-06-13T07:26:38Z</time>
      </trkpt>
      <trkpt lat="45.99129" lon="4.6192">
        <ele>419.75280761719</ele>
        <time>2010-06-13T07:26:43Z</time>
      </trkpt>
      <trkpt lat="45.9912" lon="4.61919">
        <ele>419.27221679688</ele>
        <time>2010-06-13T07:26:50Z</time>
      </trkpt>
      <trkpt lat="45.99117" lon="4.6192">
        <ele>419.27221679688</ele>
        <time>2010-06-13T07:26:52Z</time>
      </trkpt>
      <trkpt lat="45.991" lon="4.61922">
        <ele>419.75280761719</ele>
        <time>2010-06-13T07:27:00Z</time>
      </trkpt>
      <trkpt lat="45.99081" lon="4.61924">
        <ele>419.27221679688</ele>
        <time>2010-06-13T07:27:07Z</time>
      </trkpt>
      <trkpt lat="45.99063" lon="4.61923">
        <ele>418.79150390625</ele>
        <time>2010-06-13T07:27:14Z</time>
      </trkpt>
      <trkpt lat="45.99063" lon="4.61912">
        <ele>419.75280761719</ele>
        <time>2010-06-13T07:27:19Z</time>
      </trkpt>
      <trkpt lat="45.99062" lon="4.61897">
        <ele>422.15600585938</ele>
        <time>2010-06-13T07:27:26Z</time>
      </trkpt>
      <trkpt lat="45.99063" lon="4.61893">
        <ele>422.15600585938</ele>
        <time>2010-06-13T07:27:28Z</time>
      </trkpt>
      <trkpt lat="45.99054" lon="4.61891">
        <ele>423.59802246094</ele>
        <time>2010-06-13T07:27:34Z</time>
      </trkpt>
      <trkpt lat="45.99048" lon="4.61893">
        <ele>425.04016113281</ele>
        <time>2010-06-13T07:27:37Z</time>
      </trkpt>
      <trkpt lat="45.99031" lon="4.61895">
        <ele>426.00134277344</ele>
        <time>2010-06-13T07:27:46Z</time>
      </trkpt>
      <trkpt lat="45.99014" lon="4.619">
        <ele>426.96276855469</ele>
        <time>2010-06-13T07:27:54Z</time>
      </trkpt>
      <trkpt lat="45.99002" lon="4.61907">
        <ele>428.88537597656</ele>
        <time>2010-06-13T07:28:01Z</time>
      </trkpt>
      <trkpt lat="45.98989" lon="4.61909">
        <ele>431.76916503906</ele>
        <time>2010-06-13T07:28:09Z</time>
      </trkpt>
      <trkpt lat="45.98984" lon="4.61909">
        <ele>432.25</ele>
        <time>2010-06-13T07:28:13Z</time>
      </trkpt>
      <trkpt lat="45.98981" lon="4.6191">
        <ele>432.73071289062</ele>
        <time>2010-06-13T07:28:15Z</time>
      </trkpt>
      <trkpt lat="45.98975" lon="4.61911">
        <ele>432.25</ele>
        <time>2010-06-13T07:28:22Z</time>
      </trkpt>
      <trkpt lat="45.98974" lon="4.61912">
        <ele>432.73071289062</ele>
        <time>2010-06-13T07:28:30Z</time>
      </trkpt>
      <trkpt lat="45.98972" lon="4.61913">
        <ele>432.73071289062</ele>
        <time>2010-06-13T07:28:35Z</time>
      </trkpt>
      <trkpt lat="45.98967" lon="4.61915">
        <ele>432.73071289062</ele>
        <time>2010-06-13T07:28:40Z</time>
      </trkpt>
      <trkpt lat="45.98956" lon="4.61917">
        <ele>433.69189453125</ele>
        <time>2010-06-13T07:28:47Z</time>
      </trkpt>
      <trkpt lat="45.98942" lon="4.61919">
        <ele>433.69189453125</ele>
        <time>2010-06-13T07:28:53Z</time>
      </trkpt>
      <trkpt lat="45.98923" lon="4.61924">
        <ele>434.17260742188</ele>
        <time>2010-06-13T07:29:00Z</time>
      </trkpt>
      <trkpt lat="45.98906" lon="4.61928">
        <ele>434.17260742188</ele>
        <time>2010-06-13T07:29:05Z</time>
      </trkpt>
      <trkpt lat="45.98884" lon="4.6193">
        <ele>434.17260742188</ele>
        <time>2010-06-13T07:29:11Z</time>
      </trkpt>
      <trkpt lat="45.98862" lon="4.6193">
        <ele>435.13391113281</ele>
        <time>2010-06-13T07:29:18Z</time>
      </trkpt>
      <trkpt lat="45.98844" lon="4.61928">
        <ele>435.61450195312</ele>
        <time>2010-06-13T07:29:24Z</time>
      </trkpt>
      <trkpt lat="45.98827" lon="4.61927">
        <ele>437.05651855469</ele>
        <time>2010-06-13T07:29:29Z</time>
      </trkpt>
      <trkpt lat="45.98805" lon="4.61927">
        <ele>437.537109375</ele>
        <time>2010-06-13T07:29:35Z</time>
      </trkpt>
      <trkpt lat="45.98788" lon="4.61928">
        <ele>437.537109375</ele>
        <time>2010-06-13T07:29:40Z</time>
      </trkpt>
      <trkpt lat="45.98774" lon="4.61929">
        <ele>437.537109375</ele>
        <time>2010-06-13T07:29:44Z</time>
      </trkpt>
      <trkpt lat="45.98757" lon="4.61927">
        <ele>437.537109375</ele>
        <time>2010-06-13T07:29:48Z</time>
      </trkpt>
      <trkpt lat="45.98729" lon="4.61928">
        <ele>437.05651855469</ele>
        <time>2010-06-13T07:29:54Z</time>
      </trkpt>
      <trkpt lat="45.98718" lon="4.61926">
        <ele>435.61450195312</ele>
        <time>2010-06-13T07:29:56Z</time>
      </trkpt>
      <trkpt lat="45.98709" lon="4.61912">
        <ele>436.57592773438</ele>
        <time>2010-06-13T07:30:00Z</time>
      </trkpt>
      <trkpt lat="45.98702" lon="4.61896">
        <ele>436.57592773438</ele>
        <time>2010-06-13T07:30:04Z</time>
      </trkpt>
      <trkpt lat="45.98698" lon="4.61885">
        <ele>437.537109375</ele>
        <time>2010-06-13T07:30:06Z</time>
      </trkpt>
      <trkpt lat="45.98695" lon="4.61858">
        <ele>438.49853515625</ele>
        <time>2010-06-13T07:30:11Z</time>
      </trkpt>
      <trkpt lat="45.98688" lon="4.61839">
        <ele>438.49853515625</ele>
        <time>2010-06-13T07:30:15Z</time>
      </trkpt>
      <trkpt lat="45.98685" lon="4.61835">
        <ele>438.49853515625</ele>
        <time>2010-06-13T07:30:16Z</time>
      </trkpt>
      <trkpt lat="45.98675" lon="4.61822">
        <ele>438.01782226562</ele>
        <time>2010-06-13T07:30:19Z</time>
      </trkpt>
      <trkpt lat="45.9867" lon="4.61821">
        <ele>437.537109375</ele>
        <time>2010-06-13T07:30:21Z</time>
      </trkpt>
      <trkpt lat="45.98663" lon="4.61815">
        <ele>437.05651855469</ele>
        <time>2010-06-13T07:30:26Z</time>
      </trkpt>
      <trkpt lat="45.98663" lon="4.61808">
        <ele>436.09521484375</ele>
        <time>2010-06-13T07:30:30Z</time>
      </trkpt>
      <trkpt lat="45.9867" lon="4.61799">
        <ele>437.05651855469</ele>
        <time>2010-06-13T07:30:36Z</time>
      </trkpt>
      <trkpt lat="45.98674" lon="4.61785">
        <ele>437.537109375</ele>
        <time>2010-06-13T07:30:40Z</time>
      </trkpt>
      <trkpt lat="45.98678" lon="4.61765">
        <ele>438.49853515625</ele>
        <time>2010-06-13T07:30:46Z</time>
      </trkpt>
      <trkpt lat="45.98681" lon="4.61742">
        <ele>438.97912597656</ele>
        <time>2010-06-13T07:30:53Z</time>
      </trkpt>
      <trkpt lat="45.98685" lon="4.61718">
        <ele>439.9404296875</ele>
        <time>2010-06-13T07:31:00Z</time>
      </trkpt>
      <trkpt lat="45.98689" lon="4.61691">
        <ele>441.86315917969</ele>
        <time>2010-06-13T07:31:08Z</time>
      </trkpt>
      <trkpt lat="45.98692" lon="4.61661">
        <ele>442.34387207031</ele>
        <time>2010-06-13T07:31:16Z</time>
      </trkpt>
      <trkpt lat="45.98694" lon="4.61632">
        <ele>442.82446289062</ele>
        <time>2010-06-13T07:31:24Z</time>
      </trkpt>
      <trkpt lat="45.98695" lon="4.61604">
        <ele>443.30505371094</ele>
        <time>2010-06-13T07:31:31Z</time>
      </trkpt>
      <trkpt lat="45.98693" lon="4.61565">
        <ele>443.78576660156</ele>
        <time>2010-06-13T07:31:39Z</time>
      </trkpt>
      <trkpt lat="45.98691" lon="4.61534">
        <ele>443.30505371094</ele>
        <time>2010-06-13T07:31:45Z</time>
      </trkpt>
      <trkpt lat="45.98709" lon="4.61525">
        <ele>444.7470703125</ele>
        <time>2010-06-13T07:31:52Z</time>
      </trkpt>
      <trkpt lat="45.98728" lon="4.61516">
        <ele>445.70837402344</ele>
        <time>2010-06-13T07:31:59Z</time>
      </trkpt>
      <trkpt lat="45.98742" lon="4.61505">
        <ele>446.66967773438</ele>
        <time>2010-06-13T07:32:05Z</time>
      </trkpt>
      <trkpt lat="45.98749" lon="4.61487">
        <ele>445.70837402344</ele>
        <time>2010-06-13T07:32:10Z</time>
      </trkpt>
      <trkpt lat="45.98763" lon="4.61459">
        <ele>446.66967773438</ele>
        <time>2010-06-13T07:32:17Z</time>
      </trkpt>
      <trkpt lat="45.98779" lon="4.61427">
        <ele>446.66967773438</ele>
        <time>2010-06-13T07:32:25Z</time>
      </trkpt>
      <trkpt lat="45.98793" lon="4.61394">
        <ele>449.07299804688</ele>
        <time>2010-06-13T07:32:34Z</time>
      </trkpt>
      <trkpt lat="45.98801" lon="4.61368">
        <ele>451.47631835938</ele>
        <time>2010-06-13T07:32:41Z</time>
      </trkpt>
      <trkpt lat="45.98808" lon="4.61335">
        <ele>452.43762207031</ele>
        <time>2010-06-13T07:32:50Z</time>
      </trkpt>
      <trkpt lat="45.98812" lon="4.61306">
        <ele>453.87963867188</ele>
        <time>2010-06-13T07:32:58Z</time>
      </trkpt>
      <trkpt lat="45.98815" lon="4.61278">
        <ele>455.32153320312</ele>
        <time>2010-06-13T07:33:06Z</time>
      </trkpt>
      <trkpt lat="45.98816" lon="4.61251">
        <ele>456.76354980469</ele>
        <time>2010-06-13T07:33:14Z</time>
      </trkpt>
      <trkpt lat="45.98813" lon="4.61208">
        <ele>458.20556640625</ele>
        <time>2010-06-13T07:33:26Z</time>
      </trkpt>
      <trkpt lat="45.98809" lon="4.61181">
        <ele>460.12817382812</ele>
        <time>2010-06-13T07:33:34Z</time>
      </trkpt>
      <trkpt lat="45.98805" lon="4.61163">
        <ele>461.57019042969</ele>
        <time>2010-06-13T07:33:40Z</time>
      </trkpt>
      <trkpt lat="45.98799" lon="4.61134">
        <ele>463.97338867188</ele>
        <time>2010-06-13T07:33:49Z</time>
      </trkpt>
      <trkpt lat="45.98799" lon="4.61131">
        <ele>463.97338867188</ele>
        <time>2010-06-13T07:33:50Z</time>
      </trkpt>
      <trkpt lat="45.98799" lon="4.61102">
        <ele>465.89611816406</ele>
        <time>2010-06-13T07:33:58Z</time>
      </trkpt>
      <trkpt lat="45.98802" lon="4.61073">
        <ele>468.78002929688</ele>
        <time>2010-06-13T07:34:08Z</time>
      </trkpt>
      <trkpt lat="45.98805" lon="4.61041">
        <ele>472.14465332031</ele>
        <time>2010-06-13T07:34:19Z</time>
      </trkpt>
      <trkpt lat="45.98805" lon="4.61035">
        <ele>472.62536621094</ele>
        <time>2010-06-13T07:34:21Z</time>
      </trkpt>
      <trkpt lat="45.98803" lon="4.61">
        <ele>475.02868652344</ele>
        <time>2010-06-13T07:34:32Z</time>
      </trkpt>
      <trkpt lat="45.98804" lon="4.60969">
        <ele>475.98986816406</ele>
        <time>2010-06-13T07:34:41Z</time>
      </trkpt>
      <trkpt lat="45.9881" lon="4.60934">
        <ele>476.95129394531</ele>
        <time>2010-06-13T07:34:50Z</time>
      </trkpt>
      <trkpt lat="45.98819" lon="4.60904">
        <ele>476.47058105469</ele>
        <time>2010-06-13T07:34:57Z</time>
      </trkpt>
      <trkpt lat="45.98833" lon="4.60859">
        <ele>475.02868652344</ele>
        <time>2010-06-13T07:35:06Z</time>
      </trkpt>
      <trkpt lat="45.98851" lon="4.6082">
        <ele>473.58666992188</ele>
        <time>2010-06-13T07:35:13Z</time>
      </trkpt>
      <trkpt lat="45.98864" lon="4.60783">
        <ele>473.10607910156</ele>
        <time>2010-06-13T07:35:20Z</time>
      </trkpt>
      <trkpt lat="45.98866" lon="4.60777">
        <ele>473.10607910156</ele>
        <time>2010-06-13T07:35:21Z</time>
      </trkpt>
      <trkpt lat="45.98883" lon="4.6073">
        <ele>473.10607910156</ele>
        <time>2010-06-13T07:35:30Z</time>
      </trkpt>
      <trkpt lat="45.98904" lon="4.60693">
        <ele>473.10607910156</ele>
        <time>2010-06-13T07:35:39Z</time>
      </trkpt>
      <trkpt lat="45.9892" lon="4.60652">
        <ele>474.06726074219</ele>
        <time>2010-06-13T07:35:49Z</time>
      </trkpt>
      <trkpt lat="45.98934" lon="4.60617">
        <ele>474.54797363281</ele>
        <time>2010-06-13T07:35:59Z</time>
      </trkpt>
      <trkpt lat="45.9894" lon="4.60596">
        <ele>475.50927734375</ele>
        <time>2010-06-13T07:36:07Z</time>
      </trkpt>
      <trkpt lat="45.98944" lon="4.60576">
        <ele>477.43188476562</ele>
        <time>2010-06-13T07:36:15Z</time>
      </trkpt>
      <trkpt lat="45.98947" lon="4.60558">
        <ele>479.83508300781</ele>
        <time>2010-06-13T07:36:24Z</time>
      </trkpt>
      <trkpt lat="45.98949" lon="4.60543">
        <ele>481.7578125</ele>
        <time>2010-06-13T07:36:33Z</time>
      </trkpt>
      <trkpt lat="45.98948" lon="4.60539">
        <ele>482.23852539062</ele>
        <time>2010-06-13T07:36:35Z</time>
      </trkpt>
      <trkpt lat="45.98946" lon="4.60533">
        <ele>482.71923828125</ele>
        <time>2010-06-13T07:36:39Z</time>
      </trkpt>
      <trkpt lat="45.98941" lon="4.60527">
        <ele>483.19982910156</ele>
        <time>2010-06-13T07:36:44Z</time>
      </trkpt>
      <trkpt lat="45.98938" lon="4.60523">
        <ele>484.1611328125</ele>
        <time>2010-06-13T07:36:47Z</time>
      </trkpt>
      <trkpt lat="45.98938" lon="4.60515">
        <ele>485.12243652344</ele>
        <time>2010-06-13T07:36:51Z</time>
      </trkpt>
      <trkpt lat="45.98933" lon="4.60504">
        <ele>486.564453125</ele>
        <time>2010-06-13T07:36:57Z</time>
      </trkpt>
      <trkpt lat="45.98928" lon="4.6049">
        <ele>487.52563476562</ele>
        <time>2010-06-13T07:37:05Z</time>
      </trkpt>
      <trkpt lat="45.98923" lon="4.60475">
        <ele>488.9677734375</ele>
        <time>2010-06-13T07:37:13Z</time>
      </trkpt>
      <trkpt lat="45.98922" lon="4.60462">
        <ele>489.44836425781</ele>
        <time>2010-06-13T07:37:18Z</time>
      </trkpt>
      <trkpt lat="45.9893" lon="4.60459">
        <ele>490.40979003906</ele>
        <time>2010-06-13T07:37:23Z</time>
      </trkpt>
      <trkpt lat="45.9894" lon="4.6046">
        <ele>491.37097167969</ele>
        <time>2010-06-13T07:37:30Z</time>
      </trkpt>
      <trkpt lat="45.98951" lon="4.60464">
        <ele>493.29357910156</ele>
        <time>2010-06-13T07:37:38Z</time>
      </trkpt>
      <trkpt lat="45.98964" lon="4.60467">
        <ele>494.73559570312</ele>
        <time>2010-06-13T07:37:46Z</time>
      </trkpt>
      <trkpt lat="45.98978" lon="4.6047">
        <ele>495.69689941406</ele>
        <time>2010-06-13T07:37:54Z</time>
      </trkpt>
      <trkpt lat="45.98996" lon="4.60474">
        <ele>498.58093261719</ele>
        <time>2010-06-13T07:38:04Z</time>
      </trkpt>
      <trkpt lat="45.99011" lon="4.60476">
        <ele>499.0615234375</ele>
        <time>2010-06-13T07:38:13Z</time>
      </trkpt>
      <trkpt lat="45.99025" lon="4.60478">
        <ele>499.54223632812</ele>
        <time>2010-06-13T07:38:20Z</time>
      </trkpt>
      <trkpt lat="45.99043" lon="4.60481">
        <ele>501.94555664062</ele>
        <time>2010-06-13T07:38:29Z</time>
      </trkpt>
      <trkpt lat="45.99063" lon="4.60486">
        <ele>502.90673828125</ele>
        <time>2010-06-13T07:38:39Z</time>
      </trkpt>
      <trkpt lat="45.99078" lon="4.60489">
        <ele>503.38745117188</ele>
        <time>2010-06-13T07:38:46Z</time>
      </trkpt>
      <trkpt lat="45.99097" lon="4.60493">
        <ele>504.34887695312</ele>
        <time>2010-06-13T07:38:55Z</time>
      </trkpt>
      <trkpt lat="45.99112" lon="4.60495">
        <ele>505.31018066406</ele>
        <time>2010-06-13T07:39:03Z</time>
      </trkpt>
      <trkpt lat="45.99126" lon="4.60496">
        <ele>506.271484375</ele>
        <time>2010-06-13T07:39:10Z</time>
      </trkpt>
      <trkpt lat="45.99143" lon="4.60497">
        <ele>507.71350097656</ele>
        <time>2010-06-13T07:39:18Z</time>
      </trkpt>
      <trkpt lat="45.99158" lon="4.60496">
        <ele>507.71350097656</ele>
        <time>2010-06-13T07:39:26Z</time>
      </trkpt>
      <trkpt lat="45.99181" lon="4.60492">
        <ele>509.15539550781</ele>
        <time>2010-06-13T07:39:36Z</time>
      </trkpt>
      <trkpt lat="45.99194" lon="4.6049">
        <ele>510.11669921875</ele>
        <time>2010-06-13T07:39:42Z</time>
      </trkpt>
      <trkpt lat="45.9922" lon="4.60486">
        <ele>511.07800292969</ele>
        <time>2010-06-13T07:39:51Z</time>
      </trkpt>
      <trkpt lat="45.9924" lon="4.60482">
        <ele>512.03942871094</ele>
        <time>2010-06-13T07:39:59Z</time>
      </trkpt>
      <trkpt lat="45.99257" lon="4.60476">
        <ele>512.03942871094</ele>
        <time>2010-06-13T07:40:05Z</time>
      </trkpt>
      <trkpt lat="45.99273" lon="4.60463">
        <ele>513.00073242188</ele>
        <time>2010-06-13T07:40:12Z</time>
      </trkpt>
      <trkpt lat="45.99289" lon="4.60443">
        <ele>513.96203613281</ele>
        <time>2010-06-13T07:40:20Z</time>
      </trkpt>
      <trkpt lat="45.99303" lon="4.60416">
        <ele>513.96203613281</ele>
        <time>2010-06-13T07:40:29Z</time>
      </trkpt>
      <trkpt lat="45.99318" lon="4.60385">
        <ele>513.4814453125</ele>
        <time>2010-06-13T07:40:37Z</time>
      </trkpt>
      <trkpt lat="45.99332" lon="4.60352">
        <ele>512.03942871094</ele>
        <time>2010-06-13T07:40:43Z</time>
      </trkpt>
      <trkpt lat="45.99347" lon="4.60322">
        <ele>509.63610839844</ele>
        <time>2010-06-13T07:40:49Z</time>
      </trkpt>
      <trkpt lat="45.99364" lon="4.60286">
        <ele>507.23278808594</ele>
        <time>2010-06-13T07:40:55Z</time>
      </trkpt>
      <trkpt lat="45.9937" lon="4.60275">
        <ele>506.271484375</ele>
        <time>2010-06-13T07:40:57Z</time>
      </trkpt>
      <trkpt lat="45.99377" lon="4.60262">
        <ele>502.90673828125</ele>
        <time>2010-06-13T07:40:59Z</time>
      </trkpt>
      <trkpt lat="45.99381" lon="4.60255">
        <ele>503.38745117188</ele>
        <time>2010-06-13T07:41:00Z</time>
      </trkpt>
      <trkpt lat="45.99384" lon="4.60249">
        <ele>502.90673828125</ele>
        <time>2010-06-13T07:41:01Z</time>
      </trkpt>
      <trkpt lat="45.9939" lon="4.60236">
        <ele>501.94555664062</ele>
        <time>2010-06-13T07:41:03Z</time>
      </trkpt>
      <trkpt lat="45.99397" lon="4.60215">
        <ele>500.98413085938</ele>
        <time>2010-06-13T07:41:06Z</time>
      </trkpt>
      <trkpt lat="45.99415" lon="4.60182">
        <ele>496.65832519531</ele>
        <time>2010-06-13T07:41:10Z</time>
      </trkpt>
      <trkpt lat="45.99433" lon="4.60156">
        <ele>494.25500488281</ele>
        <time>2010-06-13T07:41:13Z</time>
      </trkpt>
      <trkpt lat="45.99459" lon="4.60122">
        <ele>488.00646972656</ele>
        <time>2010-06-13T07:41:17Z</time>
      </trkpt>
      <trkpt lat="45.99467" lon="4.60086">
        <ele>487.04504394531</ele>
        <time>2010-06-13T07:41:21Z</time>
      </trkpt>
      <trkpt lat="45.99464" lon="4.60067">
        <ele>486.08374023438</ele>
        <time>2010-06-13T07:41:25Z</time>
      </trkpt>
      <trkpt lat="45.99463" lon="4.6005">
        <ele>487.52563476562</ele>
        <time>2010-06-13T07:41:30Z</time>
      </trkpt>
      <trkpt lat="45.99464" lon="4.60029">
        <ele>489.44836425781</ele>
        <time>2010-06-13T07:41:36Z</time>
      </trkpt>
      <trkpt lat="45.99467" lon="4.59995">
        <ele>490.89038085938</ele>
        <time>2010-06-13T07:41:46Z</time>
      </trkpt>
      <trkpt lat="45.99468" lon="4.59962">
        <ele>492.33239746094</ele>
        <time>2010-06-13T07:41:56Z</time>
      </trkpt>
      <trkpt lat="45.99468" lon="4.59944">
        <ele>493.77429199219</ele>
        <time>2010-06-13T07:42:03Z</time>
      </trkpt>
      <trkpt lat="45.99467" lon="4.59917">
        <ele>495.21618652344</ele>
        <time>2010-06-13T07:42:12Z</time>
      </trkpt>
      <trkpt lat="45.99464" lon="4.59889">
        <ele>496.177734375</ele>
        <time>2010-06-13T07:42:22Z</time>
      </trkpt>
      <trkpt lat="45.99461" lon="4.59867">
        <ele>497.61962890625</ele>
        <time>2010-06-13T07:42:30Z</time>
      </trkpt>
      <trkpt lat="45.99455" lon="4.59833">
        <ele>498.58093261719</ele>
        <time>2010-06-13T07:42:41Z</time>
      </trkpt>
      <trkpt lat="45.99448" lon="4.59807">
        <ele>499.0615234375</ele>
        <time>2010-06-13T07:42:48Z</time>
      </trkpt>
      <trkpt lat="45.99444" lon="4.59775">
        <ele>499.54223632812</ele>
        <time>2010-06-13T07:42:55Z</time>
      </trkpt>
      <trkpt lat="45.99442" lon="4.59728">
        <ele>500.02294921875</ele>
        <time>2010-06-13T07:43:05Z</time>
      </trkpt>
      <trkpt lat="45.9944" lon="4.59689">
        <ele>500.50354003906</ele>
        <time>2010-06-13T07:43:13Z</time>
      </trkpt>
      <trkpt lat="45.99437" lon="4.59645">
        <ele>501.94555664062</ele>
        <time>2010-06-13T07:43:22Z</time>
      </trkpt>
      <trkpt lat="45.99435" lon="4.59597">
        <ele>502.90673828125</ele>
        <time>2010-06-13T07:43:32Z</time>
      </trkpt>
      <trkpt lat="45.99434" lon="4.59557">
        <ele>504.34887695312</ele>
        <time>2010-06-13T07:43:41Z</time>
      </trkpt>
      <trkpt lat="45.99432" lon="4.5952">
        <ele>505.31018066406</ele>
        <time>2010-06-13T07:43:49Z</time>
      </trkpt>
      <trkpt lat="45.99431" lon="4.59482">
        <ele>505.79089355469</ele>
        <time>2010-06-13T07:43:57Z</time>
      </trkpt>
      <trkpt lat="45.9943" lon="4.59465">
        <ele>507.23278808594</ele>
        <time>2010-06-13T07:44:02Z</time>
      </trkpt>
      <trkpt lat="45.99423" lon="4.59454">
        <ele>508.67468261719</ele>
        <time>2010-06-13T07:44:06Z</time>
      </trkpt>
      <trkpt lat="45.99411" lon="4.59446">
        <ele>508.67468261719</ele>
        <time>2010-06-13T07:44:13Z</time>
      </trkpt>
      <trkpt lat="45.994" lon="4.59439">
        <ele>510.59729003906</ele>
        <time>2010-06-13T07:44:21Z</time>
      </trkpt>
      <trkpt lat="45.99392" lon="4.5943">
        <ele>512.03942871094</ele>
        <time>2010-06-13T07:44:28Z</time>
      </trkpt>
      <trkpt lat="45.99387" lon="4.59426">
        <ele>513.00073242188</ele>
        <time>2010-06-13T07:44:32Z</time>
      </trkpt>
      <trkpt lat="45.99377" lon="4.59417">
        <ele>514.92333984375</ele>
        <time>2010-06-13T07:44:40Z</time>
      </trkpt>
      <trkpt lat="45.99372" lon="4.59411">
        <ele>515.88464355469</ele>
        <time>2010-06-13T07:44:45Z</time>
      </trkpt>
      <trkpt lat="45.99366" lon="4.59404">
        <ele>517.80725097656</ele>
        <time>2010-06-13T07:44:51Z</time>
      </trkpt>
      <trkpt lat="45.99365" lon="4.59403">
        <ele>517.80725097656</ele>
        <time>2010-06-13T07:44:52Z</time>
      </trkpt>
      <trkpt lat="45.99353" lon="4.59395">
        <ele>520.69128417969</ele>
        <time>2010-06-13T07:45:01Z</time>
      </trkpt>
      <trkpt lat="45.99351" lon="4.59395">
        <ele>520.69128417969</ele>
        <time>2010-06-13T07:45:02Z</time>
      </trkpt>
      <trkpt lat="45.99341" lon="4.59391">
        <ele>522.13317871094</ele>
        <time>2010-06-13T07:45:08Z</time>
      </trkpt>
      <trkpt lat="45.99328" lon="4.59387">
        <ele>523.09460449219</ele>
        <time>2010-06-13T07:45:14Z</time>
      </trkpt>
      <trkpt lat="45.9931" lon="4.59383">
        <ele>524.05578613281</ele>
        <time>2010-06-13T07:45:23Z</time>
      </trkpt>
      <trkpt lat="45.99289" lon="4.59377">
        <ele>525.49780273438</ele>
        <time>2010-06-13T07:45:33Z</time>
      </trkpt>
      <trkpt lat="45.99272" lon="4.59373">
        <ele>526.45910644531</ele>
        <time>2010-06-13T07:45:40Z</time>
      </trkpt>
      <trkpt lat="45.99253" lon="4.59367">
        <ele>525.49780273438</ele>
        <time>2010-06-13T07:45:47Z</time>
      </trkpt>
      <trkpt lat="45.99229" lon="4.5936">
        <ele>524.53649902344</ele>
        <time>2010-06-13T07:45:54Z</time>
      </trkpt>
      <trkpt lat="45.99202" lon="4.59353">
        <ele>523.09460449219</ele>
        <time>2010-06-13T07:46:01Z</time>
      </trkpt>
      <trkpt lat="45.99172" lon="4.59345">
        <ele>522.61389160156</ele>
        <time>2010-06-13T07:46:08Z</time>
      </trkpt>
      <trkpt lat="45.99147" lon="4.59339">
        <ele>521.17199707031</ele>
        <time>2010-06-13T07:46:14Z</time>
      </trkpt>
      <trkpt lat="45.99144" lon="4.59328">
        <ele>520.21057128906</ele>
        <time>2010-06-13T07:46:18Z</time>
      </trkpt>
      <trkpt lat="45.99155" lon="4.59313">
        <ele>520.21057128906</ele>
        <time>2010-06-13T07:46:24Z</time>
      </trkpt>
      <trkpt lat="45.99165" lon="4.59291">
        <ele>520.21057128906</ele>
        <time>2010-06-13T07:46:30Z</time>
      </trkpt>
      <trkpt lat="45.99176" lon="4.59258">
        <ele>520.69128417969</ele>
        <time>2010-06-13T07:46:37Z</time>
      </trkpt>
      <trkpt lat="45.99183" lon="4.59214">
        <ele>521.17199707031</ele>
        <time>2010-06-13T07:46:46Z</time>
      </trkpt>
      <trkpt lat="45.99186" lon="4.59174">
        <ele>522.61389160156</ele>
        <time>2010-06-13T07:46:54Z</time>
      </trkpt>
      <trkpt lat="45.99187" lon="4.5917">
        <ele>522.61389160156</ele>
        <time>2010-06-13T07:46:55Z</time>
      </trkpt>
      <trkpt lat="45.99201" lon="4.59161">
        <ele>524.05578613281</ele>
        <time>2010-06-13T07:47:01Z</time>
      </trkpt>
      <trkpt lat="45.99206" lon="4.59163">
        <ele>523.09460449219</ele>
        <time>2010-06-13T07:47:03Z</time>
      </trkpt>
      <trkpt lat="45.99215" lon="4.59164">
        <ele>524.53649902344</ele>
        <time>2010-06-13T07:47:06Z</time>
      </trkpt>
      <trkpt lat="45.99236" lon="4.59171">
        <ele>526.45910644531</ele>
        <time>2010-06-13T07:47:13Z</time>
      </trkpt>
      <trkpt lat="45.99249" lon="4.5917">
        <ele>527.42041015625</ele>
        <time>2010-06-13T07:47:18Z</time>
      </trkpt>
      <trkpt lat="45.99265" lon="4.59155">
        <ele>528.86254882812</ele>
        <time>2010-06-13T07:47:27Z</time>
      </trkpt>
      <trkpt lat="45.99277" lon="4.59151">
        <ele>529.82373046875</ele>
        <time>2010-06-13T07:47:33Z</time>
      </trkpt>
      <trkpt lat="45.99294" lon="4.59158">
        <ele>530.78515625</ele>
        <time>2010-06-13T07:47:41Z</time>
      </trkpt>
      <trkpt lat="45.99316" lon="4.59169">
        <ele>530.78515625</ele>
        <time>2010-06-13T07:47:50Z</time>
      </trkpt>
      <trkpt lat="45.99342" lon="4.59176">
        <ele>531.74633789062</ele>
        <time>2010-06-13T07:47:59Z</time>
      </trkpt>
      <trkpt lat="45.99364" lon="4.59173">
        <ele>532.22705078125</ele>
        <time>2010-06-13T07:48:07Z</time>
      </trkpt>
      <trkpt lat="45.99388" lon="4.59165">
        <ele>532.22705078125</ele>
        <time>2010-06-13T07:48:15Z</time>
      </trkpt>
      <trkpt lat="45.99417" lon="4.59158">
        <ele>531.74633789062</ele>
        <time>2010-06-13T07:48:23Z</time>
      </trkpt>
      <trkpt lat="45.99444" lon="4.59159">
        <ele>529.82373046875</ele>
        <time>2010-06-13T07:48:30Z</time>
      </trkpt>
      <trkpt lat="45.99474" lon="4.59168">
        <ele>529.82373046875</ele>
        <time>2010-06-13T07:48:36Z</time>
      </trkpt>
      <trkpt lat="45.99504" lon="4.59186">
        <ele>528.3818359375</ele>
        <time>2010-06-13T07:48:43Z</time>
      </trkpt>
      <trkpt lat="45.99508" lon="4.59189">
        <ele>528.3818359375</ele>
        <time>2010-06-13T07:48:44Z</time>
      </trkpt>
      <trkpt lat="45.99522" lon="4.59198">
        <ele>528.86254882812</ele>
        <time>2010-06-13T07:48:48Z</time>
      </trkpt>
      <trkpt lat="45.99539" lon="4.59214">
        <ele>529.34313964844</ele>
        <time>2010-06-13T07:48:54Z</time>
      </trkpt>
      <trkpt lat="45.99553" lon="4.5923">
        <ele>530.30444335938</ele>
        <time>2010-06-13T07:49:00Z</time>
      </trkpt>
      <trkpt lat="45.99566" lon="4.59242">
        <ele>530.78515625</ele>
        <time>2010-06-13T07:49:05Z</time>
      </trkpt>
      <trkpt lat="45.9958" lon="4.5925">
        <ele>532.22705078125</ele>
        <time>2010-06-13T07:49:10Z</time>
      </trkpt>
      <trkpt lat="45.99597" lon="4.59253">
        <ele>532.70776367188</ele>
        <time>2010-06-13T07:49:16Z</time>
      </trkpt>
      <trkpt lat="45.9961" lon="4.59257">
        <ele>532.70776367188</ele>
        <time>2010-06-13T07:49:21Z</time>
      </trkpt>
      <trkpt lat="45.99627" lon="4.59266">
        <ele>532.70776367188</ele>
        <time>2010-06-13T07:49:26Z</time>
      </trkpt>
      <trkpt lat="45.99644" lon="4.59278">
        <ele>533.6689453125</ele>
        <time>2010-06-13T07:49:32Z</time>
      </trkpt>
      <trkpt lat="45.99658" lon="4.59286">
        <ele>534.63037109375</ele>
        <time>2010-06-13T07:49:38Z</time>
      </trkpt>
      <trkpt lat="45.99673" lon="4.5929">
        <ele>536.07238769531</ele>
        <time>2010-06-13T07:49:44Z</time>
      </trkpt>
      <trkpt lat="45.99689" lon="4.59288">
        <ele>537.51428222656</ele>
        <time>2010-06-13T07:49:51Z</time>
      </trkpt>
      <trkpt lat="45.99706" lon="4.59277">
        <ele>539.43688964844</ele>
        <time>2010-06-13T07:49:59Z</time>
      </trkpt>
      <trkpt lat="45.9972" lon="4.5926">
        <ele>541.84020996094</ele>
        <time>2010-06-13T07:50:07Z</time>
      </trkpt>
      <trkpt lat="45.99723" lon="4.59249">
        <ele>541.84020996094</ele>
        <time>2010-06-13T07:50:11Z</time>
      </trkpt>
      <trkpt lat="45.9972" lon="4.5924">
        <ele>542.80151367188</ele>
        <time>2010-06-13T07:50:16Z</time>
      </trkpt>
      <trkpt lat="45.99711" lon="4.5923">
        <ele>545.20483398438</ele>
        <time>2010-06-13T07:50:24Z</time>
      </trkpt>
      <trkpt lat="45.99708" lon="4.59226">
        <ele>546.64685058594</ele>
        <time>2010-06-13T07:50:27Z</time>
      </trkpt>
      <trkpt lat="45.99705" lon="4.59222">
        <ele>547.60815429688</ele>
        <time>2010-06-13T07:50:31Z</time>
      </trkpt>
      <trkpt lat="45.99702" lon="4.59215">
        <ele>548.5693359375</ele>
        <time>2010-06-13T07:50:35Z</time>
      </trkpt>
      <trkpt lat="45.99695" lon="4.59201">
        <ele>551.45336914062</ele>
        <time>2010-06-13T07:50:44Z</time>
      </trkpt>
      <trkpt lat="45.9969" lon="4.59189">
        <ele>553.3759765625</ele>
        <time>2010-06-13T07:50:51Z</time>
      </trkpt>
      <trkpt lat="45.99684" lon="4.5918">
        <ele>554.33740234375</ele>
        <time>2010-06-13T07:50:57Z</time>
      </trkpt>
      <trkpt lat="45.99671" lon="4.59166">
        <ele>555.779296875</ele>
        <time>2010-06-13T07:51:08Z</time>
      </trkpt>
      <trkpt lat="45.99659" lon="4.59156">
        <ele>557.22143554688</ele>
        <time>2010-06-13T07:51:18Z</time>
      </trkpt>
      <trkpt lat="45.9965" lon="4.5915">
        <ele>558.18286132812</ele>
        <time>2010-06-13T07:51:26Z</time>
      </trkpt>
      <trkpt lat="45.99636" lon="4.59142">
        <ele>560.10522460938</ele>
        <time>2010-06-13T07:51:36Z</time>
      </trkpt>
      <trkpt lat="45.99628" lon="4.59136">
        <ele>561.54736328125</ele>
        <time>2010-06-13T07:51:43Z</time>
      </trkpt>
      <trkpt lat="45.99621" lon="4.59126">
        <ele>562.50854492188</ele>
        <time>2010-06-13T07:51:50Z</time>
      </trkpt>
      <trkpt lat="45.99618" lon="4.59104">
        <ele>564.91186523438</ele>
        <time>2010-06-13T07:52:00Z</time>
      </trkpt>
      <trkpt lat="45.99619" lon="4.59095">
        <ele>565.87329101562</ele>
        <time>2010-06-13T07:52:04Z</time>
      </trkpt>
      <trkpt lat="45.99618" lon="4.59069">
        <ele>569.23779296875</ele>
        <time>2010-06-13T07:52:15Z</time>
      </trkpt>
      <trkpt lat="45.99614" lon="4.59051">
        <ele>571.16040039062</ele>
        <time>2010-06-13T07:52:24Z</time>
      </trkpt>
      <trkpt lat="45.99609" lon="4.59031">
        <ele>572.6025390625</ele>
        <time>2010-06-13T07:52:33Z</time>
      </trkpt>
      <trkpt lat="45.996" lon="4.59008">
        <ele>575.486328125</ele>
        <time>2010-06-13T07:52:44Z</time>
      </trkpt>
      <trkpt lat="45.99593" lon="4.58994">
        <ele>576.44775390625</ele>
        <time>2010-06-13T07:52:50Z</time>
      </trkpt>
      <trkpt lat="45.9958" lon="4.58979">
        <ele>576.92846679688</ele>
        <time>2010-06-13T07:52:57Z</time>
      </trkpt>
      <trkpt lat="45.99566" lon="4.58965">
        <ele>576.44775390625</ele>
        <time>2010-06-13T07:53:04Z</time>
      </trkpt>
      <trkpt lat="45.99545" lon="4.58952">
        <ele>575.96704101562</ele>
        <time>2010-06-13T07:53:12Z</time>
      </trkpt>
      <trkpt lat="45.99541" lon="4.5895">
        <ele>575.486328125</ele>
        <time>2010-06-13T07:53:13Z</time>
      </trkpt>
      <trkpt lat="45.99528" lon="4.58934">
        <ele>575.005859375</ele>
        <time>2010-06-13T07:53:17Z</time>
      </trkpt>
      <trkpt lat="45.99524" lon="4.58924">
        <ele>575.486328125</ele>
        <time>2010-06-13T07:53:19Z</time>
      </trkpt>
      <trkpt lat="45.99514" lon="4.58886">
        <ele>574.04443359375</ele>
        <time>2010-06-13T07:53:24Z</time>
      </trkpt>
      <trkpt lat="45.99501" lon="4.58843">
        <ele>570.6796875</ele>
        <time>2010-06-13T07:53:29Z</time>
      </trkpt>
      <trkpt lat="45.99486" lon="4.58806">
        <ele>567.79565429688</ele>
        <time>2010-06-13T07:53:33Z</time>
      </trkpt>
      <trkpt lat="45.99461" lon="4.58783">
        <ele>563.95043945312</ele>
        <time>2010-06-13T07:53:37Z</time>
      </trkpt>
      <trkpt lat="45.99447" lon="4.58773">
        <ele>562.50854492188</ele>
        <time>2010-06-13T07:53:39Z</time>
      </trkpt>
      <trkpt lat="45.99423" lon="4.58755">
        <ele>555.779296875</ele>
        <time>2010-06-13T07:53:42Z</time>
      </trkpt>
      <trkpt lat="45.99415" lon="4.5875">
        <ele>556.26000976562</ele>
        <time>2010-06-13T07:53:43Z</time>
      </trkpt>
      <trkpt lat="45.99391" lon="4.5873">
        <ele>553.3759765625</ele>
        <time>2010-06-13T07:53:46Z</time>
      </trkpt>
      <trkpt lat="45.99374" lon="4.58716">
        <ele>552.41455078125</ele>
        <time>2010-06-13T07:53:48Z</time>
      </trkpt>
      <trkpt lat="45.99357" lon="4.58703">
        <ele>549.05004882812</ele>
        <time>2010-06-13T07:53:50Z</time>
      </trkpt>
      <trkpt lat="45.99335" lon="4.58685">
        <ele>547.12744140625</ele>
        <time>2010-06-13T07:53:53Z</time>
      </trkpt>
      <trkpt lat="45.99321" lon="4.58675">
        <ele>543.76281738281</ele>
        <time>2010-06-13T07:53:56Z</time>
      </trkpt>
      <trkpt lat="45.99315" lon="4.5867">
        <ele>541.84020996094</ele>
        <time>2010-06-13T07:53:58Z</time>
      </trkpt>
      <trkpt lat="45.99319" lon="4.58659">
        <ele>542.32092285156</ele>
        <time>2010-06-13T07:54:02Z</time>
      </trkpt>
      <trkpt lat="45.99337" lon="4.58635">
        <ele>543.28210449219</ele>
        <time>2010-06-13T07:54:08Z</time>
      </trkpt>
      <trkpt lat="45.99365" lon="4.586">
        <ele>542.80151367188</ele>
        <time>2010-06-13T07:54:15Z</time>
      </trkpt>
      <trkpt lat="45.99395" lon="4.58566">
        <ele>540.87890625</ele>
        <time>2010-06-13T07:54:21Z</time>
      </trkpt>
      <trkpt lat="45.9943" lon="4.58542">
        <ele>538.95629882812</ele>
        <time>2010-06-13T07:54:26Z</time>
      </trkpt>
      <trkpt lat="45.9946" lon="4.58522">
        <ele>537.51428222656</ele>
        <time>2010-06-13T07:54:30Z</time>
      </trkpt>
      <trkpt lat="45.99497" lon="4.585">
        <ele>536.07238769531</ele>
        <time>2010-06-13T07:54:35Z</time>
      </trkpt>
      <trkpt lat="45.9952" lon="4.58476">
        <ele>534.63037109375</ele>
        <time>2010-06-13T07:54:39Z</time>
      </trkpt>
      <trkpt lat="45.99529" lon="4.58446">
        <ele>533.6689453125</ele>
        <time>2010-06-13T07:54:42Z</time>
      </trkpt>
      <trkpt lat="45.9955" lon="4.58428">
        <ele>532.22705078125</ele>
        <time>2010-06-13T07:54:45Z</time>
      </trkpt>
      <trkpt lat="45.99563" lon="4.5843">
        <ele>532.22705078125</ele>
        <time>2010-06-13T07:54:47Z</time>
      </trkpt>
      <trkpt lat="45.99583" lon="4.58438">
        <ele>530.30444335938</ele>
        <time>2010-06-13T07:54:50Z</time>
      </trkpt>
      <trkpt lat="45.99597" lon="4.5844">
        <ele>529.34313964844</ele>
        <time>2010-06-13T07:54:52Z</time>
      </trkpt>
      <trkpt lat="45.99625" lon="4.5843">
        <ele>529.34313964844</ele>
        <time>2010-06-13T07:54:56Z</time>
      </trkpt>
      <trkpt lat="45.99638" lon="4.58421">
        <ele>529.34313964844</ele>
        <time>2010-06-13T07:54:58Z</time>
      </trkpt>
      <trkpt lat="45.99664" lon="4.58414">
        <ele>529.34313964844</ele>
        <time>2010-06-13T07:55:02Z</time>
      </trkpt>
      <trkpt lat="45.9969" lon="4.58409">
        <ele>529.82373046875</ele>
        <time>2010-06-13T07:55:07Z</time>
      </trkpt>
      <trkpt lat="45.99723" lon="4.58388">
        <ele>530.78515625</ele>
        <time>2010-06-13T07:55:14Z</time>
      </trkpt>
      <trkpt lat="45.99757" lon="4.58374">
        <ele>531.74633789062</ele>
        <time>2010-06-13T07:55:21Z</time>
      </trkpt>
      <trkpt lat="45.99793" lon="4.58363">
        <ele>532.22705078125</ele>
        <time>2010-06-13T07:55:28Z</time>
      </trkpt>
      <trkpt lat="45.99833" lon="4.58346">
        <ele>532.22705078125</ele>
        <time>2010-06-13T07:55:36Z</time>
      </trkpt>
      <trkpt lat="45.9987" lon="4.58321">
        <ele>533.18835449219</ele>
        <time>2010-06-13T07:55:44Z</time>
      </trkpt>
      <trkpt lat="45.99887" lon="4.58294">
        <ele>533.6689453125</ele>
        <time>2010-06-13T07:55:49Z</time>
      </trkpt>
      <trkpt lat="45.99899" lon="4.58256">
        <ele>534.14965820312</ele>
        <time>2010-06-13T07:55:55Z</time>
      </trkpt>
      <trkpt lat="45.99896" lon="4.58215">
        <ele>532.70776367188</ele>
        <time>2010-06-13T07:56:00Z</time>
      </trkpt>
      <trkpt lat="45.99893" lon="4.58206">
        <ele>532.70776367188</ele>
        <time>2010-06-13T07:56:01Z</time>
      </trkpt>
      <trkpt lat="45.99875" lon="4.58149">
        <ele>528.86254882812</ele>
        <time>2010-06-13T07:56:06Z</time>
      </trkpt>
      <trkpt lat="45.99867" lon="4.5809">
        <ele>525.49780273438</ele>
        <time>2010-06-13T07:56:10Z</time>
      </trkpt>
      <trkpt lat="45.99865" lon="4.58075">
        <ele>525.49780273438</ele>
        <time>2010-06-13T07:56:11Z</time>
      </trkpt>
      <trkpt lat="45.99862" lon="4.58046">
        <ele>523.09460449219</ele>
        <time>2010-06-13T07:56:13Z</time>
      </trkpt>
      <trkpt lat="45.99862" lon="4.5802">
        <ele>522.13317871094</ele>
        <time>2010-06-13T07:56:15Z</time>
      </trkpt>
      <trkpt lat="45.99873" lon="4.58005">
        <ele>519.24926757812</ele>
        <time>2010-06-13T07:56:17Z</time>
      </trkpt>
      <trkpt lat="45.99879" lon="4.58003">
        <ele>519.24926757812</ele>
        <time>2010-06-13T07:56:18Z</time>
      </trkpt>
      <trkpt lat="45.99889" lon="4.58001">
        <ele>518.7685546875</ele>
        <time>2010-06-13T07:56:20Z</time>
      </trkpt>
      <trkpt lat="45.99904" lon="4.58003">
        <ele>517.80725097656</ele>
        <time>2010-06-13T07:56:25Z</time>
      </trkpt>
      <trkpt lat="45.99912" lon="4.57993">
        <ele>519.24926757812</ele>
        <time>2010-06-13T07:56:30Z</time>
      </trkpt>
      <trkpt lat="45.99918" lon="4.57986">
        <ele>520.21057128906</ele>
        <time>2010-06-13T07:56:35Z</time>
      </trkpt>
      <trkpt lat="45.99927" lon="4.57974">
        <ele>521.65258789062</ele>
        <time>2010-06-13T07:56:43Z</time>
      </trkpt>
      <trkpt lat="45.99933" lon="4.57963">
        <ele>522.61389160156</ele>
        <time>2010-06-13T07:56:49Z</time>
      </trkpt>
      <trkpt lat="45.99937" lon="4.57954">
        <ele>523.5751953125</ele>
        <time>2010-06-13T07:56:54Z</time>
      </trkpt>
      <trkpt lat="45.99942" lon="4.57942">
        <ele>525.01721191406</ele>
        <time>2010-06-13T07:57:01Z</time>
      </trkpt>
      <trkpt lat="45.99947" lon="4.57934">
        <ele>526.45910644531</ele>
        <time>2010-06-13T07:57:06Z</time>
      </trkpt>
      <trkpt lat="45.9995" lon="4.57926">
        <ele>527.90100097656</ele>
        <time>2010-06-13T07:57:11Z</time>
      </trkpt>
      <trkpt lat="45.9995" lon="4.57927">
        <ele>527.90100097656</ele>
        <time>2010-06-13T07:57:18Z</time>
      </trkpt>
      <trkpt lat="45.99951" lon="4.57924">
        <ele>527.90100097656</ele>
        <time>2010-06-13T07:57:32Z</time>
      </trkpt>
      <trkpt lat="45.99953" lon="4.57922">
        <ele>528.86254882812</ele>
        <time>2010-06-13T07:57:38Z</time>
      </trkpt>
      <trkpt lat="45.99957" lon="4.57918">
        <ele>529.82373046875</ele>
        <time>2010-06-13T07:57:46Z</time>
      </trkpt>
      <trkpt lat="45.9996" lon="4.57908">
        <ele>531.74633789062</ele>
        <time>2010-06-13T07:57:53Z</time>
      </trkpt>
      <trkpt lat="45.99962" lon="4.57902">
        <ele>532.70776367188</ele>
        <time>2010-06-13T07:57:59Z</time>
      </trkpt>
      <trkpt lat="45.99963" lon="4.57896">
        <ele>533.6689453125</ele>
        <time>2010-06-13T07:58:05Z</time>
      </trkpt>
      <trkpt lat="45.99965" lon="4.57892">
        <ele>534.14965820312</ele>
        <time>2010-06-13T07:58:10Z</time>
      </trkpt>
      <trkpt lat="45.99968" lon="4.57887">
        <ele>535.59155273438</ele>
        <time>2010-06-13T07:58:16Z</time>
      </trkpt>
      <trkpt lat="45.99973" lon="4.5788">
        <ele>537.03369140625</ele>
        <time>2010-06-13T07:58:23Z</time>
      </trkpt>
      <trkpt lat="45.99976" lon="4.57874">
        <ele>538.47570800781</ele>
        <time>2010-06-13T07:58:31Z</time>
      </trkpt>
      <trkpt lat="45.99978" lon="4.57869">
        <ele>539.43688964844</ele>
        <time>2010-06-13T07:58:36Z</time>
      </trkpt>
      <trkpt lat="45.99979" lon="4.57864">
        <ele>540.87890625</ele>
        <time>2010-06-13T07:58:43Z</time>
      </trkpt>
      <trkpt lat="45.9998" lon="4.57861">
        <ele>541.35949707031</ele>
        <time>2010-06-13T07:58:48Z</time>
      </trkpt>
      <trkpt lat="45.99983" lon="4.57856">
        <ele>541.84020996094</ele>
        <time>2010-06-13T07:58:55Z</time>
      </trkpt>
      <trkpt lat="45.99985" lon="4.57847">
        <ele>542.80151367188</ele>
        <time>2010-06-13T07:59:03Z</time>
      </trkpt>
      <trkpt lat="45.99984" lon="4.57837">
        <ele>544.24365234375</ele>
        <time>2010-06-13T07:59:12Z</time>
      </trkpt>
      <trkpt lat="45.99985" lon="4.57832">
        <ele>545.20483398438</ele>
        <time>2010-06-13T07:59:18Z</time>
      </trkpt>
      <trkpt lat="45.99984" lon="4.57825">
        <ele>546.64685058594</ele>
        <time>2010-06-13T07:59:25Z</time>
      </trkpt>
      <trkpt lat="45.99984" lon="4.57815">
        <ele>547.12744140625</ele>
        <time>2010-06-13T07:59:33Z</time>
      </trkpt>
      <trkpt lat="45.99984" lon="4.57811">
        <ele>548.5693359375</ele>
        <time>2010-06-13T07:59:38Z</time>
      </trkpt>
      <trkpt lat="45.99982" lon="4.57806">
        <ele>548.5693359375</ele>
        <time>2010-06-13T07:59:45Z</time>
      </trkpt>
      <trkpt lat="45.99982" lon="4.57798">
        <ele>550.4921875</ele>
        <time>2010-06-13T07:59:53Z</time>
      </trkpt>
      <trkpt lat="45.99982" lon="4.57787">
        <ele>552.41455078125</ele>
        <time>2010-06-13T08:00:00Z</time>
      </trkpt>
      <trkpt lat="45.9998" lon="4.57779">
        <ele>552.89526367188</ele>
        <time>2010-06-13T08:00:06Z</time>
      </trkpt>
      <trkpt lat="45.99981" lon="4.57772">
        <ele>554.33740234375</ele>
        <time>2010-06-13T08:00:12Z</time>
      </trkpt>
      <trkpt lat="45.99979" lon="4.57766">
        <ele>554.81787109375</ele>
        <time>2010-06-13T08:00:19Z</time>
      </trkpt>
      <trkpt lat="45.99977" lon="4.57764">
        <ele>555.29858398438</ele>
        <time>2010-06-13T08:00:22Z</time>
      </trkpt>
      <trkpt lat="45.99976" lon="4.57758">
        <ele>555.779296875</ele>
        <time>2010-06-13T08:00:25Z</time>
      </trkpt>
      <trkpt lat="45.99977" lon="4.57745">
        <ele>558.18286132812</ele>
        <time>2010-06-13T08:00:31Z</time>
      </trkpt>
      <trkpt lat="45.99978" lon="4.57729">
        <ele>559.14404296875</ele>
        <time>2010-06-13T08:00:38Z</time>
      </trkpt>
      <trkpt lat="45.99978" lon="4.57715">
        <ele>559.62475585938</ele>
        <time>2010-06-13T08:00:45Z</time>
      </trkpt>
      <trkpt lat="45.99978" lon="4.57706">
        <ele>560.10522460938</ele>
        <time>2010-06-13T08:00:49Z</time>
      </trkpt>
      <trkpt lat="45.99979" lon="4.57698">
        <ele>560.5859375</ele>
        <time>2010-06-13T08:00:52Z</time>
      </trkpt>
      <trkpt lat="45.99981" lon="4.57691">
        <ele>561.06665039062</ele>
        <time>2010-06-13T08:00:56Z</time>
      </trkpt>
      <trkpt lat="45.99984" lon="4.5768">
        <ele>562.50854492188</ele>
        <time>2010-06-13T08:01:03Z</time>
      </trkpt>
      <trkpt lat="45.9999" lon="4.57673">
        <ele>562.9892578125</ele>
        <time>2010-06-13T08:01:10Z</time>
      </trkpt>
      <trkpt lat="46" lon="4.57669">
        <ele>563.46997070312</ele>
        <time>2010-06-13T08:01:16Z</time>
      </trkpt>
      <trkpt lat="46.00003" lon="4.57668">
        <ele>563.46997070312</ele>
        <time>2010-06-13T08:01:18Z</time>
      </trkpt>
      <trkpt lat="46.00007" lon="4.57669">
        <ele>563.46997070312</ele>
        <time>2010-06-13T08:01:20Z</time>
      </trkpt>
      <trkpt lat="46.00013" lon="4.5767">
        <ele>564.43115234375</ele>
        <time>2010-06-13T08:01:24Z</time>
      </trkpt>
      <trkpt lat="46.00028" lon="4.57665">
        <ele>565.392578125</ele>
        <time>2010-06-13T08:01:32Z</time>
      </trkpt>
      <trkpt lat="46.0004" lon="4.57663">
        <ele>566.35375976562</ele>
        <time>2010-06-13T08:01:40Z</time>
      </trkpt>
      <trkpt lat="46.00046" lon="4.57661">
        <ele>567.31518554688</ele>
        <time>2010-06-13T08:01:46Z</time>
      </trkpt>
      <trkpt lat="46.00054" lon="4.57663">
        <ele>568.2763671875</ele>
        <time>2010-06-13T08:01:53Z</time>
      </trkpt>
      <trkpt lat="46.00061" lon="4.57663">
        <ele>570.19897460938</ele>
        <time>2010-06-13T08:01:58Z</time>
      </trkpt>
      <trkpt lat="46.0007" lon="4.57665">
        <ele>571.16040039062</ele>
        <time>2010-06-13T08:02:04Z</time>
      </trkpt>
      <trkpt lat="46.00083" lon="4.57666">
        <ele>572.6025390625</ele>
        <time>2010-06-13T08:02:11Z</time>
      </trkpt>
      <trkpt lat="46.00095" lon="4.57667">
        <ele>572.6025390625</ele>
        <time>2010-06-13T08:02:16Z</time>
      </trkpt>
      <trkpt lat="46.00112" lon="4.57664">
        <ele>572.6025390625</ele>
        <time>2010-06-13T08:02:22Z</time>
      </trkpt>
      <trkpt lat="46.00125" lon="4.5766">
        <ele>573.56396484375</ele>
        <time>2010-06-13T08:02:27Z</time>
      </trkpt>
      <trkpt lat="46.00138" lon="4.57656">
        <ele>573.56396484375</ele>
        <time>2010-06-13T08:02:33Z</time>
      </trkpt>
      <trkpt lat="46.00149" lon="4.57655">
        <ele>574.52514648438</ele>
        <time>2010-06-13T08:02:38Z</time>
      </trkpt>
      <trkpt lat="46.00162" lon="4.57649">
        <ele>574.52514648438</ele>
        <time>2010-06-13T08:02:43Z</time>
      </trkpt>
      <trkpt lat="46.00172" lon="4.57642">
        <ele>575.486328125</ele>
        <time>2010-06-13T08:02:48Z</time>
      </trkpt>
      <trkpt lat="46.00181" lon="4.57636">
        <ele>576.92846679688</ele>
        <time>2010-06-13T08:02:53Z</time>
      </trkpt>
      <trkpt lat="46.00191" lon="4.5763">
        <ele>577.4091796875</ele>
        <time>2010-06-13T08:02:59Z</time>
      </trkpt>
      <trkpt lat="46.00202" lon="4.57624">
        <ele>577.8896484375</ele>
        <time>2010-06-13T08:03:05Z</time>
      </trkpt>
      <trkpt lat="46.00217" lon="4.57621">
        <ele>579.81225585938</ele>
        <time>2010-06-13T08:03:12Z</time>
      </trkpt>
      <trkpt lat="46.00231" lon="4.57613">
        <ele>580.29296875</ele>
        <time>2010-06-13T08:03:18Z</time>
      </trkpt>
      <trkpt lat="46.00248" lon="4.57599">
        <ele>582.6962890625</ele>
        <time>2010-06-13T08:03:25Z</time>
      </trkpt>
      <trkpt lat="46.00263" lon="4.57588">
        <ele>584.13818359375</ele>
        <time>2010-06-13T08:03:33Z</time>
      </trkpt>
      <trkpt lat="46.00277" lon="4.57577">
        <ele>586.06079101562</ele>
        <time>2010-06-13T08:03:42Z</time>
      </trkpt>
      <trkpt lat="46.00286" lon="4.57569">
        <ele>587.9833984375</ele>
        <time>2010-06-13T08:03:49Z</time>
      </trkpt>
      <trkpt lat="46.00291" lon="4.57568">
        <ele>588.94506835938</ele>
        <time>2010-06-13T08:03:54Z</time>
      </trkpt>
      <trkpt lat="46.00299" lon="4.57564">
        <ele>590.38696289062</ele>
        <time>2010-06-13T08:03:59Z</time>
      </trkpt>
      <trkpt lat="46.00303" lon="4.57564">
        <ele>591.82885742188</ele>
        <time>2010-06-13T08:04:01Z</time>
      </trkpt>
      <trkpt lat="46.0031" lon="4.5756">
        <ele>593.27075195312</ele>
        <time>2010-06-13T08:04:06Z</time>
      </trkpt>
      <trkpt lat="46.00319" lon="4.57561">
        <ele>595.193359375</ele>
        <time>2010-06-13T08:04:13Z</time>
      </trkpt>
      <trkpt lat="46.00323" lon="4.5756">
        <ele>596.15478515625</ele>
        <time>2010-06-13T08:04:19Z</time>
      </trkpt>
      <trkpt lat="46.00328" lon="4.57556">
        <ele>596.63549804688</ele>
        <time>2010-06-13T08:04:30Z</time>
      </trkpt>
      <trkpt lat="46.00328" lon="4.57557">
        <ele>596.63549804688</ele>
        <time>2010-06-13T08:04:46Z</time>
      </trkpt>
      <trkpt lat="46.00331" lon="4.57556">
        <ele>597.11596679688</ele>
        <time>2010-06-13T08:04:55Z</time>
      </trkpt>
      <trkpt lat="46.00336" lon="4.57556">
        <ele>598.55786132812</ele>
        <time>2010-06-13T08:05:02Z</time>
      </trkpt>
      <trkpt lat="46.00341" lon="4.57554">
        <ele>600</ele>
        <time>2010-06-13T08:05:09Z</time>
      </trkpt>
      <trkpt lat="46.00346" lon="4.57553">
        <ele>601.44189453125</ele>
        <time>2010-06-13T08:05:15Z</time>
      </trkpt>
      <trkpt lat="46.00349" lon="4.57551">
        <ele>602.40307617188</ele>
        <time>2010-06-13T08:05:23Z</time>
      </trkpt>
      <trkpt lat="46.00351" lon="4.5755">
        <ele>602.8837890625</ele>
        <time>2010-06-13T08:05:24Z</time>
      </trkpt>
      <trkpt lat="46.00352" lon="4.57548">
        <ele>603.36450195312</ele>
        <time>2010-06-13T08:05:26Z</time>
      </trkpt>
      <trkpt lat="46.00359" lon="4.57544">
        <ele>605.28735351562</ele>
        <time>2010-06-13T08:05:31Z</time>
      </trkpt>
      <trkpt lat="46.00366" lon="4.57541">
        <ele>607.2099609375</ele>
        <time>2010-06-13T08:05:37Z</time>
      </trkpt>
      <trkpt lat="46.00374" lon="4.5754">
        <ele>609.13256835938</ele>
        <time>2010-06-13T08:05:43Z</time>
      </trkpt>
      <trkpt lat="46.00385" lon="4.57537">
        <ele>611.05517578125</ele>
        <time>2010-06-13T08:05:51Z</time>
      </trkpt>
      <trkpt lat="46.0039" lon="4.57536">
        <ele>612.4970703125</ele>
        <time>2010-06-13T08:05:55Z</time>
      </trkpt>
      <trkpt lat="46.004" lon="4.57532">
        <ele>614.41967773438</ele>
        <time>2010-06-13T08:06:02Z</time>
      </trkpt>
      <trkpt lat="46.00399" lon="4.57523">
        <ele>615.38110351562</ele>
        <time>2010-06-13T08:06:08Z</time>
      </trkpt>
      <trkpt lat="46.004" lon="4.5751">
        <ele>617.3037109375</ele>
        <time>2010-06-13T08:06:16Z</time>
      </trkpt>
      <trkpt lat="46.00404" lon="4.57497">
        <ele>618.74560546875</ele>
        <time>2010-06-13T08:06:23Z</time>
      </trkpt>
      <trkpt lat="46.0041" lon="4.57487">
        <ele>620.18774414062</ele>
        <time>2010-06-13T08:06:29Z</time>
      </trkpt>
      <trkpt lat="46.00412" lon="4.57474">
        <ele>621.14916992188</ele>
        <time>2010-06-13T08:06:35Z</time>
      </trkpt>
      <trkpt lat="46.0041" lon="4.57461">
        <ele>622.59106445312</ele>
        <time>2010-06-13T08:06:41Z</time>
      </trkpt>
      <trkpt lat="46.00403" lon="4.57443">
        <ele>623.07177734375</ele>
        <time>2010-06-13T08:06:50Z</time>
      </trkpt>
      <trkpt lat="46.00394" lon="4.5743">
        <ele>623.55249023438</ele>
        <time>2010-06-13T08:06:58Z</time>
      </trkpt>
      <trkpt lat="46.00386" lon="4.57417">
        <ele>626.43627929688</ele>
        <time>2010-06-13T08:07:06Z</time>
      </trkpt>
      <trkpt lat="46.00378" lon="4.57395">
        <ele>627.39770507812</ele>
        <time>2010-06-13T08:07:17Z</time>
      </trkpt>
      <trkpt lat="46.00368" lon="4.57373">
        <ele>629.32006835938</ele>
        <time>2010-06-13T08:07:27Z</time>
      </trkpt>
      <trkpt lat="46.00361" lon="4.57356">
        <ele>631.24291992188</ele>
        <time>2010-06-13T08:07:36Z</time>
      </trkpt>
      <trkpt lat="46.00359" lon="4.57348">
        <ele>632.2041015625</ele>
        <time>2010-06-13T08:07:40Z</time>
      </trkpt>
      <trkpt lat="46.00354" lon="4.57332">
        <ele>634.12670898438</ele>
        <time>2010-06-13T08:07:47Z</time>
      </trkpt>
      <trkpt lat="46.0035" lon="4.57316">
        <ele>635.08813476562</ele>
        <time>2010-06-13T08:07:55Z</time>
      </trkpt>
      <trkpt lat="46.00346" lon="4.57297">
        <ele>637.0107421875</ele>
        <time>2010-06-13T08:08:05Z</time>
      </trkpt>
      <trkpt lat="46.00341" lon="4.57274">
        <ele>638.45288085938</ele>
        <time>2010-06-13T08:08:15Z</time>
      </trkpt>
      <trkpt lat="46.00338" lon="4.57256">
        <ele>638.93359375</ele>
        <time>2010-06-13T08:08:24Z</time>
      </trkpt>
      <trkpt lat="46.00334" lon="4.57239">
        <ele>640.85595703125</ele>
        <time>2010-06-13T08:08:32Z</time>
      </trkpt>
      <trkpt lat="46.00333" lon="4.57233">
        <ele>641.33666992188</ele>
        <time>2010-06-13T08:08:35Z</time>
      </trkpt>
      <trkpt lat="46.00331" lon="4.57223">
        <ele>641.8173828125</ele>
        <time>2010-06-13T08:08:40Z</time>
      </trkpt>
      <trkpt lat="46.00328" lon="4.57205">
        <ele>642.77880859375</ele>
        <time>2010-06-13T08:08:48Z</time>
      </trkpt>
      <trkpt lat="46.00325" lon="4.57189">
        <ele>643.73999023438</ele>
        <time>2010-06-13T08:08:54Z</time>
      </trkpt>
      <trkpt lat="46.0032" lon="4.57172">
        <ele>645.66259765625</ele>
        <time>2010-06-13T08:09:00Z</time>
      </trkpt>
      <trkpt lat="46.00319" lon="4.57169">
        <ele>645.66259765625</ele>
        <time>2010-06-13T08:09:01Z</time>
      </trkpt>
      <trkpt lat="46.00315" lon="4.57147">
        <ele>647.58520507812</ele>
        <time>2010-06-13T08:09:09Z</time>
      </trkpt>
      <trkpt lat="46.00313" lon="4.57134">
        <ele>648.54638671875</ele>
        <time>2010-06-13T08:09:14Z</time>
      </trkpt>
      <trkpt lat="46.00311" lon="4.57118">
        <ele>649.98852539062</ele>
        <time>2010-06-13T08:09:20Z</time>
      </trkpt>
      <trkpt lat="46.00306" lon="4.57097">
        <ele>651.43041992188</ele>
        <time>2010-06-13T08:09:28Z</time>
      </trkpt>
      <trkpt lat="46.00298" lon="4.57077">
        <ele>653.833984375</ele>
        <time>2010-06-13T08:09:37Z</time>
      </trkpt>
      <trkpt lat="46.0029" lon="4.5706">
        <ele>655.27587890625</ele>
        <time>2010-06-13T08:09:45Z</time>
      </trkpt>
      <trkpt lat="46.00284" lon="4.57048">
        <ele>655.75659179688</ele>
        <time>2010-06-13T08:09:51Z</time>
      </trkpt>
      <trkpt lat="46.00277" lon="4.57038">
        <ele>657.19848632812</ele>
        <time>2010-06-13T08:09:57Z</time>
      </trkpt>
      <trkpt lat="46.00271" lon="4.5703">
        <ele>658.64038085938</ele>
        <time>2010-06-13T08:10:02Z</time>
      </trkpt>
      <trkpt lat="46.00262" lon="4.57016">
        <ele>658.64038085938</ele>
        <time>2010-06-13T08:10:09Z</time>
      </trkpt>
      <trkpt lat="46.00256" lon="4.57004">
        <ele>660.56298828125</ele>
        <time>2010-06-13T08:10:15Z</time>
      </trkpt>
      <trkpt lat="46.00248" lon="4.56992">
        <ele>662.48559570312</ele>
        <time>2010-06-13T08:10:22Z</time>
      </trkpt>
      <trkpt lat="46.00237" lon="4.56976">
        <ele>664.408203125</ele>
        <time>2010-06-13T08:10:30Z</time>
      </trkpt>
      <trkpt lat="46.00227" lon="4.56961">
        <ele>665.85034179688</ele>
        <time>2010-06-13T08:10:38Z</time>
      </trkpt>
      <trkpt lat="46.00219" lon="4.5695">
        <ele>666.8115234375</ele>
        <time>2010-06-13T08:10:45Z</time>
      </trkpt>
      <trkpt lat="46.00211" lon="4.56941">
        <ele>668.25366210938</ele>
        <time>2010-06-13T08:10:52Z</time>
      </trkpt>
      <trkpt lat="46.00198" lon="4.56926">
        <ele>669.69580078125</ele>
        <time>2010-06-13T08:11:01Z</time>
      </trkpt>
      <trkpt lat="46.00188" lon="4.56916">
        <ele>671.1376953125</ele>
        <time>2010-06-13T08:11:08Z</time>
      </trkpt>
      <trkpt lat="46.00179" lon="4.56908">
        <ele>672.09887695312</ele>
        <time>2010-06-13T08:11:14Z</time>
      </trkpt>
      <trkpt lat="46.00167" lon="4.56897">
        <ele>673.541015625</ele>
        <time>2010-06-13T08:11:22Z</time>
      </trkpt>
      <trkpt lat="46.00156" lon="4.5689">
        <ele>674.98291015625</ele>
        <time>2010-06-13T08:11:29Z</time>
      </trkpt>
      <trkpt lat="46.00143" lon="4.5688">
        <ele>676.4248046875</ele>
        <time>2010-06-13T08:11:38Z</time>
      </trkpt>
      <trkpt lat="46.0013" lon="4.56871">
        <ele>678.34741210938</ele>
        <time>2010-06-13T08:11:46Z</time>
      </trkpt>
      <trkpt lat="46.00116" lon="4.56862">
        <ele>680.27001953125</ele>
        <time>2010-06-13T08:11:55Z</time>
      </trkpt>
      <trkpt lat="46.00104" lon="4.56854">
        <ele>681.7119140625</ele>
        <time>2010-06-13T08:12:03Z</time>
      </trkpt>
      <trkpt lat="46.00093" lon="4.56848">
        <ele>682.67333984375</ele>
        <time>2010-06-13T08:12:10Z</time>
      </trkpt>
      <trkpt lat="46.00077" lon="4.56839">
        <ele>685.07690429688</ele>
        <time>2010-06-13T08:12:20Z</time>
      </trkpt>
      <trkpt lat="46.00068" lon="4.56833">
        <ele>686.51879882812</ele>
        <time>2010-06-13T08:12:26Z</time>
      </trkpt>
      <trkpt lat="46.00053" lon="4.56821">
        <ele>688.44140625</ele>
        <time>2010-06-13T08:12:36Z</time>
      </trkpt>
      <trkpt lat="46.00039" lon="4.5681">
        <ele>689.40258789062</ele>
        <time>2010-06-13T08:12:45Z</time>
      </trkpt>
      <trkpt lat="46.00029" lon="4.568">
        <ele>691.80590820312</ele>
        <time>2010-06-13T08:12:53Z</time>
      </trkpt>
      <trkpt lat="46.00015" lon="4.56789">
        <ele>693.24780273438</ele>
        <time>2010-06-13T08:13:03Z</time>
      </trkpt>
      <trkpt lat="46.00002" lon="4.56778">
        <ele>694.68969726562</ele>
        <time>2010-06-13T08:13:12Z</time>
      </trkpt>
      <trkpt lat="45.9999" lon="4.56767">
        <ele>696.61254882812</ele>
        <time>2010-06-13T08:13:21Z</time>
      </trkpt>
      <trkpt lat="45.99978" lon="4.56753">
        <ele>697.57373046875</ele>
        <time>2010-06-13T08:13:30Z</time>
      </trkpt>
      <trkpt lat="45.99968" lon="4.56737">
        <ele>699.97705078125</ele>
        <time>2010-06-13T08:13:39Z</time>
      </trkpt>
      <trkpt lat="45.99957" lon="4.56716">
        <ele>700.9384765625</ele>
        <time>2010-06-13T08:13:50Z</time>
      </trkpt>
      <trkpt lat="45.99945" lon="4.56693">
        <ele>703.341796875</ele>
        <time>2010-06-13T08:14:02Z</time>
      </trkpt>
      <trkpt lat="45.99941" lon="4.56675">
        <ele>704.78369140625</ele>
        <time>2010-06-13T08:14:10Z</time>
      </trkpt>
      <trkpt lat="45.99939" lon="4.56659">
        <ele>706.70629882812</ele>
        <time>2010-06-13T08:14:17Z</time>
      </trkpt>
      <trkpt lat="45.99939" lon="4.56638">
        <ele>708.1484375</ele>
        <time>2010-06-13T08:14:26Z</time>
      </trkpt>
      <trkpt lat="45.99945" lon="4.56624">
        <ele>708.62890625</ele>
        <time>2010-06-13T08:14:33Z</time>
      </trkpt>
      <trkpt lat="45.99953" lon="4.56617">
        <ele>710.07080078125</ele>
        <time>2010-06-13T08:14:39Z</time>
      </trkpt>
      <trkpt lat="45.99962" lon="4.56608">
        <ele>711.0322265625</ele>
        <time>2010-06-13T08:14:46Z</time>
      </trkpt>
      <trkpt lat="45.99972" lon="4.56599">
        <ele>712.95483398438</ele>
        <time>2010-06-13T08:14:53Z</time>
      </trkpt>
      <trkpt lat="45.99975" lon="4.56597">
        <ele>712.95483398438</ele>
        <time>2010-06-13T08:14:55Z</time>
      </trkpt>
      <trkpt lat="45.99986" lon="4.56585">
        <ele>713.916015625</ele>
        <time>2010-06-13T08:15:04Z</time>
      </trkpt>
      <trkpt lat="45.99995" lon="4.56574">
        <ele>715.35815429688</ele>
        <time>2010-06-13T08:15:12Z</time>
      </trkpt>
      <trkpt lat="46.00005" lon="4.5656">
        <ele>717.28100585938</ele>
        <time>2010-06-13T08:15:21Z</time>
      </trkpt>
      <trkpt lat="46.00014" lon="4.56549">
        <ele>718.2421875</ele>
        <time>2010-06-13T08:15:29Z</time>
      </trkpt>
      <trkpt lat="46.00019" lon="4.56537">
        <ele>719.68432617188</ele>
        <time>2010-06-13T08:15:36Z</time>
      </trkpt>
      <trkpt lat="46.00017" lon="4.56526">
        <ele>721.12622070312</ele>
        <time>2010-06-13T08:15:43Z</time>
      </trkpt>
      <trkpt lat="46.00008" lon="4.56519">
        <ele>722.08740234375</ele>
        <time>2010-06-13T08:15:50Z</time>
      </trkpt>
      <trkpt lat="46.00006" lon="4.56519">
        <ele>722.56811523438</ele>
        <time>2010-06-13T08:15:51Z</time>
      </trkpt>
      <trkpt lat="46.00003" lon="4.56528">
        <ele>723.52954101562</ele>
        <time>2010-06-13T08:15:58Z</time>
      </trkpt>
      <trkpt lat="45.99993" lon="4.56537">
        <ele>724.97143554688</ele>
        <time>2010-06-13T08:16:08Z</time>
      </trkpt>
      <trkpt lat="45.99983" lon="4.56541">
        <ele>726.89404296875</ele>
        <time>2010-06-13T08:16:15Z</time>
      </trkpt>
      <trkpt lat="45.9997" lon="4.56549">
        <ele>727.37475585938</ele>
        <time>2010-06-13T08:16:24Z</time>
      </trkpt>
      <trkpt lat="45.99957" lon="4.56555">
        <ele>728.3359375</ele>
        <time>2010-06-13T08:16:33Z</time>
      </trkpt>
      <trkpt lat="45.99947" lon="4.56553">
        <ele>729.77783203125</ele>
        <time>2010-06-13T08:16:40Z</time>
      </trkpt>
      <trkpt lat="45.99934" lon="4.5655">
        <ele>731.70043945312</ele>
        <time>2010-06-13T08:16:49Z</time>
      </trkpt>
      <trkpt lat="45.99921" lon="4.5655">
        <ele>733.142578125</ele>
        <time>2010-06-13T08:16:58Z</time>
      </trkpt>
      <trkpt lat="45.99911" lon="4.5655">
        <ele>734.58471679688</ele>
        <time>2010-06-13T08:17:05Z</time>
      </trkpt>
      <trkpt lat="45.99899" lon="4.5655">
        <ele>736.50732421875</ele>
        <time>2010-06-13T08:17:13Z</time>
      </trkpt>
      <trkpt lat="45.99892" lon="4.56551">
        <ele>736.98779296875</ele>
        <time>2010-06-13T08:17:19Z</time>
      </trkpt>
      <trkpt lat="45.99886" lon="4.56553">
        <ele>737.46850585938</ele>
        <time>2010-06-13T08:17:25Z</time>
      </trkpt>
      <trkpt lat="45.99878" lon="4.56559">
        <ele>738.91064453125</ele>
        <time>2010-06-13T08:17:32Z</time>
      </trkpt>
      <trkpt lat="45.99869" lon="4.56566">
        <ele>740.8330078125</ele>
        <time>2010-06-13T08:17:39Z</time>
      </trkpt>
      <trkpt lat="45.99862" lon="4.56579">
        <ele>741.79443359375</ele>
        <time>2010-06-13T08:17:47Z</time>
      </trkpt>
      <trkpt lat="45.99858" lon="4.56591">
        <ele>742.755859375</ele>
        <time>2010-06-13T08:17:54Z</time>
      </trkpt>
      <trkpt lat="45.99855" lon="4.566">
        <ele>742.755859375</ele>
        <time>2010-06-13T08:18:00Z</time>
      </trkpt>
      <trkpt lat="45.9985" lon="4.56612">
        <ele>744.19775390625</ele>
        <time>2010-06-13T08:18:07Z</time>
      </trkpt>
      <trkpt lat="45.99848" lon="4.56621">
        <ele>745.15893554688</ele>
        <time>2010-06-13T08:18:12Z</time>
      </trkpt>
      <trkpt lat="45.99846" lon="4.56633">
        <ele>746.60107421875</ele>
        <time>2010-06-13T08:18:19Z</time>
      </trkpt>
      <trkpt lat="45.99845" lon="4.56646">
        <ele>748.04321289062</ele>
        <time>2010-06-13T08:18:26Z</time>
      </trkpt>
      <trkpt lat="45.99844" lon="4.56658">
        <ele>749.00439453125</ele>
        <time>2010-06-13T08:18:33Z</time>
      </trkpt>
      <trkpt lat="45.99844" lon="4.56676">
        <ele>749.9658203125</ele>
        <time>2010-06-13T08:18:41Z</time>
      </trkpt>
      <trkpt lat="45.99843" lon="4.56685">
        <ele>750.44653320312</ele>
        <time>2010-06-13T08:18:46Z</time>
      </trkpt>
      <trkpt lat="45.99843" lon="4.56698">
        <ele>751.88842773438</ele>
        <time>2010-06-13T08:18:52Z</time>
      </trkpt>
      <trkpt lat="45.9984" lon="4.56713">
        <ele>753.81103515625</ele>
        <time>2010-06-13T08:18:59Z</time>
      </trkpt>
      <trkpt lat="45.99839" lon="4.56718">
        <ele>754.29174804688</ele>
        <time>2010-06-13T08:19:03Z</time>
      </trkpt>
      <trkpt lat="45.99839" lon="4.56729">
        <ele>755.2529296875</ele>
        <time>2010-06-13T08:19:08Z</time>
      </trkpt>
      <trkpt lat="45.9984" lon="4.5674">
        <ele>755.73364257812</ele>
        <time>2010-06-13T08:19:12Z</time>
      </trkpt>
      <trkpt lat="45.99839" lon="4.56751">
        <ele>756.21411132812</ele>
        <time>2010-06-13T08:19:16Z</time>
      </trkpt>
      <trkpt lat="45.99839" lon="4.56764">
        <ele>757.65625</ele>
        <time>2010-06-13T08:19:22Z</time>
      </trkpt>
      <trkpt lat="45.99839" lon="4.56778">
        <ele>758.61743164062</ele>
        <time>2010-06-13T08:19:28Z</time>
      </trkpt>
      <trkpt lat="45.99839" lon="4.56781">
        <ele>758.61743164062</ele>
        <time>2010-06-13T08:19:29Z</time>
      </trkpt>
      <trkpt lat="45.99839" lon="4.56794">
        <ele>760.5400390625</ele>
        <time>2010-06-13T08:19:35Z</time>
      </trkpt>
      <trkpt lat="45.99839" lon="4.56798">
        <ele>760.5400390625</ele>
        <time>2010-06-13T08:19:37Z</time>
      </trkpt>
      <trkpt lat="45.99839" lon="4.56816">
        <ele>762.943359375</ele>
        <time>2010-06-13T08:19:43Z</time>
      </trkpt>
      <trkpt lat="45.99841" lon="4.56834">
        <ele>763.90454101562</ele>
        <time>2010-06-13T08:19:49Z</time>
      </trkpt>
      <trkpt lat="45.99843" lon="4.5685">
        <ele>764.8662109375</ele>
        <time>2010-06-13T08:19:55Z</time>
      </trkpt>
      <trkpt lat="45.99847" lon="4.56873">
        <ele>766.30810546875</ele>
        <time>2010-06-13T08:20:03Z</time>
      </trkpt>
      <trkpt lat="45.9985" lon="4.56893">
        <ele>768.23071289062</ele>
        <time>2010-06-13T08:20:09Z</time>
      </trkpt>
      <trkpt lat="45.99853" lon="4.5691">
        <ele>770.1533203125</ele>
        <time>2010-06-13T08:20:15Z</time>
      </trkpt>
      <trkpt lat="45.99857" lon="4.56924">
        <ele>770.63403320312</ele>
        <time>2010-06-13T08:20:20Z</time>
      </trkpt>
      <trkpt lat="45.99863" lon="4.56943">
        <ele>773.03735351562</ele>
        <time>2010-06-13T08:20:27Z</time>
      </trkpt>
      <trkpt lat="45.99864" lon="4.56946">
        <ele>773.03735351562</ele>
        <time>2010-06-13T08:20:28Z</time>
      </trkpt>
      <trkpt lat="45.99863" lon="4.56969">
        <ele>774.47924804688</ele>
        <time>2010-06-13T08:20:36Z</time>
      </trkpt>
      <trkpt lat="45.99864" lon="4.56985">
        <ele>775.4404296875</ele>
        <time>2010-06-13T08:20:42Z</time>
      </trkpt>
      <trkpt lat="45.99858" lon="4.56993">
        <ele>775.92114257812</ele>
        <time>2010-06-13T08:20:46Z</time>
      </trkpt>
      <trkpt lat="45.9985" lon="4.56995">
        <ele>777.36328125</ele>
        <time>2010-06-13T08:20:51Z</time>
      </trkpt>
      <trkpt lat="45.99842" lon="4.56994">
        <ele>779.28564453125</ele>
        <time>2010-06-13T08:20:57Z</time>
      </trkpt>
      <trkpt lat="45.99835" lon="4.56993">
        <ele>779.28564453125</ele>
        <time>2010-06-13T08:21:01Z</time>
      </trkpt>
      <trkpt lat="45.99826" lon="4.56993">
        <ele>781.20874023438</ele>
        <time>2010-06-13T08:21:06Z</time>
      </trkpt>
      <trkpt lat="45.99824" lon="4.56993">
        <ele>781.68920898438</ele>
        <time>2010-06-13T08:21:07Z</time>
      </trkpt>
      <trkpt lat="45.99809" lon="4.56991">
        <ele>783.13110351562</ele>
        <time>2010-06-13T08:21:15Z</time>
      </trkpt>
      <trkpt lat="45.99798" lon="4.56985">
        <ele>784.09252929688</ele>
        <time>2010-06-13T08:21:21Z</time>
      </trkpt>
      <trkpt lat="45.99788" lon="4.5698">
        <ele>785.53442382812</ele>
        <time>2010-06-13T08:21:26Z</time>
      </trkpt>
      <trkpt lat="45.99773" lon="4.5697">
        <ele>786.49584960938</ele>
        <time>2010-06-13T08:21:34Z</time>
      </trkpt>
      <trkpt lat="45.99763" lon="4.56964">
        <ele>787.45703125</ele>
        <time>2010-06-13T08:21:41Z</time>
      </trkpt>
      <trkpt lat="45.99754" lon="4.56962">
        <ele>788.89916992188</ele>
        <time>2010-06-13T08:21:47Z</time>
      </trkpt>
      <trkpt lat="45.99746" lon="4.56959">
        <ele>789.8603515625</ele>
        <time>2010-06-13T08:21:52Z</time>
      </trkpt>
      <trkpt lat="45.99739" lon="4.56953">
        <ele>791.30224609375</ele>
        <time>2010-06-13T08:21:59Z</time>
      </trkpt>
      <trkpt lat="45.99731" lon="4.56945">
        <ele>793.22485351562</ele>
        <time>2010-06-13T08:22:06Z</time>
      </trkpt>
      <trkpt lat="45.99727" lon="4.56942">
        <ele>793.22485351562</ele>
        <time>2010-06-13T08:22:09Z</time>
      </trkpt>
      <trkpt lat="45.99717" lon="4.56935">
        <ele>794.18627929688</ele>
        <time>2010-06-13T08:22:16Z</time>
      </trkpt>
      <trkpt lat="45.99702" lon="4.56926">
        <ele>795.1474609375</ele>
        <time>2010-06-13T08:22:24Z</time>
      </trkpt>
      <trkpt lat="45.99701" lon="4.56924">
        <ele>796.10913085938</ele>
        <time>2010-06-13T08:22:26Z</time>
      </trkpt>
      <trkpt lat="45.99692" lon="4.56916">
        <ele>796.58984375</ele>
        <time>2010-06-13T08:22:33Z</time>
      </trkpt>
      <trkpt lat="45.99685" lon="4.56911">
        <ele>798.03173828125</ele>
        <time>2010-06-13T08:22:39Z</time>
      </trkpt>
      <trkpt lat="45.99676" lon="4.56906">
        <ele>798.99291992188</ele>
        <time>2010-06-13T08:22:45Z</time>
      </trkpt>
      <trkpt lat="45.99659" lon="4.56901">
        <ele>799.95434570312</ele>
        <time>2010-06-13T08:22:52Z</time>
      </trkpt>
      <trkpt lat="45.99646" lon="4.569">
        <ele>800.91552734375</ele>
        <time>2010-06-13T08:22:58Z</time>
      </trkpt>
      <trkpt lat="45.99633" lon="4.56898">
        <ele>802.83813476562</ele>
        <time>2010-06-13T08:23:04Z</time>
      </trkpt>
      <trkpt lat="45.99621" lon="4.56893">
        <ele>803.79956054688</ele>
        <time>2010-06-13T08:23:10Z</time>
      </trkpt>
      <trkpt lat="45.99606" lon="4.56891">
        <ele>806.20263671875</ele>
        <time>2010-06-13T08:23:17Z</time>
      </trkpt>
      <trkpt lat="45.99604" lon="4.5689">
        <ele>806.20263671875</ele>
        <time>2010-06-13T08:23:18Z</time>
      </trkpt>
      <trkpt lat="45.99594" lon="4.5689">
        <ele>806.20263671875</ele>
        <time>2010-06-13T08:23:23Z</time>
      </trkpt>
      <trkpt lat="45.99592" lon="4.5689">
        <ele>807.1640625</ele>
        <time>2010-06-13T08:23:24Z</time>
      </trkpt>
      <trkpt lat="45.99576" lon="4.56885">
        <ele>808.60595703125</ele>
        <time>2010-06-13T08:23:32Z</time>
      </trkpt>
      <trkpt lat="45.99564" lon="4.56875">
        <ele>810.0478515625</ele>
        <time>2010-06-13T08:23:39Z</time>
      </trkpt>
      <trkpt lat="45.99553" lon="4.56863">
        <ele>812.45141601562</ele>
        <time>2010-06-13T08:23:47Z</time>
      </trkpt>
      <trkpt lat="45.99541" lon="4.56851">
        <ele>813.89331054688</ele>
        <time>2010-06-13T08:23:55Z</time>
      </trkpt>
      <trkpt lat="45.99536" lon="4.56847">
        <ele>814.85473632812</ele>
        <time>2010-06-13T08:23:58Z</time>
      </trkpt>
      <trkpt lat="45.99522" lon="4.56832">
        <ele>816.77734375</ele>
        <time>2010-06-13T08:24:06Z</time>
      </trkpt>
      <trkpt lat="45.99515" lon="4.56818">
        <ele>817.73852539062</ele>
        <time>2010-06-13T08:24:13Z</time>
      </trkpt>
      <trkpt lat="45.99509" lon="4.568">
        <ele>819.1806640625</ele>
        <time>2010-06-13T08:24:21Z</time>
      </trkpt>
      <trkpt lat="45.99504" lon="4.56774">
        <ele>821.58374023438</ele>
        <time>2010-06-13T08:24:32Z</time>
      </trkpt>
      <trkpt lat="45.99503" lon="4.56769">
        <ele>821.58374023438</ele>
        <time>2010-06-13T08:24:35Z</time>
      </trkpt>
      <trkpt lat="45.99497" lon="4.56756">
        <ele>820.62255859375</ele>
        <time>2010-06-13T08:24:41Z</time>
      </trkpt>
      <trkpt lat="45.99485" lon="4.5673">
        <ele>820.14184570312</ele>
        <time>2010-06-13T08:24:47Z</time>
      </trkpt>
      <trkpt lat="45.99471" lon="4.56704">
        <ele>816.77734375</ele>
        <time>2010-06-13T08:24:51Z</time>
      </trkpt>
      <trkpt lat="45.99468" lon="4.56696">
        <ele>817.25805664062</ele>
        <time>2010-06-13T08:24:52Z</time>
      </trkpt>
      <trkpt lat="45.9945" lon="4.56644">
        <ele>816.29663085938</ele>
        <time>2010-06-13T08:24:58Z</time>
      </trkpt>
      <trkpt lat="45.99442" lon="4.56624">
        <ele>814.3740234375</ele>
        <time>2010-06-13T08:25:01Z</time>
      </trkpt>
      <trkpt lat="45.9943" lon="4.56598">
        <ele>812.93212890625</ele>
        <time>2010-06-13T08:25:05Z</time>
      </trkpt>
      <trkpt lat="45.99423" lon="4.56574">
        <ele>811.48999023438</ele>
        <time>2010-06-13T08:25:08Z</time>
      </trkpt>
      <trkpt lat="45.99417" lon="4.56554">
        <ele>809.5673828125</ele>
        <time>2010-06-13T08:25:11Z</time>
      </trkpt>
      <trkpt lat="45.99413" lon="4.56542">
        <ele>807.64477539062</ele>
        <time>2010-06-13T08:25:14Z</time>
      </trkpt>
      <trkpt lat="45.99411" lon="4.56525">
        <ele>807.1640625</ele>
        <time>2010-06-13T08:25:20Z</time>
      </trkpt>
      <trkpt lat="45.99409" lon="4.56516">
        <ele>806.68334960938</ele>
        <time>2010-06-13T08:25:26Z</time>
      </trkpt>
      <trkpt lat="45.99409" lon="4.56516">
        <ele>806.20263671875</ele>
        <time>2010-06-13T08:25:32Z</time>
      </trkpt>
      <trkpt lat="45.99411" lon="4.56518">
        <ele>807.64477539062</ele>
        <time>2010-06-13T08:26:01Z</time>
      </trkpt>
      <trkpt lat="45.99413" lon="4.56523">
        <ele>807.1640625</ele>
        <time>2010-06-13T08:26:08Z</time>
      </trkpt>
      <trkpt lat="45.99413" lon="4.56524">
        <ele>806.68334960938</ele>
        <time>2010-06-13T08:26:15Z</time>
      </trkpt>
      <trkpt lat="45.99414" lon="4.5653">
        <ele>807.1640625</ele>
        <time>2010-06-13T08:26:19Z</time>
      </trkpt>
      <trkpt lat="45.99418" lon="4.56549">
        <ele>808.60595703125</ele>
        <time>2010-06-13T08:26:26Z</time>
      </trkpt>
      <trkpt lat="45.9942" lon="4.56557">
        <ele>809.08666992188</ele>
        <time>2010-06-13T08:26:30Z</time>
      </trkpt>
      <trkpt lat="45.99424" lon="4.56566">
        <ele>810.0478515625</ele>
        <time>2010-06-13T08:26:37Z</time>
      </trkpt>
      <trkpt lat="45.9943" lon="4.56574">
        <ele>811.970703125</ele>
        <time>2010-06-13T08:26:44Z</time>
      </trkpt>
      <trkpt lat="45.99437" lon="4.56583">
        <ele>813.89331054688</ele>
        <time>2010-06-13T08:26:52Z</time>
      </trkpt>
      <trkpt lat="45.99443" lon="4.56591">
        <ele>816.29663085938</ele>
        <time>2010-06-13T08:26:58Z</time>
      </trkpt>
      <trkpt lat="45.9945" lon="4.56599">
        <ele>818.21923828125</ele>
        <time>2010-06-13T08:27:05Z</time>
      </trkpt>
      <trkpt lat="45.99454" lon="4.56607">
        <ele>819.1806640625</ele>
        <time>2010-06-13T08:27:11Z</time>
      </trkpt>
      <trkpt lat="45.99461" lon="4.56615">
        <ele>821.58374023438</ele>
        <time>2010-06-13T08:27:18Z</time>
      </trkpt>
      <trkpt lat="45.99469" lon="4.56627">
        <ele>822.064453125</ele>
        <time>2010-06-13T08:27:26Z</time>
      </trkpt>
      <trkpt lat="45.99477" lon="4.56639">
        <ele>823.02587890625</ele>
        <time>2010-06-13T08:27:35Z</time>
      </trkpt>
      <trkpt lat="45.99485" lon="4.5665">
        <ele>824.4677734375</ele>
        <time>2010-06-13T08:27:43Z</time>
      </trkpt>
      <trkpt lat="45.99492" lon="4.5666">
        <ele>825.90966796875</ele>
        <time>2010-06-13T08:27:51Z</time>
      </trkpt>
      <trkpt lat="45.995" lon="4.56672">
        <ele>827.35180664062</ele>
        <time>2010-06-13T08:27:59Z</time>
      </trkpt>
      <trkpt lat="45.99509" lon="4.56681">
        <ele>828.31323242188</ele>
        <time>2010-06-13T08:28:07Z</time>
      </trkpt>
      <trkpt lat="45.99519" lon="4.56684">
        <ele>830.71655273438</ele>
        <time>2010-06-13T08:28:15Z</time>
      </trkpt>
      <trkpt lat="45.99529" lon="4.56681">
        <ele>832.63916015625</ele>
        <time>2010-06-13T08:28:23Z</time>
      </trkpt>
      <trkpt lat="45.99537" lon="4.56673">
        <ele>835.52294921875</ele>
        <time>2010-06-13T08:28:31Z</time>
      </trkpt>
      <trkpt lat="45.99544" lon="4.56665">
        <ele>836.484375</ele>
        <time>2010-06-13T08:28:38Z</time>
      </trkpt>
      <trkpt lat="45.99551" lon="4.56658">
        <ele>837.92626953125</ele>
        <time>2010-06-13T08:28:45Z</time>
      </trkpt>
      <trkpt lat="45.99557" lon="4.56652">
        <ele>838.8876953125</ele>
        <time>2010-06-13T08:28:52Z</time>
      </trkpt>
      <trkpt lat="45.99569" lon="4.56647">
        <ele>841.29077148438</ele>
        <time>2010-06-13T08:29:01Z</time>
      </trkpt>
      <trkpt lat="45.9957" lon="4.56647">
        <ele>841.771484375</ele>
        <time>2010-06-13T08:29:02Z</time>
      </trkpt>
      <trkpt lat="45.99574" lon="4.56644">
        <ele>841.771484375</ele>
        <time>2010-06-13T08:29:06Z</time>
      </trkpt>
      <trkpt lat="45.99582" lon="4.56643">
        <ele>842.25219726562</ele>
        <time>2010-06-13T08:29:13Z</time>
      </trkpt>
      <trkpt lat="45.99588" lon="4.56644">
        <ele>842.25219726562</ele>
        <time>2010-06-13T08:29:18Z</time>
      </trkpt>
      <trkpt lat="45.99591" lon="4.56641">
        <ele>842.73291015625</ele>
        <time>2010-06-13T08:29:22Z</time>
      </trkpt>
      <trkpt lat="45.99594" lon="4.5663">
        <ele>842.25219726562</ele>
        <time>2010-06-13T08:29:29Z</time>
      </trkpt>
      <trkpt lat="45.99594" lon="4.56617">
        <ele>841.771484375</ele>
        <time>2010-06-13T08:29:36Z</time>
      </trkpt>
      <trkpt lat="45.99594" lon="4.56615">
        <ele>841.29077148438</ele>
        <time>2010-06-13T08:29:37Z</time>
      </trkpt>
      <trkpt lat="45.99597" lon="4.56597">
        <ele>840.32958984375</ele>
        <time>2010-06-13T08:29:44Z</time>
      </trkpt>
      <trkpt lat="45.99605" lon="4.56574">
        <ele>838.40698242188</ele>
        <time>2010-06-13T08:29:51Z</time>
      </trkpt>
      <trkpt lat="45.99611" lon="4.56561">
        <ele>836.96484375</ele>
        <time>2010-06-13T08:29:54Z</time>
      </trkpt>
      <trkpt lat="45.99617" lon="4.56552">
        <ele>834.0810546875</ele>
        <time>2010-06-13T08:29:58Z</time>
      </trkpt>
      <trkpt lat="45.99616" lon="4.56547">
        <ele>834.0810546875</ele>
        <time>2010-06-13T08:30:23Z</time>
      </trkpt>
      <trkpt lat="45.99619" lon="4.56542">
        <ele>833.60034179688</ele>
        <time>2010-06-13T08:30:36Z</time>
      </trkpt>
      <trkpt lat="45.9962" lon="4.56541">
        <ele>833.11962890625</ele>
        <time>2010-06-13T08:30:37Z</time>
      </trkpt>
      <trkpt lat="45.99624" lon="4.5654">
        <ele>831.677734375</ele>
        <time>2010-06-13T08:30:41Z</time>
      </trkpt>
      <trkpt lat="45.99624" lon="4.56536">
        <ele>831.197265625</ele>
        <time>2010-06-13T08:30:43Z</time>
      </trkpt>
      <trkpt lat="45.99626" lon="4.56533">
        <ele>830.23583984375</ele>
        <time>2010-06-13T08:30:45Z</time>
      </trkpt>
      <trkpt lat="45.99634" lon="4.56529">
        <ele>827.35180664062</ele>
        <time>2010-06-13T08:30:50Z</time>
      </trkpt>
      <trkpt lat="45.99635" lon="4.56526">
        <ele>826.39038085938</ele>
        <time>2010-06-13T08:30:52Z</time>
      </trkpt>
      <trkpt lat="45.99639" lon="4.56518">
        <ele>824.94848632812</ele>
        <time>2010-06-13T08:30:56Z</time>
      </trkpt>
      <trkpt lat="45.99646" lon="4.5651">
        <ele>823.02587890625</ele>
        <time>2010-06-13T08:30:59Z</time>
      </trkpt>
      <trkpt lat="45.99654" lon="4.56504">
        <ele>820.14184570312</ele>
        <time>2010-06-13T08:31:04Z</time>
      </trkpt>
      <trkpt lat="45.9966" lon="4.565">
        <ele>818.69995117188</ele>
        <time>2010-06-13T08:31:07Z</time>
      </trkpt>
      <trkpt lat="45.99669" lon="4.56488">
        <ele>815.33544921875</ele>
        <time>2010-06-13T08:31:11Z</time>
      </trkpt>
      <trkpt lat="45.99677" lon="4.56479">
        <ele>812.45141601562</ele>
        <time>2010-06-13T08:31:14Z</time>
      </trkpt>
      <trkpt lat="45.9968" lon="4.56463">
        <ele>811.48999023438</ele>
        <time>2010-06-13T08:31:19Z</time>
      </trkpt>
      <trkpt lat="45.99679" lon="4.56454">
        <ele>810.52856445312</ele>
        <time>2010-06-13T08:31:23Z</time>
      </trkpt>
      <trkpt lat="45.99685" lon="4.56445">
        <ele>809.5673828125</ele>
        <time>2010-06-13T08:31:27Z</time>
      </trkpt>
      <trkpt lat="45.99689" lon="4.56432">
        <ele>808.60595703125</ele>
        <time>2010-06-13T08:31:30Z</time>
      </trkpt>
      <trkpt lat="45.99698" lon="4.56413">
        <ele>804.7607421875</ele>
        <time>2010-06-13T08:31:35Z</time>
      </trkpt>
      <trkpt lat="45.99698" lon="4.56407">
        <ele>803.79956054688</ele>
        <time>2010-06-13T08:31:37Z</time>
      </trkpt>
      <trkpt lat="45.99697" lon="4.56404">
        <ele>803.79956054688</ele>
        <time>2010-06-13T08:31:38Z</time>
      </trkpt>
      <trkpt lat="45.99698" lon="4.56389">
        <ele>802.357421875</ele>
        <time>2010-06-13T08:31:42Z</time>
      </trkpt>
      <trkpt lat="45.99697" lon="4.56385">
        <ele>802.357421875</ele>
        <time>2010-06-13T08:31:43Z</time>
      </trkpt>
      <trkpt lat="45.99701" lon="4.56376">
        <ele>801.39624023438</ele>
        <time>2010-06-13T08:31:46Z</time>
      </trkpt>
      <trkpt lat="45.99708" lon="4.5636">
        <ele>798.99291992188</ele>
        <time>2010-06-13T08:31:50Z</time>
      </trkpt>
      <trkpt lat="45.9971" lon="4.56356">
        <ele>798.51220703125</ele>
        <time>2010-06-13T08:31:51Z</time>
      </trkpt>
      <trkpt lat="45.99723" lon="4.56347">
        <ele>796.10913085938</ele>
        <time>2010-06-13T08:31:55Z</time>
      </trkpt>
      <trkpt lat="45.99725" lon="4.56345">
        <ele>794.66674804688</ele>
        <time>2010-06-13T08:31:56Z</time>
      </trkpt>
      <trkpt lat="45.99731" lon="4.56341">
        <ele>793.70556640625</ele>
        <time>2010-06-13T08:31:59Z</time>
      </trkpt>
      <trkpt lat="45.99737" lon="4.5633">
        <ele>791.78295898438</ele>
        <time>2010-06-13T08:32:02Z</time>
      </trkpt>
      <trkpt lat="45.99734" lon="4.5632">
        <ele>791.78295898438</ele>
        <time>2010-06-13T08:32:05Z</time>
      </trkpt>
      <trkpt lat="45.99722" lon="4.56303">
        <ele>792.74438476562</ele>
        <time>2010-06-13T08:32:11Z</time>
      </trkpt>
      <trkpt lat="45.9972" lon="4.56288">
        <ele>793.22485351562</ele>
        <time>2010-06-13T08:32:15Z</time>
      </trkpt>
      <trkpt lat="45.99714" lon="4.56272">
        <ele>793.22485351562</ele>
        <time>2010-06-13T08:32:20Z</time>
      </trkpt>
      <trkpt lat="45.99715" lon="4.56261">
        <ele>792.74438476562</ele>
        <time>2010-06-13T08:32:23Z</time>
      </trkpt>
      <trkpt lat="45.99716" lon="4.56243">
        <ele>791.30224609375</ele>
        <time>2010-06-13T08:32:27Z</time>
      </trkpt>
      <trkpt lat="45.99719" lon="4.5623">
        <ele>789.8603515625</ele>
        <time>2010-06-13T08:32:31Z</time>
      </trkpt>
      <trkpt lat="45.99737" lon="4.56211">
        <ele>786.97631835938</ele>
        <time>2010-06-13T08:32:37Z</time>
      </trkpt>
      <trkpt lat="45.99749" lon="4.56199">
        <ele>785.53442382812</ele>
        <time>2010-06-13T08:32:41Z</time>
      </trkpt>
      <trkpt lat="45.99758" lon="4.56185">
        <ele>783.13110351562</ele>
        <time>2010-06-13T08:32:44Z</time>
      </trkpt>
      <trkpt lat="45.9977" lon="4.56174">
        <ele>779.76635742188</ele>
        <time>2010-06-13T08:32:47Z</time>
      </trkpt>
      <trkpt lat="45.99778" lon="4.56161">
        <ele>776.88256835938</ele>
        <time>2010-06-13T08:32:50Z</time>
      </trkpt>
      <trkpt lat="45.99778" lon="4.5615">
        <ele>776.40185546875</ele>
        <time>2010-06-13T08:32:53Z</time>
      </trkpt>
      <trkpt lat="45.99774" lon="4.56131">
        <ele>776.88256835938</ele>
        <time>2010-06-13T08:32:59Z</time>
      </trkpt>
      <trkpt lat="45.99772" lon="4.56117">
        <ele>777.36328125</ele>
        <time>2010-06-13T08:33:03Z</time>
      </trkpt>
      <trkpt lat="45.99767" lon="4.56108">
        <ele>778.32446289062</ele>
        <time>2010-06-13T08:33:07Z</time>
      </trkpt>
      <trkpt lat="45.99762" lon="4.56099">
        <ele>779.76635742188</ele>
        <time>2010-06-13T08:33:12Z</time>
      </trkpt>
      <trkpt lat="45.9976" lon="4.56087">
        <ele>780.24731445312</ele>
        <time>2010-06-13T08:33:17Z</time>
      </trkpt>
      <trkpt lat="45.99751" lon="4.5608">
        <ele>782.169921875</ele>
        <time>2010-06-13T08:33:22Z</time>
      </trkpt>
      <trkpt lat="45.99736" lon="4.56073">
        <ele>784.5732421875</ele>
        <time>2010-06-13T08:33:29Z</time>
      </trkpt>
      <trkpt lat="45.99718" lon="4.5606">
        <ele>786.01513671875</ele>
        <time>2010-06-13T08:33:38Z</time>
      </trkpt>
      <trkpt lat="45.99716" lon="4.56058">
        <ele>785.53442382812</ele>
        <time>2010-06-13T08:33:43Z</time>
      </trkpt>
      <trkpt lat="45.9971" lon="4.56057">
        <ele>785.05395507812</ele>
        <time>2010-06-13T08:33:51Z</time>
      </trkpt>
      <trkpt lat="45.99703" lon="4.56052">
        <ele>784.5732421875</ele>
        <time>2010-06-13T08:33:57Z</time>
      </trkpt>
      <trkpt lat="45.99701" lon="4.56049">
        <ele>784.09252929688</ele>
        <time>2010-06-13T08:34:03Z</time>
      </trkpt>
      <trkpt lat="45.99701" lon="4.56048">
        <ele>784.09252929688</ele>
        <time>2010-06-13T08:34:27Z</time>
      </trkpt>
      <trkpt lat="45.99687" lon="4.56049">
        <ele>781.68920898438</ele>
        <time>2010-06-13T08:34:34Z</time>
      </trkpt>
      <trkpt lat="45.99684" lon="4.5605">
        <ele>782.169921875</ele>
        <time>2010-06-13T08:34:35Z</time>
      </trkpt>
      <trkpt lat="45.99676" lon="4.56058">
        <ele>780.72802734375</ele>
        <time>2010-06-13T08:34:37Z</time>
      </trkpt>
      <trkpt lat="45.99667" lon="4.5607">
        <ele>779.28564453125</ele>
        <time>2010-06-13T08:34:39Z</time>
      </trkpt>
      <trkpt lat="45.99643" lon="4.56102">
        <ele>776.40185546875</ele>
        <time>2010-06-13T08:34:44Z</time>
      </trkpt>
      <trkpt lat="45.99619" lon="4.56128">
        <ele>774.47924804688</ele>
        <time>2010-06-13T08:34:48Z</time>
      </trkpt>
      <trkpt lat="45.99584" lon="4.56157">
        <ele>769.6728515625</ele>
        <time>2010-06-13T08:34:53Z</time>
      </trkpt>
      <trkpt lat="45.99562" lon="4.56175">
        <ele>766.78881835938</ele>
        <time>2010-06-13T08:34:56Z</time>
      </trkpt>
      <trkpt lat="45.99547" lon="4.56186">
        <ele>762.943359375</ele>
        <time>2010-06-13T08:34:58Z</time>
      </trkpt>
      <trkpt lat="45.99526" lon="4.562">
        <ele>758.13696289062</ele>
        <time>2010-06-13T08:35:01Z</time>
      </trkpt>
      <trkpt lat="45.99516" lon="4.56202">
        <ele>756.69482421875</ele>
        <time>2010-06-13T08:35:04Z</time>
      </trkpt>
      <trkpt lat="45.9951" lon="4.56205">
        <ele>755.73364257812</ele>
        <time>2010-06-13T08:35:09Z</time>
      </trkpt>
      <trkpt lat="45.995" lon="4.56215">
        <ele>754.77221679688</ele>
        <time>2010-06-13T08:35:13Z</time>
      </trkpt>
      <trkpt lat="45.99469" lon="4.56219">
        <ele>753.81103515625</ele>
        <time>2010-06-13T08:35:19Z</time>
      </trkpt>
      <trkpt lat="45.99438" lon="4.56212">
        <ele>752.36889648438</ele>
        <time>2010-06-13T08:35:25Z</time>
      </trkpt>
      <trkpt lat="45.99405" lon="4.56205">
        <ele>751.40771484375</ele>
        <time>2010-06-13T08:35:31Z</time>
      </trkpt>
      <trkpt lat="45.99388" lon="4.56202">
        <ele>749.9658203125</ele>
        <time>2010-06-13T08:35:35Z</time>
      </trkpt>
      <trkpt lat="45.99376" lon="4.56204">
        <ele>749.48510742188</ele>
        <time>2010-06-13T08:35:40Z</time>
      </trkpt>
      <trkpt lat="45.99359" lon="4.56206">
        <ele>750.44653320312</ele>
        <time>2010-06-13T08:35:47Z</time>
      </trkpt>
      <trkpt lat="45.99331" lon="4.56207">
        <ele>750.44653320312</ele>
        <time>2010-06-13T08:35:53Z</time>
      </trkpt>
      <trkpt lat="45.99314" lon="4.56209">
        <ele>749.48510742188</ele>
        <time>2010-06-13T08:35:56Z</time>
      </trkpt>
      <trkpt lat="45.99294" lon="4.56213">
        <ele>750.92700195312</ele>
        <time>2010-06-13T08:36:00Z</time>
      </trkpt>
      <trkpt lat="45.99276" lon="4.56221">
        <ele>752.36889648438</ele>
        <time>2010-06-13T08:36:04Z</time>
      </trkpt>
      <trkpt lat="45.99267" lon="4.56227">
        <ele>752.36889648438</ele>
        <time>2010-06-13T08:36:06Z</time>
      </trkpt>
      <trkpt lat="45.99249" lon="4.56245">
        <ele>752.849609375</ele>
        <time>2010-06-13T08:36:11Z</time>
      </trkpt>
      <trkpt lat="45.99233" lon="4.56257">
        <ele>753.33032226562</ele>
        <time>2010-06-13T08:36:15Z</time>
      </trkpt>
      <trkpt lat="45.99207" lon="4.56278">
        <ele>751.40771484375</ele>
        <time>2010-06-13T08:36:21Z</time>
      </trkpt>
      <trkpt lat="45.9919" lon="4.56299">
        <ele>748.52368164062</ele>
        <time>2010-06-13T08:36:25Z</time>
      </trkpt>
      <trkpt lat="45.99179" lon="4.5631">
        <ele>746.12036132812</ele>
        <time>2010-06-13T08:36:27Z</time>
      </trkpt>
      <trkpt lat="45.99174" lon="4.56315">
        <ele>746.60107421875</ele>
        <time>2010-06-13T08:36:28Z</time>
      </trkpt>
      <trkpt lat="45.99148" lon="4.5633">
        <ele>744.19775390625</ele>
        <time>2010-06-13T08:36:32Z</time>
      </trkpt>
      <trkpt lat="45.99141" lon="4.56332">
        <ele>744.19775390625</ele>
        <time>2010-06-13T08:36:33Z</time>
      </trkpt>
      <trkpt lat="45.99126" lon="4.56337">
        <ele>741.79443359375</ele>
        <time>2010-06-13T08:36:35Z</time>
      </trkpt>
      <trkpt lat="45.99098" lon="4.56346">
        <ele>737.46850585938</ele>
        <time>2010-06-13T08:36:39Z</time>
      </trkpt>
      <trkpt lat="45.99073" lon="4.56358">
        <ele>734.58471679688</ele>
        <time>2010-06-13T08:36:43Z</time>
      </trkpt>
      <trkpt lat="45.99067" lon="4.56363">
        <ele>733.62329101562</ele>
        <time>2010-06-13T08:36:44Z</time>
      </trkpt>
      <trkpt lat="45.99045" lon="4.56389">
        <ele>732.18139648438</ele>
        <time>2010-06-13T08:36:48Z</time>
      </trkpt>
      <trkpt lat="45.99038" lon="4.56395">
        <ele>730.7392578125</ele>
        <time>2010-06-13T08:36:49Z</time>
      </trkpt>
      <trkpt lat="45.99015" lon="4.56424">
        <ele>728.81665039062</ele>
        <time>2010-06-13T08:36:54Z</time>
      </trkpt>
      <trkpt lat="45.99012" lon="4.56427">
        <ele>728.81665039062</ele>
        <time>2010-06-13T08:36:56Z</time>
      </trkpt>
      <trkpt lat="45.99008" lon="4.56433">
        <ele>728.81665039062</ele>
        <time>2010-06-13T08:37:01Z</time>
      </trkpt>
      <trkpt lat="45.99005" lon="4.56446">
        <ele>728.81665039062</ele>
        <time>2010-06-13T08:37:06Z</time>
      </trkpt>
      <trkpt lat="45.98995" lon="4.56455">
        <ele>727.85522460938</ele>
        <time>2010-06-13T08:37:10Z</time>
      </trkpt>
      <trkpt lat="45.9898" lon="4.56463">
        <ele>725.9326171875</ele>
        <time>2010-06-13T08:37:13Z</time>
      </trkpt>
      <trkpt lat="45.98974" lon="4.56464">
        <ele>724.97143554688</ele>
        <time>2010-06-13T08:37:14Z</time>
      </trkpt>
      <trkpt lat="45.98955" lon="4.56476">
        <ele>722.56811523438</ele>
        <time>2010-06-13T08:37:17Z</time>
      </trkpt>
      <trkpt lat="45.98926" lon="4.56502">
        <ele>719.68432617188</ele>
        <time>2010-06-13T08:37:22Z</time>
      </trkpt>
      <trkpt lat="45.98916" lon="4.56514">
        <ele>716.31958007812</ele>
        <time>2010-06-13T08:37:24Z</time>
      </trkpt>
      <trkpt lat="45.98906" lon="4.56528">
        <ele>715.35815429688</ele>
        <time>2010-06-13T08:37:26Z</time>
      </trkpt>
      <trkpt lat="45.98893" lon="4.56532">
        <ele>714.39672851562</ele>
        <time>2010-06-13T08:37:29Z</time>
      </trkpt>
      <trkpt lat="45.98891" lon="4.56529">
        <ele>714.39672851562</ele>
        <time>2010-06-13T08:37:30Z</time>
      </trkpt>
      <trkpt lat="45.98888" lon="4.56525">
        <ele>714.39672851562</ele>
        <time>2010-06-13T08:37:33Z</time>
      </trkpt>
      <trkpt lat="45.98889" lon="4.56517">
        <ele>713.435546875</ele>
        <time>2010-06-13T08:37:38Z</time>
      </trkpt>
      <trkpt lat="45.98889" lon="4.56517">
        <ele>713.916015625</ele>
        <time>2010-06-13T08:37:45Z</time>
      </trkpt>
      <trkpt lat="45.9889" lon="4.56516">
        <ele>712.95483398438</ele>
        <time>2010-06-13T08:37:51Z</time>
      </trkpt>
      <trkpt lat="45.98886" lon="4.56514">
        <ele>712.47412109375</ele>
        <time>2010-06-13T08:38:07Z</time>
      </trkpt>
      <trkpt lat="45.98885" lon="4.5651">
        <ele>712.47412109375</ele>
        <time>2010-06-13T08:40:57Z</time>
      </trkpt>
      <trkpt lat="45.98886" lon="4.56516">
        <ele>710.07080078125</ele>
        <time>2010-06-13T08:48:26Z</time>
      </trkpt>
      <trkpt lat="45.98886" lon="4.56518">
        <ele>710.55151367188</ele>
        <time>2010-06-13T08:48:31Z</time>
      </trkpt>
      <trkpt lat="45.98884" lon="4.56521">
        <ele>710.07080078125</ele>
        <time>2010-06-13T08:48:37Z</time>
      </trkpt>
      <trkpt lat="45.98886" lon="4.56521">
        <ele>710.07080078125</ele>
        <time>2010-06-13T08:49:06Z</time>
      </trkpt>
      <trkpt lat="45.98888" lon="4.56521">
        <ele>710.07080078125</ele>
        <time>2010-06-13T08:49:49Z</time>
      </trkpt>
      <trkpt lat="45.98884" lon="4.56526">
        <ele>709.59033203125</ele>
        <time>2010-06-13T08:49:54Z</time>
      </trkpt>
      <trkpt lat="45.98877" lon="4.56534">
        <ele>709.10961914062</ele>
        <time>2010-06-13T08:50:01Z</time>
      </trkpt>
      <trkpt lat="45.98878" lon="4.56538">
        <ele>708.1484375</ele>
        <time>2010-06-13T08:50:03Z</time>
      </trkpt>
      <trkpt lat="45.98883" lon="4.56543">
        <ele>708.62890625</ele>
        <time>2010-06-13T08:50:09Z</time>
      </trkpt>
      <trkpt lat="45.98883" lon="4.56544">
        <ele>709.10961914062</ele>
        <time>2010-06-13T08:50:28Z</time>
      </trkpt>
      <trkpt lat="45.98888" lon="4.56559">
        <ele>707.18701171875</ele>
        <time>2010-06-13T08:50:34Z</time>
      </trkpt>
      <trkpt lat="45.98888" lon="4.56578">
        <ele>707.18701171875</ele>
        <time>2010-06-13T08:50:38Z</time>
      </trkpt>
      <trkpt lat="45.98888" lon="4.56583">
        <ele>706.70629882812</ele>
        <time>2010-06-13T08:50:39Z</time>
      </trkpt>
      <trkpt lat="45.98894" lon="4.56607">
        <ele>703.82250976562</ele>
        <time>2010-06-13T08:50:43Z</time>
      </trkpt>
      <trkpt lat="45.98895" lon="4.56612">
        <ele>703.341796875</ele>
        <time>2010-06-13T08:50:46Z</time>
      </trkpt>
      <trkpt lat="45.98893" lon="4.56611">
        <ele>702.86108398438</ele>
        <time>2010-06-13T08:50:48Z</time>
      </trkpt>
      <trkpt lat="45.98888" lon="4.56606">
        <ele>701.89990234375</ele>
        <time>2010-06-13T08:50:52Z</time>
      </trkpt>
      <trkpt lat="45.9888" lon="4.566">
        <ele>700.4580078125</ele>
        <time>2010-06-13T08:50:55Z</time>
      </trkpt>
      <trkpt lat="45.98871" lon="4.56602">
        <ele>698.05444335938</ele>
        <time>2010-06-13T08:50:58Z</time>
      </trkpt>
      <trkpt lat="45.98861" lon="4.56612">
        <ele>697.09301757812</ele>
        <time>2010-06-13T08:51:01Z</time>
      </trkpt>
      <trkpt lat="45.98849" lon="4.56627">
        <ele>695.65112304688</ele>
        <time>2010-06-13T08:51:03Z</time>
      </trkpt>
      <trkpt lat="45.98838" lon="4.56643">
        <ele>694.20922851562</ele>
        <time>2010-06-13T08:51:05Z</time>
      </trkpt>
      <trkpt lat="45.98832" lon="4.56652">
        <ele>693.728515625</ele>
        <time>2010-06-13T08:51:06Z</time>
      </trkpt>
      <trkpt lat="45.98805" lon="4.56681">
        <ele>692.76733398438</ele>
        <time>2010-06-13T08:51:10Z</time>
      </trkpt>
      <trkpt lat="45.98783" lon="4.56698">
        <ele>690.84448242188</ele>
        <time>2010-06-13T08:51:13Z</time>
      </trkpt>
      <trkpt lat="45.98769" lon="4.56704">
        <ele>689.88330078125</ele>
        <time>2010-06-13T08:51:15Z</time>
      </trkpt>
      <trkpt lat="45.98758" lon="4.56707">
        <ele>688.92211914062</ele>
        <time>2010-06-13T08:51:17Z</time>
      </trkpt>
      <trkpt lat="45.98751" lon="4.56709">
        <ele>689.40258789062</ele>
        <time>2010-06-13T08:51:18Z</time>
      </trkpt>
      <trkpt lat="45.98737" lon="4.56721">
        <ele>689.40258789062</ele>
        <time>2010-06-13T08:51:21Z</time>
      </trkpt>
      <trkpt lat="45.98729" lon="4.56736">
        <ele>690.36401367188</ele>
        <time>2010-06-13T08:51:24Z</time>
      </trkpt>
      <trkpt lat="45.98721" lon="4.56765">
        <ele>692.28662109375</ele>
        <time>2010-06-13T08:51:30Z</time>
      </trkpt>
      <trkpt lat="45.98715" lon="4.56788">
        <ele>690.84448242188</ele>
        <time>2010-06-13T08:51:35Z</time>
      </trkpt>
      <trkpt lat="45.98708" lon="4.56816">
        <ele>689.88330078125</ele>
        <time>2010-06-13T08:51:39Z</time>
      </trkpt>
      <trkpt lat="45.98689" lon="4.56868">
        <ele>687.96069335938</ele>
        <time>2010-06-13T08:51:45Z</time>
      </trkpt>
      <trkpt lat="45.98678" lon="4.56896">
        <ele>686.51879882812</ele>
        <time>2010-06-13T08:51:48Z</time>
      </trkpt>
      <trkpt lat="45.98672" lon="4.56943">
        <ele>684.59619140625</ele>
        <time>2010-06-13T08:51:52Z</time>
      </trkpt>
      <trkpt lat="45.98675" lon="4.56955">
        <ele>686.0380859375</ele>
        <time>2010-06-13T08:51:53Z</time>
      </trkpt>
      <trkpt lat="45.9868" lon="4.56979">
        <ele>683.63452148438</ele>
        <time>2010-06-13T08:51:55Z</time>
      </trkpt>
      <trkpt lat="45.98683" lon="4.57004">
        <ele>680.27001953125</ele>
        <time>2010-06-13T08:51:57Z</time>
      </trkpt>
      <trkpt lat="45.98693" lon="4.57052">
        <ele>681.7119140625</ele>
        <time>2010-06-13T08:52:02Z</time>
      </trkpt>
      <trkpt lat="45.98697" lon="4.57074">
        <ele>683.15380859375</ele>
        <time>2010-06-13T08:52:05Z</time>
      </trkpt>
      <trkpt lat="45.98705" lon="4.57096">
        <ele>683.63452148438</ele>
        <time>2010-06-13T08:52:09Z</time>
      </trkpt>
      <trkpt lat="45.98714" lon="4.57113">
        <ele>683.15380859375</ele>
        <time>2010-06-13T08:52:13Z</time>
      </trkpt>
      <trkpt lat="45.98722" lon="4.5713">
        <ele>681.7119140625</ele>
        <time>2010-06-13T08:52:17Z</time>
      </trkpt>
      <trkpt lat="45.98726" lon="4.57141">
        <ele>681.7119140625</ele>
        <time>2010-06-13T08:52:19Z</time>
      </trkpt>
      <trkpt lat="45.98736" lon="4.57158">
        <ele>680.27001953125</ele>
        <time>2010-06-13T08:52:22Z</time>
      </trkpt>
      <trkpt lat="45.98746" lon="4.57179">
        <ele>676.90551757812</ele>
        <time>2010-06-13T08:52:25Z</time>
      </trkpt>
      <trkpt lat="45.9875" lon="4.57185">
        <ele>676.90551757812</ele>
        <time>2010-06-13T08:52:26Z</time>
      </trkpt>
      <trkpt lat="45.98757" lon="4.57195">
        <ele>675.46337890625</ele>
        <time>2010-06-13T08:52:28Z</time>
      </trkpt>
      <trkpt lat="45.98762" lon="4.57214">
        <ele>673.06030273438</ele>
        <time>2010-06-13T08:52:32Z</time>
      </trkpt>
      <trkpt lat="45.98767" lon="4.57231">
        <ele>672.09887695312</ele>
        <time>2010-06-13T08:52:35Z</time>
      </trkpt>
      <trkpt lat="45.98767" lon="4.57236">
        <ele>672.57958984375</ele>
        <time>2010-06-13T08:52:36Z</time>
      </trkpt>
      <trkpt lat="45.98757" lon="4.57246">
        <ele>670.17626953125</ele>
        <time>2010-06-13T08:52:39Z</time>
      </trkpt>
      <trkpt lat="45.98745" lon="4.57254">
        <ele>670.17626953125</ele>
        <time>2010-06-13T08:52:42Z</time>
      </trkpt>
      <trkpt lat="45.98741" lon="4.57256">
        <ele>669.21508789062</ele>
        <time>2010-06-13T08:52:43Z</time>
      </trkpt>
      <trkpt lat="45.98722" lon="4.57254">
        <ele>667.77270507812</ele>
        <time>2010-06-13T08:52:46Z</time>
      </trkpt>
      <trkpt lat="45.98697" lon="4.57257">
        <ele>666.33081054688</ele>
        <time>2010-06-13T08:52:50Z</time>
      </trkpt>
      <trkpt lat="45.98681" lon="4.57266">
        <ele>664.408203125</ele>
        <time>2010-06-13T08:52:53Z</time>
      </trkpt>
      <trkpt lat="45.98669" lon="4.57271">
        <ele>662.96630859375</ele>
        <time>2010-06-13T08:52:55Z</time>
      </trkpt>
      <trkpt lat="45.98647" lon="4.57277">
        <ele>659.12109375</ele>
        <time>2010-06-13T08:52:59Z</time>
      </trkpt>
      <trkpt lat="45.98642" lon="4.57276">
        <ele>660.56298828125</ele>
        <time>2010-06-13T08:53:00Z</time>
      </trkpt>
      <trkpt lat="45.98622" lon="4.57264">
        <ele>658.15991210938</ele>
        <time>2010-06-13T08:53:04Z</time>
      </trkpt>
      <trkpt lat="45.98606" lon="4.57265">
        <ele>657.19848632812</ele>
        <time>2010-06-13T08:53:07Z</time>
      </trkpt>
      <trkpt lat="45.98584" lon="4.57281">
        <ele>655.27587890625</ele>
        <time>2010-06-13T08:53:12Z</time>
      </trkpt>
      <trkpt lat="45.98581" lon="4.57286">
        <ele>654.79516601562</ele>
        <time>2010-06-13T08:53:13Z</time>
      </trkpt>
      <trkpt lat="45.98571" lon="4.57304">
        <ele>654.79516601562</ele>
        <time>2010-06-13T08:53:16Z</time>
      </trkpt>
      <trkpt lat="45.98565" lon="4.57317">
        <ele>653.35327148438</ele>
        <time>2010-06-13T08:53:18Z</time>
      </trkpt>
      <trkpt lat="45.98558" lon="4.57331">
        <ele>653.35327148438</ele>
        <time>2010-06-13T08:53:22Z</time>
      </trkpt>
      <trkpt lat="45.98553" lon="4.57342">
        <ele>652.87255859375</ele>
        <time>2010-06-13T08:53:26Z</time>
      </trkpt>
      <trkpt lat="45.98547" lon="4.57363">
        <ele>652.87255859375</ele>
        <time>2010-06-13T08:53:32Z</time>
      </trkpt>
      <trkpt lat="45.98542" lon="4.57377">
        <ele>652.87255859375</ele>
        <time>2010-06-13T08:53:37Z</time>
      </trkpt>
      <trkpt lat="45.98536" lon="4.57397">
        <ele>652.87255859375</ele>
        <time>2010-06-13T08:53:42Z</time>
      </trkpt>
      <trkpt lat="45.98529" lon="4.57415">
        <ele>653.35327148438</ele>
        <time>2010-06-13T08:53:46Z</time>
      </trkpt>
      <trkpt lat="45.98523" lon="4.57434">
        <ele>653.833984375</ele>
        <time>2010-06-13T08:53:51Z</time>
      </trkpt>
      <trkpt lat="45.98521" lon="4.57459">
        <ele>655.27587890625</ele>
        <time>2010-06-13T08:53:57Z</time>
      </trkpt>
      <trkpt lat="45.98518" lon="4.57483">
        <ele>655.75659179688</ele>
        <time>2010-06-13T08:54:02Z</time>
      </trkpt>
      <trkpt lat="45.98516" lon="4.57503">
        <ele>656.23706054688</ele>
        <time>2010-06-13T08:54:06Z</time>
      </trkpt>
      <trkpt lat="45.98513" lon="4.57528">
        <ele>657.19848632812</ele>
        <time>2010-06-13T08:54:11Z</time>
      </trkpt>
      <trkpt lat="45.98511" lon="4.57556">
        <ele>657.67919921875</ele>
        <time>2010-06-13T08:54:17Z</time>
      </trkpt>
      <trkpt lat="45.98511" lon="4.57565">
        <ele>657.19848632812</ele>
        <time>2010-06-13T08:54:19Z</time>
      </trkpt>
      <trkpt lat="45.98508" lon="4.57601">
        <ele>653.833984375</ele>
        <time>2010-06-13T08:54:24Z</time>
      </trkpt>
      <trkpt lat="45.98507" lon="4.57606">
        <ele>653.35327148438</ele>
        <time>2010-06-13T08:54:25Z</time>
      </trkpt>
      <trkpt lat="45.98507" lon="4.57608">
        <ele>652.39184570312</ele>
        <time>2010-06-13T08:54:28Z</time>
      </trkpt>
      <trkpt lat="45.98508" lon="4.57609">
        <ele>652.87255859375</ele>
        <time>2010-06-13T08:54:35Z</time>
      </trkpt>
      <trkpt lat="45.98506" lon="4.5761">
        <ele>654.31469726562</ele>
        <time>2010-06-13T08:54:41Z</time>
      </trkpt>
      <trkpt lat="45.98503" lon="4.57612">
        <ele>654.79516601562</ele>
        <time>2010-06-13T08:54:45Z</time>
      </trkpt>
      <trkpt lat="45.98499" lon="4.57616">
        <ele>655.27587890625</ele>
        <time>2010-06-13T08:54:51Z</time>
      </trkpt>
      <trkpt lat="45.9849" lon="4.57627">
        <ele>654.31469726562</ele>
        <time>2010-06-13T08:54:57Z</time>
      </trkpt>
      <trkpt lat="45.98485" lon="4.57636">
        <ele>652.39184570312</ele>
        <time>2010-06-13T08:55:00Z</time>
      </trkpt>
      <trkpt lat="45.98476" lon="4.57653">
        <ele>650.46923828125</ele>
        <time>2010-06-13T08:55:05Z</time>
      </trkpt>
      <trkpt lat="45.98472" lon="4.57657">
        <ele>650.46923828125</ele>
        <time>2010-06-13T08:55:08Z</time>
      </trkpt>
      <trkpt lat="45.98466" lon="4.57659">
        <ele>649.98852539062</ele>
        <time>2010-06-13T08:55:14Z</time>
      </trkpt>
      <trkpt lat="45.98465" lon="4.57659">
        <ele>649.98852539062</ele>
        <time>2010-06-13T08:55:15Z</time>
      </trkpt>
      <trkpt lat="45.98454" lon="4.57666">
        <ele>649.98852539062</ele>
        <time>2010-06-13T08:55:20Z</time>
      </trkpt>
      <trkpt lat="45.98441" lon="4.57679">
        <ele>650.46923828125</ele>
        <time>2010-06-13T08:55:25Z</time>
      </trkpt>
      <trkpt lat="45.98425" lon="4.57686">
        <ele>650.94970703125</ele>
        <time>2010-06-13T08:55:30Z</time>
      </trkpt>
      <trkpt lat="45.98418" lon="4.57698">
        <ele>651.43041992188</ele>
        <time>2010-06-13T08:55:35Z</time>
      </trkpt>
      <trkpt lat="45.98409" lon="4.57715">
        <ele>648.54638671875</ele>
        <time>2010-06-13T08:55:39Z</time>
      </trkpt>
      <trkpt lat="45.98399" lon="4.57731">
        <ele>645.66259765625</ele>
        <time>2010-06-13T08:55:43Z</time>
      </trkpt>
      <trkpt lat="45.98396" lon="4.57733">
        <ele>645.66259765625</ele>
        <time>2010-06-13T08:55:44Z</time>
      </trkpt>
      <trkpt lat="45.98395" lon="4.57735">
        <ele>644.701171875</ele>
        <time>2010-06-13T08:55:45Z</time>
      </trkpt>
      <trkpt lat="45.98391" lon="4.57751">
        <ele>643.25927734375</ele>
        <time>2010-06-13T08:55:49Z</time>
      </trkpt>
      <trkpt lat="45.98384" lon="4.57763">
        <ele>640.85595703125</ele>
        <time>2010-06-13T08:55:53Z</time>
      </trkpt>
      <trkpt lat="45.98383" lon="4.57771">
        <ele>640.37548828125</ele>
        <time>2010-06-13T08:55:56Z</time>
      </trkpt>
      <trkpt lat="45.9838" lon="4.57781">
        <ele>638.45288085938</ele>
        <time>2010-06-13T08:56:01Z</time>
      </trkpt>
      <trkpt lat="45.98378" lon="4.57787">
        <ele>637.49145507812</ele>
        <time>2010-06-13T08:56:03Z</time>
      </trkpt>
      <trkpt lat="45.98364" lon="4.57808">
        <ele>633.16528320312</ele>
        <time>2010-06-13T08:56:09Z</time>
      </trkpt>
      <trkpt lat="45.98364" lon="4.5781">
        <ele>633.16528320312</ele>
        <time>2010-06-13T08:56:10Z</time>
      </trkpt>
      <trkpt lat="45.98364" lon="4.57811">
        <ele>633.16528320312</ele>
        <time>2010-06-13T08:56:15Z</time>
      </trkpt>
      <trkpt lat="45.98361" lon="4.57828">
        <ele>630.28149414062</ele>
        <time>2010-06-13T08:56:20Z</time>
      </trkpt>
      <trkpt lat="45.98355" lon="4.57855">
        <ele>627.39770507812</ele>
        <time>2010-06-13T08:56:25Z</time>
      </trkpt>
      <trkpt lat="45.98351" lon="4.57867">
        <ele>624.99438476562</ele>
        <time>2010-06-13T08:56:27Z</time>
      </trkpt>
      <trkpt lat="45.98347" lon="4.57885">
        <ele>622.59106445312</ele>
        <time>2010-06-13T08:56:30Z</time>
      </trkpt>
      <trkpt lat="45.98341" lon="4.57908">
        <ele>622.1103515625</ele>
        <time>2010-06-13T08:56:34Z</time>
      </trkpt>
      <trkpt lat="45.98338" lon="4.57913">
        <ele>621.62963867188</ele>
        <time>2010-06-13T08:56:35Z</time>
      </trkpt>
      <trkpt lat="45.9833" lon="4.5793">
        <ele>619.22631835938</ele>
        <time>2010-06-13T08:56:38Z</time>
      </trkpt>
      <trkpt lat="45.98319" lon="4.57976">
        <ele>618.26489257812</ele>
        <time>2010-06-13T08:56:45Z</time>
      </trkpt>
      <trkpt lat="45.98315" lon="4.57997">
        <ele>615.38110351562</ele>
        <time>2010-06-13T08:56:48Z</time>
      </trkpt>
      <trkpt lat="45.98307" lon="4.58016">
        <ele>613.93896484375</ele>
        <time>2010-06-13T08:56:51Z</time>
      </trkpt>
      <trkpt lat="45.98288" lon="4.58032">
        <ele>610.57446289062</ele>
        <time>2010-06-13T08:56:55Z</time>
      </trkpt>
      <trkpt lat="45.98283" lon="4.58036">
        <ele>610.09375</ele>
        <time>2010-06-13T08:56:56Z</time>
      </trkpt>
      <trkpt lat="45.9827" lon="4.58048">
        <ele>609.61328125</ele>
        <time>2010-06-13T08:56:59Z</time>
      </trkpt>
      <trkpt lat="45.98252" lon="4.58068">
        <ele>605.76806640625</ele>
        <time>2010-06-13T08:57:04Z</time>
      </trkpt>
      <trkpt lat="45.9824" lon="4.58078">
        <ele>603.84521484375</ele>
        <time>2010-06-13T08:57:08Z</time>
      </trkpt>
      <trkpt lat="45.98223" lon="4.58092">
        <ele>603.36450195312</ele>
        <time>2010-06-13T08:57:12Z</time>
      </trkpt>
      <trkpt lat="45.9822" lon="4.58094">
        <ele>601.44189453125</ele>
        <time>2010-06-13T08:57:13Z</time>
      </trkpt>
      <trkpt lat="45.98203" lon="4.58098">
        <ele>597.5966796875</ele>
        <time>2010-06-13T08:57:17Z</time>
      </trkpt>
      <trkpt lat="45.9818" lon="4.58107">
        <ele>595.193359375</ele>
        <time>2010-06-13T08:57:22Z</time>
      </trkpt>
      <trkpt lat="45.98166" lon="4.58112">
        <ele>592.79028320312</ele>
        <time>2010-06-13T08:57:25Z</time>
      </trkpt>
      <trkpt lat="45.98162" lon="4.58114">
        <ele>592.3095703125</ele>
        <time>2010-06-13T08:57:26Z</time>
      </trkpt>
      <trkpt lat="45.9814" lon="4.58124">
        <ele>589.42553710938</ele>
        <time>2010-06-13T08:57:31Z</time>
      </trkpt>
      <trkpt lat="45.98132" lon="4.58127">
        <ele>588.46435546875</ele>
        <time>2010-06-13T08:57:33Z</time>
      </trkpt>
      <trkpt lat="45.98128" lon="4.5813">
        <ele>587.50268554688</ele>
        <time>2010-06-13T08:57:34Z</time>
      </trkpt>
      <trkpt lat="45.98119" lon="4.58136">
        <ele>588.46435546875</ele>
        <time>2010-06-13T08:57:36Z</time>
      </trkpt>
      <trkpt lat="45.98108" lon="4.58141">
        <ele>585.580078125</ele>
        <time>2010-06-13T08:57:39Z</time>
      </trkpt>
      <trkpt lat="45.98103" lon="4.58142">
        <ele>586.06079101562</ele>
        <time>2010-06-13T08:57:40Z</time>
      </trkpt>
      <trkpt lat="45.98088" lon="4.58152">
        <ele>583.65747070312</ele>
        <time>2010-06-13T08:57:44Z</time>
      </trkpt>
      <trkpt lat="45.9808" lon="4.58158">
        <ele>585.099609375</ele>
        <time>2010-06-13T08:57:46Z</time>
      </trkpt>
      <trkpt lat="45.98072" lon="4.58163">
        <ele>582.6962890625</ele>
        <time>2010-06-13T08:57:48Z</time>
      </trkpt>
      <trkpt lat="45.98055" lon="4.58178">
        <ele>581.25439453125</ele>
        <time>2010-06-13T08:57:52Z</time>
      </trkpt>
      <trkpt lat="45.98039" lon="4.58192">
        <ele>580.29296875</ele>
        <time>2010-06-13T08:57:55Z</time>
      </trkpt>
      <trkpt lat="45.98029" lon="4.58199">
        <ele>578.85107421875</ele>
        <time>2010-06-13T08:57:57Z</time>
      </trkpt>
      <trkpt lat="45.98018" lon="4.582">
        <ele>575.96704101562</ele>
        <time>2010-06-13T08:57:59Z</time>
      </trkpt>
      <trkpt lat="45.98014" lon="4.58201">
        <ele>576.44775390625</ele>
        <time>2010-06-13T08:58:00Z</time>
      </trkpt>
      <trkpt lat="45.98011" lon="4.58206">
        <ele>574.52514648438</ele>
        <time>2010-06-13T08:58:03Z</time>
      </trkpt>
      <trkpt lat="45.98014" lon="4.58212">
        <ele>574.04443359375</ele>
        <time>2010-06-13T08:58:06Z</time>
      </trkpt>
      <trkpt lat="45.98031" lon="4.58218">
        <ele>574.04443359375</ele>
        <time>2010-06-13T08:58:13Z</time>
      </trkpt>
      <trkpt lat="45.98036" lon="4.58221">
        <ele>573.56396484375</ele>
        <time>2010-06-13T08:58:15Z</time>
      </trkpt>
      <trkpt lat="45.98033" lon="4.58232">
        <ele>572.6025390625</ele>
        <time>2010-06-13T08:58:19Z</time>
      </trkpt>
      <trkpt lat="45.98029" lon="4.58233">
        <ele>573.08325195312</ele>
        <time>2010-06-13T08:58:20Z</time>
      </trkpt>
      <trkpt lat="45.98021" lon="4.58235">
        <ele>571.64086914062</ele>
        <time>2010-06-13T08:58:23Z</time>
      </trkpt>
      <trkpt lat="45.98013" lon="4.58234">
        <ele>570.6796875</ele>
        <time>2010-06-13T08:58:28Z</time>
      </trkpt>
      <trkpt lat="45.98002" lon="4.58239">
        <ele>570.19897460938</ele>
        <time>2010-06-13T08:58:32Z</time>
      </trkpt>
      <trkpt lat="45.97999" lon="4.58233">
        <ele>569.71850585938</ele>
        <time>2010-06-13T08:58:36Z</time>
      </trkpt>
      <trkpt lat="45.98005" lon="4.58235">
        <ele>570.6796875</ele>
        <time>2010-06-13T08:58:39Z</time>
      </trkpt>
      <trkpt lat="45.9801" lon="4.58237">
        <ele>570.6796875</ele>
        <time>2010-06-13T08:58:45Z</time>
      </trkpt>
      <trkpt lat="45.98009" lon="4.58237">
        <ele>571.16040039062</ele>
        <time>2010-06-13T08:58:57Z</time>
      </trkpt>
      <trkpt lat="45.98011" lon="4.58238">
        <ele>571.64086914062</ele>
        <time>2010-06-13T08:59:10Z</time>
      </trkpt>
      <trkpt lat="45.98012" lon="4.58239">
        <ele>571.16040039062</ele>
        <time>2010-06-13T08:59:21Z</time>
      </trkpt>
      <trkpt lat="45.98011" lon="4.58239">
        <ele>571.16040039062</ele>
        <time>2010-06-13T08:59:46Z</time>
      </trkpt>
      <trkpt lat="45.98011" lon="4.58238">
        <ele>571.16040039062</ele>
        <time>2010-06-13T08:59:54Z</time>
      </trkpt>
      <trkpt lat="45.98011" lon="4.58237">
        <ele>570.6796875</ele>
        <time>2010-06-13T09:00:06Z</time>
      </trkpt>
      <trkpt lat="45.97998" lon="4.58234">
        <ele>570.19897460938</ele>
        <time>2010-06-13T09:00:12Z</time>
      </trkpt>
      <trkpt lat="45.97975" lon="4.58233">
        <ele>568.75708007812</ele>
        <time>2010-06-13T09:00:17Z</time>
      </trkpt>
      <trkpt lat="45.97942" lon="4.58235">
        <ele>566.83447265625</ele>
        <time>2010-06-13T09:00:22Z</time>
      </trkpt>
      <trkpt lat="45.97903" lon="4.58248">
        <ele>564.43115234375</ele>
        <time>2010-06-13T09:00:27Z</time>
      </trkpt>
      <trkpt lat="45.97887" lon="4.58258">
        <ele>563.46997070312</ele>
        <time>2010-06-13T09:00:29Z</time>
      </trkpt>
      <trkpt lat="45.9785" lon="4.58287">
        <ele>561.06665039062</ele>
        <time>2010-06-13T09:00:34Z</time>
      </trkpt>
      <trkpt lat="45.97838" lon="4.58296">
        <ele>560.10522460938</ele>
        <time>2010-06-13T09:00:36Z</time>
      </trkpt>
      <trkpt lat="45.9782" lon="4.58307">
        <ele>559.14404296875</ele>
        <time>2010-06-13T09:00:40Z</time>
      </trkpt>
      <trkpt lat="45.97807" lon="4.58329">
        <ele>558.66333007812</ele>
        <time>2010-06-13T09:00:45Z</time>
      </trkpt>
      <trkpt lat="45.97803" lon="4.5834">
        <ele>559.14404296875</ele>
        <time>2010-06-13T09:00:48Z</time>
      </trkpt>
      <trkpt lat="45.97795" lon="4.5834">
        <ele>558.66333007812</ele>
        <time>2010-06-13T09:00:51Z</time>
      </trkpt>
      <trkpt lat="45.97785" lon="4.58337">
        <ele>559.14404296875</ele>
        <time>2010-06-13T09:00:55Z</time>
      </trkpt>
      <trkpt lat="45.97762" lon="4.58333">
        <ele>561.06665039062</ele>
        <time>2010-06-13T09:01:05Z</time>
      </trkpt>
      <trkpt lat="45.97742" lon="4.58342">
        <ele>562.50854492188</ele>
        <time>2010-06-13T09:01:13Z</time>
      </trkpt>
      <trkpt lat="45.97731" lon="4.58356">
        <ele>563.46997070312</ele>
        <time>2010-06-13T09:01:19Z</time>
      </trkpt>
      <trkpt lat="45.97716" lon="4.58376">
        <ele>564.43115234375</ele>
        <time>2010-06-13T09:01:28Z</time>
      </trkpt>
      <trkpt lat="45.97699" lon="4.58391">
        <ele>565.87329101562</ele>
        <time>2010-06-13T09:01:37Z</time>
      </trkpt>
      <trkpt lat="45.97685" lon="4.5839">
        <ele>567.31518554688</ele>
        <time>2010-06-13T09:01:43Z</time>
      </trkpt>
      <trkpt lat="45.97669" lon="4.5839">
        <ele>568.75708007812</ele>
        <time>2010-06-13T09:01:51Z</time>
      </trkpt>
      <trkpt lat="45.97652" lon="4.58392">
        <ele>569.71850585938</ele>
        <time>2010-06-13T09:02:00Z</time>
      </trkpt>
      <trkpt lat="45.97638" lon="4.58393">
        <ele>572.12182617188</ele>
        <time>2010-06-13T09:02:08Z</time>
      </trkpt>
      <trkpt lat="45.97636" lon="4.58393">
        <ele>572.12182617188</ele>
        <time>2010-06-13T09:02:09Z</time>
      </trkpt>
      <trkpt lat="45.97618" lon="4.58395">
        <ele>573.08325195312</ele>
        <time>2010-06-13T09:02:18Z</time>
      </trkpt>
      <trkpt lat="45.97599" lon="4.58397">
        <ele>574.52514648438</ele>
        <time>2010-06-13T09:02:28Z</time>
      </trkpt>
      <trkpt lat="45.97586" lon="4.58397">
        <ele>575.96704101562</ele>
        <time>2010-06-13T09:02:35Z</time>
      </trkpt>
      <trkpt lat="45.9757" lon="4.58398">
        <ele>576.92846679688</ele>
        <time>2010-06-13T09:02:43Z</time>
      </trkpt>
      <trkpt lat="45.97557" lon="4.58401">
        <ele>578.37036132812</ele>
        <time>2010-06-13T09:02:50Z</time>
      </trkpt>
      <trkpt lat="45.97544" lon="4.58404">
        <ele>579.33154296875</ele>
        <time>2010-06-13T09:02:58Z</time>
      </trkpt>
      <trkpt lat="45.97533" lon="4.58403">
        <ele>580.29296875</ele>
        <time>2010-06-13T09:03:05Z</time>
      </trkpt>
      <trkpt lat="45.97521" lon="4.58402">
        <ele>581.25439453125</ele>
        <time>2010-06-13T09:03:13Z</time>
      </trkpt>
      <trkpt lat="45.97508" lon="4.58398">
        <ele>582.21557617188</ele>
        <time>2010-06-13T09:03:21Z</time>
      </trkpt>
      <trkpt lat="45.97497" lon="4.58394">
        <ele>583.65747070312</ele>
        <time>2010-06-13T09:03:28Z</time>
      </trkpt>
      <trkpt lat="45.97483" lon="4.5839">
        <ele>586.06079101562</ele>
        <time>2010-06-13T09:03:37Z</time>
      </trkpt>
      <trkpt lat="45.97467" lon="4.58388">
        <ele>587.02197265625</ele>
        <time>2010-06-13T09:03:45Z</time>
      </trkpt>
      <trkpt lat="45.97454" lon="4.58385">
        <ele>589.42553710938</ele>
        <time>2010-06-13T09:03:52Z</time>
      </trkpt>
      <trkpt lat="45.97433" lon="4.5838">
        <ele>591.34814453125</ele>
        <time>2010-06-13T09:04:03Z</time>
      </trkpt>
      <trkpt lat="45.97423" lon="4.58378">
        <ele>592.3095703125</ele>
        <time>2010-06-13T09:04:09Z</time>
      </trkpt>
      <trkpt lat="45.97416" lon="4.58374">
        <ele>592.3095703125</ele>
        <time>2010-06-13T09:04:13Z</time>
      </trkpt>
      <trkpt lat="45.97403" lon="4.58366">
        <ele>593.27075195312</ele>
        <time>2010-06-13T09:04:21Z</time>
      </trkpt>
      <trkpt lat="45.97395" lon="4.58365">
        <ele>594.23217773438</ele>
        <time>2010-06-13T09:04:25Z</time>
      </trkpt>
      <trkpt lat="45.97379" lon="4.58363">
        <ele>595.193359375</ele>
        <time>2010-06-13T09:04:33Z</time>
      </trkpt>
      <trkpt lat="45.97363" lon="4.58362">
        <ele>596.15478515625</ele>
        <time>2010-06-13T09:04:42Z</time>
      </trkpt>
      <trkpt lat="45.97342" lon="4.58362">
        <ele>597.5966796875</ele>
        <time>2010-06-13T09:04:53Z</time>
      </trkpt>
      <trkpt lat="45.97332" lon="4.5837">
        <ele>598.55786132812</ele>
        <time>2010-06-13T09:04:59Z</time>
      </trkpt>
      <trkpt lat="45.9732" lon="4.58385">
        <ele>599.03857421875</ele>
        <time>2010-06-13T09:05:07Z</time>
      </trkpt>
      <trkpt lat="45.97307" lon="4.58391">
        <ele>600.48071289062</ele>
        <time>2010-06-13T09:05:14Z</time>
      </trkpt>
      <trkpt lat="45.97295" lon="4.58395">
        <ele>600.48071289062</ele>
        <time>2010-06-13T09:05:21Z</time>
      </trkpt>
      <trkpt lat="45.97282" lon="4.584">
        <ele>601.92260742188</ele>
        <time>2010-06-13T09:05:28Z</time>
      </trkpt>
      <trkpt lat="45.97269" lon="4.58401">
        <ele>602.40307617188</ele>
        <time>2010-06-13T09:05:34Z</time>
      </trkpt>
      <trkpt lat="45.97248" lon="4.58405">
        <ele>603.36450195312</ele>
        <time>2010-06-13T09:05:44Z</time>
      </trkpt>
      <trkpt lat="45.97226" lon="4.58409">
        <ele>604.326171875</ele>
        <time>2010-06-13T09:05:54Z</time>
      </trkpt>
      <trkpt lat="45.97214" lon="4.58414">
        <ele>604.806640625</ele>
        <time>2010-06-13T09:06:00Z</time>
      </trkpt>
      <trkpt lat="45.972" lon="4.58418">
        <ele>605.28735351562</ele>
        <time>2010-06-13T09:06:06Z</time>
      </trkpt>
      <trkpt lat="45.97183" lon="4.58425">
        <ele>605.76806640625</ele>
        <time>2010-06-13T09:06:14Z</time>
      </trkpt>
      <trkpt lat="45.97165" lon="4.5843">
        <ele>606.24853515625</ele>
        <time>2010-06-13T09:06:22Z</time>
      </trkpt>
      <trkpt lat="45.97144" lon="4.58441">
        <ele>605.76806640625</ele>
        <time>2010-06-13T09:06:30Z</time>
      </trkpt>
      <trkpt lat="45.97129" lon="4.58455">
        <ele>605.76806640625</ele>
        <time>2010-06-13T09:06:36Z</time>
      </trkpt>
      <trkpt lat="45.97113" lon="4.58469">
        <ele>604.806640625</ele>
        <time>2010-06-13T09:06:41Z</time>
      </trkpt>
      <trkpt lat="45.97102" lon="4.58477">
        <ele>605.76806640625</ele>
        <time>2010-06-13T09:06:44Z</time>
      </trkpt>
      <trkpt lat="45.97079" lon="4.58498">
        <ele>604.326171875</ele>
        <time>2010-06-13T09:06:50Z</time>
      </trkpt>
      <trkpt lat="45.97075" lon="4.58502">
        <ele>602.8837890625</ele>
        <time>2010-06-13T09:06:51Z</time>
      </trkpt>
      <trkpt lat="45.97065" lon="4.58517">
        <ele>600.96118164062</ele>
        <time>2010-06-13T09:06:55Z</time>
      </trkpt>
      <trkpt lat="45.9706" lon="4.58527">
        <ele>600.96118164062</ele>
        <time>2010-06-13T09:06:59Z</time>
      </trkpt>
      <trkpt lat="45.9706" lon="4.58529">
        <ele>600.96118164062</ele>
        <time>2010-06-13T09:07:17Z</time>
      </trkpt>
      <trkpt lat="45.9706" lon="4.58529">
        <ele>601.44189453125</ele>
        <time>2010-06-13T09:07:23Z</time>
      </trkpt>
      <trkpt lat="45.97062" lon="4.58534">
        <ele>600.96118164062</ele>
        <time>2010-06-13T09:08:04Z</time>
      </trkpt>
      <trkpt lat="45.97057" lon="4.58546">
        <ele>600.48071289062</ele>
        <time>2010-06-13T09:08:08Z</time>
      </trkpt>
      <trkpt lat="45.97046" lon="4.58567">
        <ele>600</ele>
        <time>2010-06-13T09:08:13Z</time>
      </trkpt>
      <trkpt lat="45.97033" lon="4.58585">
        <ele>597.11596679688</ele>
        <time>2010-06-13T09:08:18Z</time>
      </trkpt>
      <trkpt lat="45.97021" lon="4.58598">
        <ele>596.15478515625</ele>
        <time>2010-06-13T09:08:24Z</time>
      </trkpt>
      <trkpt lat="45.97009" lon="4.5861">
        <ele>596.63549804688</ele>
        <time>2010-06-13T09:08:29Z</time>
      </trkpt>
      <trkpt lat="45.96993" lon="4.58628">
        <ele>596.15478515625</ele>
        <time>2010-06-13T09:08:35Z</time>
      </trkpt>
      <trkpt lat="45.96981" lon="4.58641">
        <ele>596.15478515625</ele>
        <time>2010-06-13T09:08:40Z</time>
      </trkpt>
      <trkpt lat="45.9697" lon="4.58653">
        <ele>596.15478515625</ele>
        <time>2010-06-13T09:08:46Z</time>
      </trkpt>
      <trkpt lat="45.96966" lon="4.58656">
        <ele>595.67407226562</ele>
        <time>2010-06-13T09:08:50Z</time>
      </trkpt>
      <trkpt lat="45.96965" lon="4.58658">
        <ele>596.63549804688</ele>
        <time>2010-06-13T09:08:52Z</time>
      </trkpt>
      <trkpt lat="45.9696" lon="4.58666">
        <ele>596.15478515625</ele>
        <time>2010-06-13T09:08:59Z</time>
      </trkpt>
      <trkpt lat="45.9696" lon="4.58667">
        <ele>596.15478515625</ele>
        <time>2010-06-13T09:09:00Z</time>
      </trkpt>
      <trkpt lat="45.96953" lon="4.5867">
        <ele>596.63549804688</ele>
        <time>2010-06-13T09:09:05Z</time>
      </trkpt>
      <trkpt lat="45.9694" lon="4.58677">
        <ele>596.63549804688</ele>
        <time>2010-06-13T09:09:11Z</time>
      </trkpt>
      <trkpt lat="45.96922" lon="4.5869">
        <ele>597.11596679688</ele>
        <time>2010-06-13T09:09:18Z</time>
      </trkpt>
      <trkpt lat="45.96907" lon="4.58701">
        <ele>597.11596679688</ele>
        <time>2010-06-13T09:09:23Z</time>
      </trkpt>
      <trkpt lat="45.9688" lon="4.5872">
        <ele>595.67407226562</ele>
        <time>2010-06-13T09:09:30Z</time>
      </trkpt>
      <trkpt lat="45.96843" lon="4.58743">
        <ele>595.67407226562</ele>
        <time>2010-06-13T09:09:38Z</time>
      </trkpt>
      <trkpt lat="45.96826" lon="4.58753">
        <ele>595.67407226562</ele>
        <time>2010-06-13T09:09:42Z</time>
      </trkpt>
      <trkpt lat="45.96799" lon="4.58768">
        <ele>594.23217773438</ele>
        <time>2010-06-13T09:09:49Z</time>
      </trkpt>
      <trkpt lat="45.96775" lon="4.5878">
        <ele>594.23217773438</ele>
        <time>2010-06-13T09:09:56Z</time>
      </trkpt>
      <trkpt lat="45.96757" lon="4.58792">
        <ele>594.71264648438</ele>
        <time>2010-06-13T09:10:03Z</time>
      </trkpt>
      <trkpt lat="45.96745" lon="4.58799">
        <ele>597.11596679688</ele>
        <time>2010-06-13T09:10:08Z</time>
      </trkpt>
      <trkpt lat="45.96731" lon="4.58809">
        <ele>598.07739257812</ele>
        <time>2010-06-13T09:10:14Z</time>
      </trkpt>
      <trkpt lat="45.96719" lon="4.58815">
        <ele>598.55786132812</ele>
        <time>2010-06-13T09:10:20Z</time>
      </trkpt>
      <trkpt lat="45.96703" lon="4.58824">
        <ele>600</ele>
        <time>2010-06-13T09:10:27Z</time>
      </trkpt>
      <trkpt lat="45.9669" lon="4.58832">
        <ele>601.92260742188</ele>
        <time>2010-06-13T09:10:34Z</time>
      </trkpt>
      <trkpt lat="45.96667" lon="4.58845">
        <ele>603.36450195312</ele>
        <time>2010-06-13T09:10:44Z</time>
      </trkpt>
      <trkpt lat="45.96654" lon="4.58853">
        <ele>604.806640625</ele>
        <time>2010-06-13T09:10:50Z</time>
      </trkpt>
      <trkpt lat="45.9664" lon="4.58862">
        <ele>605.28735351562</ele>
        <time>2010-06-13T09:10:56Z</time>
      </trkpt>
      <trkpt lat="45.96622" lon="4.58869">
        <ele>606.72924804688</ele>
        <time>2010-06-13T09:11:03Z</time>
      </trkpt>
      <trkpt lat="45.96606" lon="4.58873">
        <ele>607.69067382812</ele>
        <time>2010-06-13T09:11:10Z</time>
      </trkpt>
      <trkpt lat="45.96589" lon="4.58877">
        <ele>608.17138671875</ele>
        <time>2010-06-13T09:11:17Z</time>
      </trkpt>
      <trkpt lat="45.96567" lon="4.58878">
        <ele>609.13256835938</ele>
        <time>2010-06-13T09:11:25Z</time>
      </trkpt>
      <trkpt lat="45.96541" lon="4.58876">
        <ele>609.61328125</ele>
        <time>2010-06-13T09:11:32Z</time>
      </trkpt>
      <trkpt lat="45.96507" lon="4.58877">
        <ele>611.05517578125</ele>
        <time>2010-06-13T09:11:41Z</time>
      </trkpt>
      <trkpt lat="45.96474" lon="4.58873">
        <ele>611.53588867188</ele>
        <time>2010-06-13T09:11:49Z</time>
      </trkpt>
      <trkpt lat="45.96439" lon="4.58871">
        <ele>612.0166015625</ele>
        <time>2010-06-13T09:11:58Z</time>
      </trkpt>
      <trkpt lat="45.96405" lon="4.58876">
        <ele>612.0166015625</ele>
        <time>2010-06-13T09:12:06Z</time>
      </trkpt>
      <trkpt lat="45.96376" lon="4.58877">
        <ele>612.4970703125</ele>
        <time>2010-06-13T09:12:12Z</time>
      </trkpt>
      <trkpt lat="45.96341" lon="4.58883">
        <ele>612.4970703125</ele>
        <time>2010-06-13T09:12:19Z</time>
      </trkpt>
      <trkpt lat="45.96297" lon="4.589">
        <ele>613.93896484375</ele>
        <time>2010-06-13T09:12:27Z</time>
      </trkpt>
      <trkpt lat="45.96259" lon="4.58919">
        <ele>613.93896484375</ele>
        <time>2010-06-13T09:12:34Z</time>
      </trkpt>
      <trkpt lat="45.96253" lon="4.58921">
        <ele>614.900390625</ele>
        <time>2010-06-13T09:12:35Z</time>
      </trkpt>
      <trkpt lat="45.96224" lon="4.5894">
        <ele>614.900390625</ele>
        <time>2010-06-13T09:12:41Z</time>
      </trkpt>
      <trkpt lat="45.96198" lon="4.58951">
        <ele>614.900390625</ele>
        <time>2010-06-13T09:12:47Z</time>
      </trkpt>
      <trkpt lat="45.9617" lon="4.58958">
        <ele>612.97778320312</ele>
        <time>2010-06-13T09:12:52Z</time>
      </trkpt>
      <trkpt lat="45.96159" lon="4.58961">
        <ele>613.45849609375</ele>
        <time>2010-06-13T09:12:54Z</time>
      </trkpt>
      <trkpt lat="45.96147" lon="4.58974">
        <ele>614.900390625</ele>
        <time>2010-06-13T09:12:58Z</time>
      </trkpt>
      <trkpt lat="45.96146" lon="4.58977">
        <ele>614.41967773438</ele>
        <time>2010-06-13T09:12:59Z</time>
      </trkpt>
      <trkpt lat="45.96144" lon="4.58998">
        <ele>615.86181640625</ele>
        <time>2010-06-13T09:13:06Z</time>
      </trkpt>
      <trkpt lat="45.96143" lon="4.59001">
        <ele>616.82299804688</ele>
        <time>2010-06-13T09:13:07Z</time>
      </trkpt>
      <trkpt lat="45.9613" lon="4.59013">
        <ele>618.74560546875</ele>
        <time>2010-06-13T09:13:15Z</time>
      </trkpt>
      <trkpt lat="45.96117" lon="4.59021">
        <ele>621.14916992188</ele>
        <time>2010-06-13T09:13:24Z</time>
      </trkpt>
      <trkpt lat="45.96105" lon="4.59024">
        <ele>623.07177734375</ele>
        <time>2010-06-13T09:13:31Z</time>
      </trkpt>
      <trkpt lat="45.96094" lon="4.59032">
        <ele>624.99438476562</ele>
        <time>2010-06-13T09:13:39Z</time>
      </trkpt>
      <trkpt lat="45.96083" lon="4.59047">
        <ele>627.39770507812</ele>
        <time>2010-06-13T09:13:48Z</time>
      </trkpt>
      <trkpt lat="45.96075" lon="4.5906">
        <ele>628.83959960938</ele>
        <time>2010-06-13T09:13:55Z</time>
      </trkpt>
      <trkpt lat="45.96065" lon="4.59072">
        <ele>629.32006835938</ele>
        <time>2010-06-13T09:14:02Z</time>
      </trkpt>
      <trkpt lat="45.96046" lon="4.59084">
        <ele>631.24291992188</ele>
        <time>2010-06-13T09:14:11Z</time>
      </trkpt>
      <trkpt lat="45.96029" lon="4.59094">
        <ele>632.68481445312</ele>
        <time>2010-06-13T09:14:18Z</time>
      </trkpt>
      <trkpt lat="45.96011" lon="4.59111">
        <ele>633.16528320312</ele>
        <time>2010-06-13T09:14:25Z</time>
      </trkpt>
      <trkpt lat="45.95994" lon="4.59127">
        <ele>633.16528320312</ele>
        <time>2010-06-13T09:14:31Z</time>
      </trkpt>
      <trkpt lat="45.95975" lon="4.59139">
        <ele>633.64599609375</ele>
        <time>2010-06-13T09:14:37Z</time>
      </trkpt>
      <trkpt lat="45.95958" lon="4.59151">
        <ele>635.08813476562</ele>
        <time>2010-06-13T09:14:43Z</time>
      </trkpt>
      <trkpt lat="45.95958" lon="4.59164">
        <ele>636.5302734375</ele>
        <time>2010-06-13T09:14:47Z</time>
      </trkpt>
      <trkpt lat="45.95959" lon="4.59166">
        <ele>636.04956054688</ele>
        <time>2010-06-13T09:14:48Z</time>
      </trkpt>
      <trkpt lat="45.95974" lon="4.59179">
        <ele>637.97216796875</ele>
        <time>2010-06-13T09:14:56Z</time>
      </trkpt>
      <trkpt lat="45.95988" lon="4.59192">
        <ele>639.89477539062</ele>
        <time>2010-06-13T09:15:03Z</time>
      </trkpt>
      <trkpt lat="45.96001" lon="4.5921">
        <ele>640.37548828125</ele>
        <time>2010-06-13T09:15:10Z</time>
      </trkpt>
      <trkpt lat="45.96016" lon="4.59225">
        <ele>641.8173828125</ele>
        <time>2010-06-13T09:15:16Z</time>
      </trkpt>
      <trkpt lat="45.9603" lon="4.5924">
        <ele>641.8173828125</ele>
        <time>2010-06-13T09:15:21Z</time>
      </trkpt>
      <trkpt lat="45.96052" lon="4.59251">
        <ele>642.29809570312</ele>
        <time>2010-06-13T09:15:27Z</time>
      </trkpt>
      <trkpt lat="45.96085" lon="4.59262">
        <ele>641.8173828125</ele>
        <time>2010-06-13T09:15:36Z</time>
      </trkpt>
      <trkpt lat="45.96104" lon="4.59263">
        <ele>643.25927734375</ele>
        <time>2010-06-13T09:15:42Z</time>
      </trkpt>
      <trkpt lat="45.96128" lon="4.59269">
        <ele>643.73999023438</ele>
        <time>2010-06-13T09:15:49Z</time>
      </trkpt>
      <trkpt lat="45.96149" lon="4.59275">
        <ele>644.701171875</ele>
        <time>2010-06-13T09:15:55Z</time>
      </trkpt>
      <trkpt lat="45.96173" lon="4.59285">
        <ele>645.18188476562</ele>
        <time>2010-06-13T09:16:02Z</time>
      </trkpt>
      <trkpt lat="45.96184" lon="4.59291">
        <ele>645.18188476562</ele>
        <time>2010-06-13T09:16:05Z</time>
      </trkpt>
      <trkpt lat="45.96193" lon="4.59298">
        <ele>644.701171875</ele>
        <time>2010-06-13T09:16:07Z</time>
      </trkpt>
      <trkpt lat="45.962" lon="4.59306">
        <ele>644.220703125</ele>
        <time>2010-06-13T09:16:09Z</time>
      </trkpt>
      <trkpt lat="45.96219" lon="4.59319">
        <ele>643.25927734375</ele>
        <time>2010-06-13T09:16:13Z</time>
      </trkpt>
      <trkpt lat="45.96233" lon="4.5932">
        <ele>642.77880859375</ele>
        <time>2010-06-13T09:16:17Z</time>
      </trkpt>
      <trkpt lat="45.96235" lon="4.59322">
        <ele>642.77880859375</ele>
        <time>2010-06-13T09:16:20Z</time>
      </trkpt>
      <trkpt lat="45.96238" lon="4.59324">
        <ele>642.77880859375</ele>
        <time>2010-06-13T09:16:26Z</time>
      </trkpt>
      <trkpt lat="45.96241" lon="4.59327">
        <ele>642.29809570312</ele>
        <time>2010-06-13T09:16:31Z</time>
      </trkpt>
      <trkpt lat="45.96251" lon="4.59335">
        <ele>639.4140625</ele>
        <time>2010-06-13T09:16:35Z</time>
      </trkpt>
      <trkpt lat="45.9626" lon="4.59341">
        <ele>638.45288085938</ele>
        <time>2010-06-13T09:16:37Z</time>
      </trkpt>
      <trkpt lat="45.96281" lon="4.59354">
        <ele>635.56860351562</ele>
        <time>2010-06-13T09:16:40Z</time>
      </trkpt>
      <trkpt lat="45.96288" lon="4.59359">
        <ele>634.607421875</ele>
        <time>2010-06-13T09:16:41Z</time>
      </trkpt>
      <trkpt lat="45.96311" lon="4.59379">
        <ele>630.28149414062</ele>
        <time>2010-06-13T09:16:44Z</time>
      </trkpt>
      <trkpt lat="45.96337" lon="4.594">
        <ele>626.9169921875</ele>
        <time>2010-06-13T09:16:48Z</time>
      </trkpt>
      <trkpt lat="45.96356" lon="4.59416">
        <ele>624.513671875</ele>
        <time>2010-06-13T09:16:53Z</time>
      </trkpt>
      <trkpt lat="45.96365" lon="4.59421">
        <ele>623.07177734375</ele>
        <time>2010-06-13T09:16:56Z</time>
      </trkpt>
      <trkpt lat="45.96387" lon="4.59433">
        <ele>619.70703125</ele>
        <time>2010-06-13T09:17:00Z</time>
      </trkpt>
      <trkpt lat="45.96393" lon="4.59436">
        <ele>617.7841796875</ele>
        <time>2010-06-13T09:17:01Z</time>
      </trkpt>
      <trkpt lat="45.96402" lon="4.59444">
        <ele>614.900390625</ele>
        <time>2010-06-13T09:17:03Z</time>
      </trkpt>
      <trkpt lat="45.9642" lon="4.59454">
        <ele>613.93896484375</ele>
        <time>2010-06-13T09:17:07Z</time>
      </trkpt>
      <trkpt lat="45.96434" lon="4.59463">
        <ele>611.05517578125</ele>
        <time>2010-06-13T09:17:10Z</time>
      </trkpt>
      <trkpt lat="45.96441" lon="4.5947">
        <ele>610.57446289062</ele>
        <time>2010-06-13T09:17:12Z</time>
      </trkpt>
      <trkpt lat="45.96459" lon="4.59486">
        <ele>605.76806640625</ele>
        <time>2010-06-13T09:17:16Z</time>
      </trkpt>
      <trkpt lat="45.96463" lon="4.5949">
        <ele>604.326171875</ele>
        <time>2010-06-13T09:17:17Z</time>
      </trkpt>
      <trkpt lat="45.96466" lon="4.59504">
        <ele>602.8837890625</ele>
        <time>2010-06-13T09:17:20Z</time>
      </trkpt>
      <trkpt lat="45.96476" lon="4.59518">
        <ele>600</ele>
        <time>2010-06-13T09:17:23Z</time>
      </trkpt>
      <trkpt lat="45.96481" lon="4.59523">
        <ele>599.03857421875</ele>
        <time>2010-06-13T09:17:24Z</time>
      </trkpt>
      <trkpt lat="45.96494" lon="4.59533">
        <ele>597.5966796875</ele>
        <time>2010-06-13T09:17:26Z</time>
      </trkpt>
      <trkpt lat="45.96523" lon="4.59569">
        <ele>595.193359375</ele>
        <time>2010-06-13T09:17:32Z</time>
      </trkpt>
      <trkpt lat="45.96533" lon="4.59594">
        <ele>594.71264648438</ele>
        <time>2010-06-13T09:17:35Z</time>
      </trkpt>
      <trkpt lat="45.96547" lon="4.59636">
        <ele>593.75146484375</ele>
        <time>2010-06-13T09:17:40Z</time>
      </trkpt>
      <trkpt lat="45.96549" lon="4.59646">
        <ele>593.75146484375</ele>
        <time>2010-06-13T09:17:41Z</time>
      </trkpt>
      <trkpt lat="45.96556" lon="4.59676">
        <ele>593.75146484375</ele>
        <time>2010-06-13T09:17:44Z</time>
      </trkpt>
      <trkpt lat="45.96565" lon="4.59707">
        <ele>592.3095703125</ele>
        <time>2010-06-13T09:17:47Z</time>
      </trkpt>
      <trkpt lat="45.96584" lon="4.59739">
        <ele>588.94506835938</ele>
        <time>2010-06-13T09:17:51Z</time>
      </trkpt>
      <trkpt lat="45.9659" lon="4.59746">
        <ele>588.94506835938</ele>
        <time>2010-06-13T09:17:52Z</time>
      </trkpt>
      <trkpt lat="45.96609" lon="4.59774">
        <ele>585.580078125</ele>
        <time>2010-06-13T09:17:56Z</time>
      </trkpt>
      <trkpt lat="45.96618" lon="4.59787">
        <ele>583.65747070312</ele>
        <time>2010-06-13T09:17:59Z</time>
      </trkpt>
      <trkpt lat="45.96617" lon="4.59787">
        <ele>583.1767578125</ele>
        <time>2010-06-13T09:18:02Z</time>
      </trkpt>
      <trkpt lat="45.96618" lon="4.59788">
        <ele>583.1767578125</ele>
        <time>2010-06-13T09:18:10Z</time>
      </trkpt>
      <trkpt lat="45.96621" lon="4.59789">
        <ele>583.65747070312</ele>
        <time>2010-06-13T09:18:16Z</time>
      </trkpt>
      <trkpt lat="45.96622" lon="4.59791">
        <ele>582.21557617188</ele>
        <time>2010-06-13T09:18:19Z</time>
      </trkpt>
      <trkpt lat="45.9663" lon="4.59806">
        <ele>582.21557617188</ele>
        <time>2010-06-13T09:18:23Z</time>
      </trkpt>
      <trkpt lat="45.96636" lon="4.59819">
        <ele>580.77368164062</ele>
        <time>2010-06-13T09:18:25Z</time>
      </trkpt>
      <trkpt lat="45.96648" lon="4.59854">
        <ele>578.85107421875</ele>
        <time>2010-06-13T09:18:29Z</time>
      </trkpt>
      <trkpt lat="45.96657" lon="4.59868">
        <ele>577.8896484375</ele>
        <time>2010-06-13T09:18:31Z</time>
      </trkpt>
      <trkpt lat="45.96667" lon="4.59878">
        <ele>574.52514648438</ele>
        <time>2010-06-13T09:18:33Z</time>
      </trkpt>
      <trkpt lat="45.9667" lon="4.59882">
        <ele>574.52514648438</ele>
        <time>2010-06-13T09:18:34Z</time>
      </trkpt>
      <trkpt lat="45.96678" lon="4.59889">
        <ele>573.08325195312</ele>
        <time>2010-06-13T09:18:38Z</time>
      </trkpt>
      <trkpt lat="45.96679" lon="4.5989">
        <ele>573.56396484375</ele>
        <time>2010-06-13T09:18:39Z</time>
      </trkpt>
      <trkpt lat="45.96682" lon="4.59892">
        <ele>572.6025390625</ele>
        <time>2010-06-13T09:18:43Z</time>
      </trkpt>
      <trkpt lat="45.96688" lon="4.59896">
        <ele>571.64086914062</ele>
        <time>2010-06-13T09:18:50Z</time>
      </trkpt>
      <trkpt lat="45.96695" lon="4.59899">
        <ele>570.6796875</ele>
        <time>2010-06-13T09:18:55Z</time>
      </trkpt>
      <trkpt lat="45.96703" lon="4.59901">
        <ele>569.71850585938</ele>
        <time>2010-06-13T09:19:01Z</time>
      </trkpt>
      <trkpt lat="45.96709" lon="4.59902">
        <ele>569.23779296875</ele>
        <time>2010-06-13T09:19:06Z</time>
      </trkpt>
      <trkpt lat="45.96711" lon="4.59902">
        <ele>569.71850585938</ele>
        <time>2010-06-13T09:19:07Z</time>
      </trkpt>
      <trkpt lat="45.9672" lon="4.59905">
        <ele>568.2763671875</ele>
        <time>2010-06-13T09:19:13Z</time>
      </trkpt>
      <trkpt lat="45.96723" lon="4.59906">
        <ele>567.79565429688</ele>
        <time>2010-06-13T09:19:18Z</time>
      </trkpt>
      <trkpt lat="45.9673" lon="4.59907">
        <ele>567.79565429688</ele>
        <time>2010-06-13T09:19:28Z</time>
      </trkpt>
      <trkpt lat="45.96739" lon="4.59906">
        <ele>565.87329101562</ele>
        <time>2010-06-13T09:19:33Z</time>
      </trkpt>
      <trkpt lat="45.96743" lon="4.59905">
        <ele>565.87329101562</ele>
        <time>2010-06-13T09:19:37Z</time>
      </trkpt>
      <trkpt lat="45.96749" lon="4.59904">
        <ele>564.91186523438</ele>
        <time>2010-06-13T09:19:42Z</time>
      </trkpt>
      <trkpt lat="45.96752" lon="4.59904">
        <ele>564.91186523438</ele>
        <time>2010-06-13T09:19:45Z</time>
      </trkpt>
      <trkpt lat="45.96762" lon="4.59901">
        <ele>563.95043945312</ele>
        <time>2010-06-13T09:19:50Z</time>
      </trkpt>
      <trkpt lat="45.96773" lon="4.59895">
        <ele>563.46997070312</ele>
        <time>2010-06-13T09:19:55Z</time>
      </trkpt>
      <trkpt lat="45.96777" lon="4.59892">
        <ele>562.02807617188</ele>
        <time>2010-06-13T09:20:00Z</time>
      </trkpt>
      <trkpt lat="45.96781" lon="4.5989">
        <ele>562.02807617188</ele>
        <time>2010-06-13T09:20:04Z</time>
      </trkpt>
      <trkpt lat="45.96789" lon="4.59891">
        <ele>561.54736328125</ele>
        <time>2010-06-13T09:20:08Z</time>
      </trkpt>
      <trkpt lat="45.96799" lon="4.59886">
        <ele>558.18286132812</ele>
        <time>2010-06-13T09:20:12Z</time>
      </trkpt>
      <trkpt lat="45.9681" lon="4.59881">
        <ele>557.22143554688</ele>
        <time>2010-06-13T09:20:17Z</time>
      </trkpt>
      <trkpt lat="45.96814" lon="4.59879">
        <ele>556.74072265625</ele>
        <time>2010-06-13T09:20:22Z</time>
      </trkpt>
      <trkpt lat="45.96821" lon="4.59877">
        <ele>555.29858398438</ele>
        <time>2010-06-13T09:20:33Z</time>
      </trkpt>
      <trkpt lat="45.96824" lon="4.59876">
        <ele>553.85668945312</ele>
        <time>2010-06-13T09:20:34Z</time>
      </trkpt>
      <trkpt lat="45.96835" lon="4.59876">
        <ele>551.45336914062</ele>
        <time>2010-06-13T09:20:38Z</time>
      </trkpt>
      <trkpt lat="45.96838" lon="4.59874">
        <ele>550.4921875</ele>
        <time>2010-06-13T09:20:39Z</time>
      </trkpt>
      <trkpt lat="45.96848" lon="4.59868">
        <ele>548.0888671875</ele>
        <time>2010-06-13T09:20:41Z</time>
      </trkpt>
      <trkpt lat="45.96857" lon="4.59865">
        <ele>546.64685058594</ele>
        <time>2010-06-13T09:20:43Z</time>
      </trkpt>
      <trkpt lat="45.96867" lon="4.59861">
        <ele>544.72424316406</ele>
        <time>2010-06-13T09:20:45Z</time>
      </trkpt>
      <trkpt lat="45.96885" lon="4.59855">
        <ele>539.43688964844</ele>
        <time>2010-06-13T09:20:48Z</time>
      </trkpt>
      <trkpt lat="45.96895" lon="4.59849">
        <ele>537.03369140625</ele>
        <time>2010-06-13T09:20:50Z</time>
      </trkpt>
      <trkpt lat="45.96916" lon="4.59839">
        <ele>533.6689453125</ele>
        <time>2010-06-13T09:20:54Z</time>
      </trkpt>
      <trkpt lat="45.96936" lon="4.59828">
        <ele>528.86254882812</ele>
        <time>2010-06-13T09:20:58Z</time>
      </trkpt>
      <trkpt lat="45.96941" lon="4.59825">
        <ele>527.90100097656</ele>
        <time>2010-06-13T09:21:00Z</time>
      </trkpt>
      <trkpt lat="45.96943" lon="4.59825">
        <ele>527.42041015625</ele>
        <time>2010-06-13T09:21:04Z</time>
      </trkpt>
      <trkpt lat="45.96948" lon="4.5982">
        <ele>526.93981933594</ele>
        <time>2010-06-13T09:21:09Z</time>
      </trkpt>
      <trkpt lat="45.96958" lon="4.59815">
        <ele>526.93981933594</ele>
        <time>2010-06-13T09:21:12Z</time>
      </trkpt>
      <trkpt lat="45.96983" lon="4.5981">
        <ele>524.53649902344</ele>
        <time>2010-06-13T09:21:17Z</time>
      </trkpt>
      <trkpt lat="45.96995" lon="4.5981">
        <ele>523.5751953125</ele>
        <time>2010-06-13T09:21:19Z</time>
      </trkpt>
      <trkpt lat="45.97001" lon="4.5981">
        <ele>522.13317871094</ele>
        <time>2010-06-13T09:21:20Z</time>
      </trkpt>
      <trkpt lat="45.97028" lon="4.59802">
        <ele>519.24926757812</ele>
        <time>2010-06-13T09:21:25Z</time>
      </trkpt>
      <trkpt lat="45.97034" lon="4.59796">
        <ele>517.80725097656</ele>
        <time>2010-06-13T09:21:27Z</time>
      </trkpt>
      <trkpt lat="45.97032" lon="4.59787">
        <ele>517.32666015625</ele>
        <time>2010-06-13T09:21:30Z</time>
      </trkpt>
      <trkpt lat="45.97026" lon="4.59781">
        <ele>516.84594726562</ele>
        <time>2010-06-13T09:21:35Z</time>
      </trkpt>
      <trkpt lat="45.97022" lon="4.59777">
        <ele>516.84594726562</ele>
        <time>2010-06-13T09:21:39Z</time>
      </trkpt>
      <trkpt lat="45.9701" lon="4.59763">
        <ele>517.32666015625</ele>
        <time>2010-06-13T09:21:46Z</time>
      </trkpt>
      <trkpt lat="45.96996" lon="4.59749">
        <ele>517.80725097656</ele>
        <time>2010-06-13T09:21:52Z</time>
      </trkpt>
      <trkpt lat="45.96983" lon="4.59724">
        <ele>519.24926757812</ele>
        <time>2010-06-13T09:21:58Z</time>
      </trkpt>
      <trkpt lat="45.96983" lon="4.59718">
        <ele>519.24926757812</ele>
        <time>2010-06-13T09:21:59Z</time>
      </trkpt>
      <trkpt lat="45.96989" lon="4.59691">
        <ele>519.72985839844</ele>
        <time>2010-06-13T09:22:04Z</time>
      </trkpt>
      <trkpt lat="45.96996" lon="4.59682">
        <ele>519.24926757812</ele>
        <time>2010-06-13T09:22:06Z</time>
      </trkpt>
      <trkpt lat="45.97028" lon="4.59651">
        <ele>518.7685546875</ele>
        <time>2010-06-13T09:22:14Z</time>
      </trkpt>
      <trkpt lat="45.97057" lon="4.59635">
        <ele>518.28784179688</ele>
        <time>2010-06-13T09:22:19Z</time>
      </trkpt>
      <trkpt lat="45.97063" lon="4.59631">
        <ele>518.28784179688</ele>
        <time>2010-06-13T09:22:20Z</time>
      </trkpt>
      <trkpt lat="45.97088" lon="4.59631">
        <ele>517.32666015625</ele>
        <time>2010-06-13T09:22:24Z</time>
      </trkpt>
      <trkpt lat="45.97094" lon="4.59632">
        <ele>517.32666015625</ele>
        <time>2010-06-13T09:22:25Z</time>
      </trkpt>
      <trkpt lat="45.97127" lon="4.5962">
        <ele>518.7685546875</ele>
        <time>2010-06-13T09:22:31Z</time>
      </trkpt>
      <trkpt lat="45.97154" lon="4.59614">
        <ele>520.69128417969</ele>
        <time>2010-06-13T09:22:37Z</time>
      </trkpt>
      <trkpt lat="45.97173" lon="4.59619">
        <ele>523.09460449219</ele>
        <time>2010-06-13T09:22:42Z</time>
      </trkpt>
      <trkpt lat="45.97192" lon="4.59656">
        <ele>521.17199707031</ele>
        <time>2010-06-13T09:22:48Z</time>
      </trkpt>
      <trkpt lat="45.97196" lon="4.59662">
        <ele>521.17199707031</ele>
        <time>2010-06-13T09:22:49Z</time>
      </trkpt>
      <trkpt lat="45.97206" lon="4.59677">
        <ele>521.17199707031</ele>
        <time>2010-06-13T09:22:52Z</time>
      </trkpt>
      <trkpt lat="45.97218" lon="4.59689">
        <ele>521.17199707031</ele>
        <time>2010-06-13T09:22:55Z</time>
      </trkpt>
      <trkpt lat="45.97229" lon="4.59707">
        <ele>520.21057128906</ele>
        <time>2010-06-13T09:22:58Z</time>
      </trkpt>
      <trkpt lat="45.97235" lon="4.59721">
        <ele>520.21057128906</ele>
        <time>2010-06-13T09:23:00Z</time>
      </trkpt>
      <trkpt lat="45.9725" lon="4.59763">
        <ele>517.32666015625</ele>
        <time>2010-06-13T09:23:05Z</time>
      </trkpt>
      <trkpt lat="45.97261" lon="4.59809">
        <ele>513.96203613281</ele>
        <time>2010-06-13T09:23:10Z</time>
      </trkpt>
      <trkpt lat="45.97264" lon="4.59815">
        <ele>513.96203613281</ele>
        <time>2010-06-13T09:23:11Z</time>
      </trkpt>
      <trkpt lat="45.97274" lon="4.59828">
        <ele>513.00073242188</ele>
        <time>2010-06-13T09:23:13Z</time>
      </trkpt>
      <trkpt lat="45.97289" lon="4.59846">
        <ele>513.00073242188</ele>
        <time>2010-06-13T09:23:16Z</time>
      </trkpt>
      <trkpt lat="45.97301" lon="4.59866">
        <ele>514.92333984375</ele>
        <time>2010-06-13T09:23:19Z</time>
      </trkpt>
      <trkpt lat="45.97316" lon="4.59902">
        <ele>516.365234375</ele>
        <time>2010-06-13T09:23:25Z</time>
      </trkpt>
      <trkpt lat="45.9732" lon="4.59915">
        <ele>515.88464355469</ele>
        <time>2010-06-13T09:23:27Z</time>
      </trkpt>
      <trkpt lat="45.97336" lon="4.5995">
        <ele>515.40405273438</ele>
        <time>2010-06-13T09:23:33Z</time>
      </trkpt>
      <trkpt lat="45.97352" lon="4.59986">
        <ele>516.84594726562</ele>
        <time>2010-06-13T09:23:39Z</time>
      </trkpt>
      <trkpt lat="45.97355" lon="4.59992">
        <ele>517.32666015625</ele>
        <time>2010-06-13T09:23:40Z</time>
      </trkpt>
      <trkpt lat="45.97371" lon="4.60014">
        <ele>515.40405273438</ele>
        <time>2010-06-13T09:23:46Z</time>
      </trkpt>
      <trkpt lat="45.97375" lon="4.6002">
        <ele>513.96203613281</ele>
        <time>2010-06-13T09:23:48Z</time>
      </trkpt>
      <trkpt lat="45.97392" lon="4.6002">
        <ele>509.63610839844</ele>
        <time>2010-06-13T09:23:53Z</time>
      </trkpt>
      <trkpt lat="45.97395" lon="4.60019">
        <ele>509.63610839844</ele>
        <time>2010-06-13T09:23:54Z</time>
      </trkpt>
      <trkpt lat="45.97401" lon="4.60025">
        <ele>507.23278808594</ele>
        <time>2010-06-13T09:23:57Z</time>
      </trkpt>
      <trkpt lat="45.974" lon="4.60043">
        <ele>504.34887695312</ele>
        <time>2010-06-13T09:24:00Z</time>
      </trkpt>
      <trkpt lat="45.97398" lon="4.60057">
        <ele>500.50354003906</ele>
        <time>2010-06-13T09:24:02Z</time>
      </trkpt>
      <trkpt lat="45.97395" lon="4.60063">
        <ele>499.54223632812</ele>
        <time>2010-06-13T09:24:03Z</time>
      </trkpt>
      <trkpt lat="45.97387" lon="4.6008">
        <ele>497.13891601562</ele>
        <time>2010-06-13T09:24:06Z</time>
      </trkpt>
      <trkpt lat="45.9738" lon="4.60095">
        <ele>494.25500488281</ele>
        <time>2010-06-13T09:24:09Z</time>
      </trkpt>
      <trkpt lat="45.97374" lon="4.60112">
        <ele>490.89038085938</ele>
        <time>2010-06-13T09:24:13Z</time>
      </trkpt>
      <trkpt lat="45.97368" lon="4.60134">
        <ele>486.564453125</ele>
        <time>2010-06-13T09:24:18Z</time>
      </trkpt>
      <trkpt lat="45.97362" lon="4.6015">
        <ele>484.64184570312</ele>
        <time>2010-06-13T09:24:22Z</time>
      </trkpt>
      <trkpt lat="45.97365" lon="4.60158">
        <ele>483.19982910156</ele>
        <time>2010-06-13T09:24:26Z</time>
      </trkpt>
      <trkpt lat="45.97366" lon="4.60159">
        <ele>483.19982910156</ele>
        <time>2010-06-13T09:24:27Z</time>
      </trkpt>
      <trkpt lat="45.97375" lon="4.60171">
        <ele>480.31591796875</ele>
        <time>2010-06-13T09:24:32Z</time>
      </trkpt>
      <trkpt lat="45.97384" lon="4.60179">
        <ele>476.95129394531</ele>
        <time>2010-06-13T09:24:36Z</time>
      </trkpt>
      <trkpt lat="45.9739" lon="4.60186">
        <ele>475.02868652344</ele>
        <time>2010-06-13T09:24:39Z</time>
      </trkpt>
      <trkpt lat="45.97393" lon="4.60189">
        <ele>472.62536621094</ele>
        <time>2010-06-13T09:24:40Z</time>
      </trkpt>
      <trkpt lat="45.9741" lon="4.60196">
        <ele>470.22192382812</ele>
        <time>2010-06-13T09:24:45Z</time>
      </trkpt>
      <trkpt lat="45.97428" lon="4.6019">
        <ele>465.89611816406</ele>
        <time>2010-06-13T09:24:50Z</time>
      </trkpt>
      <trkpt lat="45.97446" lon="4.6018">
        <ele>464.4541015625</ele>
        <time>2010-06-13T09:24:54Z</time>
      </trkpt>
      <trkpt lat="45.97462" lon="4.60172">
        <ele>461.08947753906</ele>
        <time>2010-06-13T09:24:57Z</time>
      </trkpt>
      <trkpt lat="45.97467" lon="4.60169">
        <ele>461.57019042969</ele>
        <time>2010-06-13T09:24:58Z</time>
      </trkpt>
      <trkpt lat="45.97477" lon="4.60163">
        <ele>458.20556640625</ele>
        <time>2010-06-13T09:25:00Z</time>
      </trkpt>
      <trkpt lat="45.9748" lon="4.6016">
        <ele>458.20556640625</ele>
        <time>2010-06-13T09:25:01Z</time>
      </trkpt>
      <trkpt lat="45.97485" lon="4.60156">
        <ele>457.72497558594</ele>
        <time>2010-06-13T09:25:04Z</time>
      </trkpt>
      <trkpt lat="45.97488" lon="4.60152">
        <ele>457.24426269531</ele>
        <time>2010-06-13T09:25:12Z</time>
      </trkpt>
      <trkpt lat="45.9749" lon="4.6015">
        <ele>456.76354980469</ele>
        <time>2010-06-13T09:25:13Z</time>
      </trkpt>
      <trkpt lat="45.97494" lon="4.60152">
        <ele>456.28295898438</ele>
        <time>2010-06-13T09:25:16Z</time>
      </trkpt>
      <trkpt lat="45.97493" lon="4.60167">
        <ele>454.8408203125</ele>
        <time>2010-06-13T09:25:19Z</time>
      </trkpt>
      <trkpt lat="45.97496" lon="4.6019">
        <ele>454.36022949219</ele>
        <time>2010-06-13T09:25:22Z</time>
      </trkpt>
      <trkpt lat="45.97485" lon="4.60213">
        <ele>453.87963867188</ele>
        <time>2010-06-13T09:25:25Z</time>
      </trkpt>
      <trkpt lat="45.97459" lon="4.60244">
        <ele>453.87963867188</ele>
        <time>2010-06-13T09:25:30Z</time>
      </trkpt>
      <trkpt lat="45.9742" lon="4.60272">
        <ele>454.8408203125</ele>
        <time>2010-06-13T09:25:37Z</time>
      </trkpt>
      <trkpt lat="45.97398" lon="4.60281">
        <ele>455.32153320312</ele>
        <time>2010-06-13T09:25:41Z</time>
      </trkpt>
      <trkpt lat="45.97367" lon="4.60278">
        <ele>452.43762207031</ele>
        <time>2010-06-13T09:25:46Z</time>
      </trkpt>
      <trkpt lat="45.97361" lon="4.60277">
        <ele>452.43762207031</ele>
        <time>2010-06-13T09:25:47Z</time>
      </trkpt>
      <trkpt lat="45.97354" lon="4.60277">
        <ele>449.07299804688</ele>
        <time>2010-06-13T09:25:48Z</time>
      </trkpt>
      <trkpt lat="45.9734" lon="4.60276">
        <ele>447.63098144531</ele>
        <time>2010-06-13T09:25:50Z</time>
      </trkpt>
      <trkpt lat="45.97299" lon="4.6026">
        <ele>445.22766113281</ele>
        <time>2010-06-13T09:25:56Z</time>
      </trkpt>
      <trkpt lat="45.97284" lon="4.60256">
        <ele>441.38244628906</ele>
        <time>2010-06-13T09:25:58Z</time>
      </trkpt>
      <trkpt lat="45.97276" lon="4.60253">
        <ele>441.38244628906</ele>
        <time>2010-06-13T09:25:59Z</time>
      </trkpt>
      <trkpt lat="45.97268" lon="4.6025">
        <ele>440.90185546875</ele>
        <time>2010-06-13T09:26:00Z</time>
      </trkpt>
      <trkpt lat="45.97254" lon="4.6024">
        <ele>439.45971679688</ele>
        <time>2010-06-13T09:26:02Z</time>
      </trkpt>
      <trkpt lat="45.97239" lon="4.60228">
        <ele>436.09521484375</ele>
        <time>2010-06-13T09:26:04Z</time>
      </trkpt>
      <trkpt lat="45.97214" lon="4.60219">
        <ele>432.25</ele>
        <time>2010-06-13T09:26:07Z</time>
      </trkpt>
      <trkpt lat="45.97205" lon="4.6022">
        <ele>432.73071289062</ele>
        <time>2010-06-13T09:26:08Z</time>
      </trkpt>
      <trkpt lat="45.97185" lon="4.60227">
        <ele>430.32727050781</ele>
        <time>2010-06-13T09:26:10Z</time>
      </trkpt>
      <trkpt lat="45.97136" lon="4.60266">
        <ele>427.92395019531</ele>
        <time>2010-06-13T09:26:16Z</time>
      </trkpt>
      <trkpt lat="45.97108" lon="4.60312">
        <ele>426.00134277344</ele>
        <time>2010-06-13T09:26:21Z</time>
      </trkpt>
      <trkpt lat="45.97094" lon="4.6034">
        <ele>424.55944824219</ele>
        <time>2010-06-13T09:26:24Z</time>
      </trkpt>
      <trkpt lat="45.97059" lon="4.60377">
        <ele>425.52075195312</ele>
        <time>2010-06-13T09:26:30Z</time>
      </trkpt>
      <trkpt lat="45.97047" lon="4.60388">
        <ele>426.48205566406</ele>
        <time>2010-06-13T09:26:32Z</time>
      </trkpt>
      <trkpt lat="45.97015" lon="4.60428">
        <ele>427.443359375</ele>
        <time>2010-06-13T09:26:39Z</time>
      </trkpt>
      <trkpt lat="45.97011" lon="4.60433">
        <ele>426.96276855469</ele>
        <time>2010-06-13T09:26:40Z</time>
      </trkpt>
      <trkpt lat="45.96989" lon="4.60444">
        <ele>428.40466308594</ele>
        <time>2010-06-13T09:26:45Z</time>
      </trkpt>
      <trkpt lat="45.96961" lon="4.60448">
        <ele>431.76916503906</ele>
        <time>2010-06-13T09:26:53Z</time>
      </trkpt>
      <trkpt lat="45.96937" lon="4.60452">
        <ele>435.13391113281</ele>
        <time>2010-06-13T09:27:01Z</time>
      </trkpt>
      <trkpt lat="45.96926" lon="4.60454">
        <ele>436.57592773438</ele>
        <time>2010-06-13T09:27:05Z</time>
      </trkpt>
      <trkpt lat="45.96904" lon="4.60458">
        <ele>438.49853515625</ele>
        <time>2010-06-13T09:27:13Z</time>
      </trkpt>
      <trkpt lat="45.96888" lon="4.60465">
        <ele>441.38244628906</ele>
        <time>2010-06-13T09:27:19Z</time>
      </trkpt>
      <trkpt lat="45.96877" lon="4.60487">
        <ele>441.38244628906</ele>
        <time>2010-06-13T09:27:24Z</time>
      </trkpt>
      <trkpt lat="45.96853" lon="4.60537">
        <ele>441.38244628906</ele>
        <time>2010-06-13T09:27:33Z</time>
      </trkpt>
      <trkpt lat="45.9683" lon="4.60585">
        <ele>441.38244628906</ele>
        <time>2010-06-13T09:27:40Z</time>
      </trkpt>
      <trkpt lat="45.9679" lon="4.60649">
        <ele>441.38244628906</ele>
        <time>2010-06-13T09:27:50Z</time>
      </trkpt>
      <trkpt lat="45.96753" lon="4.60705">
        <ele>442.82446289062</ele>
        <time>2010-06-13T09:27:59Z</time>
      </trkpt>
      <trkpt lat="45.96722" lon="4.60769">
        <ele>442.34387207031</ele>
        <time>2010-06-13T09:28:08Z</time>
      </trkpt>
      <trkpt lat="45.96711" lon="4.60798">
        <ele>440.90185546875</ele>
        <time>2010-06-13T09:28:13Z</time>
      </trkpt>
      <trkpt lat="45.96711" lon="4.60803">
        <ele>441.38244628906</ele>
        <time>2010-06-13T09:28:14Z</time>
      </trkpt>
      <trkpt lat="45.96719" lon="4.60811">
        <ele>440.90185546875</ele>
        <time>2010-06-13T09:28:17Z</time>
      </trkpt>
      <trkpt lat="45.96743" lon="4.60805">
        <ele>439.45971679688</ele>
        <time>2010-06-13T09:28:21Z</time>
      </trkpt>
      <trkpt lat="45.96783" lon="4.60801">
        <ele>438.01782226562</ele>
        <time>2010-06-13T09:28:26Z</time>
      </trkpt>
      <trkpt lat="45.9683" lon="4.608">
        <ele>434.6533203125</ele>
        <time>2010-06-13T09:28:31Z</time>
      </trkpt>
      <trkpt lat="45.9684" lon="4.608">
        <ele>434.17260742188</ele>
        <time>2010-06-13T09:28:32Z</time>
      </trkpt>
      <trkpt lat="45.96869" lon="4.60801">
        <ele>431.76916503906</ele>
        <time>2010-06-13T09:28:35Z</time>
      </trkpt>
      <trkpt lat="45.96907" lon="4.60802">
        <ele>427.92395019531</ele>
        <time>2010-06-13T09:28:39Z</time>
      </trkpt>
      <trkpt lat="45.96931" lon="4.60802">
        <ele>425.52075195312</ele>
        <time>2010-06-13T09:28:42Z</time>
      </trkpt>
      <trkpt lat="45.96946" lon="4.60805">
        <ele>424.07873535156</ele>
        <time>2010-06-13T09:28:44Z</time>
      </trkpt>
      <trkpt lat="45.96963" lon="4.60811">
        <ele>420.71411132812</ele>
        <time>2010-06-13T09:28:46Z</time>
      </trkpt>
      <trkpt lat="45.96978" lon="4.60818">
        <ele>416.38818359375</ele>
        <time>2010-06-13T09:28:48Z</time>
      </trkpt>
      <trkpt lat="45.96988" lon="4.60822">
        <ele>412.54284667969</ele>
        <time>2010-06-13T09:28:50Z</time>
      </trkpt>
      <trkpt lat="45.96992" lon="4.60823">
        <ele>411.58166503906</ele>
        <time>2010-06-13T09:28:52Z</time>
      </trkpt>
      <trkpt lat="45.97002" lon="4.60824">
        <ele>407.736328125</ele>
        <time>2010-06-13T09:28:56Z</time>
      </trkpt>
      <trkpt lat="45.97008" lon="4.60827">
        <ele>407.25561523438</ele>
        <time>2010-06-13T09:28:58Z</time>
      </trkpt>
      <trkpt lat="45.97019" lon="4.60833">
        <ele>402.9296875</ele>
        <time>2010-06-13T09:29:02Z</time>
      </trkpt>
      <trkpt lat="45.97029" lon="4.60838">
        <ele>398.60375976562</ele>
        <time>2010-06-13T09:29:05Z</time>
      </trkpt>
      <trkpt lat="45.97039" lon="4.60831">
        <ele>396.20056152344</ele>
        <time>2010-06-13T09:29:09Z</time>
      </trkpt>
      <trkpt lat="45.97047" lon="4.60834">
        <ele>393.79724121094</ele>
        <time>2010-06-13T09:29:12Z</time>
      </trkpt>
      <trkpt lat="45.97051" lon="4.6084">
        <ele>391.87451171875</ele>
        <time>2010-06-13T09:29:13Z</time>
      </trkpt>
      <trkpt lat="45.97059" lon="4.60854">
        <ele>390.91320800781</ele>
        <time>2010-06-13T09:29:15Z</time>
      </trkpt>
      <trkpt lat="45.9707" lon="4.60871">
        <ele>387.06799316406</ele>
        <time>2010-06-13T09:29:18Z</time>
      </trkpt>
      <trkpt lat="45.97075" lon="4.60885">
        <ele>386.10668945312</ele>
        <time>2010-06-13T09:29:22Z</time>
      </trkpt>
      <trkpt lat="45.97083" lon="4.60902">
        <ele>385.6259765625</ele>
        <time>2010-06-13T09:29:26Z</time>
      </trkpt>
      <trkpt lat="45.97094" lon="4.60922">
        <ele>385.14538574219</ele>
        <time>2010-06-13T09:29:31Z</time>
      </trkpt>
      <trkpt lat="45.97095" lon="4.60928">
        <ele>385.6259765625</ele>
        <time>2010-06-13T09:29:32Z</time>
      </trkpt>
      <trkpt lat="45.9709" lon="4.60962">
        <ele>384.18408203125</ele>
        <time>2010-06-13T09:29:37Z</time>
      </trkpt>
      <trkpt lat="45.9709" lon="4.61001">
        <ele>383.70324707031</ele>
        <time>2010-06-13T09:29:41Z</time>
      </trkpt>
      <trkpt lat="45.97094" lon="4.61034">
        <ele>381.78063964844</ele>
        <time>2010-06-13T09:29:44Z</time>
      </trkpt>
      <trkpt lat="45.97094" lon="4.61077">
        <ele>378.41613769531</ele>
        <time>2010-06-13T09:29:48Z</time>
      </trkpt>
      <trkpt lat="45.97097" lon="4.61115">
        <ele>377.93542480469</ele>
        <time>2010-06-13T09:29:52Z</time>
      </trkpt>
      <trkpt lat="45.97102" lon="4.6114">
        <ele>378.89685058594</ele>
        <time>2010-06-13T09:29:55Z</time>
      </trkpt>
      <trkpt lat="45.97102" lon="4.61187">
        <ele>378.41613769531</ele>
        <time>2010-06-13T09:30:00Z</time>
      </trkpt>
      <trkpt lat="45.97094" lon="4.61248">
        <ele>376.01281738281</ele>
        <time>2010-06-13T09:30:06Z</time>
      </trkpt>
      <trkpt lat="45.97082" lon="4.61316">
        <ele>374.09008789062</ele>
        <time>2010-06-13T09:30:12Z</time>
      </trkpt>
      <trkpt lat="45.9708" lon="4.61327">
        <ele>375.05151367188</ele>
        <time>2010-06-13T09:30:13Z</time>
      </trkpt>
      <trkpt lat="45.97078" lon="4.61338">
        <ele>373.60949707031</ele>
        <time>2010-06-13T09:30:14Z</time>
      </trkpt>
      <trkpt lat="45.97073" lon="4.61361">
        <ele>373.12890625</ele>
        <time>2010-06-13T09:30:16Z</time>
      </trkpt>
      <trkpt lat="45.97062" lon="4.61407">
        <ele>372.64819335938</ele>
        <time>2010-06-13T09:30:20Z</time>
      </trkpt>
      <trkpt lat="45.97046" lon="4.61471">
        <ele>371.20629882812</ele>
        <time>2010-06-13T09:30:26Z</time>
      </trkpt>
      <trkpt lat="45.9704" lon="4.61493">
        <ele>369.28369140625</ele>
        <time>2010-06-13T09:30:29Z</time>
      </trkpt>
      <trkpt lat="45.97039" lon="4.61494">
        <ele>369.28369140625</ele>
        <time>2010-06-13T09:30:32Z</time>
      </trkpt>
      <trkpt lat="45.97038" lon="4.61484">
        <ele>368.322265625</ele>
        <time>2010-06-13T09:30:35Z</time>
      </trkpt>
      <trkpt lat="45.97029" lon="4.6145">
        <ele>363.51574707031</ele>
        <time>2010-06-13T09:30:39Z</time>
      </trkpt>
      <trkpt lat="45.97029" lon="4.61444">
        <ele>362.07373046875</ele>
        <time>2010-06-13T09:30:40Z</time>
      </trkpt>
      <trkpt lat="45.97022" lon="4.61445">
        <ele>361.11242675781</ele>
        <time>2010-06-13T09:30:43Z</time>
      </trkpt>
      <trkpt lat="45.9702" lon="4.61456">
        <ele>360.63171386719</ele>
        <time>2010-06-13T09:30:45Z</time>
      </trkpt>
      <trkpt lat="45.97012" lon="4.61516">
        <ele>361.11242675781</ele>
        <time>2010-06-13T09:30:52Z</time>
      </trkpt>
      <trkpt lat="45.97" lon="4.61569">
        <ele>360.15112304688</ele>
        <time>2010-06-13T09:30:59Z</time>
      </trkpt>
      <trkpt lat="45.96999" lon="4.61575">
        <ele>361.11242675781</ele>
        <time>2010-06-13T09:31:00Z</time>
      </trkpt>
      <trkpt lat="45.96984" lon="4.61618">
        <ele>362.55432128906</ele>
        <time>2010-06-13T09:31:07Z</time>
      </trkpt>
      <trkpt lat="45.9698" lon="4.61637">
        <ele>364.47692871094</ele>
        <time>2010-06-13T09:31:11Z</time>
      </trkpt>
      <trkpt lat="45.9697" lon="4.61669">
        <ele>363.51574707031</ele>
        <time>2010-06-13T09:31:17Z</time>
      </trkpt>
      <trkpt lat="45.96956" lon="4.61709">
        <ele>362.55432128906</ele>
        <time>2010-06-13T09:31:23Z</time>
      </trkpt>
      <trkpt lat="45.96949" lon="4.6173">
        <ele>359.67041015625</ele>
        <time>2010-06-13T09:31:26Z</time>
      </trkpt>
      <trkpt lat="45.96939" lon="4.61765">
        <ele>359.67041015625</ele>
        <time>2010-06-13T09:31:31Z</time>
      </trkpt>
      <trkpt lat="45.96935" lon="4.61776">
        <ele>359.67041015625</ele>
        <time>2010-06-13T09:31:33Z</time>
      </trkpt>
      <trkpt lat="45.96926" lon="4.61807">
        <ele>360.15112304688</ele>
        <time>2010-06-13T09:31:38Z</time>
      </trkpt>
      <trkpt lat="45.96923" lon="4.61818">
        <ele>358.708984375</ele>
        <time>2010-06-13T09:31:40Z</time>
      </trkpt>
      <trkpt lat="45.96917" lon="4.61844">
        <ele>358.22839355469</ele>
        <time>2010-06-13T09:31:45Z</time>
      </trkpt>
      <trkpt lat="45.96912" lon="4.61861">
        <ele>358.708984375</ele>
        <time>2010-06-13T09:31:48Z</time>
      </trkpt>
      <trkpt lat="45.96906" lon="4.61882">
        <ele>356.30578613281</ele>
        <time>2010-06-13T09:31:52Z</time>
      </trkpt>
      <trkpt lat="45.96896" lon="4.61911">
        <ele>355.34448242188</ele>
        <time>2010-06-13T09:31:57Z</time>
      </trkpt>
      <trkpt lat="45.96894" lon="4.61918">
        <ele>356.30578613281</ele>
        <time>2010-06-13T09:31:58Z</time>
      </trkpt>
      <trkpt lat="45.96889" lon="4.6193">
        <ele>354.86376953125</ele>
        <time>2010-06-13T09:32:00Z</time>
      </trkpt>
      <trkpt lat="45.96884" lon="4.61945">
        <ele>355.8251953125</ele>
        <time>2010-06-13T09:32:02Z</time>
      </trkpt>
      <trkpt lat="45.96867" lon="4.6199">
        <ele>354.38317871094</ele>
        <time>2010-06-13T09:32:08Z</time>
      </trkpt>
      <trkpt lat="45.96862" lon="4.62005">
        <ele>354.38317871094</ele>
        <time>2010-06-13T09:32:10Z</time>
      </trkpt>
      <trkpt lat="45.96856" lon="4.62019">
        <ele>352.94116210938</ele>
        <time>2010-06-13T09:32:12Z</time>
      </trkpt>
      <trkpt lat="45.96846" lon="4.62037">
        <ele>353.90258789062</ele>
        <time>2010-06-13T09:32:15Z</time>
      </trkpt>
      <trkpt lat="45.9684" lon="4.6205">
        <ele>352.46057128906</ele>
        <time>2010-06-13T09:32:17Z</time>
      </trkpt>
      <trkpt lat="45.96833" lon="4.62061">
        <ele>351.01843261719</ele>
        <time>2010-06-13T09:32:19Z</time>
      </trkpt>
      <trkpt lat="45.96831" lon="4.62066">
        <ele>351.49914550781</ele>
        <time>2010-06-13T09:32:20Z</time>
      </trkpt>
      <trkpt lat="45.96811" lon="4.62097">
        <ele>349.57653808594</ele>
        <time>2010-06-13T09:32:25Z</time>
      </trkpt>
      <trkpt lat="45.96792" lon="4.62132">
        <ele>350.05725097656</ele>
        <time>2010-06-13T09:32:30Z</time>
      </trkpt>
      <trkpt lat="45.96771" lon="4.62174">
        <ele>348.13464355469</ele>
        <time>2010-06-13T09:32:35Z</time>
      </trkpt>
      <trkpt lat="45.96759" lon="4.62211">
        <ele>345.73132324219</ele>
        <time>2010-06-13T09:32:39Z</time>
      </trkpt>
      <trkpt lat="45.96749" lon="4.62246">
        <ele>347.17321777344</ele>
        <time>2010-06-13T09:32:43Z</time>
      </trkpt>
      <trkpt lat="45.96732" lon="4.6231">
        <ele>343.80859375</ele>
        <time>2010-06-13T09:32:50Z</time>
      </trkpt>
      <trkpt lat="45.96727" lon="4.62327">
        <ele>343.80859375</ele>
        <time>2010-06-13T09:32:52Z</time>
      </trkpt>
      <trkpt lat="45.96717" lon="4.62376">
        <ele>344.28942871094</ele>
        <time>2010-06-13T09:32:58Z</time>
      </trkpt>
      <trkpt lat="45.96713" lon="4.62404">
        <ele>342.36669921875</ele>
        <time>2010-06-13T09:33:01Z</time>
      </trkpt>
      <trkpt lat="45.96704" lon="4.6244">
        <ele>343.80859375</ele>
        <time>2010-06-13T09:33:05Z</time>
      </trkpt>
      <trkpt lat="45.96684" lon="4.62477">
        <ele>341.4052734375</ele>
        <time>2010-06-13T09:33:10Z</time>
      </trkpt>
      <trkpt lat="45.96663" lon="4.6252">
        <ele>340.92468261719</ele>
        <time>2010-06-13T09:33:15Z</time>
      </trkpt>
      <trkpt lat="45.96655" lon="4.62547">
        <ele>337.56005859375</ele>
        <time>2010-06-13T09:33:18Z</time>
      </trkpt>
      <trkpt lat="45.96643" lon="4.62582">
        <ele>335.63732910156</ele>
        <time>2010-06-13T09:33:22Z</time>
      </trkpt>
      <trkpt lat="45.9663" lon="4.62626">
        <ele>336.59887695312</ele>
        <time>2010-06-13T09:33:27Z</time>
      </trkpt>
      <trkpt lat="45.96618" lon="4.62685">
        <ele>337.07946777344</ele>
        <time>2010-06-13T09:33:33Z</time>
      </trkpt>
      <trkpt lat="45.96607" lon="4.62739">
        <ele>335.15673828125</ele>
        <time>2010-06-13T09:33:38Z</time>
      </trkpt>
      <trkpt lat="45.96602" lon="4.62759">
        <ele>333.71472167969</ele>
        <time>2010-06-13T09:33:40Z</time>
      </trkpt>
      <trkpt lat="45.96593" lon="4.62814">
        <ele>332.27282714844</ele>
        <time>2010-06-13T09:33:46Z</time>
      </trkpt>
      <trkpt lat="45.96584" lon="4.62864">
        <ele>331.3115234375</ele>
        <time>2010-06-13T09:33:51Z</time>
      </trkpt>
      <trkpt lat="45.96583" lon="4.62879">
        <ele>330.83093261719</ele>
        <time>2010-06-13T09:33:54Z</time>
      </trkpt>
      <trkpt lat="45.96584" lon="4.62886">
        <ele>330.35021972656</ele>
        <time>2010-06-13T09:33:58Z</time>
      </trkpt>
      <trkpt lat="45.96584" lon="4.62886">
        <ele>330.35021972656</ele>
        <time>2010-06-13T09:34:04Z</time>
      </trkpt>
      <trkpt lat="45.96584" lon="4.62884">
        <ele>330.35021972656</ele>
        <time>2010-06-13T09:34:31Z</time>
      </trkpt>
      <trkpt lat="45.96592" lon="4.62876">
        <ele>329.86950683594</ele>
        <time>2010-06-13T09:41:03Z</time>
      </trkpt>
      <trkpt lat="45.96586" lon="4.62882">
        <ele>328.42761230469</ele>
        <time>2010-06-13T09:51:12Z</time>
      </trkpt>
      <trkpt lat="45.96586" lon="4.62883">
        <ele>328.42761230469</ele>
        <time>2010-06-13T09:51:13Z</time>
      </trkpt>
      <trkpt lat="45.96583" lon="4.62892">
        <ele>327.94677734375</ele>
        <time>2010-06-13T09:51:17Z</time>
      </trkpt>
      <trkpt lat="45.96577" lon="4.62916">
        <ele>327.94677734375</ele>
        <time>2010-06-13T09:51:23Z</time>
      </trkpt>
      <trkpt lat="45.96568" lon="4.62942">
        <ele>327.46618652344</ele>
        <time>2010-06-13T09:51:28Z</time>
      </trkpt>
      <trkpt lat="45.9655" lon="4.62981">
        <ele>326.02416992188</ele>
        <time>2010-06-13T09:51:35Z</time>
      </trkpt>
      <trkpt lat="45.96529" lon="4.63024">
        <ele>325.06298828125</ele>
        <time>2010-06-13T09:51:42Z</time>
      </trkpt>
      <trkpt lat="45.96511" lon="4.6306">
        <ele>324.58227539062</ele>
        <time>2010-06-13T09:51:48Z</time>
      </trkpt>
      <trkpt lat="45.96495" lon="4.63101">
        <ele>323.62097167969</ele>
        <time>2010-06-13T09:51:54Z</time>
      </trkpt>
      <trkpt lat="45.96494" lon="4.63108">
        <ele>322.65966796875</ele>
        <time>2010-06-13T09:51:55Z</time>
      </trkpt>
      <trkpt lat="45.96491" lon="4.63122">
        <ele>322.17895507812</ele>
        <time>2010-06-13T09:51:57Z</time>
      </trkpt>
      <trkpt lat="45.96492" lon="4.63182">
        <ele>321.2177734375</ele>
        <time>2010-06-13T09:52:05Z</time>
      </trkpt>
      <trkpt lat="45.96492" lon="4.63202">
        <ele>321.2177734375</ele>
        <time>2010-06-13T09:52:08Z</time>
      </trkpt>
      <trkpt lat="45.96484" lon="4.63232">
        <ele>321.2177734375</ele>
        <time>2010-06-13T09:52:13Z</time>
      </trkpt>
      <trkpt lat="45.96471" lon="4.63283">
        <ele>323.14038085938</ele>
        <time>2010-06-13T09:52:21Z</time>
      </trkpt>
      <trkpt lat="45.96459" lon="4.63334">
        <ele>322.65966796875</ele>
        <time>2010-06-13T09:52:30Z</time>
      </trkpt>
      <trkpt lat="45.96454" lon="4.63337">
        <ele>321.69836425781</ele>
        <time>2010-06-13T09:52:34Z</time>
      </trkpt>
      <trkpt lat="45.96454" lon="4.63325">
        <ele>321.2177734375</ele>
        <time>2010-06-13T09:52:38Z</time>
      </trkpt>
      <trkpt lat="45.96448" lon="4.63326">
        <ele>320.25634765625</ele>
        <time>2010-06-13T09:52:41Z</time>
      </trkpt>
      <trkpt lat="45.96446" lon="4.63331">
        <ele>319.77563476562</ele>
        <time>2010-06-13T09:52:42Z</time>
      </trkpt>
      <trkpt lat="45.96431" lon="4.63372">
        <ele>319.29504394531</ele>
        <time>2010-06-13T09:52:49Z</time>
      </trkpt>
      <trkpt lat="45.9642" lon="4.63412">
        <ele>318.33361816406</ele>
        <time>2010-06-13T09:52:54Z</time>
      </trkpt>
      <trkpt lat="45.9641" lon="4.63451">
        <ele>317.37243652344</ele>
        <time>2010-06-13T09:52:59Z</time>
      </trkpt>
      <trkpt lat="45.96407" lon="4.63467">
        <ele>317.37243652344</ele>
        <time>2010-06-13T09:53:01Z</time>
      </trkpt>
      <trkpt lat="45.96398" lon="4.6351">
        <ele>315.93041992188</ele>
        <time>2010-06-13T09:53:06Z</time>
      </trkpt>
      <trkpt lat="45.96388" lon="4.63558">
        <ele>315.44982910156</ele>
        <time>2010-06-13T09:53:12Z</time>
      </trkpt>
      <trkpt lat="45.96383" lon="4.63578">
        <ele>314.0078125</ele>
        <time>2010-06-13T09:53:16Z</time>
      </trkpt>
      <trkpt lat="45.96383" lon="4.63579">
        <ele>313.52722167969</ele>
        <time>2010-06-13T09:53:17Z</time>
      </trkpt>
      <trkpt lat="45.96385" lon="4.63581">
        <ele>315.44982910156</ele>
        <time>2010-06-13T09:53:21Z</time>
      </trkpt>
      <trkpt lat="45.96394" lon="4.63577">
        <ele>316.89172363281</ele>
        <time>2010-06-13T09:53:27Z</time>
      </trkpt>
      <trkpt lat="45.96407" lon="4.63572">
        <ele>319.29504394531</ele>
        <time>2010-06-13T09:53:36Z</time>
      </trkpt>
      <trkpt lat="45.96421" lon="4.63567">
        <ele>321.69836425781</ele>
        <time>2010-06-13T09:53:45Z</time>
      </trkpt>
      <trkpt lat="45.96434" lon="4.63563">
        <ele>322.65966796875</ele>
        <time>2010-06-13T09:53:53Z</time>
      </trkpt>
      <trkpt lat="45.96445" lon="4.63559">
        <ele>324.1015625</ele>
        <time>2010-06-13T09:53:59Z</time>
      </trkpt>
      <trkpt lat="45.96457" lon="4.63562">
        <ele>325.54357910156</ele>
        <time>2010-06-13T09:54:06Z</time>
      </trkpt>
      <trkpt lat="45.96475" lon="4.63566">
        <ele>327.94677734375</ele>
        <time>2010-06-13T09:54:16Z</time>
      </trkpt>
      <trkpt lat="45.96482" lon="4.63569">
        <ele>327.46618652344</ele>
        <time>2010-06-13T09:54:21Z</time>
      </trkpt>
      <trkpt lat="45.96487" lon="4.63577">
        <ele>327.94677734375</ele>
        <time>2010-06-13T09:54:28Z</time>
      </trkpt>
      <trkpt lat="45.96491" lon="4.63581">
        <ele>327.94677734375</ele>
        <time>2010-06-13T09:54:33Z</time>
      </trkpt>
      <trkpt lat="45.96495" lon="4.63591">
        <ele>327.94677734375</ele>
        <time>2010-06-13T09:54:40Z</time>
      </trkpt>
      <trkpt lat="45.96503" lon="4.63606">
        <ele>328.42761230469</ele>
        <time>2010-06-13T09:54:45Z</time>
      </trkpt>
      <trkpt lat="45.96516" lon="4.6363">
        <ele>328.42761230469</ele>
        <time>2010-06-13T09:54:51Z</time>
      </trkpt>
      <trkpt lat="45.96519" lon="4.63671">
        <ele>326.02416992188</ele>
        <time>2010-06-13T09:54:57Z</time>
      </trkpt>
      <trkpt lat="45.96519" lon="4.63679">
        <ele>326.02416992188</ele>
        <time>2010-06-13T09:54:58Z</time>
      </trkpt>
      <trkpt lat="45.96521" lon="4.63741">
        <ele>325.06298828125</ele>
        <time>2010-06-13T09:55:05Z</time>
      </trkpt>
      <trkpt lat="45.96511" lon="4.63775">
        <ele>323.14038085938</ele>
        <time>2010-06-13T09:55:09Z</time>
      </trkpt>
      <trkpt lat="45.96499" lon="4.63797">
        <ele>321.69836425781</ele>
        <time>2010-06-13T09:55:12Z</time>
      </trkpt>
      <trkpt lat="45.96478" lon="4.63845">
        <ele>322.65966796875</ele>
        <time>2010-06-13T09:55:18Z</time>
      </trkpt>
      <trkpt lat="45.96466" lon="4.63868">
        <ele>320.25634765625</ele>
        <time>2010-06-13T09:55:21Z</time>
      </trkpt>
      <trkpt lat="45.96447" lon="4.63913">
        <ele>319.29504394531</ele>
        <time>2010-06-13T09:55:26Z</time>
      </trkpt>
      <trkpt lat="45.96441" lon="4.63932">
        <ele>319.29504394531</ele>
        <time>2010-06-13T09:55:28Z</time>
      </trkpt>
      <trkpt lat="45.96427" lon="4.64001">
        <ele>316.41101074219</ele>
        <time>2010-06-13T09:55:35Z</time>
      </trkpt>
      <trkpt lat="45.96409" lon="4.64045">
        <ele>316.41101074219</ele>
        <time>2010-06-13T09:55:40Z</time>
      </trkpt>
      <trkpt lat="45.96395" lon="4.64084">
        <ele>315.44982910156</ele>
        <time>2010-06-13T09:55:44Z</time>
      </trkpt>
      <trkpt lat="45.9639" lon="4.64129">
        <ele>314.96911621094</ele>
        <time>2010-06-13T09:55:48Z</time>
      </trkpt>
      <trkpt lat="45.96395" lon="4.64194">
        <ele>310.16247558594</ele>
        <time>2010-06-13T09:55:54Z</time>
      </trkpt>
      <trkpt lat="45.96397" lon="4.64205">
        <ele>310.16247558594</ele>
        <time>2010-06-13T09:55:55Z</time>
      </trkpt>
      <trkpt lat="45.96399" lon="4.64216">
        <ele>310.64306640625</ele>
        <time>2010-06-13T09:55:56Z</time>
      </trkpt>
      <trkpt lat="45.96421" lon="4.64283">
        <ele>308.72045898438</ele>
        <time>2010-06-13T09:56:02Z</time>
      </trkpt>
      <trkpt lat="45.9644" lon="4.64349">
        <ele>308.72045898438</ele>
        <time>2010-06-13T09:56:08Z</time>
      </trkpt>
      <trkpt lat="45.9644" lon="4.64394">
        <ele>306.31726074219</ele>
        <time>2010-06-13T09:56:12Z</time>
      </trkpt>
      <trkpt lat="45.96438" lon="4.64404">
        <ele>307.27856445312</ele>
        <time>2010-06-13T09:56:13Z</time>
      </trkpt>
      <trkpt lat="45.96433" lon="4.64424">
        <ele>306.31726074219</ele>
        <time>2010-06-13T09:56:15Z</time>
      </trkpt>
      <trkpt lat="45.96428" lon="4.64465">
        <ele>305.83666992188</ele>
        <time>2010-06-13T09:56:19Z</time>
      </trkpt>
      <trkpt lat="45.96424" lon="4.6454">
        <ele>305.35595703125</ele>
        <time>2010-06-13T09:56:27Z</time>
      </trkpt>
      <trkpt lat="45.96423" lon="4.64549">
        <ele>304.87524414062</ele>
        <time>2010-06-13T09:56:28Z</time>
      </trkpt>
      <trkpt lat="45.96407" lon="4.64613">
        <ele>303.43322753906</ele>
        <time>2010-06-13T09:56:35Z</time>
      </trkpt>
      <trkpt lat="45.96404" lon="4.64684">
        <ele>301.51062011719</ele>
        <time>2010-06-13T09:56:42Z</time>
      </trkpt>
      <trkpt lat="45.96412" lon="4.64721">
        <ele>302.95251464844</ele>
        <time>2010-06-13T09:56:46Z</time>
      </trkpt>
      <trkpt lat="45.96427" lon="4.64755">
        <ele>301.51062011719</ele>
        <time>2010-06-13T09:56:50Z</time>
      </trkpt>
      <trkpt lat="45.9643" lon="4.64763">
        <ele>301.51062011719</ele>
        <time>2010-06-13T09:56:51Z</time>
      </trkpt>
      <trkpt lat="45.96442" lon="4.64773">
        <ele>300.54931640625</ele>
        <time>2010-06-13T09:56:55Z</time>
      </trkpt>
      <trkpt lat="45.96463" lon="4.64771">
        <ele>300.06872558594</ele>
        <time>2010-06-13T09:57:00Z</time>
      </trkpt>
      <trkpt lat="45.96494" lon="4.6477">
        <ele>300.54931640625</ele>
        <time>2010-06-13T09:57:06Z</time>
      </trkpt>
      <trkpt lat="45.96538" lon="4.6477">
        <ele>301.02990722656</ele>
        <time>2010-06-13T09:57:14Z</time>
      </trkpt>
      <trkpt lat="45.96576" lon="4.64768">
        <ele>299.58801269531</ele>
        <time>2010-06-13T09:57:21Z</time>
      </trkpt>
      <trkpt lat="45.96621" lon="4.64759">
        <ele>298.14611816406</ele>
        <time>2010-06-13T09:57:29Z</time>
      </trkpt>
      <trkpt lat="45.96657" lon="4.64759">
        <ele>294.78137207031</ele>
        <time>2010-06-13T09:57:35Z</time>
      </trkpt>
      <trkpt lat="45.9669" lon="4.64769">
        <ele>294.30078125</ele>
        <time>2010-06-13T09:57:40Z</time>
      </trkpt>
      <trkpt lat="45.96716" lon="4.64775">
        <ele>291.41674804688</ele>
        <time>2010-06-13T09:57:44Z</time>
      </trkpt>
      <trkpt lat="45.96731" lon="4.64778">
        <ele>288.53295898438</ele>
        <time>2010-06-13T09:57:46Z</time>
      </trkpt>
      <trkpt lat="45.96753" lon="4.64786">
        <ele>285.16821289062</ele>
        <time>2010-06-13T09:57:49Z</time>
      </trkpt>
      <trkpt lat="45.96769" lon="4.64788">
        <ele>280.84240722656</ele>
        <time>2010-06-13T09:57:51Z</time>
      </trkpt>
      <trkpt lat="45.96777" lon="4.64787">
        <ele>282.28430175781</ele>
        <time>2010-06-13T09:57:52Z</time>
      </trkpt>
      <trkpt lat="45.96791" lon="4.64786">
        <ele>278.91967773438</ele>
        <time>2010-06-13T09:57:54Z</time>
      </trkpt>
      <trkpt lat="45.96805" lon="4.64785">
        <ele>276.51635742188</ele>
        <time>2010-06-13T09:57:56Z</time>
      </trkpt>
      <trkpt lat="45.96826" lon="4.64776">
        <ele>270.74841308594</ele>
        <time>2010-06-13T09:58:00Z</time>
      </trkpt>
      <trkpt lat="45.96832" lon="4.64773">
        <ele>271.70971679688</ele>
        <time>2010-06-13T09:58:01Z</time>
      </trkpt>
      <trkpt lat="45.96836" lon="4.64771">
        <ele>270.26770019531</ele>
        <time>2010-06-13T09:58:02Z</time>
      </trkpt>
      <trkpt lat="45.96845" lon="4.64766">
        <ele>269.787109375</ele>
        <time>2010-06-13T09:58:06Z</time>
      </trkpt>
      <trkpt lat="45.96845" lon="4.64768">
        <ele>269.787109375</ele>
        <time>2010-06-13T09:58:16Z</time>
      </trkpt>
      <trkpt lat="45.96842" lon="4.64767">
        <ele>269.787109375</ele>
        <time>2010-06-13T09:58:24Z</time>
      </trkpt>
      <trkpt lat="45.96842" lon="4.64767">
        <ele>269.787109375</ele>
        <time>2010-06-13T09:58:32Z</time>
      </trkpt>
      <trkpt lat="45.96841" lon="4.64769">
        <ele>269.787109375</ele>
        <time>2010-06-13T09:58:49Z</time>
      </trkpt>
      <trkpt lat="45.96839" lon="4.64769">
        <ele>269.787109375</ele>
        <time>2010-06-13T09:59:08Z</time>
      </trkpt>
      <trkpt lat="45.96836" lon="4.64768">
        <ele>269.787109375</ele>
        <time>2010-06-13T09:59:26Z</time>
      </trkpt>
      <trkpt lat="45.96837" lon="4.64769">
        <ele>269.787109375</ele>
        <time>2010-06-13T09:59:33Z</time>
      </trkpt>
      <trkpt lat="45.96842" lon="4.64766">
        <ele>269.787109375</ele>
        <time>2010-06-13T09:59:38Z</time>
      </trkpt>
      <trkpt lat="45.96844" lon="4.64765">
        <ele>268.82580566406</ele>
        <time>2010-06-13T09:59:43Z</time>
      </trkpt>
      <trkpt lat="45.96841" lon="4.64765">
        <ele>269.787109375</ele>
        <time>2010-06-13T09:59:49Z</time>
      </trkpt>
      <trkpt lat="45.96838" lon="4.64766">
        <ele>270.26770019531</ele>
        <time>2010-06-13T09:59:51Z</time>
      </trkpt>
      <trkpt lat="45.96837" lon="4.64769">
        <ele>270.26770019531</ele>
        <time>2010-06-13T09:59:57Z</time>
      </trkpt>
      <trkpt lat="45.96838" lon="4.64769">
        <ele>270.26770019531</ele>
        <time>2010-06-13T10:00:01Z</time>
      </trkpt>
      <trkpt lat="45.96845" lon="4.64765">
        <ele>269.30651855469</ele>
        <time>2010-06-13T10:00:06Z</time>
      </trkpt>
      <trkpt lat="45.96849" lon="4.64761">
        <ele>268.82580566406</ele>
        <time>2010-06-13T10:00:11Z</time>
      </trkpt>
      <trkpt lat="45.96853" lon="4.64756">
        <ele>268.34509277344</ele>
        <time>2010-06-13T10:00:18Z</time>
      </trkpt>
      <trkpt lat="45.96854" lon="4.64755">
        <ele>268.82580566406</ele>
        <time>2010-06-13T10:00:26Z</time>
      </trkpt>
      <trkpt lat="45.96858" lon="4.64753">
        <ele>269.30651855469</ele>
        <time>2010-06-13T10:00:33Z</time>
      </trkpt>
      <trkpt lat="45.96869" lon="4.64752">
        <ele>269.787109375</ele>
        <time>2010-06-13T10:00:39Z</time>
      </trkpt>
      <trkpt lat="45.96883" lon="4.64749">
        <ele>270.74841308594</ele>
        <time>2010-06-13T10:00:47Z</time>
      </trkpt>
      <trkpt lat="45.96904" lon="4.64743">
        <ele>273.15185546875</ele>
        <time>2010-06-13T10:00:58Z</time>
      </trkpt>
      <trkpt lat="45.9692" lon="4.64736">
        <ele>275.07446289062</ele>
        <time>2010-06-13T10:01:07Z</time>
      </trkpt>
      <trkpt lat="45.96933" lon="4.6473">
        <ele>276.51635742188</ele>
        <time>2010-06-13T10:01:15Z</time>
      </trkpt>
      <trkpt lat="45.96951" lon="4.64721">
        <ele>278.43896484375</ele>
        <time>2010-06-13T10:01:25Z</time>
      </trkpt>
      <trkpt lat="45.96968" lon="4.64711">
        <ele>279.40026855469</ele>
        <time>2010-06-13T10:01:35Z</time>
      </trkpt>
      <trkpt lat="45.96984" lon="4.64701">
        <ele>280.84240722656</ele>
        <time>2010-06-13T10:01:45Z</time>
      </trkpt>
      <trkpt lat="45.97005" lon="4.64687">
        <ele>283.24560546875</ele>
        <time>2010-06-13T10:01:57Z</time>
      </trkpt>
      <trkpt lat="45.97018" lon="4.64679">
        <ele>284.68762207031</ele>
        <time>2010-06-13T10:02:05Z</time>
      </trkpt>
      <trkpt lat="45.9703" lon="4.6467">
        <ele>286.61022949219</ele>
        <time>2010-06-13T10:02:13Z</time>
      </trkpt>
      <trkpt lat="45.97031" lon="4.6467">
        <ele>286.61022949219</ele>
        <time>2010-06-13T10:02:14Z</time>
      </trkpt>
      <trkpt lat="45.97031" lon="4.64679">
        <ele>286.12951660156</ele>
        <time>2010-06-13T10:02:19Z</time>
      </trkpt>
      <trkpt lat="45.9703" lon="4.64695">
        <ele>287.57141113281</ele>
        <time>2010-06-13T10:02:24Z</time>
      </trkpt>
      <trkpt lat="45.97031" lon="4.64699">
        <ele>287.57141113281</ele>
        <time>2010-06-13T10:02:25Z</time>
      </trkpt>
      <trkpt lat="45.97032" lon="4.64739">
        <ele>287.57141113281</ele>
        <time>2010-06-13T10:02:34Z</time>
      </trkpt>
      <trkpt lat="45.97033" lon="4.64784">
        <ele>286.61022949219</ele>
        <time>2010-06-13T10:02:42Z</time>
      </trkpt>
      <trkpt lat="45.97035" lon="4.64831">
        <ele>286.12951660156</ele>
        <time>2010-06-13T10:02:48Z</time>
      </trkpt>
      <trkpt lat="45.97038" lon="4.6485">
        <ele>285.16821289062</ele>
        <time>2010-06-13T10:02:50Z</time>
      </trkpt>
      <trkpt lat="45.97048" lon="4.64904">
        <ele>280.84240722656</ele>
        <time>2010-06-13T10:02:55Z</time>
      </trkpt>
      <trkpt lat="45.97051" lon="4.64915">
        <ele>281.80358886719</ele>
        <time>2010-06-13T10:02:56Z</time>
      </trkpt>
      <trkpt lat="45.9706" lon="4.64946">
        <ele>280.36169433594</ele>
        <time>2010-06-13T10:02:59Z</time>
      </trkpt>
      <trkpt lat="45.97068" lon="4.64965">
        <ele>277.47766113281</ele>
        <time>2010-06-13T10:03:01Z</time>
      </trkpt>
      <trkpt lat="45.97085" lon="4.65013">
        <ele>277.47766113281</ele>
        <time>2010-06-13T10:03:06Z</time>
      </trkpt>
      <trkpt lat="45.97095" lon="4.65051">
        <ele>277.47766113281</ele>
        <time>2010-06-13T10:03:11Z</time>
      </trkpt>
      <trkpt lat="45.9711" lon="4.65094">
        <ele>281.32299804688</ele>
        <time>2010-06-13T10:03:19Z</time>
      </trkpt>
      <trkpt lat="45.97119" lon="4.6512">
        <ele>281.80358886719</ele>
        <time>2010-06-13T10:03:24Z</time>
      </trkpt>
      <trkpt lat="45.97131" lon="4.65133">
        <ele>282.28430175781</ele>
        <time>2010-06-13T10:03:28Z</time>
      </trkpt>
      <trkpt lat="45.97137" lon="4.65132">
        <ele>282.76501464844</ele>
        <time>2010-06-13T10:03:30Z</time>
      </trkpt>
      <trkpt lat="45.97148" lon="4.65128">
        <ele>284.20690917969</ele>
        <time>2010-06-13T10:03:33Z</time>
      </trkpt>
      <trkpt lat="45.97151" lon="4.65126">
        <ele>284.68762207031</ele>
        <time>2010-06-13T10:03:34Z</time>
      </trkpt>
      <trkpt lat="45.97159" lon="4.65136">
        <ele>284.68762207031</ele>
        <time>2010-06-13T10:03:38Z</time>
      </trkpt>
      <trkpt lat="45.97152" lon="4.65148">
        <ele>283.24560546875</ele>
        <time>2010-06-13T10:03:41Z</time>
      </trkpt>
      <trkpt lat="45.97145" lon="4.6516">
        <ele>282.28430175781</ele>
        <time>2010-06-13T10:03:43Z</time>
      </trkpt>
      <trkpt lat="45.97114" lon="4.65192">
        <ele>280.36169433594</ele>
        <time>2010-06-13T10:03:49Z</time>
      </trkpt>
      <trkpt lat="45.97104" lon="4.65206">
        <ele>279.40026855469</ele>
        <time>2010-06-13T10:03:51Z</time>
      </trkpt>
      <trkpt lat="45.97087" lon="4.65236">
        <ele>276.03564453125</ele>
        <time>2010-06-13T10:03:55Z</time>
      </trkpt>
      <trkpt lat="45.97084" lon="4.6527">
        <ele>275.07446289062</ele>
        <time>2010-06-13T10:03:59Z</time>
      </trkpt>
      <trkpt lat="45.97086" lon="4.65279">
        <ele>274.11303710938</ele>
        <time>2010-06-13T10:04:00Z</time>
      </trkpt>
      <trkpt lat="45.97094" lon="4.65321">
        <ele>270.26770019531</ele>
        <time>2010-06-13T10:04:04Z</time>
      </trkpt>
      <trkpt lat="45.97097" lon="4.65334">
        <ele>270.74841308594</ele>
        <time>2010-06-13T10:04:05Z</time>
      </trkpt>
      <trkpt lat="45.971" lon="4.65346">
        <ele>269.787109375</ele>
        <time>2010-06-13T10:04:06Z</time>
      </trkpt>
      <trkpt lat="45.97107" lon="4.65383">
        <ele>267.86450195312</ele>
        <time>2010-06-13T10:04:09Z</time>
      </trkpt>
      <trkpt lat="45.97111" lon="4.65439">
        <ele>267.38391113281</ele>
        <time>2010-06-13T10:04:14Z</time>
      </trkpt>
      <trkpt lat="45.97116" lon="4.65498">
        <ele>267.86450195312</ele>
        <time>2010-06-13T10:04:20Z</time>
      </trkpt>
      <trkpt lat="45.97116" lon="4.65506">
        <ele>268.34509277344</ele>
        <time>2010-06-13T10:04:21Z</time>
      </trkpt>
      <trkpt lat="45.97122" lon="4.6555">
        <ele>270.26770019531</ele>
        <time>2010-06-13T10:04:28Z</time>
      </trkpt>
      <trkpt lat="45.97127" lon="4.65593">
        <ele>271.22912597656</ele>
        <time>2010-06-13T10:04:37Z</time>
      </trkpt>
      <trkpt lat="45.97131" lon="4.65628">
        <ele>272.67114257812</ele>
        <time>2010-06-13T10:04:45Z</time>
      </trkpt>
      <trkpt lat="45.97134" lon="4.65663">
        <ele>273.63244628906</ele>
        <time>2010-06-13T10:04:53Z</time>
      </trkpt>
      <trkpt lat="45.97133" lon="4.65687">
        <ele>273.15185546875</ele>
        <time>2010-06-13T10:04:58Z</time>
      </trkpt>
      <trkpt lat="45.97137" lon="4.65708">
        <ele>274.59375</ele>
        <time>2010-06-13T10:05:03Z</time>
      </trkpt>
      <trkpt lat="45.97145" lon="4.65736">
        <ele>275.07446289062</ele>
        <time>2010-06-13T10:05:09Z</time>
      </trkpt>
      <trkpt lat="45.97158" lon="4.65766">
        <ele>274.59375</ele>
        <time>2010-06-13T10:05:16Z</time>
      </trkpt>
      <trkpt lat="45.97165" lon="4.65784">
        <ele>275.07446289062</ele>
        <time>2010-06-13T10:05:19Z</time>
      </trkpt>
      <trkpt lat="45.97169" lon="4.65806">
        <ele>274.59375</ele>
        <time>2010-06-13T10:05:22Z</time>
      </trkpt>
      <trkpt lat="45.97185" lon="4.6583">
        <ele>273.63244628906</ele>
        <time>2010-06-13T10:05:26Z</time>
      </trkpt>
      <trkpt lat="45.97208" lon="4.65839">
        <ele>273.15185546875</ele>
        <time>2010-06-13T10:05:30Z</time>
      </trkpt>
      <trkpt lat="45.97231" lon="4.65854">
        <ele>273.15185546875</ele>
        <time>2010-06-13T10:05:34Z</time>
      </trkpt>
      <trkpt lat="45.97276" lon="4.65891">
        <ele>270.74841308594</ele>
        <time>2010-06-13T10:05:41Z</time>
      </trkpt>
      <trkpt lat="45.97307" lon="4.65917">
        <ele>268.82580566406</ele>
        <time>2010-06-13T10:05:46Z</time>
      </trkpt>
      <trkpt lat="45.97314" lon="4.65922">
        <ele>268.34509277344</ele>
        <time>2010-06-13T10:05:47Z</time>
      </trkpt>
      <trkpt lat="45.97332" lon="4.65914">
        <ele>266.42248535156</ele>
        <time>2010-06-13T10:05:50Z</time>
      </trkpt>
      <trkpt lat="45.97337" lon="4.65897">
        <ele>266.90319824219</ele>
        <time>2010-06-13T10:05:52Z</time>
      </trkpt>
      <trkpt lat="45.97351" lon="4.65854">
        <ele>267.86450195312</ele>
        <time>2010-06-13T10:05:58Z</time>
      </trkpt>
      <trkpt lat="45.97367" lon="4.65809">
        <ele>269.30651855469</ele>
        <time>2010-06-13T10:06:05Z</time>
      </trkpt>
      <trkpt lat="45.97371" lon="4.65797">
        <ele>269.787109375</ele>
        <time>2010-06-13T10:06:07Z</time>
      </trkpt>
      <trkpt lat="45.97374" lon="4.65784">
        <ele>269.787109375</ele>
        <time>2010-06-13T10:06:09Z</time>
      </trkpt>
      <trkpt lat="45.97387" lon="4.65775">
        <ele>270.26770019531</ele>
        <time>2010-06-13T10:06:13Z</time>
      </trkpt>
      <trkpt lat="45.97395" lon="4.6578">
        <ele>270.74841308594</ele>
        <time>2010-06-13T10:06:15Z</time>
      </trkpt>
      <trkpt lat="45.97413" lon="4.65794">
        <ele>270.74841308594</ele>
        <time>2010-06-13T10:06:20Z</time>
      </trkpt>
      <trkpt lat="45.97415" lon="4.65795">
        <ele>270.74841308594</ele>
        <time>2010-06-13T10:06:21Z</time>
      </trkpt>
      <trkpt lat="45.97425" lon="4.65799">
        <ele>271.70971679688</ele>
        <time>2010-06-13T10:06:27Z</time>
      </trkpt>
      <trkpt lat="45.97437" lon="4.65806">
        <ele>273.15185546875</ele>
        <time>2010-06-13T10:06:34Z</time>
      </trkpt>
      <trkpt lat="45.97464" lon="4.65819">
        <ele>276.9970703125</ele>
        <time>2010-06-13T10:06:44Z</time>
      </trkpt>
      <trkpt lat="45.97466" lon="4.6582">
        <ele>277.47766113281</ele>
        <time>2010-06-13T10:06:45Z</time>
      </trkpt>
      <trkpt lat="45.97484" lon="4.65829">
        <ele>278.91967773438</ele>
        <time>2010-06-13T10:06:53Z</time>
      </trkpt>
      <trkpt lat="45.97498" lon="4.65835">
        <ele>280.36169433594</ele>
        <time>2010-06-13T10:06:59Z</time>
      </trkpt>
      <trkpt lat="45.97516" lon="4.65845">
        <ele>282.76501464844</ele>
        <time>2010-06-13T10:07:06Z</time>
      </trkpt>
      <trkpt lat="45.97535" lon="4.65854">
        <ele>283.24560546875</ele>
        <time>2010-06-13T10:07:13Z</time>
      </trkpt>
      <trkpt lat="45.97556" lon="4.65861">
        <ele>284.20690917969</ele>
        <time>2010-06-13T10:07:20Z</time>
      </trkpt>
      <trkpt lat="45.9758" lon="4.6587">
        <ele>285.16821289062</ele>
        <time>2010-06-13T10:07:27Z</time>
      </trkpt>
      <trkpt lat="45.97612" lon="4.65884">
        <ele>285.16821289062</ele>
        <time>2010-06-13T10:07:35Z</time>
      </trkpt>
      <trkpt lat="45.9764" lon="4.65896">
        <ele>285.64880371094</ele>
        <time>2010-06-13T10:07:41Z</time>
      </trkpt>
      <trkpt lat="45.97651" lon="4.65916">
        <ele>284.68762207031</ele>
        <time>2010-06-13T10:07:45Z</time>
      </trkpt>
      <trkpt lat="45.97648" lon="4.6595">
        <ele>286.12951660156</ele>
        <time>2010-06-13T10:07:49Z</time>
      </trkpt>
      <trkpt lat="45.97652" lon="4.66016">
        <ele>285.16821289062</ele>
        <time>2010-06-13T10:07:56Z</time>
      </trkpt>
      <trkpt lat="45.97651" lon="4.66034">
        <ele>284.20690917969</ele>
        <time>2010-06-13T10:07:58Z</time>
      </trkpt>
      <trkpt lat="45.97658" lon="4.66047">
        <ele>284.20690917969</ele>
        <time>2010-06-13T10:08:01Z</time>
      </trkpt>
      <trkpt lat="45.97663" lon="4.66046">
        <ele>284.20690917969</ele>
        <time>2010-06-13T10:08:02Z</time>
      </trkpt>
      <trkpt lat="45.97703" lon="4.66028">
        <ele>283.72619628906</ele>
        <time>2010-06-13T10:08:09Z</time>
      </trkpt>
      <trkpt lat="45.97741" lon="4.66008">
        <ele>283.72619628906</ele>
        <time>2010-06-13T10:08:15Z</time>
      </trkpt>
      <trkpt lat="45.97756" lon="4.66003">
        <ele>282.76501464844</ele>
        <time>2010-06-13T10:08:17Z</time>
      </trkpt>
      <trkpt lat="45.97786" lon="4.65995">
        <ele>282.76501464844</ele>
        <time>2010-06-13T10:08:21Z</time>
      </trkpt>
      <trkpt lat="45.9782" lon="4.66004">
        <ele>280.84240722656</ele>
        <time>2010-06-13T10:08:25Z</time>
      </trkpt>
      <trkpt lat="45.97846" lon="4.66025">
        <ele>282.28430175781</ele>
        <time>2010-06-13T10:08:28Z</time>
      </trkpt>
      <trkpt lat="45.9787" lon="4.6605">
        <ele>279.880859375</ele>
        <time>2010-06-13T10:08:32Z</time>
      </trkpt>
      <trkpt lat="45.97867" lon="4.66054">
        <ele>278.91967773438</ele>
        <time>2010-06-13T10:08:35Z</time>
      </trkpt>
      <trkpt lat="45.97859" lon="4.66074">
        <ele>277.47766113281</ele>
        <time>2010-06-13T10:08:41Z</time>
      </trkpt>
      <trkpt lat="45.97854" lon="4.66093">
        <ele>277.47766113281</ele>
        <time>2010-06-13T10:08:45Z</time>
      </trkpt>
      <trkpt lat="45.97858" lon="4.66122">
        <ele>277.47766113281</ele>
        <time>2010-06-13T10:08:50Z</time>
      </trkpt>
      <trkpt lat="45.97856" lon="4.6618">
        <ele>275.07446289062</ele>
        <time>2010-06-13T10:08:56Z</time>
      </trkpt>
      <trkpt lat="45.97856" lon="4.6619">
        <ele>275.07446289062</ele>
        <time>2010-06-13T10:08:57Z</time>
      </trkpt>
      <trkpt lat="45.97856" lon="4.66208">
        <ele>274.11303710938</ele>
        <time>2010-06-13T10:08:59Z</time>
      </trkpt>
      <trkpt lat="45.97865" lon="4.66236">
        <ele>276.03564453125</ele>
        <time>2010-06-13T10:09:03Z</time>
      </trkpt>
      <trkpt lat="45.97875" lon="4.66239">
        <ele>276.9970703125</ele>
        <time>2010-06-13T10:09:05Z</time>
      </trkpt>
      <trkpt lat="45.97886" lon="4.6624">
        <ele>277.95825195312</ele>
        <time>2010-06-13T10:09:07Z</time>
      </trkpt>
      <trkpt lat="45.97897" lon="4.66242">
        <ele>277.47766113281</ele>
        <time>2010-06-13T10:09:09Z</time>
      </trkpt>
      <trkpt lat="45.97905" lon="4.6626">
        <ele>277.95825195312</ele>
        <time>2010-06-13T10:09:12Z</time>
      </trkpt>
      <trkpt lat="45.97903" lon="4.66276">
        <ele>277.47766113281</ele>
        <time>2010-06-13T10:09:14Z</time>
      </trkpt>
      <trkpt lat="45.97899" lon="4.6636">
        <ele>276.51635742188</ele>
        <time>2010-06-13T10:09:23Z</time>
      </trkpt>
      <trkpt lat="45.97897" lon="4.66407">
        <ele>275.07446289062</ele>
        <time>2010-06-13T10:09:28Z</time>
      </trkpt>
      <trkpt lat="45.97893" lon="4.66476">
        <ele>274.59375</ele>
        <time>2010-06-13T10:09:36Z</time>
      </trkpt>
      <trkpt lat="45.9789" lon="4.66533">
        <ele>275.07446289062</ele>
        <time>2010-06-13T10:09:43Z</time>
      </trkpt>
      <trkpt lat="45.9789" lon="4.66555">
        <ele>275.07446289062</ele>
        <time>2010-06-13T10:09:46Z</time>
      </trkpt>
      <trkpt lat="45.97884" lon="4.66577">
        <ele>274.11303710938</ele>
        <time>2010-06-13T10:09:50Z</time>
      </trkpt>
      <trkpt lat="45.97875" lon="4.66576">
        <ele>274.11303710938</ele>
        <time>2010-06-13T10:09:52Z</time>
      </trkpt>
      <trkpt lat="45.97861" lon="4.66575">
        <ele>272.67114257812</ele>
        <time>2010-06-13T10:09:55Z</time>
      </trkpt>
      <trkpt lat="45.97857" lon="4.6659">
        <ele>272.1904296875</ele>
        <time>2010-06-13T10:09:58Z</time>
      </trkpt>
      <trkpt lat="45.97859" lon="4.66603">
        <ele>273.63244628906</ele>
        <time>2010-06-13T10:10:00Z</time>
      </trkpt>
      <trkpt lat="45.97859" lon="4.66658">
        <ele>273.63244628906</ele>
        <time>2010-06-13T10:10:07Z</time>
      </trkpt>
      <trkpt lat="45.97853" lon="4.66721">
        <ele>271.70971679688</ele>
        <time>2010-06-13T10:10:15Z</time>
      </trkpt>
      <trkpt lat="45.97851" lon="4.66777">
        <ele>270.26770019531</ele>
        <time>2010-06-13T10:10:22Z</time>
      </trkpt>
      <trkpt lat="45.97852" lon="4.66807">
        <ele>270.26770019531</ele>
        <time>2010-06-13T10:10:26Z</time>
      </trkpt>
      <trkpt lat="45.97845" lon="4.66871">
        <ele>269.30651855469</ele>
        <time>2010-06-13T10:10:35Z</time>
      </trkpt>
      <trkpt lat="45.97842" lon="4.66918">
        <ele>268.82580566406</ele>
        <time>2010-06-13T10:10:41Z</time>
      </trkpt>
      <trkpt lat="45.97837" lon="4.66976">
        <ele>266.42248535156</ele>
        <time>2010-06-13T10:10:48Z</time>
      </trkpt>
      <trkpt lat="45.97833" lon="4.67015">
        <ele>264.98059082031</ele>
        <time>2010-06-13T10:10:53Z</time>
      </trkpt>
      <trkpt lat="45.9783" lon="4.67042">
        <ele>264.01928710938</ele>
        <time>2010-06-13T10:10:56Z</time>
      </trkpt>
      <trkpt lat="45.97825" lon="4.67075">
        <ele>262.5771484375</ele>
        <time>2010-06-13T10:11:00Z</time>
      </trkpt>
      <trkpt lat="45.97822" lon="4.6711">
        <ele>261.61596679688</ele>
        <time>2010-06-13T10:11:04Z</time>
      </trkpt>
      <trkpt lat="45.97825" lon="4.67124">
        <ele>260.65454101562</ele>
        <time>2010-06-13T10:11:06Z</time>
      </trkpt>
      <trkpt lat="45.97833" lon="4.67129">
        <ele>261.13525390625</ele>
        <time>2010-06-13T10:11:08Z</time>
      </trkpt>
      <trkpt lat="45.97851" lon="4.67131">
        <ele>262.5771484375</ele>
        <time>2010-06-13T10:11:13Z</time>
      </trkpt>
      <trkpt lat="45.9785" lon="4.67141">
        <ele>262.09655761719</ele>
        <time>2010-06-13T10:11:15Z</time>
      </trkpt>
      <trkpt lat="45.97846" lon="4.67155">
        <ele>261.13525390625</ele>
        <time>2010-06-13T10:11:17Z</time>
      </trkpt>
      <trkpt lat="45.97836" lon="4.67189">
        <ele>260.17395019531</ele>
        <time>2010-06-13T10:11:21Z</time>
      </trkpt>
      <trkpt lat="45.97832" lon="4.67207">
        <ele>259.21264648438</ele>
        <time>2010-06-13T10:11:23Z</time>
      </trkpt>
      <trkpt lat="45.97828" lon="4.67224">
        <ele>258.25134277344</ele>
        <time>2010-06-13T10:11:25Z</time>
      </trkpt>
      <trkpt lat="45.97827" lon="4.67252">
        <ele>256.80932617188</ele>
        <time>2010-06-13T10:11:28Z</time>
      </trkpt>
      <trkpt lat="45.97832" lon="4.6728">
        <ele>255.36730957031</ele>
        <time>2010-06-13T10:11:31Z</time>
      </trkpt>
      <trkpt lat="45.97856" lon="4.67327">
        <ele>253.92541503906</ele>
        <time>2010-06-13T10:11:37Z</time>
      </trkpt>
      <trkpt lat="45.97872" lon="4.67351">
        <ele>250.08020019531</ele>
        <time>2010-06-13T10:11:40Z</time>
      </trkpt>
      <trkpt lat="45.97877" lon="4.67359">
        <ele>250.56079101562</ele>
        <time>2010-06-13T10:11:41Z</time>
      </trkpt>
      <trkpt lat="45.97898" lon="4.67392">
        <ele>248.15759277344</ele>
        <time>2010-06-13T10:11:45Z</time>
      </trkpt>
      <trkpt lat="45.97906" lon="4.6741">
        <ele>247.19604492188</ele>
        <time>2010-06-13T10:11:47Z</time>
      </trkpt>
      <trkpt lat="45.9791" lon="4.67427">
        <ele>245.75415039062</ele>
        <time>2010-06-13T10:11:49Z</time>
      </trkpt>
      <trkpt lat="45.97905" lon="4.6745">
        <ele>243.35083007812</ele>
        <time>2010-06-13T10:11:52Z</time>
      </trkpt>
      <trkpt lat="45.9789" lon="4.67477">
        <ele>241.90893554688</ele>
        <time>2010-06-13T10:11:56Z</time>
      </trkpt>
      <trkpt lat="45.97879" lon="4.67499">
        <ele>240.94763183594</ele>
        <time>2010-06-13T10:11:59Z</time>
      </trkpt>
      <trkpt lat="45.97877" lon="4.6753">
        <ele>238.06359863281</ele>
        <time>2010-06-13T10:12:03Z</time>
      </trkpt>
      <trkpt lat="45.9788" lon="4.67548">
        <ele>236.62170410156</ele>
        <time>2010-06-13T10:12:05Z</time>
      </trkpt>
      <trkpt lat="45.97884" lon="4.67567">
        <ele>234.69909667969</ele>
        <time>2010-06-13T10:12:07Z</time>
      </trkpt>
      <trkpt lat="45.9789" lon="4.67599">
        <ele>232.29577636719</ele>
        <time>2010-06-13T10:12:10Z</time>
      </trkpt>
      <trkpt lat="45.97895" lon="4.67623">
        <ele>228.93115234375</ele>
        <time>2010-06-13T10:12:12Z</time>
      </trkpt>
      <trkpt lat="45.979" lon="4.67642">
        <ele>227.00854492188</ele>
        <time>2010-06-13T10:12:14Z</time>
      </trkpt>
      <trkpt lat="45.97911" lon="4.67666">
        <ele>225.56652832031</ele>
        <time>2010-06-13T10:12:17Z</time>
      </trkpt>
      <trkpt lat="45.97927" lon="4.67688">
        <ele>225.0859375</ele>
        <time>2010-06-13T10:12:20Z</time>
      </trkpt>
      <trkpt lat="45.97949" lon="4.67701">
        <ele>226.04711914062</ele>
        <time>2010-06-13T10:12:23Z</time>
      </trkpt>
      <trkpt lat="45.9796" lon="4.67703">
        <ele>227.00854492188</ele>
        <time>2010-06-13T10:12:25Z</time>
      </trkpt>
      <trkpt lat="45.97971" lon="4.6771">
        <ele>228.93115234375</ele>
        <time>2010-06-13T10:12:28Z</time>
      </trkpt>
      <trkpt lat="45.97974" lon="4.67722">
        <ele>228.45043945312</ele>
        <time>2010-06-13T10:12:30Z</time>
      </trkpt>
      <trkpt lat="45.97979" lon="4.67756">
        <ele>226.04711914062</ele>
        <time>2010-06-13T10:12:34Z</time>
      </trkpt>
      <trkpt lat="45.97981" lon="4.67766">
        <ele>225.56652832031</ele>
        <time>2010-06-13T10:12:35Z</time>
      </trkpt>
      <trkpt lat="45.98003" lon="4.67815">
        <ele>224.12451171875</ele>
        <time>2010-06-13T10:12:40Z</time>
      </trkpt>
      <trkpt lat="45.98043" lon="4.67896">
        <ele>222.20178222656</ele>
        <time>2010-06-13T10:12:48Z</time>
      </trkpt>
      <trkpt lat="45.98067" lon="4.67938">
        <ele>221.72119140625</ele>
        <time>2010-06-13T10:12:53Z</time>
      </trkpt>
      <trkpt lat="45.98085" lon="4.67991">
        <ele>222.20178222656</ele>
        <time>2010-06-13T10:12:59Z</time>
      </trkpt>
      <trkpt lat="45.98097" lon="4.68037">
        <ele>220.75988769531</ele>
        <time>2010-06-13T10:13:04Z</time>
      </trkpt>
      <trkpt lat="45.981" lon="4.68053">
        <ele>218.83728027344</ele>
        <time>2010-06-13T10:13:06Z</time>
      </trkpt>
      <trkpt lat="45.98111" lon="4.68071">
        <ele>219.79858398438</ele>
        <time>2010-06-13T10:13:10Z</time>
      </trkpt>
      <trkpt lat="45.98121" lon="4.68077">
        <ele>220.75988769531</ele>
        <time>2010-06-13T10:13:13Z</time>
      </trkpt>
      <trkpt lat="45.98133" lon="4.68089">
        <ele>222.68249511719</ele>
        <time>2010-06-13T10:13:17Z</time>
      </trkpt>
      <trkpt lat="45.98143" lon="4.68106">
        <ele>225.0859375</ele>
        <time>2010-06-13T10:13:22Z</time>
      </trkpt>
      <trkpt lat="45.98153" lon="4.68125">
        <ele>226.52783203125</ele>
        <time>2010-06-13T10:13:29Z</time>
      </trkpt>
      <trkpt lat="45.98158" lon="4.68136">
        <ele>228.45043945312</ele>
        <time>2010-06-13T10:13:33Z</time>
      </trkpt>
      <trkpt lat="45.98168" lon="4.68157">
        <ele>230.85375976562</ele>
        <time>2010-06-13T10:13:41Z</time>
      </trkpt>
      <trkpt lat="45.98176" lon="4.68169">
        <ele>232.77648925781</ele>
        <time>2010-06-13T10:13:46Z</time>
      </trkpt>
      <trkpt lat="45.98189" lon="4.68177">
        <ele>234.69909667969</ele>
        <time>2010-06-13T10:13:53Z</time>
      </trkpt>
      <trkpt lat="45.98204" lon="4.68182">
        <ele>235.66027832031</ele>
        <time>2010-06-13T10:14:00Z</time>
      </trkpt>
      <trkpt lat="45.98218" lon="4.68182">
        <ele>236.62170410156</ele>
        <time>2010-06-13T10:14:07Z</time>
      </trkpt>
      <trkpt lat="45.98225" lon="4.68182">
        <ele>237.10229492188</ele>
        <time>2010-06-13T10:14:12Z</time>
      </trkpt>
      <trkpt lat="45.98243" lon="4.68183">
        <ele>237.10229492188</ele>
        <time>2010-06-13T10:14:19Z</time>
      </trkpt>
      <trkpt lat="45.98258" lon="4.68184">
        <ele>237.10229492188</ele>
        <time>2010-06-13T10:14:24Z</time>
      </trkpt>
      <trkpt lat="45.98267" lon="4.68163">
        <ele>237.58288574219</ele>
        <time>2010-06-13T10:14:29Z</time>
      </trkpt>
      <trkpt lat="45.98276" lon="4.68132">
        <ele>237.58288574219</ele>
        <time>2010-06-13T10:14:35Z</time>
      </trkpt>
      <trkpt lat="45.98288" lon="4.68081">
        <ele>237.10229492188</ele>
        <time>2010-06-13T10:14:43Z</time>
      </trkpt>
      <trkpt lat="45.98306" lon="4.6805">
        <ele>236.14099121094</ele>
        <time>2010-06-13T10:14:48Z</time>
      </trkpt>
      <trkpt lat="45.98325" lon="4.68038">
        <ele>235.1796875</ele>
        <time>2010-06-13T10:14:51Z</time>
      </trkpt>
      <trkpt lat="45.98357" lon="4.68037">
        <ele>229.89233398438</ele>
        <time>2010-06-13T10:14:55Z</time>
      </trkpt>
      <trkpt lat="45.98381" lon="4.6802">
        <ele>225.56652832031</ele>
        <time>2010-06-13T10:14:59Z</time>
      </trkpt>
      <trkpt lat="45.98391" lon="4.68004">
        <ele>223.64379882812</ele>
        <time>2010-06-13T10:15:01Z</time>
      </trkpt>
      <trkpt lat="45.98398" lon="4.67981">
        <ele>221.24060058594</ele>
        <time>2010-06-13T10:15:03Z</time>
      </trkpt>
      <trkpt lat="45.98414" lon="4.67974">
        <ele>220.27917480469</ele>
        <time>2010-06-13T10:15:05Z</time>
      </trkpt>
      <trkpt lat="45.98439" lon="4.67981">
        <ele>219.31799316406</ele>
        <time>2010-06-13T10:15:08Z</time>
      </trkpt>
      <trkpt lat="45.98454" lon="4.67991">
        <ele>218.83728027344</ele>
        <time>2010-06-13T10:15:10Z</time>
      </trkpt>
      <trkpt lat="45.98476" lon="4.68003">
        <ele>218.35656738281</ele>
        <time>2010-06-13T10:15:13Z</time>
      </trkpt>
      <trkpt lat="45.98512" lon="4.68012">
        <ele>219.31799316406</ele>
        <time>2010-06-13T10:15:19Z</time>
      </trkpt>
      <trkpt lat="45.98544" lon="4.68019">
        <ele>220.75988769531</ele>
        <time>2010-06-13T10:15:24Z</time>
      </trkpt>
      <trkpt lat="45.9857" lon="4.68031">
        <ele>219.79858398438</ele>
        <time>2010-06-13T10:15:29Z</time>
      </trkpt>
      <trkpt lat="45.98581" lon="4.68037">
        <ele>219.79858398438</ele>
        <time>2010-06-13T10:15:32Z</time>
      </trkpt>
      <trkpt lat="45.98581" lon="4.68053">
        <ele>219.31799316406</ele>
        <time>2010-06-13T10:15:36Z</time>
      </trkpt>
      <trkpt lat="45.98568" lon="4.6809">
        <ele>218.83728027344</ele>
        <time>2010-06-13T10:15:42Z</time>
      </trkpt>
      <trkpt lat="45.98565" lon="4.68097">
        <ele>218.35656738281</ele>
        <time>2010-06-13T10:15:43Z</time>
      </trkpt>
      <trkpt lat="45.98555" lon="4.68142">
        <ele>219.31799316406</ele>
        <time>2010-06-13T10:15:48Z</time>
      </trkpt>
      <trkpt lat="45.9855" lon="4.68192">
        <ele>217.39538574219</ele>
        <time>2010-06-13T10:15:53Z</time>
      </trkpt>
      <trkpt lat="45.98549" lon="4.68253">
        <ele>218.35656738281</ele>
        <time>2010-06-13T10:15:59Z</time>
      </trkpt>
      <trkpt lat="45.9854" lon="4.68305">
        <ele>216.91467285156</ele>
        <time>2010-06-13T10:16:04Z</time>
      </trkpt>
      <trkpt lat="45.98533" lon="4.68335">
        <ele>214.99194335938</ele>
        <time>2010-06-13T10:16:07Z</time>
      </trkpt>
      <trkpt lat="45.98523" lon="4.68415">
        <ele>214.99194335938</ele>
        <time>2010-06-13T10:16:14Z</time>
      </trkpt>
      <trkpt lat="45.9852" lon="4.68481">
        <ele>213.55004882812</ele>
        <time>2010-06-13T10:16:20Z</time>
      </trkpt>
      <trkpt lat="45.98527" lon="4.68558">
        <ele>213.55004882812</ele>
        <time>2010-06-13T10:16:27Z</time>
      </trkpt>
      <trkpt lat="45.98529" lon="4.6858">
        <ele>214.99194335938</ele>
        <time>2010-06-13T10:16:29Z</time>
      </trkpt>
      <trkpt lat="45.98537" lon="4.68659">
        <ele>213.55004882812</ele>
        <time>2010-06-13T10:16:36Z</time>
      </trkpt>
      <trkpt lat="45.9854" lon="4.68722">
        <ele>212.10803222656</ele>
        <time>2010-06-13T10:16:41Z</time>
      </trkpt>
      <trkpt lat="45.9853" lon="4.68796">
        <ele>213.0693359375</ele>
        <time>2010-06-13T10:16:47Z</time>
      </trkpt>
      <trkpt lat="45.98521" lon="4.68831">
        <ele>211.62744140625</ele>
        <time>2010-06-13T10:16:50Z</time>
      </trkpt>
      <trkpt lat="45.985" lon="4.68876">
        <ele>210.18542480469</ele>
        <time>2010-06-13T10:16:54Z</time>
      </trkpt>
      <trkpt lat="45.98471" lon="4.68931">
        <ele>209.70483398438</ele>
        <time>2010-06-13T10:16:59Z</time>
      </trkpt>
      <trkpt lat="45.98463" lon="4.6898">
        <ele>208.74340820312</ele>
        <time>2010-06-13T10:17:03Z</time>
      </trkpt>
      <trkpt lat="45.98468" lon="4.69005">
        <ele>208.74340820312</ele>
        <time>2010-06-13T10:17:05Z</time>
      </trkpt>
      <trkpt lat="45.9849" lon="4.69053">
        <ele>209.22412109375</ele>
        <time>2010-06-13T10:17:10Z</time>
      </trkpt>
      <trkpt lat="45.98514" lon="4.69081">
        <ele>210.18542480469</ele>
        <time>2010-06-13T10:17:15Z</time>
      </trkpt>
      <trkpt lat="45.98534" lon="4.69108">
        <ele>213.0693359375</ele>
        <time>2010-06-13T10:17:22Z</time>
      </trkpt>
      <trkpt lat="45.98552" lon="4.69133">
        <ele>214.51123046875</ele>
        <time>2010-06-13T10:17:30Z</time>
      </trkpt>
      <trkpt lat="45.98564" lon="4.69152">
        <ele>216.91467285156</ele>
        <time>2010-06-13T10:17:37Z</time>
      </trkpt>
      <trkpt lat="45.98576" lon="4.69172">
        <ele>218.83728027344</ele>
        <time>2010-06-13T10:17:45Z</time>
      </trkpt>
      <trkpt lat="45.98581" lon="4.69179">
        <ele>220.27917480469</ele>
        <time>2010-06-13T10:17:48Z</time>
      </trkpt>
      <trkpt lat="45.98592" lon="4.69198">
        <ele>222.20178222656</ele>
        <time>2010-06-13T10:17:56Z</time>
      </trkpt>
      <trkpt lat="45.98602" lon="4.69215">
        <ele>224.60522460938</ele>
        <time>2010-06-13T10:18:03Z</time>
      </trkpt>
      <trkpt lat="45.98611" lon="4.69231">
        <ele>225.56652832031</ele>
        <time>2010-06-13T10:18:10Z</time>
      </trkpt>
      <trkpt lat="45.98621" lon="4.69247">
        <ele>227.00854492188</ele>
        <time>2010-06-13T10:18:17Z</time>
      </trkpt>
      <trkpt lat="45.98633" lon="4.6927">
        <ele>229.41174316406</ele>
        <time>2010-06-13T10:18:25Z</time>
      </trkpt>
      <trkpt lat="45.98643" lon="4.69289">
        <ele>231.81494140625</ele>
        <time>2010-06-13T10:18:32Z</time>
      </trkpt>
      <trkpt lat="45.98658" lon="4.69315">
        <ele>234.69909667969</ele>
        <time>2010-06-13T10:18:42Z</time>
      </trkpt>
      <trkpt lat="45.98676" lon="4.69346">
        <ele>237.58288574219</ele>
        <time>2010-06-13T10:18:53Z</time>
      </trkpt>
      <trkpt lat="45.98684" lon="4.69361">
        <ele>239.50549316406</ele>
        <time>2010-06-13T10:18:58Z</time>
      </trkpt>
      <trkpt lat="45.987" lon="4.69389">
        <ele>240.94763183594</ele>
        <time>2010-06-13T10:19:07Z</time>
      </trkpt>
      <trkpt lat="45.98721" lon="4.69424">
        <ele>242.3896484375</ele>
        <time>2010-06-13T10:19:17Z</time>
      </trkpt>
      <trkpt lat="45.98741" lon="4.69457">
        <ele>243.35083007812</ele>
        <time>2010-06-13T10:19:26Z</time>
      </trkpt>
      <trkpt lat="45.98762" lon="4.69486">
        <ele>244.79284667969</ele>
        <time>2010-06-13T10:19:34Z</time>
      </trkpt>
      <trkpt lat="45.98772" lon="4.69503">
        <ele>244.79284667969</ele>
        <time>2010-06-13T10:19:38Z</time>
      </trkpt>
      <trkpt lat="45.98795" lon="4.69562">
        <ele>245.2734375</ele>
        <time>2010-06-13T10:19:48Z</time>
      </trkpt>
      <trkpt lat="45.98815" lon="4.69591">
        <ele>245.2734375</ele>
        <time>2010-06-13T10:19:54Z</time>
      </trkpt>
      <trkpt lat="45.98825" lon="4.69605">
        <ele>245.2734375</ele>
        <time>2010-06-13T10:19:57Z</time>
      </trkpt>
      <trkpt lat="45.98854" lon="4.6965">
        <ele>244.31225585938</ele>
        <time>2010-06-13T10:20:06Z</time>
      </trkpt>
      <trkpt lat="45.98883" lon="4.69691">
        <ele>242.3896484375</ele>
        <time>2010-06-13T10:20:13Z</time>
      </trkpt>
      <trkpt lat="45.989" lon="4.69716">
        <ele>240.46704101562</ele>
        <time>2010-06-13T10:20:18Z</time>
      </trkpt>
      <trkpt lat="45.98908" lon="4.69729">
        <ele>240.94763183594</ele>
        <time>2010-06-13T10:20:22Z</time>
      </trkpt>
      <trkpt lat="45.98933" lon="4.69769">
        <ele>240.94763183594</ele>
        <time>2010-06-13T10:20:28Z</time>
      </trkpt>
      <trkpt lat="45.98954" lon="4.69805">
        <ele>238.54431152344</ele>
        <time>2010-06-13T10:20:32Z</time>
      </trkpt>
      <trkpt lat="45.98989" lon="4.69863">
        <ele>236.62170410156</ele>
        <time>2010-06-13T10:20:38Z</time>
      </trkpt>
      <trkpt lat="45.9901" lon="4.6989">
        <ele>235.1796875</ele>
        <time>2010-06-13T10:20:41Z</time>
      </trkpt>
      <trkpt lat="45.99062" lon="4.6994">
        <ele>233.73767089844</ele>
        <time>2010-06-13T10:20:47Z</time>
      </trkpt>
      <trkpt lat="45.99087" lon="4.69963">
        <ele>232.29577636719</ele>
        <time>2010-06-13T10:20:50Z</time>
      </trkpt>
      <trkpt lat="45.99118" lon="4.69975">
        <ele>231.81494140625</ele>
        <time>2010-06-13T10:20:54Z</time>
      </trkpt>
      <trkpt lat="45.99133" lon="4.69977">
        <ele>231.33435058594</ele>
        <time>2010-06-13T10:20:56Z</time>
      </trkpt>
      <trkpt lat="45.99163" lon="4.69992">
        <ele>232.77648925781</ele>
        <time>2010-06-13T10:21:01Z</time>
      </trkpt>
      <trkpt lat="45.99175" lon="4.69999">
        <ele>230.85375976562</ele>
        <time>2010-06-13T10:21:03Z</time>
      </trkpt>
      <trkpt lat="45.99223" lon="4.7003">
        <ele>230.85375976562</ele>
        <time>2010-06-13T10:21:11Z</time>
      </trkpt>
      <trkpt lat="45.99291" lon="4.70056">
        <ele>231.33435058594</ele>
        <time>2010-06-13T10:21:22Z</time>
      </trkpt>
      <trkpt lat="45.99329" lon="4.70063">
        <ele>231.33435058594</ele>
        <time>2010-06-13T10:21:28Z</time>
      </trkpt>
      <trkpt lat="45.99335" lon="4.70063">
        <ele>231.33435058594</ele>
        <time>2010-06-13T10:21:29Z</time>
      </trkpt>
      <trkpt lat="45.99347" lon="4.70063">
        <ele>231.33435058594</ele>
        <time>2010-06-13T10:21:31Z</time>
      </trkpt>
      <trkpt lat="45.99393" lon="4.70069">
        <ele>231.33435058594</ele>
        <time>2010-06-13T10:21:37Z</time>
      </trkpt>
      <trkpt lat="45.9943" lon="4.70085">
        <ele>231.81494140625</ele>
        <time>2010-06-13T10:21:42Z</time>
      </trkpt>
      <trkpt lat="45.99465" lon="4.70111">
        <ele>229.89233398438</ele>
        <time>2010-06-13T10:21:47Z</time>
      </trkpt>
      <trkpt lat="45.99522" lon="4.70151">
        <ele>229.41174316406</ele>
        <time>2010-06-13T10:21:54Z</time>
      </trkpt>
      <trkpt lat="45.99562" lon="4.70169">
        <ele>227.00854492188</ele>
        <time>2010-06-13T10:21:59Z</time>
      </trkpt>
      <trkpt lat="45.99601" lon="4.70187">
        <ele>225.56652832031</ele>
        <time>2010-06-13T10:22:04Z</time>
      </trkpt>
      <trkpt lat="45.99622" lon="4.70187">
        <ele>223.16320800781</ele>
        <time>2010-06-13T10:22:07Z</time>
      </trkpt>
      <trkpt lat="45.99628" lon="4.70183">
        <ele>223.16320800781</ele>
        <time>2010-06-13T10:22:08Z</time>
      </trkpt>
      <trkpt lat="45.99666" lon="4.70161">
        <ele>225.0859375</ele>
        <time>2010-06-13T10:22:14Z</time>
      </trkpt>
      <trkpt lat="45.99715" lon="4.70153">
        <ele>225.0859375</ele>
        <time>2010-06-13T10:22:21Z</time>
      </trkpt>
      <trkpt lat="45.99747" lon="4.70153">
        <ele>223.64379882812</ele>
        <time>2010-06-13T10:22:25Z</time>
      </trkpt>
      <trkpt lat="45.99763" lon="4.70154">
        <ele>222.20178222656</ele>
        <time>2010-06-13T10:22:27Z</time>
      </trkpt>
      <trkpt lat="45.99813" lon="4.70157">
        <ele>219.31799316406</ele>
        <time>2010-06-13T10:22:33Z</time>
      </trkpt>
      <trkpt lat="45.99822" lon="4.70157">
        <ele>219.79858398438</ele>
        <time>2010-06-13T10:22:34Z</time>
      </trkpt>
      <trkpt lat="45.99831" lon="4.70156">
        <ele>220.75988769531</ele>
        <time>2010-06-13T10:22:35Z</time>
      </trkpt>
      <trkpt lat="45.99866" lon="4.70165">
        <ele>215.95324707031</ele>
        <time>2010-06-13T10:22:39Z</time>
      </trkpt>
      <trkpt lat="45.99875" lon="4.70168">
        <ele>214.51123046875</ele>
        <time>2010-06-13T10:22:40Z</time>
      </trkpt>
      <trkpt lat="45.99906" lon="4.70179">
        <ele>212.10803222656</ele>
        <time>2010-06-13T10:22:44Z</time>
      </trkpt>
      <trkpt lat="45.99942" lon="4.70193">
        <ele>209.70483398438</ele>
        <time>2010-06-13T10:22:49Z</time>
      </trkpt>
      <trkpt lat="45.99948" lon="4.70196">
        <ele>210.666015625</ele>
        <time>2010-06-13T10:22:50Z</time>
      </trkpt>
      <trkpt lat="45.99965" lon="4.70221">
        <ele>209.22412109375</ele>
        <time>2010-06-13T10:22:54Z</time>
      </trkpt>
      <trkpt lat="45.99966" lon="4.7023">
        <ele>209.22412109375</ele>
        <time>2010-06-13T10:22:55Z</time>
      </trkpt>
      <trkpt lat="45.99969" lon="4.70265">
        <ele>208.74340820312</ele>
        <time>2010-06-13T10:22:59Z</time>
      </trkpt>
      <trkpt lat="45.99974" lon="4.7031">
        <ele>209.70483398438</ele>
        <time>2010-06-13T10:23:05Z</time>
      </trkpt>
      <trkpt lat="45.99974" lon="4.70317">
        <ele>209.22412109375</ele>
        <time>2010-06-13T10:23:06Z</time>
      </trkpt>
      <trkpt lat="45.99985" lon="4.70334">
        <ele>207.78210449219</ele>
        <time>2010-06-13T10:23:10Z</time>
      </trkpt>
      <trkpt lat="45.99989" lon="4.70334">
        <ele>207.78210449219</ele>
        <time>2010-06-13T10:23:11Z</time>
      </trkpt>
      <trkpt lat="45.99993" lon="4.70334">
        <ele>208.26281738281</ele>
        <time>2010-06-13T10:23:12Z</time>
      </trkpt>
      <trkpt lat="46.00013" lon="4.70335">
        <ele>207.78210449219</ele>
        <time>2010-06-13T10:23:17Z</time>
      </trkpt>
      <trkpt lat="46.00033" lon="4.70344">
        <ele>208.26281738281</ele>
        <time>2010-06-13T10:23:23Z</time>
      </trkpt>
      <trkpt lat="46.00037" lon="4.70346">
        <ele>208.26281738281</ele>
        <time>2010-06-13T10:23:24Z</time>
      </trkpt>
      <trkpt lat="46.00053" lon="4.70363">
        <ele>207.78210449219</ele>
        <time>2010-06-13T10:23:29Z</time>
      </trkpt>
      <trkpt lat="46.00064" lon="4.70424">
        <ele>207.78210449219</ele>
        <time>2010-06-13T10:23:36Z</time>
      </trkpt>
      <trkpt lat="46.00076" lon="4.70488">
        <ele>207.30139160156</ele>
        <time>2010-06-13T10:23:43Z</time>
      </trkpt>
      <trkpt lat="46.00082" lon="4.70504">
        <ele>208.26281738281</ele>
        <time>2010-06-13T10:23:45Z</time>
      </trkpt>
      <trkpt lat="46.00102" lon="4.70522">
        <ele>207.30139160156</ele>
        <time>2010-06-13T10:23:49Z</time>
      </trkpt>
      <trkpt lat="46.00114" lon="4.70524">
        <ele>207.30139160156</ele>
        <time>2010-06-13T10:23:51Z</time>
      </trkpt>
      <trkpt lat="46.00132" lon="4.70536">
        <ele>206.82067871094</ele>
        <time>2010-06-13T10:23:55Z</time>
      </trkpt>
      <trkpt lat="46.0013" lon="4.70558">
        <ele>207.30139160156</ele>
        <time>2010-06-13T10:23:58Z</time>
      </trkpt>
      <trkpt lat="46.00116" lon="4.70573">
        <ele>207.30139160156</ele>
        <time>2010-06-13T10:24:01Z</time>
      </trkpt>
      <trkpt lat="46.001" lon="4.70585">
        <ele>207.78210449219</ele>
        <time>2010-06-13T10:24:04Z</time>
      </trkpt>
      <trkpt lat="46.00092" lon="4.70607">
        <ele>207.30139160156</ele>
        <time>2010-06-13T10:24:07Z</time>
      </trkpt>
      <trkpt lat="46.00094" lon="4.70616">
        <ele>207.78210449219</ele>
        <time>2010-06-13T10:24:08Z</time>
      </trkpt>
      <trkpt lat="46.00111" lon="4.70695">
        <ele>206.34008789062</ele>
        <time>2010-06-13T10:24:16Z</time>
      </trkpt>
      <trkpt lat="46.00125" lon="4.70752">
        <ele>206.34008789062</ele>
        <time>2010-06-13T10:24:22Z</time>
      </trkpt>
      <trkpt lat="46.00138" lon="4.70804">
        <ele>205.85949707031</ele>
        <time>2010-06-13T10:24:28Z</time>
      </trkpt>
      <trkpt lat="46.00155" lon="4.70887">
        <ele>205.85949707031</ele>
        <time>2010-06-13T10:24:38Z</time>
      </trkpt>
      <trkpt lat="46.00155" lon="4.70966">
        <ele>206.82067871094</ele>
        <time>2010-06-13T10:24:47Z</time>
      </trkpt>
      <trkpt lat="46.00156" lon="4.71032">
        <ele>207.30139160156</ele>
        <time>2010-06-13T10:24:55Z</time>
      </trkpt>
      <trkpt lat="46.00158" lon="4.71049">
        <ele>206.82067871094</ele>
        <time>2010-06-13T10:24:57Z</time>
      </trkpt>
      <trkpt lat="46.00156" lon="4.71069">
        <ele>206.34008789062</ele>
        <time>2010-06-13T10:25:01Z</time>
      </trkpt>
      <trkpt lat="46.00152" lon="4.71069">
        <ele>205.85949707031</ele>
        <time>2010-06-13T10:25:02Z</time>
      </trkpt>
      <trkpt lat="46.00111" lon="4.71073">
        <ele>203.45617675781</ele>
        <time>2010-06-13T10:25:10Z</time>
      </trkpt>
      <trkpt lat="46.00105" lon="4.71075">
        <ele>202.49487304688</ele>
        <time>2010-06-13T10:25:12Z</time>
      </trkpt>
      <trkpt lat="46.00107" lon="4.71086">
        <ele>202.01428222656</ele>
        <time>2010-06-13T10:25:15Z</time>
      </trkpt>
      <trkpt lat="46.00108" lon="4.71104">
        <ele>201.53356933594</ele>
        <time>2010-06-13T10:25:18Z</time>
      </trkpt>
      <trkpt lat="46.00109" lon="4.71122">
        <ele>201.53356933594</ele>
        <time>2010-06-13T10:25:21Z</time>
      </trkpt>
      <trkpt lat="46.00104" lon="4.71146">
        <ele>202.01428222656</ele>
        <time>2010-06-13T10:25:25Z</time>
      </trkpt>
      <trkpt lat="46.00095" lon="4.71154">
        <ele>201.53356933594</ele>
        <time>2010-06-13T10:25:27Z</time>
      </trkpt>
      <trkpt lat="46.0007" lon="4.71167">
        <ele>202.01428222656</ele>
        <time>2010-06-13T10:25:32Z</time>
      </trkpt>
      <trkpt lat="46.0005" lon="4.71164">
        <ele>201.53356933594</ele>
        <time>2010-06-13T10:25:36Z</time>
      </trkpt>
      <trkpt lat="46.00026" lon="4.71148">
        <ele>201.53356933594</ele>
        <time>2010-06-13T10:25:42Z</time>
      </trkpt>
      <trkpt lat="46.00011" lon="4.71145">
        <ele>202.49487304688</ele>
        <time>2010-06-13T10:25:47Z</time>
      </trkpt>
      <trkpt lat="45.99994" lon="4.71148">
        <ele>202.49487304688</ele>
        <time>2010-06-13T10:25:53Z</time>
      </trkpt>
      <trkpt lat="45.9999" lon="4.71147">
        <ele>202.49487304688</ele>
        <time>2010-06-13T10:25:55Z</time>
      </trkpt>
      <trkpt lat="45.99986" lon="4.71141">
        <ele>202.49487304688</ele>
        <time>2010-06-13T10:25:58Z</time>
      </trkpt>
      <trkpt lat="45.99985" lon="4.71119">
        <ele>202.49487304688</ele>
        <time>2010-06-13T10:26:06Z</time>
      </trkpt>
      <trkpt lat="45.99987" lon="4.71114">
        <ele>202.97546386719</ele>
        <time>2010-06-13T10:26:08Z</time>
      </trkpt>
      <trkpt lat="45.99989" lon="4.71114">
        <ele>202.49487304688</ele>
        <time>2010-06-13T10:26:14Z</time>
      </trkpt>
      <trkpt lat="45.99989" lon="4.71113">
        <ele>202.49487304688</ele>
        <time>2010-06-13T10:26:18Z</time>
      </trkpt>
    </trkseg>
  </trk>
</gpx>